<?xml version="1.0" encoding="UTF-8" standalone="no" ?>
<gpx xmlns="http://www.topografix.com/GPX/1/1" xmlns:xsi="http://www.w3.org/2001/XMLSchema-instance" xsi:schemaLocation="http://www.topografix.com/GPX/1/1 http://www.topografix.com/GPX/1/1/gpx.xsd" version="1.1" creator="VisuGPX - https://www.visugpx.com">
  <metadata>
    <name>Sentier des ours 2015</name>
    <desc><![CDATA[Autrans organise samedi 15 août le sentier des ours]]></desc>
  </metadata>
  <trk>
    <name><![CDATA[06/11/2015 Autrans, Rhône-Alpes, France]]></name>
    <trkseg>
      <trkpt lat="45.17346" lon="5.54462">
        <ele>1043.8</ele>
        <time>2015-06-11T15:07:25Z</time>
      </trkpt>
      <trkpt lat="45.17346" lon="5.54465">
        <ele>1043.9</ele>
        <time>2015-06-11T15:07:26Z</time>
      </trkpt>
      <trkpt lat="45.17346" lon="5.54468">
        <ele>1044</ele>
        <time>2015-06-11T15:07:27Z</time>
      </trkpt>
      <trkpt lat="45.17347" lon="5.5447">
        <ele>1044</ele>
        <time>2015-06-11T15:07:28Z</time>
      </trkpt>
      <trkpt lat="45.17348" lon="5.54473">
        <ele>1044.1</ele>
        <time>2015-06-11T15:07:29Z</time>
      </trkpt>
      <trkpt lat="45.1735" lon="5.54475">
        <ele>1044</ele>
        <time>2015-06-11T15:07:30Z</time>
      </trkpt>
      <trkpt lat="45.17351" lon="5.54477">
        <ele>1044.1</ele>
        <time>2015-06-11T15:07:31Z</time>
      </trkpt>
      <trkpt lat="45.17353" lon="5.5448">
        <ele>1044.1</ele>
        <time>2015-06-11T15:07:32Z</time>
      </trkpt>
      <trkpt lat="45.17354" lon="5.54483">
        <ele>1044.1</ele>
        <time>2015-06-11T15:07:33Z</time>
      </trkpt>
      <trkpt lat="45.17356" lon="5.54487">
        <ele>1044.1</ele>
        <time>2015-06-11T15:07:34Z</time>
      </trkpt>
      <trkpt lat="45.17358" lon="5.5449">
        <ele>1044.1</ele>
        <time>2015-06-11T15:07:35Z</time>
      </trkpt>
      <trkpt lat="45.1736" lon="5.54492">
        <ele>1044</ele>
        <time>2015-06-11T15:07:36Z</time>
      </trkpt>
      <trkpt lat="45.17362" lon="5.54493">
        <ele>1044</ele>
        <time>2015-06-11T15:07:37Z</time>
      </trkpt>
      <trkpt lat="45.17365" lon="5.54493">
        <ele>1043.9</ele>
        <time>2015-06-11T15:07:38Z</time>
      </trkpt>
      <trkpt lat="45.17367" lon="5.54493">
        <ele>1043.8</ele>
        <time>2015-06-11T15:07:39Z</time>
      </trkpt>
      <trkpt lat="45.1737" lon="5.54494">
        <ele>1043.7</ele>
        <time>2015-06-11T15:07:40Z</time>
      </trkpt>
      <trkpt lat="45.17372" lon="5.54495">
        <ele>1043.6</ele>
        <time>2015-06-11T15:07:41Z</time>
      </trkpt>
      <trkpt lat="45.17375" lon="5.54497">
        <ele>1043.5</ele>
        <time>2015-06-11T15:07:42Z</time>
      </trkpt>
      <trkpt lat="45.17377" lon="5.54498">
        <ele>1043.5</ele>
        <time>2015-06-11T15:07:43Z</time>
      </trkpt>
      <trkpt lat="45.17379" lon="5.54501">
        <ele>1043.6</ele>
        <time>2015-06-11T15:07:44Z</time>
      </trkpt>
      <trkpt lat="45.17381" lon="5.54503">
        <ele>1043.6</ele>
        <time>2015-06-11T15:07:45Z</time>
      </trkpt>
      <trkpt lat="45.17383" lon="5.54505">
        <ele>1043.7</ele>
        <time>2015-06-11T15:07:46Z</time>
      </trkpt>
      <trkpt lat="45.17385" lon="5.54507">
        <ele>1043.8</ele>
        <time>2015-06-11T15:07:47Z</time>
      </trkpt>
      <trkpt lat="45.17387" lon="5.54509">
        <ele>1043.8</ele>
        <time>2015-06-11T15:07:48Z</time>
      </trkpt>
      <trkpt lat="45.17389" lon="5.54511">
        <ele>1043.9</ele>
        <time>2015-06-11T15:07:49Z</time>
      </trkpt>
      <trkpt lat="45.17391" lon="5.54513">
        <ele>1044</ele>
        <time>2015-06-11T15:07:50Z</time>
      </trkpt>
      <trkpt lat="45.17393" lon="5.54514">
        <ele>1044</ele>
        <time>2015-06-11T15:07:51Z</time>
      </trkpt>
      <trkpt lat="45.17395" lon="5.54517">
        <ele>1044.1</ele>
        <time>2015-06-11T15:07:52Z</time>
      </trkpt>
      <trkpt lat="45.17397" lon="5.54519">
        <ele>1044.2</ele>
        <time>2015-06-11T15:07:53Z</time>
      </trkpt>
      <trkpt lat="45.17398" lon="5.54521">
        <ele>1044.2</ele>
        <time>2015-06-11T15:07:54Z</time>
      </trkpt>
      <trkpt lat="45.174" lon="5.54523">
        <ele>1044.3</ele>
        <time>2015-06-11T15:07:55Z</time>
      </trkpt>
      <trkpt lat="45.17402" lon="5.54526">
        <ele>1044.4</ele>
        <time>2015-06-11T15:07:56Z</time>
      </trkpt>
      <trkpt lat="45.17403" lon="5.54528">
        <ele>1044.5</ele>
        <time>2015-06-11T15:07:57Z</time>
      </trkpt>
      <trkpt lat="45.17405" lon="5.5453">
        <ele>1044.5</ele>
        <time>2015-06-11T15:07:58Z</time>
      </trkpt>
      <trkpt lat="45.17407" lon="5.54533">
        <ele>1044.6</ele>
        <time>2015-06-11T15:07:59Z</time>
      </trkpt>
      <trkpt lat="45.17408" lon="5.54535">
        <ele>1044.7</ele>
        <time>2015-06-11T15:08:00Z</time>
      </trkpt>
      <trkpt lat="45.1741" lon="5.54538">
        <ele>1044.8</ele>
        <time>2015-06-11T15:08:01Z</time>
      </trkpt>
      <trkpt lat="45.17412" lon="5.5454">
        <ele>1044.9</ele>
        <time>2015-06-11T15:08:02Z</time>
      </trkpt>
      <trkpt lat="45.17414" lon="5.54542">
        <ele>1045</ele>
        <time>2015-06-11T15:08:03Z</time>
      </trkpt>
      <trkpt lat="45.17416" lon="5.54544">
        <ele>1045</ele>
        <time>2015-06-11T15:08:04Z</time>
      </trkpt>
      <trkpt lat="45.17417" lon="5.54547">
        <ele>1045.1</ele>
        <time>2015-06-11T15:08:05Z</time>
      </trkpt>
      <trkpt lat="45.17419" lon="5.54549">
        <ele>1045.2</ele>
        <time>2015-06-11T15:08:06Z</time>
      </trkpt>
      <trkpt lat="45.17421" lon="5.54552">
        <ele>1045.3</ele>
        <time>2015-06-11T15:08:07Z</time>
      </trkpt>
      <trkpt lat="45.17422" lon="5.54554">
        <ele>1045.4</ele>
        <time>2015-06-11T15:08:08Z</time>
      </trkpt>
      <trkpt lat="45.17423" lon="5.54557">
        <ele>1045.5</ele>
        <time>2015-06-11T15:08:09Z</time>
      </trkpt>
      <trkpt lat="45.17425" lon="5.54559">
        <ele>1045.6</ele>
        <time>2015-06-11T15:08:10Z</time>
      </trkpt>
      <trkpt lat="45.17427" lon="5.5456">
        <ele>1045.7</ele>
        <time>2015-06-11T15:08:11Z</time>
      </trkpt>
      <trkpt lat="45.17428" lon="5.54562">
        <ele>1045.8</ele>
        <time>2015-06-11T15:08:12Z</time>
      </trkpt>
      <trkpt lat="45.1743" lon="5.54565">
        <ele>1045.9</ele>
        <time>2015-06-11T15:08:13Z</time>
      </trkpt>
      <trkpt lat="45.17431" lon="5.54567">
        <ele>1046</ele>
        <time>2015-06-11T15:08:14Z</time>
      </trkpt>
      <trkpt lat="45.17433" lon="5.54569">
        <ele>1046</ele>
        <time>2015-06-11T15:08:15Z</time>
      </trkpt>
      <trkpt lat="45.17434" lon="5.54571">
        <ele>1046.1</ele>
        <time>2015-06-11T15:08:16Z</time>
      </trkpt>
      <trkpt lat="45.17436" lon="5.54574">
        <ele>1046.2</ele>
        <time>2015-06-11T15:08:17Z</time>
      </trkpt>
      <trkpt lat="45.17437" lon="5.54576">
        <ele>1046.3</ele>
        <time>2015-06-11T15:08:18Z</time>
      </trkpt>
      <trkpt lat="45.17439" lon="5.54578">
        <ele>1046.4</ele>
        <time>2015-06-11T15:08:19Z</time>
      </trkpt>
      <trkpt lat="45.17441" lon="5.5458">
        <ele>1046.5</ele>
        <time>2015-06-11T15:08:20Z</time>
      </trkpt>
      <trkpt lat="45.17443" lon="5.54583">
        <ele>1046.6</ele>
        <time>2015-06-11T15:08:21Z</time>
      </trkpt>
      <trkpt lat="45.17444" lon="5.54585">
        <ele>1046.7</ele>
        <time>2015-06-11T15:08:22Z</time>
      </trkpt>
      <trkpt lat="45.17446" lon="5.54587">
        <ele>1046.8</ele>
        <time>2015-06-11T15:08:23Z</time>
      </trkpt>
      <trkpt lat="45.17448" lon="5.54589">
        <ele>1046.9</ele>
        <time>2015-06-11T15:08:24Z</time>
      </trkpt>
      <trkpt lat="45.1745" lon="5.54592">
        <ele>1047</ele>
        <time>2015-06-11T15:08:25Z</time>
      </trkpt>
      <trkpt lat="45.17452" lon="5.54594">
        <ele>1047.1</ele>
        <time>2015-06-11T15:08:26Z</time>
      </trkpt>
      <trkpt lat="45.17453" lon="5.54596">
        <ele>1047.2</ele>
        <time>2015-06-11T15:08:27Z</time>
      </trkpt>
      <trkpt lat="45.17455" lon="5.54599">
        <ele>1047.3</ele>
        <time>2015-06-11T15:08:28Z</time>
      </trkpt>
      <trkpt lat="45.17457" lon="5.54601">
        <ele>1047.4</ele>
        <time>2015-06-11T15:08:29Z</time>
      </trkpt>
      <trkpt lat="45.17458" lon="5.54603">
        <ele>1047.5</ele>
        <time>2015-06-11T15:08:30Z</time>
      </trkpt>
      <trkpt lat="45.1746" lon="5.54605">
        <ele>1047.5</ele>
        <time>2015-06-11T15:08:31Z</time>
      </trkpt>
      <trkpt lat="45.17461" lon="5.54607">
        <ele>1047.5</ele>
        <time>2015-06-11T15:08:32Z</time>
      </trkpt>
      <trkpt lat="45.17463" lon="5.5461">
        <ele>1047.6</ele>
        <time>2015-06-11T15:08:33Z</time>
      </trkpt>
      <trkpt lat="45.17465" lon="5.54612">
        <ele>1047.6</ele>
        <time>2015-06-11T15:08:34Z</time>
      </trkpt>
      <trkpt lat="45.17466" lon="5.54614">
        <ele>1047.6</ele>
        <time>2015-06-11T15:08:35Z</time>
      </trkpt>
      <trkpt lat="45.17468" lon="5.54617">
        <ele>1047.6</ele>
        <time>2015-06-11T15:08:36Z</time>
      </trkpt>
      <trkpt lat="45.1747" lon="5.54619">
        <ele>1047.7</ele>
        <time>2015-06-11T15:08:37Z</time>
      </trkpt>
      <trkpt lat="45.17472" lon="5.54621">
        <ele>1047.7</ele>
        <time>2015-06-11T15:08:38Z</time>
      </trkpt>
      <trkpt lat="45.17474" lon="5.54623">
        <ele>1047.7</ele>
        <time>2015-06-11T15:08:39Z</time>
      </trkpt>
      <trkpt lat="45.17476" lon="5.54625">
        <ele>1047.8</ele>
        <time>2015-06-11T15:08:40Z</time>
      </trkpt>
      <trkpt lat="45.17477" lon="5.54627">
        <ele>1047.8</ele>
        <time>2015-06-11T15:08:41Z</time>
      </trkpt>
      <trkpt lat="45.17479" lon="5.54629">
        <ele>1047.8</ele>
        <time>2015-06-11T15:08:42Z</time>
      </trkpt>
      <trkpt lat="45.17481" lon="5.54632">
        <ele>1047.8</ele>
        <time>2015-06-11T15:08:43Z</time>
      </trkpt>
      <trkpt lat="45.17482" lon="5.54634">
        <ele>1047.8</ele>
        <time>2015-06-11T15:08:44Z</time>
      </trkpt>
      <trkpt lat="45.17484" lon="5.54636">
        <ele>1047.8</ele>
        <time>2015-06-11T15:08:45Z</time>
      </trkpt>
      <trkpt lat="45.17485" lon="5.54638">
        <ele>1047.8</ele>
        <time>2015-06-11T15:08:46Z</time>
      </trkpt>
      <trkpt lat="45.17487" lon="5.5464">
        <ele>1047.8</ele>
        <time>2015-06-11T15:08:47Z</time>
      </trkpt>
      <trkpt lat="45.17489" lon="5.54642">
        <ele>1047.8</ele>
        <time>2015-06-11T15:08:48Z</time>
      </trkpt>
      <trkpt lat="45.17491" lon="5.54644">
        <ele>1047.8</ele>
        <time>2015-06-11T15:08:49Z</time>
      </trkpt>
      <trkpt lat="45.17493" lon="5.54647">
        <ele>1047.8</ele>
        <time>2015-06-11T15:08:50Z</time>
      </trkpt>
      <trkpt lat="45.17494" lon="5.54649">
        <ele>1047.8</ele>
        <time>2015-06-11T15:08:51Z</time>
      </trkpt>
      <trkpt lat="45.17495" lon="5.54651">
        <ele>1047.8</ele>
        <time>2015-06-11T15:08:52Z</time>
      </trkpt>
      <trkpt lat="45.17497" lon="5.54653">
        <ele>1047.8</ele>
        <time>2015-06-11T15:08:53Z</time>
      </trkpt>
      <trkpt lat="45.17499" lon="5.54655">
        <ele>1047.9</ele>
        <time>2015-06-11T15:08:54Z</time>
      </trkpt>
      <trkpt lat="45.17501" lon="5.54657">
        <ele>1047.9</ele>
        <time>2015-06-11T15:08:55Z</time>
      </trkpt>
      <trkpt lat="45.17502" lon="5.54659">
        <ele>1047.9</ele>
        <time>2015-06-11T15:08:56Z</time>
      </trkpt>
      <trkpt lat="45.17504" lon="5.54661">
        <ele>1047.9</ele>
        <time>2015-06-11T15:08:57Z</time>
      </trkpt>
      <trkpt lat="45.17506" lon="5.54663">
        <ele>1048</ele>
        <time>2015-06-11T15:08:58Z</time>
      </trkpt>
      <trkpt lat="45.17507" lon="5.54666">
        <ele>1048</ele>
        <time>2015-06-11T15:08:59Z</time>
      </trkpt>
      <trkpt lat="45.17509" lon="5.54668">
        <ele>1048</ele>
        <time>2015-06-11T15:09:00Z</time>
      </trkpt>
      <trkpt lat="45.1751" lon="5.5467">
        <ele>1048</ele>
        <time>2015-06-11T15:09:01Z</time>
      </trkpt>
      <trkpt lat="45.1751" lon="5.54673">
        <ele>1048.1</ele>
        <time>2015-06-11T15:09:02Z</time>
      </trkpt>
      <trkpt lat="45.1751" lon="5.54676">
        <ele>1048.1</ele>
        <time>2015-06-11T15:09:03Z</time>
      </trkpt>
      <trkpt lat="45.17511" lon="5.54679">
        <ele>1048.2</ele>
        <time>2015-06-11T15:09:04Z</time>
      </trkpt>
      <trkpt lat="45.17512" lon="5.54683">
        <ele>1048.2</ele>
        <time>2015-06-11T15:09:05Z</time>
      </trkpt>
      <trkpt lat="45.17513" lon="5.54686">
        <ele>1048.3</ele>
        <time>2015-06-11T15:09:06Z</time>
      </trkpt>
      <trkpt lat="45.17514" lon="5.54689">
        <ele>1048.4</ele>
        <time>2015-06-11T15:09:07Z</time>
      </trkpt>
      <trkpt lat="45.17515" lon="5.54692">
        <ele>1048.4</ele>
        <time>2015-06-11T15:09:08Z</time>
      </trkpt>
      <trkpt lat="45.17516" lon="5.54695">
        <ele>1048.5</ele>
        <time>2015-06-11T15:09:09Z</time>
      </trkpt>
      <trkpt lat="45.17517" lon="5.54698">
        <ele>1048.5</ele>
        <time>2015-06-11T15:09:10Z</time>
      </trkpt>
      <trkpt lat="45.17518" lon="5.54702">
        <ele>1048.6</ele>
        <time>2015-06-11T15:09:11Z</time>
      </trkpt>
      <trkpt lat="45.17518" lon="5.54705">
        <ele>1048.7</ele>
        <time>2015-06-11T15:09:12Z</time>
      </trkpt>
      <trkpt lat="45.17519" lon="5.54708">
        <ele>1048.7</ele>
        <time>2015-06-11T15:09:13Z</time>
      </trkpt>
      <trkpt lat="45.17519" lon="5.54711">
        <ele>1048.8</ele>
        <time>2015-06-11T15:09:14Z</time>
      </trkpt>
      <trkpt lat="45.17519" lon="5.54714">
        <ele>1048.9</ele>
        <time>2015-06-11T15:09:15Z</time>
      </trkpt>
      <trkpt lat="45.17519" lon="5.54718">
        <ele>1049</ele>
        <time>2015-06-11T15:09:16Z</time>
      </trkpt>
      <trkpt lat="45.17519" lon="5.54721">
        <ele>1049.1</ele>
        <time>2015-06-11T15:09:17Z</time>
      </trkpt>
      <trkpt lat="45.17519" lon="5.54725">
        <ele>1049.2</ele>
        <time>2015-06-11T15:09:18Z</time>
      </trkpt>
      <trkpt lat="45.17519" lon="5.54729">
        <ele>1049.3</ele>
        <time>2015-06-11T15:09:19Z</time>
      </trkpt>
      <trkpt lat="45.17518" lon="5.54732">
        <ele>1049.4</ele>
        <time>2015-06-11T15:09:20Z</time>
      </trkpt>
      <trkpt lat="45.17518" lon="5.54735">
        <ele>1049.5</ele>
        <time>2015-06-11T15:09:21Z</time>
      </trkpt>
      <trkpt lat="45.17518" lon="5.54739">
        <ele>1049.5</ele>
        <time>2015-06-11T15:09:22Z</time>
      </trkpt>
      <trkpt lat="45.17518" lon="5.54743">
        <ele>1049.7</ele>
        <time>2015-06-11T15:09:23Z</time>
      </trkpt>
      <trkpt lat="45.17517" lon="5.54746">
        <ele>1049.7</ele>
        <time>2015-06-11T15:09:24Z</time>
      </trkpt>
      <trkpt lat="45.17517" lon="5.54749">
        <ele>1049.8</ele>
        <time>2015-06-11T15:09:25Z</time>
      </trkpt>
      <trkpt lat="45.17516" lon="5.54752">
        <ele>1049.9</ele>
        <time>2015-06-11T15:09:26Z</time>
      </trkpt>
      <trkpt lat="45.17516" lon="5.54756">
        <ele>1050</ele>
        <time>2015-06-11T15:09:27Z</time>
      </trkpt>
      <trkpt lat="45.17516" lon="5.54759">
        <ele>1050.1</ele>
        <time>2015-06-11T15:09:28Z</time>
      </trkpt>
      <trkpt lat="45.17516" lon="5.54763">
        <ele>1050.2</ele>
        <time>2015-06-11T15:09:29Z</time>
      </trkpt>
      <trkpt lat="45.17516" lon="5.54766">
        <ele>1050.3</ele>
        <time>2015-06-11T15:09:30Z</time>
      </trkpt>
      <trkpt lat="45.17515" lon="5.5477">
        <ele>1050.4</ele>
        <time>2015-06-11T15:09:31Z</time>
      </trkpt>
      <trkpt lat="45.17515" lon="5.54773">
        <ele>1050.5</ele>
        <time>2015-06-11T15:09:32Z</time>
      </trkpt>
      <trkpt lat="45.17515" lon="5.54777">
        <ele>1050.6</ele>
        <time>2015-06-11T15:09:33Z</time>
      </trkpt>
      <trkpt lat="45.17515" lon="5.5478">
        <ele>1050.7</ele>
        <time>2015-06-11T15:09:34Z</time>
      </trkpt>
      <trkpt lat="45.17515" lon="5.54783">
        <ele>1050.8</ele>
        <time>2015-06-11T15:09:35Z</time>
      </trkpt>
      <trkpt lat="45.17515" lon="5.54787">
        <ele>1050.9</ele>
        <time>2015-06-11T15:09:36Z</time>
      </trkpt>
      <trkpt lat="45.17514" lon="5.5479">
        <ele>1051</ele>
        <time>2015-06-11T15:09:37Z</time>
      </trkpt>
      <trkpt lat="45.17514" lon="5.54794">
        <ele>1051.1</ele>
        <time>2015-06-11T15:09:38Z</time>
      </trkpt>
      <trkpt lat="45.17514" lon="5.54797">
        <ele>1051.3</ele>
        <time>2015-06-11T15:09:39Z</time>
      </trkpt>
      <trkpt lat="45.17514" lon="5.54801">
        <ele>1051.4</ele>
        <time>2015-06-11T15:09:40Z</time>
      </trkpt>
      <trkpt lat="45.17514" lon="5.54804">
        <ele>1051.5</ele>
        <time>2015-06-11T15:09:41Z</time>
      </trkpt>
      <trkpt lat="45.17513" lon="5.54807">
        <ele>1051.7</ele>
        <time>2015-06-11T15:09:42Z</time>
      </trkpt>
      <trkpt lat="45.17513" lon="5.5481">
        <ele>1051.8</ele>
        <time>2015-06-11T15:09:43Z</time>
      </trkpt>
      <trkpt lat="45.17513" lon="5.54814">
        <ele>1052</ele>
        <time>2015-06-11T15:09:44Z</time>
      </trkpt>
      <trkpt lat="45.17513" lon="5.54817">
        <ele>1052.1</ele>
        <time>2015-06-11T15:09:45Z</time>
      </trkpt>
      <trkpt lat="45.17512" lon="5.5482">
        <ele>1052.3</ele>
        <time>2015-06-11T15:09:46Z</time>
      </trkpt>
      <trkpt lat="45.17512" lon="5.54823">
        <ele>1052.4</ele>
        <time>2015-06-11T15:09:47Z</time>
      </trkpt>
      <trkpt lat="45.17511" lon="5.54827">
        <ele>1052.6</ele>
        <time>2015-06-11T15:09:48Z</time>
      </trkpt>
      <trkpt lat="45.17511" lon="5.5483">
        <ele>1052.8</ele>
        <time>2015-06-11T15:09:49Z</time>
      </trkpt>
      <trkpt lat="45.17511" lon="5.54834">
        <ele>1052.9</ele>
        <time>2015-06-11T15:09:50Z</time>
      </trkpt>
      <trkpt lat="45.17511" lon="5.54837">
        <ele>1053.1</ele>
        <time>2015-06-11T15:09:51Z</time>
      </trkpt>
      <trkpt lat="45.17511" lon="5.5484">
        <ele>1053.2</ele>
        <time>2015-06-11T15:09:52Z</time>
      </trkpt>
      <trkpt lat="45.1751" lon="5.54844">
        <ele>1053.4</ele>
        <time>2015-06-11T15:09:53Z</time>
      </trkpt>
      <trkpt lat="45.1751" lon="5.54848">
        <ele>1053.6</ele>
        <time>2015-06-11T15:09:54Z</time>
      </trkpt>
      <trkpt lat="45.1751" lon="5.54851">
        <ele>1053.8</ele>
        <time>2015-06-11T15:09:55Z</time>
      </trkpt>
      <trkpt lat="45.1751" lon="5.54854">
        <ele>1054</ele>
        <time>2015-06-11T15:09:56Z</time>
      </trkpt>
      <trkpt lat="45.17509" lon="5.54858">
        <ele>1054.2</ele>
        <time>2015-06-11T15:09:57Z</time>
      </trkpt>
      <trkpt lat="45.17509" lon="5.54862">
        <ele>1054.4</ele>
        <time>2015-06-11T15:09:58Z</time>
      </trkpt>
      <trkpt lat="45.17509" lon="5.54866">
        <ele>1054.6</ele>
        <time>2015-06-11T15:09:59Z</time>
      </trkpt>
      <trkpt lat="45.17509" lon="5.5487">
        <ele>1054.7</ele>
        <time>2015-06-11T15:10:00Z</time>
      </trkpt>
      <trkpt lat="45.17509" lon="5.54874">
        <ele>1054.9</ele>
        <time>2015-06-11T15:10:01Z</time>
      </trkpt>
      <trkpt lat="45.17509" lon="5.54877">
        <ele>1055</ele>
        <time>2015-06-11T15:10:02Z</time>
      </trkpt>
      <trkpt lat="45.1751" lon="5.54881">
        <ele>1055.1</ele>
        <time>2015-06-11T15:10:03Z</time>
      </trkpt>
      <trkpt lat="45.1751" lon="5.54884">
        <ele>1055.1</ele>
        <time>2015-06-11T15:10:04Z</time>
      </trkpt>
      <trkpt lat="45.1751" lon="5.54887">
        <ele>1055.2</ele>
        <time>2015-06-11T15:10:05Z</time>
      </trkpt>
      <trkpt lat="45.17511" lon="5.54889">
        <ele>1055.3</ele>
        <time>2015-06-11T15:10:06Z</time>
      </trkpt>
      <trkpt lat="45.17511" lon="5.54893">
        <ele>1055.3</ele>
        <time>2015-06-11T15:10:07Z</time>
      </trkpt>
      <trkpt lat="45.17512" lon="5.54896">
        <ele>1055.4</ele>
        <time>2015-06-11T15:10:08Z</time>
      </trkpt>
      <trkpt lat="45.17513" lon="5.54899">
        <ele>1055.4</ele>
        <time>2015-06-11T15:10:09Z</time>
      </trkpt>
      <trkpt lat="45.17514" lon="5.54902">
        <ele>1055.4</ele>
        <time>2015-06-11T15:10:10Z</time>
      </trkpt>
      <trkpt lat="45.17515" lon="5.54905">
        <ele>1055.5</ele>
        <time>2015-06-11T15:10:11Z</time>
      </trkpt>
      <trkpt lat="45.17516" lon="5.54908">
        <ele>1055.5</ele>
        <time>2015-06-11T15:10:12Z</time>
      </trkpt>
      <trkpt lat="45.17516" lon="5.54911">
        <ele>1055.5</ele>
        <time>2015-06-11T15:10:13Z</time>
      </trkpt>
      <trkpt lat="45.17518" lon="5.54914">
        <ele>1055.5</ele>
        <time>2015-06-11T15:10:14Z</time>
      </trkpt>
      <trkpt lat="45.17519" lon="5.54917">
        <ele>1055.5</ele>
        <time>2015-06-11T15:10:15Z</time>
      </trkpt>
      <trkpt lat="45.1752" lon="5.5492">
        <ele>1055.5</ele>
        <time>2015-06-11T15:10:16Z</time>
      </trkpt>
      <trkpt lat="45.17522" lon="5.54923">
        <ele>1055.5</ele>
        <time>2015-06-11T15:10:17Z</time>
      </trkpt>
      <trkpt lat="45.17523" lon="5.54926">
        <ele>1055.5</ele>
        <time>2015-06-11T15:10:18Z</time>
      </trkpt>
      <trkpt lat="45.17524" lon="5.54929">
        <ele>1055.5</ele>
        <time>2015-06-11T15:10:19Z</time>
      </trkpt>
      <trkpt lat="45.17526" lon="5.54931">
        <ele>1055.4</ele>
        <time>2015-06-11T15:10:20Z</time>
      </trkpt>
      <trkpt lat="45.17528" lon="5.54934">
        <ele>1055.4</ele>
        <time>2015-06-11T15:10:21Z</time>
      </trkpt>
      <trkpt lat="45.17529" lon="5.54937">
        <ele>1055.3</ele>
        <time>2015-06-11T15:10:22Z</time>
      </trkpt>
      <trkpt lat="45.17531" lon="5.5494">
        <ele>1055.3</ele>
        <time>2015-06-11T15:10:23Z</time>
      </trkpt>
      <trkpt lat="45.17532" lon="5.54943">
        <ele>1055.3</ele>
        <time>2015-06-11T15:10:24Z</time>
      </trkpt>
      <trkpt lat="45.17534" lon="5.54946">
        <ele>1055.2</ele>
        <time>2015-06-11T15:10:25Z</time>
      </trkpt>
      <trkpt lat="45.17535" lon="5.54949">
        <ele>1055.2</ele>
        <time>2015-06-11T15:10:26Z</time>
      </trkpt>
      <trkpt lat="45.17537" lon="5.54952">
        <ele>1055.1</ele>
        <time>2015-06-11T15:10:27Z</time>
      </trkpt>
      <trkpt lat="45.17539" lon="5.54954">
        <ele>1055.1</ele>
        <time>2015-06-11T15:10:28Z</time>
      </trkpt>
      <trkpt lat="45.17541" lon="5.54957">
        <ele>1055</ele>
        <time>2015-06-11T15:10:29Z</time>
      </trkpt>
      <trkpt lat="45.17543" lon="5.54959">
        <ele>1055</ele>
        <time>2015-06-11T15:10:30Z</time>
      </trkpt>
      <trkpt lat="45.17543" lon="5.54962">
        <ele>1055</ele>
        <time>2015-06-11T15:10:31Z</time>
      </trkpt>
      <trkpt lat="45.17545" lon="5.54964">
        <ele>1055</ele>
        <time>2015-06-11T15:10:32Z</time>
      </trkpt>
      <trkpt lat="45.17547" lon="5.54967">
        <ele>1055</ele>
        <time>2015-06-11T15:10:33Z</time>
      </trkpt>
      <trkpt lat="45.17548" lon="5.54969">
        <ele>1055</ele>
        <time>2015-06-11T15:10:34Z</time>
      </trkpt>
      <trkpt lat="45.17549" lon="5.54972">
        <ele>1055</ele>
        <time>2015-06-11T15:10:35Z</time>
      </trkpt>
      <trkpt lat="45.1755" lon="5.54974">
        <ele>1055</ele>
        <time>2015-06-11T15:10:36Z</time>
      </trkpt>
      <trkpt lat="45.17551" lon="5.54977">
        <ele>1055</ele>
        <time>2015-06-11T15:10:37Z</time>
      </trkpt>
      <trkpt lat="45.17553" lon="5.5498">
        <ele>1055</ele>
        <time>2015-06-11T15:10:38Z</time>
      </trkpt>
      <trkpt lat="45.17555" lon="5.54983">
        <ele>1055</ele>
        <time>2015-06-11T15:10:39Z</time>
      </trkpt>
      <trkpt lat="45.17556" lon="5.54985">
        <ele>1055</ele>
        <time>2015-06-11T15:10:40Z</time>
      </trkpt>
      <trkpt lat="45.17558" lon="5.54988">
        <ele>1055</ele>
        <time>2015-06-11T15:10:41Z</time>
      </trkpt>
      <trkpt lat="45.17559" lon="5.5499">
        <ele>1055</ele>
        <time>2015-06-11T15:10:42Z</time>
      </trkpt>
      <trkpt lat="45.1756" lon="5.54993">
        <ele>1055</ele>
        <time>2015-06-11T15:10:43Z</time>
      </trkpt>
      <trkpt lat="45.17561" lon="5.54995">
        <ele>1055</ele>
        <time>2015-06-11T15:10:44Z</time>
      </trkpt>
      <trkpt lat="45.17563" lon="5.54998">
        <ele>1055</ele>
        <time>2015-06-11T15:10:45Z</time>
      </trkpt>
      <trkpt lat="45.17564" lon="5.55">
        <ele>1055</ele>
        <time>2015-06-11T15:10:46Z</time>
      </trkpt>
      <trkpt lat="45.17566" lon="5.55003">
        <ele>1055</ele>
        <time>2015-06-11T15:10:47Z</time>
      </trkpt>
      <trkpt lat="45.17567" lon="5.55006">
        <ele>1055</ele>
        <time>2015-06-11T15:10:48Z</time>
      </trkpt>
      <trkpt lat="45.17567" lon="5.55009">
        <ele>1055</ele>
        <time>2015-06-11T15:10:49Z</time>
      </trkpt>
      <trkpt lat="45.17569" lon="5.55012">
        <ele>1055</ele>
        <time>2015-06-11T15:10:50Z</time>
      </trkpt>
      <trkpt lat="45.17569" lon="5.55015">
        <ele>1055</ele>
        <time>2015-06-11T15:10:51Z</time>
      </trkpt>
      <trkpt lat="45.1757" lon="5.55018">
        <ele>1055</ele>
        <time>2015-06-11T15:10:52Z</time>
      </trkpt>
      <trkpt lat="45.17571" lon="5.55021">
        <ele>1055</ele>
        <time>2015-06-11T15:10:53Z</time>
      </trkpt>
      <trkpt lat="45.17572" lon="5.55024">
        <ele>1055.1</ele>
        <time>2015-06-11T15:10:54Z</time>
      </trkpt>
      <trkpt lat="45.17573" lon="5.55027">
        <ele>1055.1</ele>
        <time>2015-06-11T15:10:55Z</time>
      </trkpt>
      <trkpt lat="45.17573" lon="5.5503">
        <ele>1055.1</ele>
        <time>2015-06-11T15:10:56Z</time>
      </trkpt>
      <trkpt lat="45.17574" lon="5.55033">
        <ele>1055.1</ele>
        <time>2015-06-11T15:10:57Z</time>
      </trkpt>
      <trkpt lat="45.17574" lon="5.55036">
        <ele>1055.2</ele>
        <time>2015-06-11T15:10:58Z</time>
      </trkpt>
      <trkpt lat="45.17573" lon="5.55039">
        <ele>1055.2</ele>
        <time>2015-06-11T15:10:59Z</time>
      </trkpt>
      <trkpt lat="45.17573" lon="5.55042">
        <ele>1055.3</ele>
        <time>2015-06-11T15:11:00Z</time>
      </trkpt>
      <trkpt lat="45.17572" lon="5.55045">
        <ele>1055.6</ele>
        <time>2015-06-11T15:11:01Z</time>
      </trkpt>
      <trkpt lat="45.17571" lon="5.55048">
        <ele>1055.8</ele>
        <time>2015-06-11T15:11:02Z</time>
      </trkpt>
      <trkpt lat="45.1757" lon="5.55051">
        <ele>1056</ele>
        <time>2015-06-11T15:11:03Z</time>
      </trkpt>
      <trkpt lat="45.17569" lon="5.55054">
        <ele>1056.3</ele>
        <time>2015-06-11T15:11:04Z</time>
      </trkpt>
      <trkpt lat="45.17568" lon="5.55058">
        <ele>1056.6</ele>
        <time>2015-06-11T15:11:05Z</time>
      </trkpt>
      <trkpt lat="45.17567" lon="5.55061">
        <ele>1056.9</ele>
        <time>2015-06-11T15:11:06Z</time>
      </trkpt>
      <trkpt lat="45.17565" lon="5.55064">
        <ele>1057.1</ele>
        <time>2015-06-11T15:11:07Z</time>
      </trkpt>
      <trkpt lat="45.17564" lon="5.55066">
        <ele>1057.4</ele>
        <time>2015-06-11T15:11:08Z</time>
      </trkpt>
      <trkpt lat="45.17563" lon="5.55069">
        <ele>1057.6</ele>
        <time>2015-06-11T15:11:09Z</time>
      </trkpt>
      <trkpt lat="45.17562" lon="5.55071">
        <ele>1057.8</ele>
        <time>2015-06-11T15:11:10Z</time>
      </trkpt>
      <trkpt lat="45.17561" lon="5.55074">
        <ele>1058.1</ele>
        <time>2015-06-11T15:11:11Z</time>
      </trkpt>
      <trkpt lat="45.17559" lon="5.55076">
        <ele>1058.3</ele>
        <time>2015-06-11T15:11:12Z</time>
      </trkpt>
      <trkpt lat="45.17558" lon="5.55079">
        <ele>1058.6</ele>
        <time>2015-06-11T15:11:13Z</time>
      </trkpt>
      <trkpt lat="45.17557" lon="5.55082">
        <ele>1058.8</ele>
        <time>2015-06-11T15:11:14Z</time>
      </trkpt>
      <trkpt lat="45.17556" lon="5.55084">
        <ele>1059.1</ele>
        <time>2015-06-11T15:11:15Z</time>
      </trkpt>
      <trkpt lat="45.17555" lon="5.55087">
        <ele>1059.3</ele>
        <time>2015-06-11T15:11:16Z</time>
      </trkpt>
      <trkpt lat="45.17553" lon="5.5509">
        <ele>1059.6</ele>
        <time>2015-06-11T15:11:17Z</time>
      </trkpt>
      <trkpt lat="45.17552" lon="5.55092">
        <ele>1059.8</ele>
        <time>2015-06-11T15:11:18Z</time>
      </trkpt>
      <trkpt lat="45.17551" lon="5.55095">
        <ele>1060.1</ele>
        <time>2015-06-11T15:11:19Z</time>
      </trkpt>
      <trkpt lat="45.1755" lon="5.55098">
        <ele>1060.4</ele>
        <time>2015-06-11T15:11:20Z</time>
      </trkpt>
      <trkpt lat="45.17548" lon="5.551">
        <ele>1060.7</ele>
        <time>2015-06-11T15:11:21Z</time>
      </trkpt>
      <trkpt lat="45.17547" lon="5.55103">
        <ele>1060.9</ele>
        <time>2015-06-11T15:11:22Z</time>
      </trkpt>
      <trkpt lat="45.17545" lon="5.55105">
        <ele>1061.2</ele>
        <time>2015-06-11T15:11:23Z</time>
      </trkpt>
      <trkpt lat="45.17544" lon="5.55108">
        <ele>1061.5</ele>
        <time>2015-06-11T15:11:24Z</time>
      </trkpt>
      <trkpt lat="45.17543" lon="5.55111">
        <ele>1061.8</ele>
        <time>2015-06-11T15:11:25Z</time>
      </trkpt>
      <trkpt lat="45.17542" lon="5.55114">
        <ele>1062</ele>
        <time>2015-06-11T15:11:26Z</time>
      </trkpt>
      <trkpt lat="45.1754" lon="5.55116">
        <ele>1062.3</ele>
        <time>2015-06-11T15:11:27Z</time>
      </trkpt>
      <trkpt lat="45.17539" lon="5.55119">
        <ele>1062.6</ele>
        <time>2015-06-11T15:11:28Z</time>
      </trkpt>
      <trkpt lat="45.17538" lon="5.55122">
        <ele>1062.9</ele>
        <time>2015-06-11T15:11:29Z</time>
      </trkpt>
      <trkpt lat="45.17537" lon="5.55125">
        <ele>1063.1</ele>
        <time>2015-06-11T15:11:30Z</time>
      </trkpt>
      <trkpt lat="45.17536" lon="5.55128">
        <ele>1063.2</ele>
        <time>2015-06-11T15:11:31Z</time>
      </trkpt>
      <trkpt lat="45.17535" lon="5.55131">
        <ele>1063.3</ele>
        <time>2015-06-11T15:11:32Z</time>
      </trkpt>
      <trkpt lat="45.17534" lon="5.55134">
        <ele>1063.4</ele>
        <time>2015-06-11T15:11:33Z</time>
      </trkpt>
      <trkpt lat="45.17532" lon="5.55138">
        <ele>1063.5</ele>
        <time>2015-06-11T15:11:34Z</time>
      </trkpt>
      <trkpt lat="45.17531" lon="5.55141">
        <ele>1063.5</ele>
        <time>2015-06-11T15:11:35Z</time>
      </trkpt>
      <trkpt lat="45.1753" lon="5.55144">
        <ele>1063.6</ele>
        <time>2015-06-11T15:11:36Z</time>
      </trkpt>
      <trkpt lat="45.17529" lon="5.55146">
        <ele>1063.7</ele>
        <time>2015-06-11T15:11:37Z</time>
      </trkpt>
      <trkpt lat="45.17528" lon="5.55149">
        <ele>1063.7</ele>
        <time>2015-06-11T15:11:38Z</time>
      </trkpt>
      <trkpt lat="45.17527" lon="5.55152">
        <ele>1063.8</ele>
        <time>2015-06-11T15:11:39Z</time>
      </trkpt>
      <trkpt lat="45.17526" lon="5.55156">
        <ele>1063.8</ele>
        <time>2015-06-11T15:11:40Z</time>
      </trkpt>
      <trkpt lat="45.17524" lon="5.55159">
        <ele>1063.9</ele>
        <time>2015-06-11T15:11:41Z</time>
      </trkpt>
      <trkpt lat="45.17524" lon="5.55162">
        <ele>1063.9</ele>
        <time>2015-06-11T15:11:42Z</time>
      </trkpt>
      <trkpt lat="45.17522" lon="5.55165">
        <ele>1064</ele>
        <time>2015-06-11T15:11:43Z</time>
      </trkpt>
      <trkpt lat="45.17522" lon="5.55168">
        <ele>1064</ele>
        <time>2015-06-11T15:11:44Z</time>
      </trkpt>
      <trkpt lat="45.17521" lon="5.55171">
        <ele>1064</ele>
        <time>2015-06-11T15:11:45Z</time>
      </trkpt>
      <trkpt lat="45.1752" lon="5.55174">
        <ele>1064.1</ele>
        <time>2015-06-11T15:11:46Z</time>
      </trkpt>
      <trkpt lat="45.17519" lon="5.55177">
        <ele>1064.1</ele>
        <time>2015-06-11T15:11:47Z</time>
      </trkpt>
      <trkpt lat="45.17518" lon="5.5518">
        <ele>1064.1</ele>
        <time>2015-06-11T15:11:48Z</time>
      </trkpt>
      <trkpt lat="45.17517" lon="5.55183">
        <ele>1064.2</ele>
        <time>2015-06-11T15:11:49Z</time>
      </trkpt>
      <trkpt lat="45.17516" lon="5.55186">
        <ele>1064.2</ele>
        <time>2015-06-11T15:11:50Z</time>
      </trkpt>
      <trkpt lat="45.17515" lon="5.55189">
        <ele>1064.2</ele>
        <time>2015-06-11T15:11:51Z</time>
      </trkpt>
      <trkpt lat="45.17514" lon="5.55193">
        <ele>1064.2</ele>
        <time>2015-06-11T15:11:52Z</time>
      </trkpt>
      <trkpt lat="45.17513" lon="5.55196">
        <ele>1064.2</ele>
        <time>2015-06-11T15:11:53Z</time>
      </trkpt>
      <trkpt lat="45.17513" lon="5.552">
        <ele>1064.2</ele>
        <time>2015-06-11T15:11:54Z</time>
      </trkpt>
      <trkpt lat="45.17512" lon="5.55203">
        <ele>1064.2</ele>
        <time>2015-06-11T15:11:55Z</time>
      </trkpt>
      <trkpt lat="45.17512" lon="5.55206">
        <ele>1064.3</ele>
        <time>2015-06-11T15:11:56Z</time>
      </trkpt>
      <trkpt lat="45.17512" lon="5.55209">
        <ele>1064.4</ele>
        <time>2015-06-11T15:11:57Z</time>
      </trkpt>
      <trkpt lat="45.17511" lon="5.55213">
        <ele>1064.7</ele>
        <time>2015-06-11T15:11:58Z</time>
      </trkpt>
      <trkpt lat="45.17511" lon="5.55216">
        <ele>1065</ele>
        <time>2015-06-11T15:11:59Z</time>
      </trkpt>
      <trkpt lat="45.17511" lon="5.55219">
        <ele>1065.3</ele>
        <time>2015-06-11T15:12:00Z</time>
      </trkpt>
      <trkpt lat="45.17511" lon="5.55223">
        <ele>1065.6</ele>
        <time>2015-06-11T15:12:01Z</time>
      </trkpt>
      <trkpt lat="45.17511" lon="5.55226">
        <ele>1065.9</ele>
        <time>2015-06-11T15:12:02Z</time>
      </trkpt>
      <trkpt lat="45.17511" lon="5.5523">
        <ele>1066.2</ele>
        <time>2015-06-11T15:12:03Z</time>
      </trkpt>
      <trkpt lat="45.17511" lon="5.55234">
        <ele>1066.6</ele>
        <time>2015-06-11T15:12:04Z</time>
      </trkpt>
      <trkpt lat="45.1751" lon="5.55237">
        <ele>1066.9</ele>
        <time>2015-06-11T15:12:05Z</time>
      </trkpt>
      <trkpt lat="45.1751" lon="5.55241">
        <ele>1067.3</ele>
        <time>2015-06-11T15:12:06Z</time>
      </trkpt>
      <trkpt lat="45.1751" lon="5.55244">
        <ele>1067.6</ele>
        <time>2015-06-11T15:12:07Z</time>
      </trkpt>
      <trkpt lat="45.1751" lon="5.55248">
        <ele>1068</ele>
        <time>2015-06-11T15:12:08Z</time>
      </trkpt>
      <trkpt lat="45.1751" lon="5.55252">
        <ele>1068.3</ele>
        <time>2015-06-11T15:12:09Z</time>
      </trkpt>
      <trkpt lat="45.17509" lon="5.55255">
        <ele>1068.6</ele>
        <time>2015-06-11T15:12:10Z</time>
      </trkpt>
      <trkpt lat="45.17509" lon="5.55259">
        <ele>1068.9</ele>
        <time>2015-06-11T15:12:11Z</time>
      </trkpt>
      <trkpt lat="45.17509" lon="5.55263">
        <ele>1069.3</ele>
        <time>2015-06-11T15:12:12Z</time>
      </trkpt>
      <trkpt lat="45.17508" lon="5.55266">
        <ele>1069.6</ele>
        <time>2015-06-11T15:12:13Z</time>
      </trkpt>
      <trkpt lat="45.17508" lon="5.5527">
        <ele>1069.9</ele>
        <time>2015-06-11T15:12:14Z</time>
      </trkpt>
      <trkpt lat="45.17508" lon="5.55273">
        <ele>1070.3</ele>
        <time>2015-06-11T15:12:15Z</time>
      </trkpt>
      <trkpt lat="45.17508" lon="5.55277">
        <ele>1070.6</ele>
        <time>2015-06-11T15:12:16Z</time>
      </trkpt>
      <trkpt lat="45.17508" lon="5.5528">
        <ele>1070.9</ele>
        <time>2015-06-11T15:12:17Z</time>
      </trkpt>
      <trkpt lat="45.17507" lon="5.55284">
        <ele>1071.2</ele>
        <time>2015-06-11T15:12:18Z</time>
      </trkpt>
      <trkpt lat="45.17507" lon="5.55287">
        <ele>1071.6</ele>
        <time>2015-06-11T15:12:19Z</time>
      </trkpt>
      <trkpt lat="45.17506" lon="5.55291">
        <ele>1071.9</ele>
        <time>2015-06-11T15:12:20Z</time>
      </trkpt>
      <trkpt lat="45.17506" lon="5.55294">
        <ele>1072</ele>
        <time>2015-06-11T15:12:21Z</time>
      </trkpt>
      <trkpt lat="45.17506" lon="5.55298">
        <ele>1072</ele>
        <time>2015-06-11T15:12:22Z</time>
      </trkpt>
      <trkpt lat="45.17505" lon="5.55302">
        <ele>1072</ele>
        <time>2015-06-11T15:12:23Z</time>
      </trkpt>
      <trkpt lat="45.17505" lon="5.55305">
        <ele>1072.1</ele>
        <time>2015-06-11T15:12:24Z</time>
      </trkpt>
      <trkpt lat="45.17505" lon="5.55309">
        <ele>1072.1</ele>
        <time>2015-06-11T15:12:25Z</time>
      </trkpt>
      <trkpt lat="45.17505" lon="5.55313">
        <ele>1072.1</ele>
        <time>2015-06-11T15:12:26Z</time>
      </trkpt>
      <trkpt lat="45.17504" lon="5.55317">
        <ele>1072.1</ele>
        <time>2015-06-11T15:12:27Z</time>
      </trkpt>
      <trkpt lat="45.17504" lon="5.5532">
        <ele>1072.1</ele>
        <time>2015-06-11T15:12:28Z</time>
      </trkpt>
      <trkpt lat="45.17504" lon="5.55324">
        <ele>1072.1</ele>
        <time>2015-06-11T15:12:29Z</time>
      </trkpt>
      <trkpt lat="45.17504" lon="5.55327">
        <ele>1072.1</ele>
        <time>2015-06-11T15:12:30Z</time>
      </trkpt>
      <trkpt lat="45.17504" lon="5.5533">
        <ele>1072.2</ele>
        <time>2015-06-11T15:12:31Z</time>
      </trkpt>
      <trkpt lat="45.17505" lon="5.55333">
        <ele>1072.2</ele>
        <time>2015-06-11T15:12:32Z</time>
      </trkpt>
      <trkpt lat="45.17505" lon="5.55336">
        <ele>1072.2</ele>
        <time>2015-06-11T15:12:33Z</time>
      </trkpt>
      <trkpt lat="45.17506" lon="5.55339">
        <ele>1072.2</ele>
        <time>2015-06-11T15:12:34Z</time>
      </trkpt>
      <trkpt lat="45.17507" lon="5.55343">
        <ele>1072.2</ele>
        <time>2015-06-11T15:12:35Z</time>
      </trkpt>
      <trkpt lat="45.17508" lon="5.55347">
        <ele>1072.1</ele>
        <time>2015-06-11T15:12:36Z</time>
      </trkpt>
      <trkpt lat="45.17508" lon="5.5535">
        <ele>1072.1</ele>
        <time>2015-06-11T15:12:37Z</time>
      </trkpt>
      <trkpt lat="45.17508" lon="5.55354">
        <ele>1072.1</ele>
        <time>2015-06-11T15:12:38Z</time>
      </trkpt>
      <trkpt lat="45.17509" lon="5.55357">
        <ele>1072.1</ele>
        <time>2015-06-11T15:12:39Z</time>
      </trkpt>
      <trkpt lat="45.1751" lon="5.55361">
        <ele>1072.1</ele>
        <time>2015-06-11T15:12:40Z</time>
      </trkpt>
      <trkpt lat="45.1751" lon="5.55364">
        <ele>1072.1</ele>
        <time>2015-06-11T15:12:41Z</time>
      </trkpt>
      <trkpt lat="45.1751" lon="5.55368">
        <ele>1072.1</ele>
        <time>2015-06-11T15:12:42Z</time>
      </trkpt>
      <trkpt lat="45.17511" lon="5.55371">
        <ele>1072.1</ele>
        <time>2015-06-11T15:12:43Z</time>
      </trkpt>
      <trkpt lat="45.17511" lon="5.55375">
        <ele>1072.1</ele>
        <time>2015-06-11T15:12:44Z</time>
      </trkpt>
      <trkpt lat="45.17512" lon="5.55379">
        <ele>1071.8</ele>
        <time>2015-06-11T15:12:45Z</time>
      </trkpt>
      <trkpt lat="45.17512" lon="5.55382">
        <ele>1071.6</ele>
        <time>2015-06-11T15:12:46Z</time>
      </trkpt>
      <trkpt lat="45.17513" lon="5.55385">
        <ele>1071.3</ele>
        <time>2015-06-11T15:12:47Z</time>
      </trkpt>
      <trkpt lat="45.17513" lon="5.55389">
        <ele>1071.1</ele>
        <time>2015-06-11T15:12:48Z</time>
      </trkpt>
      <trkpt lat="45.17513" lon="5.55392">
        <ele>1070.9</ele>
        <time>2015-06-11T15:12:49Z</time>
      </trkpt>
      <trkpt lat="45.17513" lon="5.55396">
        <ele>1070.6</ele>
        <time>2015-06-11T15:12:50Z</time>
      </trkpt>
      <trkpt lat="45.17513" lon="5.55399">
        <ele>1070.4</ele>
        <time>2015-06-11T15:12:51Z</time>
      </trkpt>
      <trkpt lat="45.17513" lon="5.55403">
        <ele>1070.2</ele>
        <time>2015-06-11T15:12:52Z</time>
      </trkpt>
      <trkpt lat="45.17513" lon="5.55406">
        <ele>1069.9</ele>
        <time>2015-06-11T15:12:53Z</time>
      </trkpt>
      <trkpt lat="45.17513" lon="5.5541">
        <ele>1069.7</ele>
        <time>2015-06-11T15:12:54Z</time>
      </trkpt>
      <trkpt lat="45.17512" lon="5.55413">
        <ele>1069.5</ele>
        <time>2015-06-11T15:12:55Z</time>
      </trkpt>
      <trkpt lat="45.17512" lon="5.55416">
        <ele>1069.3</ele>
        <time>2015-06-11T15:12:56Z</time>
      </trkpt>
      <trkpt lat="45.17512" lon="5.55419">
        <ele>1069.1</ele>
        <time>2015-06-11T15:12:57Z</time>
      </trkpt>
      <trkpt lat="45.17511" lon="5.55423">
        <ele>1068.9</ele>
        <time>2015-06-11T15:12:58Z</time>
      </trkpt>
      <trkpt lat="45.17511" lon="5.55426">
        <ele>1068.7</ele>
        <time>2015-06-11T15:12:59Z</time>
      </trkpt>
      <trkpt lat="45.1751" lon="5.55429">
        <ele>1068.5</ele>
        <time>2015-06-11T15:13:00Z</time>
      </trkpt>
      <trkpt lat="45.1751" lon="5.55432">
        <ele>1068.3</ele>
        <time>2015-06-11T15:13:01Z</time>
      </trkpt>
      <trkpt lat="45.17509" lon="5.55435">
        <ele>1068.2</ele>
        <time>2015-06-11T15:13:02Z</time>
      </trkpt>
      <trkpt lat="45.17509" lon="5.55438">
        <ele>1068</ele>
        <time>2015-06-11T15:13:03Z</time>
      </trkpt>
      <trkpt lat="45.17508" lon="5.55441">
        <ele>1067.8</ele>
        <time>2015-06-11T15:13:04Z</time>
      </trkpt>
      <trkpt lat="45.17507" lon="5.55444">
        <ele>1067.6</ele>
        <time>2015-06-11T15:13:05Z</time>
      </trkpt>
      <trkpt lat="45.17507" lon="5.55447">
        <ele>1067.4</ele>
        <time>2015-06-11T15:13:06Z</time>
      </trkpt>
      <trkpt lat="45.17506" lon="5.5545">
        <ele>1067.2</ele>
        <time>2015-06-11T15:13:07Z</time>
      </trkpt>
      <trkpt lat="45.17505" lon="5.55453">
        <ele>1067.1</ele>
        <time>2015-06-11T15:13:08Z</time>
      </trkpt>
      <trkpt lat="45.17505" lon="5.55456">
        <ele>1066.9</ele>
        <time>2015-06-11T15:13:09Z</time>
      </trkpt>
      <trkpt lat="45.17504" lon="5.5546">
        <ele>1066.8</ele>
        <time>2015-06-11T15:13:10Z</time>
      </trkpt>
      <trkpt lat="45.17504" lon="5.55463">
        <ele>1066.9</ele>
        <time>2015-06-11T15:13:11Z</time>
      </trkpt>
      <trkpt lat="45.17503" lon="5.55466">
        <ele>1067</ele>
        <time>2015-06-11T15:13:12Z</time>
      </trkpt>
      <trkpt lat="45.17503" lon="5.55469">
        <ele>1067.1</ele>
        <time>2015-06-11T15:13:13Z</time>
      </trkpt>
      <trkpt lat="45.17502" lon="5.55472">
        <ele>1067.2</ele>
        <time>2015-06-11T15:13:14Z</time>
      </trkpt>
      <trkpt lat="45.17501" lon="5.55475">
        <ele>1067.4</ele>
        <time>2015-06-11T15:13:15Z</time>
      </trkpt>
      <trkpt lat="45.175" lon="5.55477">
        <ele>1067.5</ele>
        <time>2015-06-11T15:13:16Z</time>
      </trkpt>
      <trkpt lat="45.17498" lon="5.5548">
        <ele>1067.6</ele>
        <time>2015-06-11T15:13:17Z</time>
      </trkpt>
      <trkpt lat="45.17497" lon="5.55483">
        <ele>1067.7</ele>
        <time>2015-06-11T15:13:18Z</time>
      </trkpt>
      <trkpt lat="45.17496" lon="5.55486">
        <ele>1067.9</ele>
        <time>2015-06-11T15:13:19Z</time>
      </trkpt>
      <trkpt lat="45.17495" lon="5.55489">
        <ele>1068</ele>
        <time>2015-06-11T15:13:20Z</time>
      </trkpt>
      <trkpt lat="45.17493" lon="5.55491">
        <ele>1068.1</ele>
        <time>2015-06-11T15:13:21Z</time>
      </trkpt>
      <trkpt lat="45.17492" lon="5.55493">
        <ele>1068.2</ele>
        <time>2015-06-11T15:13:22Z</time>
      </trkpt>
      <trkpt lat="45.1749" lon="5.55496">
        <ele>1068.4</ele>
        <time>2015-06-11T15:13:23Z</time>
      </trkpt>
      <trkpt lat="45.17489" lon="5.55498">
        <ele>1068.5</ele>
        <time>2015-06-11T15:13:24Z</time>
      </trkpt>
      <trkpt lat="45.17487" lon="5.555">
        <ele>1068.6</ele>
        <time>2015-06-11T15:13:25Z</time>
      </trkpt>
      <trkpt lat="45.17486" lon="5.55503">
        <ele>1068.7</ele>
        <time>2015-06-11T15:13:26Z</time>
      </trkpt>
      <trkpt lat="45.17484" lon="5.55505">
        <ele>1068.9</ele>
        <time>2015-06-11T15:13:27Z</time>
      </trkpt>
      <trkpt lat="45.17483" lon="5.55507">
        <ele>1069</ele>
        <time>2015-06-11T15:13:28Z</time>
      </trkpt>
      <trkpt lat="45.17481" lon="5.55509">
        <ele>1069.1</ele>
        <time>2015-06-11T15:13:29Z</time>
      </trkpt>
      <trkpt lat="45.1748" lon="5.55512">
        <ele>1069.2</ele>
        <time>2015-06-11T15:13:30Z</time>
      </trkpt>
      <trkpt lat="45.17479" lon="5.55514">
        <ele>1069.4</ele>
        <time>2015-06-11T15:13:31Z</time>
      </trkpt>
      <trkpt lat="45.17477" lon="5.55516">
        <ele>1069.5</ele>
        <time>2015-06-11T15:13:32Z</time>
      </trkpt>
      <trkpt lat="45.17476" lon="5.55518">
        <ele>1069.6</ele>
        <time>2015-06-11T15:13:33Z</time>
      </trkpt>
      <trkpt lat="45.17474" lon="5.55521">
        <ele>1069.7</ele>
        <time>2015-06-11T15:13:34Z</time>
      </trkpt>
      <trkpt lat="45.17473" lon="5.55523">
        <ele>1069.9</ele>
        <time>2015-06-11T15:13:35Z</time>
      </trkpt>
      <trkpt lat="45.17471" lon="5.55525">
        <ele>1070</ele>
        <time>2015-06-11T15:13:36Z</time>
      </trkpt>
      <trkpt lat="45.17469" lon="5.55527">
        <ele>1070.1</ele>
        <time>2015-06-11T15:13:37Z</time>
      </trkpt>
      <trkpt lat="45.17468" lon="5.5553">
        <ele>1070.2</ele>
        <time>2015-06-11T15:13:38Z</time>
      </trkpt>
      <trkpt lat="45.17467" lon="5.55532">
        <ele>1070.4</ele>
        <time>2015-06-11T15:13:39Z</time>
      </trkpt>
      <trkpt lat="45.17465" lon="5.55534">
        <ele>1070.5</ele>
        <time>2015-06-11T15:13:40Z</time>
      </trkpt>
      <trkpt lat="45.17464" lon="5.55536">
        <ele>1070.6</ele>
        <time>2015-06-11T15:13:41Z</time>
      </trkpt>
      <trkpt lat="45.17463" lon="5.55538">
        <ele>1070.7</ele>
        <time>2015-06-11T15:13:42Z</time>
      </trkpt>
      <trkpt lat="45.17461" lon="5.55541">
        <ele>1070.8</ele>
        <time>2015-06-11T15:13:43Z</time>
      </trkpt>
      <trkpt lat="45.1746" lon="5.55543">
        <ele>1071</ele>
        <time>2015-06-11T15:13:44Z</time>
      </trkpt>
      <trkpt lat="45.17458" lon="5.55545">
        <ele>1071.3</ele>
        <time>2015-06-11T15:13:45Z</time>
      </trkpt>
      <trkpt lat="45.17457" lon="5.55547">
        <ele>1071.5</ele>
        <time>2015-06-11T15:13:46Z</time>
      </trkpt>
      <trkpt lat="45.17455" lon="5.55549">
        <ele>1071.9</ele>
        <time>2015-06-11T15:13:47Z</time>
      </trkpt>
      <trkpt lat="45.17454" lon="5.55551">
        <ele>1072.2</ele>
        <time>2015-06-11T15:13:48Z</time>
      </trkpt>
      <trkpt lat="45.17452" lon="5.55553">
        <ele>1072.5</ele>
        <time>2015-06-11T15:13:49Z</time>
      </trkpt>
      <trkpt lat="45.17451" lon="5.55556">
        <ele>1072.8</ele>
        <time>2015-06-11T15:13:50Z</time>
      </trkpt>
      <trkpt lat="45.1745" lon="5.55558">
        <ele>1073.1</ele>
        <time>2015-06-11T15:13:51Z</time>
      </trkpt>
      <trkpt lat="45.17448" lon="5.5556">
        <ele>1073.3</ele>
        <time>2015-06-11T15:13:52Z</time>
      </trkpt>
      <trkpt lat="45.17447" lon="5.55562">
        <ele>1073.5</ele>
        <time>2015-06-11T15:13:53Z</time>
      </trkpt>
      <trkpt lat="45.17446" lon="5.55564">
        <ele>1073.8</ele>
        <time>2015-06-11T15:13:54Z</time>
      </trkpt>
      <trkpt lat="45.17445" lon="5.55566">
        <ele>1074</ele>
        <time>2015-06-11T15:13:55Z</time>
      </trkpt>
      <trkpt lat="45.17443" lon="5.55568">
        <ele>1074.3</ele>
        <time>2015-06-11T15:13:56Z</time>
      </trkpt>
      <trkpt lat="45.17442" lon="5.5557">
        <ele>1074.6</ele>
        <time>2015-06-11T15:13:57Z</time>
      </trkpt>
      <trkpt lat="45.1744" lon="5.55572">
        <ele>1074.8</ele>
        <time>2015-06-11T15:13:58Z</time>
      </trkpt>
      <trkpt lat="45.17439" lon="5.55575">
        <ele>1075</ele>
        <time>2015-06-11T15:13:59Z</time>
      </trkpt>
      <trkpt lat="45.17438" lon="5.55577">
        <ele>1075.3</ele>
        <time>2015-06-11T15:14:00Z</time>
      </trkpt>
      <trkpt lat="45.17437" lon="5.55579">
        <ele>1075.5</ele>
        <time>2015-06-11T15:14:01Z</time>
      </trkpt>
      <trkpt lat="45.17436" lon="5.55581">
        <ele>1075.6</ele>
        <time>2015-06-11T15:14:02Z</time>
      </trkpt>
      <trkpt lat="45.17434" lon="5.55583">
        <ele>1075.9</ele>
        <time>2015-06-11T15:14:03Z</time>
      </trkpt>
      <trkpt lat="45.17433" lon="5.55584">
        <ele>1076</ele>
        <time>2015-06-11T15:14:04Z</time>
      </trkpt>
      <trkpt lat="45.17432" lon="5.55586">
        <ele>1076.2</ele>
        <time>2015-06-11T15:14:05Z</time>
      </trkpt>
      <trkpt lat="45.1743" lon="5.55588">
        <ele>1076.4</ele>
        <time>2015-06-11T15:14:06Z</time>
      </trkpt>
      <trkpt lat="45.17429" lon="5.55589">
        <ele>1076.6</ele>
        <time>2015-06-11T15:14:07Z</time>
      </trkpt>
      <trkpt lat="45.17427" lon="5.55591">
        <ele>1076.7</ele>
        <time>2015-06-11T15:14:08Z</time>
      </trkpt>
      <trkpt lat="45.17426" lon="5.55592">
        <ele>1076.9</ele>
        <time>2015-06-11T15:14:09Z</time>
      </trkpt>
      <trkpt lat="45.17424" lon="5.55594">
        <ele>1077.1</ele>
        <time>2015-06-11T15:14:10Z</time>
      </trkpt>
      <trkpt lat="45.17423" lon="5.55596">
        <ele>1077.2</ele>
        <time>2015-06-11T15:14:11Z</time>
      </trkpt>
      <trkpt lat="45.17421" lon="5.55598">
        <ele>1077.4</ele>
        <time>2015-06-11T15:14:12Z</time>
      </trkpt>
      <trkpt lat="45.17419" lon="5.55599">
        <ele>1077.6</ele>
        <time>2015-06-11T15:14:13Z</time>
      </trkpt>
      <trkpt lat="45.17418" lon="5.55601">
        <ele>1077.7</ele>
        <time>2015-06-11T15:14:14Z</time>
      </trkpt>
      <trkpt lat="45.17417" lon="5.55602">
        <ele>1077.8</ele>
        <time>2015-06-11T15:14:15Z</time>
      </trkpt>
      <trkpt lat="45.17415" lon="5.55603">
        <ele>1077.9</ele>
        <time>2015-06-11T15:14:16Z</time>
      </trkpt>
      <trkpt lat="45.17414" lon="5.55605">
        <ele>1078.1</ele>
        <time>2015-06-11T15:14:17Z</time>
      </trkpt>
      <trkpt lat="45.17413" lon="5.55606">
        <ele>1078.2</ele>
        <time>2015-06-11T15:14:18Z</time>
      </trkpt>
      <trkpt lat="45.17411" lon="5.55608">
        <ele>1078.3</ele>
        <time>2015-06-11T15:14:19Z</time>
      </trkpt>
      <trkpt lat="45.1741" lon="5.5561">
        <ele>1078.4</ele>
        <time>2015-06-11T15:14:20Z</time>
      </trkpt>
      <trkpt lat="45.17408" lon="5.55612">
        <ele>1078.5</ele>
        <time>2015-06-11T15:14:21Z</time>
      </trkpt>
      <trkpt lat="45.17407" lon="5.55613">
        <ele>1078.6</ele>
        <time>2015-06-11T15:14:22Z</time>
      </trkpt>
      <trkpt lat="45.17405" lon="5.55615">
        <ele>1078.7</ele>
        <time>2015-06-11T15:14:23Z</time>
      </trkpt>
      <trkpt lat="45.17404" lon="5.55616">
        <ele>1078.8</ele>
        <time>2015-06-11T15:14:24Z</time>
      </trkpt>
      <trkpt lat="45.17403" lon="5.55618">
        <ele>1078.9</ele>
        <time>2015-06-11T15:14:25Z</time>
      </trkpt>
      <trkpt lat="45.17402" lon="5.55619">
        <ele>1078.9</ele>
        <time>2015-06-11T15:14:26Z</time>
      </trkpt>
      <trkpt lat="45.17401" lon="5.55621">
        <ele>1079</ele>
        <time>2015-06-11T15:14:27Z</time>
      </trkpt>
      <trkpt lat="45.174" lon="5.55622">
        <ele>1079.1</ele>
        <time>2015-06-11T15:14:28Z</time>
      </trkpt>
      <trkpt lat="45.17399" lon="5.55624">
        <ele>1079.1</ele>
        <time>2015-06-11T15:14:29Z</time>
      </trkpt>
      <trkpt lat="45.17397" lon="5.55626">
        <ele>1079.2</ele>
        <time>2015-06-11T15:14:30Z</time>
      </trkpt>
      <trkpt lat="45.17396" lon="5.55627">
        <ele>1079.4</ele>
        <time>2015-06-11T15:14:31Z</time>
      </trkpt>
      <trkpt lat="45.17395" lon="5.55629">
        <ele>1079.6</ele>
        <time>2015-06-11T15:14:32Z</time>
      </trkpt>
      <trkpt lat="45.17394" lon="5.55631">
        <ele>1079.8</ele>
        <time>2015-06-11T15:14:33Z</time>
      </trkpt>
      <trkpt lat="45.17393" lon="5.55632">
        <ele>1079.9</ele>
        <time>2015-06-11T15:14:34Z</time>
      </trkpt>
      <trkpt lat="45.17391" lon="5.55634">
        <ele>1080.1</ele>
        <time>2015-06-11T15:14:35Z</time>
      </trkpt>
      <trkpt lat="45.1739" lon="5.55636">
        <ele>1080.3</ele>
        <time>2015-06-11T15:14:36Z</time>
      </trkpt>
      <trkpt lat="45.17389" lon="5.55637">
        <ele>1080.5</ele>
        <time>2015-06-11T15:14:37Z</time>
      </trkpt>
      <trkpt lat="45.17388" lon="5.55639">
        <ele>1080.7</ele>
        <time>2015-06-11T15:14:38Z</time>
      </trkpt>
      <trkpt lat="45.17387" lon="5.55641">
        <ele>1080.8</ele>
        <time>2015-06-11T15:14:39Z</time>
      </trkpt>
      <trkpt lat="45.17387" lon="5.55643">
        <ele>1081</ele>
        <time>2015-06-11T15:14:40Z</time>
      </trkpt>
      <trkpt lat="45.17386" lon="5.55645">
        <ele>1081.2</ele>
        <time>2015-06-11T15:14:41Z</time>
      </trkpt>
      <trkpt lat="45.17386" lon="5.55648">
        <ele>1081.4</ele>
        <time>2015-06-11T15:14:42Z</time>
      </trkpt>
      <trkpt lat="45.17386" lon="5.55649">
        <ele>1081.6</ele>
        <time>2015-06-11T15:14:43Z</time>
      </trkpt>
      <trkpt lat="45.17385" lon="5.55651">
        <ele>1081.8</ele>
        <time>2015-06-11T15:14:44Z</time>
      </trkpt>
      <trkpt lat="45.17384" lon="5.55653">
        <ele>1082</ele>
        <time>2015-06-11T15:14:45Z</time>
      </trkpt>
      <trkpt lat="45.17384" lon="5.55656">
        <ele>1082.2</ele>
        <time>2015-06-11T15:14:46Z</time>
      </trkpt>
      <trkpt lat="45.17384" lon="5.55658">
        <ele>1082.4</ele>
        <time>2015-06-11T15:14:47Z</time>
      </trkpt>
      <trkpt lat="45.17384" lon="5.5566">
        <ele>1082.6</ele>
        <time>2015-06-11T15:14:48Z</time>
      </trkpt>
      <trkpt lat="45.17384" lon="5.55663">
        <ele>1082.8</ele>
        <time>2015-06-11T15:14:49Z</time>
      </trkpt>
      <trkpt lat="45.17384" lon="5.55666">
        <ele>1083</ele>
        <time>2015-06-11T15:14:50Z</time>
      </trkpt>
      <trkpt lat="45.17384" lon="5.55668">
        <ele>1083.2</ele>
        <time>2015-06-11T15:14:51Z</time>
      </trkpt>
      <trkpt lat="45.17384" lon="5.55671">
        <ele>1083.4</ele>
        <time>2015-06-11T15:14:52Z</time>
      </trkpt>
      <trkpt lat="45.17384" lon="5.55673">
        <ele>1083.6</ele>
        <time>2015-06-11T15:14:53Z</time>
      </trkpt>
      <trkpt lat="45.17384" lon="5.55675">
        <ele>1083.8</ele>
        <time>2015-06-11T15:14:54Z</time>
      </trkpt>
      <trkpt lat="45.17384" lon="5.55678">
        <ele>1084</ele>
        <time>2015-06-11T15:14:55Z</time>
      </trkpt>
      <trkpt lat="45.17384" lon="5.5568">
        <ele>1084.2</ele>
        <time>2015-06-11T15:14:56Z</time>
      </trkpt>
      <trkpt lat="45.17385" lon="5.55683">
        <ele>1084.4</ele>
        <time>2015-06-11T15:14:57Z</time>
      </trkpt>
      <trkpt lat="45.17385" lon="5.55686">
        <ele>1084.6</ele>
        <time>2015-06-11T15:14:58Z</time>
      </trkpt>
      <trkpt lat="45.17385" lon="5.55688">
        <ele>1084.8</ele>
        <time>2015-06-11T15:14:59Z</time>
      </trkpt>
      <trkpt lat="45.17384" lon="5.5569">
        <ele>1084.9</ele>
        <time>2015-06-11T15:15:00Z</time>
      </trkpt>
      <trkpt lat="45.17384" lon="5.55692">
        <ele>1085.2</ele>
        <time>2015-06-11T15:15:01Z</time>
      </trkpt>
      <trkpt lat="45.17384" lon="5.55695">
        <ele>1085.4</ele>
        <time>2015-06-11T15:15:02Z</time>
      </trkpt>
      <trkpt lat="45.17384" lon="5.55698">
        <ele>1085.6</ele>
        <time>2015-06-11T15:15:03Z</time>
      </trkpt>
      <trkpt lat="45.17384" lon="5.557">
        <ele>1085.8</ele>
        <time>2015-06-11T15:15:04Z</time>
      </trkpt>
      <trkpt lat="45.17383" lon="5.55703">
        <ele>1086.1</ele>
        <time>2015-06-11T15:15:05Z</time>
      </trkpt>
      <trkpt lat="45.17383" lon="5.55705">
        <ele>1086.3</ele>
        <time>2015-06-11T15:15:06Z</time>
      </trkpt>
      <trkpt lat="45.17382" lon="5.55708">
        <ele>1086.5</ele>
        <time>2015-06-11T15:15:07Z</time>
      </trkpt>
      <trkpt lat="45.17382" lon="5.5571">
        <ele>1086.7</ele>
        <time>2015-06-11T15:15:08Z</time>
      </trkpt>
      <trkpt lat="45.17381" lon="5.55712">
        <ele>1086.8</ele>
        <time>2015-06-11T15:15:09Z</time>
      </trkpt>
      <trkpt lat="45.1738" lon="5.55714">
        <ele>1087</ele>
        <time>2015-06-11T15:15:10Z</time>
      </trkpt>
      <trkpt lat="45.17379" lon="5.55717">
        <ele>1087.2</ele>
        <time>2015-06-11T15:15:11Z</time>
      </trkpt>
      <trkpt lat="45.17378" lon="5.55719">
        <ele>1087.4</ele>
        <time>2015-06-11T15:15:12Z</time>
      </trkpt>
      <trkpt lat="45.17377" lon="5.55721">
        <ele>1087.5</ele>
        <time>2015-06-11T15:15:13Z</time>
      </trkpt>
      <trkpt lat="45.17376" lon="5.55723">
        <ele>1087.7</ele>
        <time>2015-06-11T15:15:14Z</time>
      </trkpt>
      <trkpt lat="45.17374" lon="5.55725">
        <ele>1087.7</ele>
        <time>2015-06-11T15:15:15Z</time>
      </trkpt>
      <trkpt lat="45.17373" lon="5.55727">
        <ele>1087.8</ele>
        <time>2015-06-11T15:15:16Z</time>
      </trkpt>
      <trkpt lat="45.17372" lon="5.55729">
        <ele>1087.8</ele>
        <time>2015-06-11T15:15:17Z</time>
      </trkpt>
      <trkpt lat="45.17371" lon="5.55731">
        <ele>1087.8</ele>
        <time>2015-06-11T15:15:18Z</time>
      </trkpt>
      <trkpt lat="45.17369" lon="5.55733">
        <ele>1087.7</ele>
        <time>2015-06-11T15:15:19Z</time>
      </trkpt>
      <trkpt lat="45.17368" lon="5.55735">
        <ele>1087.7</ele>
        <time>2015-06-11T15:15:20Z</time>
      </trkpt>
      <trkpt lat="45.17366" lon="5.55737">
        <ele>1087.7</ele>
        <time>2015-06-11T15:15:21Z</time>
      </trkpt>
      <trkpt lat="45.17365" lon="5.55739">
        <ele>1087.7</ele>
        <time>2015-06-11T15:15:22Z</time>
      </trkpt>
      <trkpt lat="45.17363" lon="5.55741">
        <ele>1087.7</ele>
        <time>2015-06-11T15:15:23Z</time>
      </trkpt>
      <trkpt lat="45.17362" lon="5.55743">
        <ele>1087.7</ele>
        <time>2015-06-11T15:15:24Z</time>
      </trkpt>
      <trkpt lat="45.1736" lon="5.55744">
        <ele>1087.7</ele>
        <time>2015-06-11T15:15:25Z</time>
      </trkpt>
      <trkpt lat="45.17359" lon="5.55747">
        <ele>1087.7</ele>
        <time>2015-06-11T15:15:26Z</time>
      </trkpt>
      <trkpt lat="45.17357" lon="5.55749">
        <ele>1087.7</ele>
        <time>2015-06-11T15:15:27Z</time>
      </trkpt>
      <trkpt lat="45.17356" lon="5.55752">
        <ele>1087.7</ele>
        <time>2015-06-11T15:15:28Z</time>
      </trkpt>
      <trkpt lat="45.17355" lon="5.55755">
        <ele>1087.8</ele>
        <time>2015-06-11T15:15:29Z</time>
      </trkpt>
      <trkpt lat="45.17353" lon="5.55758">
        <ele>1087.8</ele>
        <time>2015-06-11T15:15:30Z</time>
      </trkpt>
      <trkpt lat="45.17352" lon="5.5576">
        <ele>1087.9</ele>
        <time>2015-06-11T15:15:31Z</time>
      </trkpt>
      <trkpt lat="45.17352" lon="5.55763">
        <ele>1087.9</ele>
        <time>2015-06-11T15:15:32Z</time>
      </trkpt>
      <trkpt lat="45.17351" lon="5.55765">
        <ele>1088</ele>
        <time>2015-06-11T15:15:33Z</time>
      </trkpt>
      <trkpt lat="45.1735" lon="5.55768">
        <ele>1088</ele>
        <time>2015-06-11T15:15:34Z</time>
      </trkpt>
      <trkpt lat="45.17349" lon="5.55771">
        <ele>1088.2</ele>
        <time>2015-06-11T15:15:35Z</time>
      </trkpt>
      <trkpt lat="45.17348" lon="5.55775">
        <ele>1088.2</ele>
        <time>2015-06-11T15:15:36Z</time>
      </trkpt>
      <trkpt lat="45.17347" lon="5.55778">
        <ele>1088.3</ele>
        <time>2015-06-11T15:15:37Z</time>
      </trkpt>
      <trkpt lat="45.17346" lon="5.55781">
        <ele>1088.4</ele>
        <time>2015-06-11T15:15:38Z</time>
      </trkpt>
      <trkpt lat="45.17345" lon="5.55785">
        <ele>1088.5</ele>
        <time>2015-06-11T15:15:39Z</time>
      </trkpt>
      <trkpt lat="45.17345" lon="5.55788">
        <ele>1088.6</ele>
        <time>2015-06-11T15:15:40Z</time>
      </trkpt>
      <trkpt lat="45.17345" lon="5.55791">
        <ele>1088.8</ele>
        <time>2015-06-11T15:15:41Z</time>
      </trkpt>
      <trkpt lat="45.17344" lon="5.55794">
        <ele>1088.9</ele>
        <time>2015-06-11T15:15:42Z</time>
      </trkpt>
      <trkpt lat="45.17344" lon="5.55797">
        <ele>1089.1</ele>
        <time>2015-06-11T15:15:43Z</time>
      </trkpt>
      <trkpt lat="45.17344" lon="5.55801">
        <ele>1089.4</ele>
        <time>2015-06-11T15:15:44Z</time>
      </trkpt>
      <trkpt lat="45.17344" lon="5.55805">
        <ele>1089.7</ele>
        <time>2015-06-11T15:15:45Z</time>
      </trkpt>
      <trkpt lat="45.17344" lon="5.55808">
        <ele>1090</ele>
        <time>2015-06-11T15:15:46Z</time>
      </trkpt>
      <trkpt lat="45.17345" lon="5.55812">
        <ele>1090.2</ele>
        <time>2015-06-11T15:15:47Z</time>
      </trkpt>
      <trkpt lat="45.17345" lon="5.55815">
        <ele>1090.5</ele>
        <time>2015-06-11T15:15:48Z</time>
      </trkpt>
      <trkpt lat="45.17346" lon="5.55818">
        <ele>1090.8</ele>
        <time>2015-06-11T15:15:49Z</time>
      </trkpt>
      <trkpt lat="45.17347" lon="5.55822">
        <ele>1091</ele>
        <time>2015-06-11T15:15:50Z</time>
      </trkpt>
      <trkpt lat="45.17347" lon="5.55826">
        <ele>1091.3</ele>
        <time>2015-06-11T15:15:51Z</time>
      </trkpt>
      <trkpt lat="45.17347" lon="5.55829">
        <ele>1091.6</ele>
        <time>2015-06-11T15:15:52Z</time>
      </trkpt>
      <trkpt lat="45.17348" lon="5.55833">
        <ele>1091.8</ele>
        <time>2015-06-11T15:15:53Z</time>
      </trkpt>
      <trkpt lat="45.17349" lon="5.55837">
        <ele>1092.1</ele>
        <time>2015-06-11T15:15:54Z</time>
      </trkpt>
      <trkpt lat="45.17349" lon="5.5584">
        <ele>1092.3</ele>
        <time>2015-06-11T15:15:55Z</time>
      </trkpt>
      <trkpt lat="45.17349" lon="5.55843">
        <ele>1092.5</ele>
        <time>2015-06-11T15:15:56Z</time>
      </trkpt>
      <trkpt lat="45.1735" lon="5.55846">
        <ele>1092.6</ele>
        <time>2015-06-11T15:15:57Z</time>
      </trkpt>
      <trkpt lat="45.1735" lon="5.55849">
        <ele>1092.9</ele>
        <time>2015-06-11T15:15:58Z</time>
      </trkpt>
      <trkpt lat="45.1735" lon="5.55852">
        <ele>1093.1</ele>
        <time>2015-06-11T15:15:59Z</time>
      </trkpt>
      <trkpt lat="45.17351" lon="5.55855">
        <ele>1093.2</ele>
        <time>2015-06-11T15:16:00Z</time>
      </trkpt>
      <trkpt lat="45.17352" lon="5.55859">
        <ele>1093.4</ele>
        <time>2015-06-11T15:16:01Z</time>
      </trkpt>
      <trkpt lat="45.17352" lon="5.55862">
        <ele>1093.6</ele>
        <time>2015-06-11T15:16:02Z</time>
      </trkpt>
      <trkpt lat="45.17353" lon="5.55864">
        <ele>1093.7</ele>
        <time>2015-06-11T15:16:03Z</time>
      </trkpt>
      <trkpt lat="45.17353" lon="5.55867">
        <ele>1093.8</ele>
        <time>2015-06-11T15:16:04Z</time>
      </trkpt>
      <trkpt lat="45.17354" lon="5.5587">
        <ele>1094</ele>
        <time>2015-06-11T15:16:05Z</time>
      </trkpt>
      <trkpt lat="45.17355" lon="5.55873">
        <ele>1094.1</ele>
        <time>2015-06-11T15:16:06Z</time>
      </trkpt>
      <trkpt lat="45.17357" lon="5.55876">
        <ele>1094.1</ele>
        <time>2015-06-11T15:16:07Z</time>
      </trkpt>
      <trkpt lat="45.17358" lon="5.55879">
        <ele>1094.2</ele>
        <time>2015-06-11T15:16:08Z</time>
      </trkpt>
      <trkpt lat="45.17359" lon="5.55882">
        <ele>1094.2</ele>
        <time>2015-06-11T15:16:09Z</time>
      </trkpt>
      <trkpt lat="45.1736" lon="5.55885">
        <ele>1094.3</ele>
        <time>2015-06-11T15:16:10Z</time>
      </trkpt>
      <trkpt lat="45.17361" lon="5.55889">
        <ele>1094.3</ele>
        <time>2015-06-11T15:16:11Z</time>
      </trkpt>
      <trkpt lat="45.17362" lon="5.55891">
        <ele>1094.4</ele>
        <time>2015-06-11T15:16:12Z</time>
      </trkpt>
      <trkpt lat="45.17363" lon="5.55894">
        <ele>1094.4</ele>
        <time>2015-06-11T15:16:13Z</time>
      </trkpt>
      <trkpt lat="45.17364" lon="5.55897">
        <ele>1094.5</ele>
        <time>2015-06-11T15:16:14Z</time>
      </trkpt>
      <trkpt lat="45.17365" lon="5.559">
        <ele>1094.5</ele>
        <time>2015-06-11T15:16:15Z</time>
      </trkpt>
      <trkpt lat="45.17365" lon="5.55904">
        <ele>1094.6</ele>
        <time>2015-06-11T15:16:16Z</time>
      </trkpt>
      <trkpt lat="45.17366" lon="5.55907">
        <ele>1094.7</ele>
        <time>2015-06-11T15:16:17Z</time>
      </trkpt>
      <trkpt lat="45.17366" lon="5.5591">
        <ele>1094.8</ele>
        <time>2015-06-11T15:16:18Z</time>
      </trkpt>
      <trkpt lat="45.17367" lon="5.55914">
        <ele>1094.9</ele>
        <time>2015-06-11T15:16:19Z</time>
      </trkpt>
      <trkpt lat="45.17367" lon="5.55917">
        <ele>1095</ele>
        <time>2015-06-11T15:16:20Z</time>
      </trkpt>
      <trkpt lat="45.17368" lon="5.5592">
        <ele>1095.1</ele>
        <time>2015-06-11T15:16:21Z</time>
      </trkpt>
      <trkpt lat="45.17368" lon="5.55924">
        <ele>1095.2</ele>
        <time>2015-06-11T15:16:22Z</time>
      </trkpt>
      <trkpt lat="45.17369" lon="5.55928">
        <ele>1095.3</ele>
        <time>2015-06-11T15:16:23Z</time>
      </trkpt>
      <trkpt lat="45.1737" lon="5.55931">
        <ele>1095.3</ele>
        <time>2015-06-11T15:16:24Z</time>
      </trkpt>
      <trkpt lat="45.1737" lon="5.55934">
        <ele>1095.4</ele>
        <time>2015-06-11T15:16:25Z</time>
      </trkpt>
      <trkpt lat="45.17371" lon="5.55937">
        <ele>1095.5</ele>
        <time>2015-06-11T15:16:26Z</time>
      </trkpt>
      <trkpt lat="45.17371" lon="5.5594">
        <ele>1095.6</ele>
        <time>2015-06-11T15:16:27Z</time>
      </trkpt>
      <trkpt lat="45.17372" lon="5.55944">
        <ele>1095.7</ele>
        <time>2015-06-11T15:16:28Z</time>
      </trkpt>
      <trkpt lat="45.17372" lon="5.55947">
        <ele>1095.8</ele>
        <time>2015-06-11T15:16:29Z</time>
      </trkpt>
      <trkpt lat="45.17373" lon="5.5595">
        <ele>1095.9</ele>
        <time>2015-06-11T15:16:30Z</time>
      </trkpt>
      <trkpt lat="45.17373" lon="5.55954">
        <ele>1095.9</ele>
        <time>2015-06-11T15:16:31Z</time>
      </trkpt>
      <trkpt lat="45.17374" lon="5.55957">
        <ele>1096</ele>
        <time>2015-06-11T15:16:32Z</time>
      </trkpt>
      <trkpt lat="45.17374" lon="5.5596">
        <ele>1096.2</ele>
        <time>2015-06-11T15:16:33Z</time>
      </trkpt>
      <trkpt lat="45.17374" lon="5.55963">
        <ele>1096.4</ele>
        <time>2015-06-11T15:16:34Z</time>
      </trkpt>
      <trkpt lat="45.17375" lon="5.55966">
        <ele>1096.6</ele>
        <time>2015-06-11T15:16:35Z</time>
      </trkpt>
      <trkpt lat="45.17376" lon="5.55969">
        <ele>1096.8</ele>
        <time>2015-06-11T15:16:36Z</time>
      </trkpt>
      <trkpt lat="45.17376" lon="5.55972">
        <ele>1097</ele>
        <time>2015-06-11T15:16:37Z</time>
      </trkpt>
      <trkpt lat="45.17376" lon="5.55975">
        <ele>1097.3</ele>
        <time>2015-06-11T15:16:38Z</time>
      </trkpt>
      <trkpt lat="45.17377" lon="5.55978">
        <ele>1097.5</ele>
        <time>2015-06-11T15:16:39Z</time>
      </trkpt>
      <trkpt lat="45.17377" lon="5.55982">
        <ele>1097.7</ele>
        <time>2015-06-11T15:16:40Z</time>
      </trkpt>
      <trkpt lat="45.17378" lon="5.55985">
        <ele>1098</ele>
        <time>2015-06-11T15:16:41Z</time>
      </trkpt>
      <trkpt lat="45.17378" lon="5.55988">
        <ele>1098.2</ele>
        <time>2015-06-11T15:16:42Z</time>
      </trkpt>
      <trkpt lat="45.17378" lon="5.55991">
        <ele>1098.4</ele>
        <time>2015-06-11T15:16:43Z</time>
      </trkpt>
      <trkpt lat="45.17378" lon="5.55995">
        <ele>1098.6</ele>
        <time>2015-06-11T15:16:44Z</time>
      </trkpt>
      <trkpt lat="45.17379" lon="5.55998">
        <ele>1098.9</ele>
        <time>2015-06-11T15:16:45Z</time>
      </trkpt>
      <trkpt lat="45.17379" lon="5.56001">
        <ele>1099.1</ele>
        <time>2015-06-11T15:16:46Z</time>
      </trkpt>
      <trkpt lat="45.17379" lon="5.56005">
        <ele>1099.3</ele>
        <time>2015-06-11T15:16:47Z</time>
      </trkpt>
      <trkpt lat="45.17379" lon="5.56008">
        <ele>1099.5</ele>
        <time>2015-06-11T15:16:48Z</time>
      </trkpt>
      <trkpt lat="45.17379" lon="5.56011">
        <ele>1099.7</ele>
        <time>2015-06-11T15:16:49Z</time>
      </trkpt>
      <trkpt lat="45.17379" lon="5.56014">
        <ele>1099.9</ele>
        <time>2015-06-11T15:16:50Z</time>
      </trkpt>
      <trkpt lat="45.17379" lon="5.56017">
        <ele>1100.1</ele>
        <time>2015-06-11T15:16:51Z</time>
      </trkpt>
      <trkpt lat="45.17379" lon="5.56019">
        <ele>1100.3</ele>
        <time>2015-06-11T15:16:52Z</time>
      </trkpt>
      <trkpt lat="45.17379" lon="5.56022">
        <ele>1100.5</ele>
        <time>2015-06-11T15:16:53Z</time>
      </trkpt>
      <trkpt lat="45.1738" lon="5.56025">
        <ele>1100.7</ele>
        <time>2015-06-11T15:16:54Z</time>
      </trkpt>
      <trkpt lat="45.1738" lon="5.56029">
        <ele>1100.9</ele>
        <time>2015-06-11T15:16:55Z</time>
      </trkpt>
      <trkpt lat="45.1738" lon="5.56032">
        <ele>1101.1</ele>
        <time>2015-06-11T15:16:56Z</time>
      </trkpt>
      <trkpt lat="45.17379" lon="5.56034">
        <ele>1101.3</ele>
        <time>2015-06-11T15:16:57Z</time>
      </trkpt>
      <trkpt lat="45.17378" lon="5.56037">
        <ele>1101.5</ele>
        <time>2015-06-11T15:16:58Z</time>
      </trkpt>
      <trkpt lat="45.17377" lon="5.56039">
        <ele>1101.7</ele>
        <time>2015-06-11T15:16:59Z</time>
      </trkpt>
      <trkpt lat="45.17376" lon="5.56042">
        <ele>1102</ele>
        <time>2015-06-11T15:17:00Z</time>
      </trkpt>
      <trkpt lat="45.17374" lon="5.56044">
        <ele>1102.1</ele>
        <time>2015-06-11T15:17:01Z</time>
      </trkpt>
      <trkpt lat="45.17372" lon="5.56046">
        <ele>1102.3</ele>
        <time>2015-06-11T15:17:02Z</time>
      </trkpt>
      <trkpt lat="45.1737" lon="5.56046">
        <ele>1102.5</ele>
        <time>2015-06-11T15:17:03Z</time>
      </trkpt>
      <trkpt lat="45.17368" lon="5.56045">
        <ele>1102.7</ele>
        <time>2015-06-11T15:17:04Z</time>
      </trkpt>
      <trkpt lat="45.17365" lon="5.56044">
        <ele>1102.8</ele>
        <time>2015-06-11T15:17:05Z</time>
      </trkpt>
      <trkpt lat="45.17363" lon="5.56043">
        <ele>1103</ele>
        <time>2015-06-11T15:17:06Z</time>
      </trkpt>
      <trkpt lat="45.17361" lon="5.56041">
        <ele>1103.1</ele>
        <time>2015-06-11T15:17:07Z</time>
      </trkpt>
      <trkpt lat="45.1736" lon="5.56039">
        <ele>1103.1</ele>
        <time>2015-06-11T15:17:08Z</time>
      </trkpt>
      <trkpt lat="45.17358" lon="5.56037">
        <ele>1103.1</ele>
        <time>2015-06-11T15:17:09Z</time>
      </trkpt>
      <trkpt lat="45.17357" lon="5.56035">
        <ele>1103.1</ele>
        <time>2015-06-11T15:17:10Z</time>
      </trkpt>
      <trkpt lat="45.17355" lon="5.56033">
        <ele>1103</ele>
        <time>2015-06-11T15:17:11Z</time>
      </trkpt>
      <trkpt lat="45.17353" lon="5.56031">
        <ele>1103</ele>
        <time>2015-06-11T15:17:12Z</time>
      </trkpt>
      <trkpt lat="45.17352" lon="5.56029">
        <ele>1103</ele>
        <time>2015-06-11T15:17:13Z</time>
      </trkpt>
      <trkpt lat="45.1735" lon="5.56027">
        <ele>1102.9</ele>
        <time>2015-06-11T15:17:14Z</time>
      </trkpt>
      <trkpt lat="45.17349" lon="5.56025">
        <ele>1102.9</ele>
        <time>2015-06-11T15:17:15Z</time>
      </trkpt>
      <trkpt lat="45.17347" lon="5.56022">
        <ele>1102.8</ele>
        <time>2015-06-11T15:17:16Z</time>
      </trkpt>
      <trkpt lat="45.17345" lon="5.56019">
        <ele>1102.7</ele>
        <time>2015-06-11T15:17:17Z</time>
      </trkpt>
      <trkpt lat="45.17344" lon="5.56017">
        <ele>1102.6</ele>
        <time>2015-06-11T15:17:18Z</time>
      </trkpt>
      <trkpt lat="45.17343" lon="5.56014">
        <ele>1102.5</ele>
        <time>2015-06-11T15:17:19Z</time>
      </trkpt>
      <trkpt lat="45.17341" lon="5.56012">
        <ele>1102.4</ele>
        <time>2015-06-11T15:17:20Z</time>
      </trkpt>
      <trkpt lat="45.1734" lon="5.5601">
        <ele>1102.3</ele>
        <time>2015-06-11T15:17:21Z</time>
      </trkpt>
      <trkpt lat="45.17338" lon="5.56007">
        <ele>1102.3</ele>
        <time>2015-06-11T15:17:22Z</time>
      </trkpt>
      <trkpt lat="45.17337" lon="5.56005">
        <ele>1102.2</ele>
        <time>2015-06-11T15:17:23Z</time>
      </trkpt>
      <trkpt lat="45.17335" lon="5.56003">
        <ele>1102.1</ele>
        <time>2015-06-11T15:17:24Z</time>
      </trkpt>
      <trkpt lat="45.17333" lon="5.56001">
        <ele>1102.1</ele>
        <time>2015-06-11T15:17:25Z</time>
      </trkpt>
      <trkpt lat="45.17331" lon="5.55999">
        <ele>1102.1</ele>
        <time>2015-06-11T15:17:26Z</time>
      </trkpt>
      <trkpt lat="45.17329" lon="5.55997">
        <ele>1102</ele>
        <time>2015-06-11T15:17:27Z</time>
      </trkpt>
      <trkpt lat="45.17328" lon="5.55995">
        <ele>1102</ele>
        <time>2015-06-11T15:17:28Z</time>
      </trkpt>
      <trkpt lat="45.17326" lon="5.55993">
        <ele>1101.9</ele>
        <time>2015-06-11T15:17:29Z</time>
      </trkpt>
      <trkpt lat="45.17324" lon="5.55991">
        <ele>1101.8</ele>
        <time>2015-06-11T15:17:30Z</time>
      </trkpt>
      <trkpt lat="45.17323" lon="5.55989">
        <ele>1101.8</ele>
        <time>2015-06-11T15:17:31Z</time>
      </trkpt>
      <trkpt lat="45.17321" lon="5.55987">
        <ele>1101.8</ele>
        <time>2015-06-11T15:17:32Z</time>
      </trkpt>
      <trkpt lat="45.17319" lon="5.55986">
        <ele>1101.8</ele>
        <time>2015-06-11T15:17:33Z</time>
      </trkpt>
      <trkpt lat="45.17317" lon="5.55984">
        <ele>1101.7</ele>
        <time>2015-06-11T15:17:34Z</time>
      </trkpt>
      <trkpt lat="45.17315" lon="5.55982">
        <ele>1101.6</ele>
        <time>2015-06-11T15:17:35Z</time>
      </trkpt>
      <trkpt lat="45.17314" lon="5.5598">
        <ele>1101.6</ele>
        <time>2015-06-11T15:17:36Z</time>
      </trkpt>
      <trkpt lat="45.17312" lon="5.55978">
        <ele>1101.5</ele>
        <time>2015-06-11T15:17:37Z</time>
      </trkpt>
      <trkpt lat="45.1731" lon="5.55977">
        <ele>1101.6</ele>
        <time>2015-06-11T15:17:38Z</time>
      </trkpt>
      <trkpt lat="45.17308" lon="5.55977">
        <ele>1101.7</ele>
        <time>2015-06-11T15:17:39Z</time>
      </trkpt>
      <trkpt lat="45.17306" lon="5.55977">
        <ele>1101.9</ele>
        <time>2015-06-11T15:17:40Z</time>
      </trkpt>
      <trkpt lat="45.17304" lon="5.55978">
        <ele>1102</ele>
        <time>2015-06-11T15:17:41Z</time>
      </trkpt>
      <trkpt lat="45.17302" lon="5.55978">
        <ele>1102.2</ele>
        <time>2015-06-11T15:17:42Z</time>
      </trkpt>
      <trkpt lat="45.173" lon="5.55979">
        <ele>1102.4</ele>
        <time>2015-06-11T15:17:43Z</time>
      </trkpt>
      <trkpt lat="45.17298" lon="5.5598">
        <ele>1102.6</ele>
        <time>2015-06-11T15:17:44Z</time>
      </trkpt>
      <trkpt lat="45.17296" lon="5.55981">
        <ele>1102.9</ele>
        <time>2015-06-11T15:17:45Z</time>
      </trkpt>
      <trkpt lat="45.17294" lon="5.55982">
        <ele>1103.1</ele>
        <time>2015-06-11T15:17:46Z</time>
      </trkpt>
      <trkpt lat="45.17292" lon="5.55983">
        <ele>1103.4</ele>
        <time>2015-06-11T15:17:47Z</time>
      </trkpt>
      <trkpt lat="45.1729" lon="5.55984">
        <ele>1103.6</ele>
        <time>2015-06-11T15:17:48Z</time>
      </trkpt>
      <trkpt lat="45.17288" lon="5.55986">
        <ele>1103.9</ele>
        <time>2015-06-11T15:17:49Z</time>
      </trkpt>
      <trkpt lat="45.17286" lon="5.55987">
        <ele>1104.1</ele>
        <time>2015-06-11T15:17:50Z</time>
      </trkpt>
      <trkpt lat="45.17284" lon="5.55988">
        <ele>1104.4</ele>
        <time>2015-06-11T15:17:51Z</time>
      </trkpt>
      <trkpt lat="45.17283" lon="5.55989">
        <ele>1104.5</ele>
        <time>2015-06-11T15:17:52Z</time>
      </trkpt>
      <trkpt lat="45.17281" lon="5.5599">
        <ele>1104.7</ele>
        <time>2015-06-11T15:17:53Z</time>
      </trkpt>
      <trkpt lat="45.17279" lon="5.55991">
        <ele>1104.9</ele>
        <time>2015-06-11T15:17:54Z</time>
      </trkpt>
      <trkpt lat="45.17277" lon="5.55992">
        <ele>1105.2</ele>
        <time>2015-06-11T15:17:55Z</time>
      </trkpt>
      <trkpt lat="45.17275" lon="5.55993">
        <ele>1105.3</ele>
        <time>2015-06-11T15:17:56Z</time>
      </trkpt>
      <trkpt lat="45.17273" lon="5.55993">
        <ele>1105.5</ele>
        <time>2015-06-11T15:17:57Z</time>
      </trkpt>
      <trkpt lat="45.17272" lon="5.55994">
        <ele>1105.6</ele>
        <time>2015-06-11T15:17:58Z</time>
      </trkpt>
      <trkpt lat="45.1727" lon="5.55995">
        <ele>1105.8</ele>
        <time>2015-06-11T15:17:59Z</time>
      </trkpt>
      <trkpt lat="45.17268" lon="5.55996">
        <ele>1106</ele>
        <time>2015-06-11T15:18:00Z</time>
      </trkpt>
      <trkpt lat="45.17267" lon="5.55997">
        <ele>1106.1</ele>
        <time>2015-06-11T15:18:01Z</time>
      </trkpt>
      <trkpt lat="45.17265" lon="5.55998">
        <ele>1106.3</ele>
        <time>2015-06-11T15:18:02Z</time>
      </trkpt>
      <trkpt lat="45.17263" lon="5.55999">
        <ele>1106.5</ele>
        <time>2015-06-11T15:18:03Z</time>
      </trkpt>
      <trkpt lat="45.17261" lon="5.56001">
        <ele>1106.7</ele>
        <time>2015-06-11T15:18:04Z</time>
      </trkpt>
      <trkpt lat="45.17259" lon="5.56002">
        <ele>1106.9</ele>
        <time>2015-06-11T15:18:05Z</time>
      </trkpt>
      <trkpt lat="45.17257" lon="5.56003">
        <ele>1107</ele>
        <time>2015-06-11T15:18:06Z</time>
      </trkpt>
      <trkpt lat="45.17255" lon="5.56004">
        <ele>1107.2</ele>
        <time>2015-06-11T15:18:07Z</time>
      </trkpt>
      <trkpt lat="45.17254" lon="5.56005">
        <ele>1107.4</ele>
        <time>2015-06-11T15:18:08Z</time>
      </trkpt>
      <trkpt lat="45.17251" lon="5.56006">
        <ele>1107.5</ele>
        <time>2015-06-11T15:18:09Z</time>
      </trkpt>
      <trkpt lat="45.17249" lon="5.56008">
        <ele>1107.7</ele>
        <time>2015-06-11T15:18:10Z</time>
      </trkpt>
      <trkpt lat="45.17247" lon="5.56009">
        <ele>1107.8</ele>
        <time>2015-06-11T15:18:11Z</time>
      </trkpt>
      <trkpt lat="45.17245" lon="5.56009">
        <ele>1108</ele>
        <time>2015-06-11T15:18:12Z</time>
      </trkpt>
      <trkpt lat="45.17243" lon="5.5601">
        <ele>1108.1</ele>
        <time>2015-06-11T15:18:13Z</time>
      </trkpt>
      <trkpt lat="45.17241" lon="5.56011">
        <ele>1108.2</ele>
        <time>2015-06-11T15:18:14Z</time>
      </trkpt>
      <trkpt lat="45.17239" lon="5.56012">
        <ele>1108.4</ele>
        <time>2015-06-11T15:18:15Z</time>
      </trkpt>
      <trkpt lat="45.17237" lon="5.56014">
        <ele>1108.5</ele>
        <time>2015-06-11T15:18:16Z</time>
      </trkpt>
      <trkpt lat="45.17235" lon="5.56015">
        <ele>1108.6</ele>
        <time>2015-06-11T15:18:17Z</time>
      </trkpt>
      <trkpt lat="45.17234" lon="5.56015">
        <ele>1108.7</ele>
        <time>2015-06-11T15:18:18Z</time>
      </trkpt>
      <trkpt lat="45.17232" lon="5.56016">
        <ele>1108.8</ele>
        <time>2015-06-11T15:18:19Z</time>
      </trkpt>
      <trkpt lat="45.1723" lon="5.56017">
        <ele>1108.9</ele>
        <time>2015-06-11T15:18:20Z</time>
      </trkpt>
      <trkpt lat="45.17228" lon="5.56018">
        <ele>1109</ele>
        <time>2015-06-11T15:18:21Z</time>
      </trkpt>
      <trkpt lat="45.17226" lon="5.56019">
        <ele>1109.1</ele>
        <time>2015-06-11T15:18:22Z</time>
      </trkpt>
      <trkpt lat="45.17224" lon="5.56021">
        <ele>1109.2</ele>
        <time>2015-06-11T15:18:23Z</time>
      </trkpt>
      <trkpt lat="45.17222" lon="5.56021">
        <ele>1109.3</ele>
        <time>2015-06-11T15:18:24Z</time>
      </trkpt>
      <trkpt lat="45.1722" lon="5.56022">
        <ele>1109.4</ele>
        <time>2015-06-11T15:18:25Z</time>
      </trkpt>
      <trkpt lat="45.17218" lon="5.56023">
        <ele>1109.5</ele>
        <time>2015-06-11T15:18:26Z</time>
      </trkpt>
      <trkpt lat="45.17217" lon="5.56025">
        <ele>1109.6</ele>
        <time>2015-06-11T15:18:27Z</time>
      </trkpt>
      <trkpt lat="45.17214" lon="5.56026">
        <ele>1109.6</ele>
        <time>2015-06-11T15:18:28Z</time>
      </trkpt>
      <trkpt lat="45.17212" lon="5.56027">
        <ele>1109.7</ele>
        <time>2015-06-11T15:18:29Z</time>
      </trkpt>
      <trkpt lat="45.1721" lon="5.56028">
        <ele>1109.8</ele>
        <time>2015-06-11T15:18:30Z</time>
      </trkpt>
      <trkpt lat="45.17207" lon="5.56029">
        <ele>1109.9</ele>
        <time>2015-06-11T15:18:31Z</time>
      </trkpt>
      <trkpt lat="45.17205" lon="5.5603">
        <ele>1109.9</ele>
        <time>2015-06-11T15:18:32Z</time>
      </trkpt>
      <trkpt lat="45.17203" lon="5.56031">
        <ele>1110</ele>
        <time>2015-06-11T15:18:33Z</time>
      </trkpt>
      <trkpt lat="45.17201" lon="5.56033">
        <ele>1110</ele>
        <time>2015-06-11T15:18:34Z</time>
      </trkpt>
      <trkpt lat="45.17198" lon="5.56034">
        <ele>1110.1</ele>
        <time>2015-06-11T15:18:35Z</time>
      </trkpt>
      <trkpt lat="45.17196" lon="5.56035">
        <ele>1110.2</ele>
        <time>2015-06-11T15:18:36Z</time>
      </trkpt>
      <trkpt lat="45.17193" lon="5.56037">
        <ele>1110.3</ele>
        <time>2015-06-11T15:18:37Z</time>
      </trkpt>
      <trkpt lat="45.17191" lon="5.56038">
        <ele>1110.3</ele>
        <time>2015-06-11T15:18:38Z</time>
      </trkpt>
      <trkpt lat="45.17189" lon="5.56039">
        <ele>1110.4</ele>
        <time>2015-06-11T15:18:39Z</time>
      </trkpt>
      <trkpt lat="45.17186" lon="5.56039">
        <ele>1110.5</ele>
        <time>2015-06-11T15:18:40Z</time>
      </trkpt>
      <trkpt lat="45.17184" lon="5.56041">
        <ele>1110.6</ele>
        <time>2015-06-11T15:18:41Z</time>
      </trkpt>
      <trkpt lat="45.17182" lon="5.56042">
        <ele>1110.6</ele>
        <time>2015-06-11T15:18:42Z</time>
      </trkpt>
      <trkpt lat="45.1718" lon="5.56042">
        <ele>1110.7</ele>
        <time>2015-06-11T15:18:43Z</time>
      </trkpt>
      <trkpt lat="45.17178" lon="5.56043">
        <ele>1110.8</ele>
        <time>2015-06-11T15:18:44Z</time>
      </trkpt>
      <trkpt lat="45.17176" lon="5.56044">
        <ele>1110.9</ele>
        <time>2015-06-11T15:18:45Z</time>
      </trkpt>
      <trkpt lat="45.17173" lon="5.56046">
        <ele>1111.1</ele>
        <time>2015-06-11T15:18:46Z</time>
      </trkpt>
      <trkpt lat="45.1717" lon="5.56047">
        <ele>1111.3</ele>
        <time>2015-06-11T15:18:47Z</time>
      </trkpt>
      <trkpt lat="45.17168" lon="5.56048">
        <ele>1111.4</ele>
        <time>2015-06-11T15:18:48Z</time>
      </trkpt>
      <trkpt lat="45.17166" lon="5.56048">
        <ele>1111.5</ele>
        <time>2015-06-11T15:18:49Z</time>
      </trkpt>
      <trkpt lat="45.17164" lon="5.5605">
        <ele>1111.6</ele>
        <time>2015-06-11T15:18:50Z</time>
      </trkpt>
      <trkpt lat="45.17162" lon="5.56051">
        <ele>1111.8</ele>
        <time>2015-06-11T15:18:51Z</time>
      </trkpt>
      <trkpt lat="45.17159" lon="5.56053">
        <ele>1112</ele>
        <time>2015-06-11T15:18:52Z</time>
      </trkpt>
      <trkpt lat="45.17157" lon="5.56054">
        <ele>1112.1</ele>
        <time>2015-06-11T15:18:53Z</time>
      </trkpt>
      <trkpt lat="45.17155" lon="5.56055">
        <ele>1112.3</ele>
        <time>2015-06-11T15:18:54Z</time>
      </trkpt>
      <trkpt lat="45.17153" lon="5.56057">
        <ele>1112.4</ele>
        <time>2015-06-11T15:18:55Z</time>
      </trkpt>
      <trkpt lat="45.17151" lon="5.56058">
        <ele>1112.5</ele>
        <time>2015-06-11T15:18:56Z</time>
      </trkpt>
      <trkpt lat="45.17149" lon="5.56059">
        <ele>1112.7</ele>
        <time>2015-06-11T15:18:57Z</time>
      </trkpt>
      <trkpt lat="45.17147" lon="5.56061">
        <ele>1112.9</ele>
        <time>2015-06-11T15:18:58Z</time>
      </trkpt>
      <trkpt lat="45.17145" lon="5.56062">
        <ele>1113.1</ele>
        <time>2015-06-11T15:18:59Z</time>
      </trkpt>
      <trkpt lat="45.17143" lon="5.56064">
        <ele>1113.2</ele>
        <time>2015-06-11T15:19:00Z</time>
      </trkpt>
      <trkpt lat="45.17141" lon="5.56065">
        <ele>1113.4</ele>
        <time>2015-06-11T15:19:01Z</time>
      </trkpt>
      <trkpt lat="45.17139" lon="5.56066">
        <ele>1113.6</ele>
        <time>2015-06-11T15:19:02Z</time>
      </trkpt>
      <trkpt lat="45.17137" lon="5.56068">
        <ele>1113.7</ele>
        <time>2015-06-11T15:19:03Z</time>
      </trkpt>
      <trkpt lat="45.17135" lon="5.56069">
        <ele>1113.9</ele>
        <time>2015-06-11T15:19:04Z</time>
      </trkpt>
      <trkpt lat="45.17133" lon="5.56071">
        <ele>1114.1</ele>
        <time>2015-06-11T15:19:05Z</time>
      </trkpt>
      <trkpt lat="45.17131" lon="5.56072">
        <ele>1114.3</ele>
        <time>2015-06-11T15:19:06Z</time>
      </trkpt>
      <trkpt lat="45.17129" lon="5.56074">
        <ele>1114.5</ele>
        <time>2015-06-11T15:19:07Z</time>
      </trkpt>
      <trkpt lat="45.17127" lon="5.56075">
        <ele>1114.7</ele>
        <time>2015-06-11T15:19:08Z</time>
      </trkpt>
      <trkpt lat="45.17124" lon="5.56076">
        <ele>1114.9</ele>
        <time>2015-06-11T15:19:09Z</time>
      </trkpt>
      <trkpt lat="45.17122" lon="5.56078">
        <ele>1115.1</ele>
        <time>2015-06-11T15:19:10Z</time>
      </trkpt>
      <trkpt lat="45.1712" lon="5.56079">
        <ele>1115.3</ele>
        <time>2015-06-11T15:19:11Z</time>
      </trkpt>
      <trkpt lat="45.17117" lon="5.56081">
        <ele>1115.5</ele>
        <time>2015-06-11T15:19:12Z</time>
      </trkpt>
      <trkpt lat="45.17115" lon="5.56082">
        <ele>1115.7</ele>
        <time>2015-06-11T15:19:13Z</time>
      </trkpt>
      <trkpt lat="45.17113" lon="5.56084">
        <ele>1115.9</ele>
        <time>2015-06-11T15:19:14Z</time>
      </trkpt>
      <trkpt lat="45.17111" lon="5.56086">
        <ele>1116.1</ele>
        <time>2015-06-11T15:19:15Z</time>
      </trkpt>
      <trkpt lat="45.17109" lon="5.56088">
        <ele>1116.3</ele>
        <time>2015-06-11T15:19:16Z</time>
      </trkpt>
      <trkpt lat="45.17107" lon="5.5609">
        <ele>1116.5</ele>
        <time>2015-06-11T15:19:17Z</time>
      </trkpt>
      <trkpt lat="45.17106" lon="5.56092">
        <ele>1116.8</ele>
        <time>2015-06-11T15:19:18Z</time>
      </trkpt>
      <trkpt lat="45.17104" lon="5.56094">
        <ele>1117</ele>
        <time>2015-06-11T15:19:19Z</time>
      </trkpt>
      <trkpt lat="45.17102" lon="5.56096">
        <ele>1117.3</ele>
        <time>2015-06-11T15:19:20Z</time>
      </trkpt>
      <trkpt lat="45.171" lon="5.56099">
        <ele>1117.5</ele>
        <time>2015-06-11T15:19:21Z</time>
      </trkpt>
      <trkpt lat="45.17098" lon="5.56102">
        <ele>1117.8</ele>
        <time>2015-06-11T15:19:22Z</time>
      </trkpt>
      <trkpt lat="45.17096" lon="5.56105">
        <ele>1118.1</ele>
        <time>2015-06-11T15:19:23Z</time>
      </trkpt>
      <trkpt lat="45.17094" lon="5.56108">
        <ele>1118.4</ele>
        <time>2015-06-11T15:19:24Z</time>
      </trkpt>
      <trkpt lat="45.17092" lon="5.56111">
        <ele>1118.7</ele>
        <time>2015-06-11T15:19:25Z</time>
      </trkpt>
      <trkpt lat="45.1709" lon="5.56114">
        <ele>1119</ele>
        <time>2015-06-11T15:19:26Z</time>
      </trkpt>
      <trkpt lat="45.17089" lon="5.56117">
        <ele>1119.2</ele>
        <time>2015-06-11T15:19:27Z</time>
      </trkpt>
      <trkpt lat="45.17087" lon="5.56119">
        <ele>1119.5</ele>
        <time>2015-06-11T15:19:28Z</time>
      </trkpt>
      <trkpt lat="45.17085" lon="5.56122">
        <ele>1119.7</ele>
        <time>2015-06-11T15:19:29Z</time>
      </trkpt>
      <trkpt lat="45.17084" lon="5.56124">
        <ele>1119.9</ele>
        <time>2015-06-11T15:19:30Z</time>
      </trkpt>
      <trkpt lat="45.17082" lon="5.56126">
        <ele>1120</ele>
        <time>2015-06-11T15:19:31Z</time>
      </trkpt>
      <trkpt lat="45.17081" lon="5.56128">
        <ele>1120.1</ele>
        <time>2015-06-11T15:19:32Z</time>
      </trkpt>
      <trkpt lat="45.17079" lon="5.56129">
        <ele>1120.2</ele>
        <time>2015-06-11T15:19:33Z</time>
      </trkpt>
      <trkpt lat="45.17077" lon="5.56131">
        <ele>1120.3</ele>
        <time>2015-06-11T15:19:34Z</time>
      </trkpt>
      <trkpt lat="45.17075" lon="5.56133">
        <ele>1120.5</ele>
        <time>2015-06-11T15:19:35Z</time>
      </trkpt>
      <trkpt lat="45.17072" lon="5.56135">
        <ele>1120.6</ele>
        <time>2015-06-11T15:19:36Z</time>
      </trkpt>
      <trkpt lat="45.1707" lon="5.56137">
        <ele>1120.7</ele>
        <time>2015-06-11T15:19:37Z</time>
      </trkpt>
      <trkpt lat="45.17069" lon="5.56138">
        <ele>1120.8</ele>
        <time>2015-06-11T15:19:38Z</time>
      </trkpt>
      <trkpt lat="45.17067" lon="5.5614">
        <ele>1120.9</ele>
        <time>2015-06-11T15:19:39Z</time>
      </trkpt>
      <trkpt lat="45.17066" lon="5.56142">
        <ele>1121</ele>
        <time>2015-06-11T15:19:40Z</time>
      </trkpt>
      <trkpt lat="45.17065" lon="5.56145">
        <ele>1121.1</ele>
        <time>2015-06-11T15:19:41Z</time>
      </trkpt>
      <trkpt lat="45.17064" lon="5.56149">
        <ele>1121.2</ele>
        <time>2015-06-11T15:19:42Z</time>
      </trkpt>
      <trkpt lat="45.17064" lon="5.56152">
        <ele>1121.4</ele>
        <time>2015-06-11T15:19:43Z</time>
      </trkpt>
      <trkpt lat="45.17063" lon="5.56155">
        <ele>1121.5</ele>
        <time>2015-06-11T15:19:44Z</time>
      </trkpt>
      <trkpt lat="45.17062" lon="5.56158">
        <ele>1121.6</ele>
        <time>2015-06-11T15:19:45Z</time>
      </trkpt>
      <trkpt lat="45.17061" lon="5.56161">
        <ele>1121.7</ele>
        <time>2015-06-11T15:19:46Z</time>
      </trkpt>
      <trkpt lat="45.17061" lon="5.56164">
        <ele>1121.8</ele>
        <time>2015-06-11T15:19:47Z</time>
      </trkpt>
      <trkpt lat="45.17061" lon="5.56168">
        <ele>1122</ele>
        <time>2015-06-11T15:19:48Z</time>
      </trkpt>
      <trkpt lat="45.17061" lon="5.56171">
        <ele>1122.1</ele>
        <time>2015-06-11T15:19:49Z</time>
      </trkpt>
      <trkpt lat="45.1706" lon="5.56174">
        <ele>1122.2</ele>
        <time>2015-06-11T15:19:50Z</time>
      </trkpt>
      <trkpt lat="45.1706" lon="5.56177">
        <ele>1122.3</ele>
        <time>2015-06-11T15:19:51Z</time>
      </trkpt>
      <trkpt lat="45.17059" lon="5.5618">
        <ele>1122.4</ele>
        <time>2015-06-11T15:19:52Z</time>
      </trkpt>
      <trkpt lat="45.17059" lon="5.56183">
        <ele>1122.5</ele>
        <time>2015-06-11T15:19:53Z</time>
      </trkpt>
      <trkpt lat="45.17058" lon="5.56186">
        <ele>1122.7</ele>
        <time>2015-06-11T15:19:54Z</time>
      </trkpt>
      <trkpt lat="45.17058" lon="5.56189">
        <ele>1122.8</ele>
        <time>2015-06-11T15:19:55Z</time>
      </trkpt>
      <trkpt lat="45.17058" lon="5.56192">
        <ele>1122.9</ele>
        <time>2015-06-11T15:19:56Z</time>
      </trkpt>
      <trkpt lat="45.17058" lon="5.56196">
        <ele>1123</ele>
        <time>2015-06-11T15:19:57Z</time>
      </trkpt>
      <trkpt lat="45.17058" lon="5.562">
        <ele>1123.1</ele>
        <time>2015-06-11T15:19:58Z</time>
      </trkpt>
      <trkpt lat="45.17057" lon="5.56203">
        <ele>1123.2</ele>
        <time>2015-06-11T15:19:59Z</time>
      </trkpt>
      <trkpt lat="45.17057" lon="5.56206">
        <ele>1123.4</ele>
        <time>2015-06-11T15:20:00Z</time>
      </trkpt>
      <trkpt lat="45.17057" lon="5.56209">
        <ele>1123.5</ele>
        <time>2015-06-11T15:20:01Z</time>
      </trkpt>
      <trkpt lat="45.17057" lon="5.56212">
        <ele>1123.8</ele>
        <time>2015-06-11T15:20:02Z</time>
      </trkpt>
      <trkpt lat="45.17057" lon="5.56215">
        <ele>1124.1</ele>
        <time>2015-06-11T15:20:03Z</time>
      </trkpt>
      <trkpt lat="45.17057" lon="5.56219">
        <ele>1124.4</ele>
        <time>2015-06-11T15:20:04Z</time>
      </trkpt>
      <trkpt lat="45.17057" lon="5.56222">
        <ele>1124.8</ele>
        <time>2015-06-11T15:20:05Z</time>
      </trkpt>
      <trkpt lat="45.17057" lon="5.56226">
        <ele>1125.1</ele>
        <time>2015-06-11T15:20:06Z</time>
      </trkpt>
      <trkpt lat="45.17057" lon="5.56229">
        <ele>1125.4</ele>
        <time>2015-06-11T15:20:07Z</time>
      </trkpt>
      <trkpt lat="45.17057" lon="5.56233">
        <ele>1125.7</ele>
        <time>2015-06-11T15:20:08Z</time>
      </trkpt>
      <trkpt lat="45.17057" lon="5.56236">
        <ele>1126.1</ele>
        <time>2015-06-11T15:20:09Z</time>
      </trkpt>
      <trkpt lat="45.17057" lon="5.5624">
        <ele>1126.4</ele>
        <time>2015-06-11T15:20:10Z</time>
      </trkpt>
      <trkpt lat="45.17057" lon="5.56243">
        <ele>1126.7</ele>
        <time>2015-06-11T15:20:11Z</time>
      </trkpt>
      <trkpt lat="45.17057" lon="5.56246">
        <ele>1127</ele>
        <time>2015-06-11T15:20:12Z</time>
      </trkpt>
      <trkpt lat="45.17057" lon="5.56249">
        <ele>1127.3</ele>
        <time>2015-06-11T15:20:13Z</time>
      </trkpt>
      <trkpt lat="45.17056" lon="5.56252">
        <ele>1127.7</ele>
        <time>2015-06-11T15:20:14Z</time>
      </trkpt>
      <trkpt lat="45.17056" lon="5.56256">
        <ele>1128.1</ele>
        <time>2015-06-11T15:20:15Z</time>
      </trkpt>
      <trkpt lat="45.17055" lon="5.5626">
        <ele>1128.5</ele>
        <time>2015-06-11T15:20:16Z</time>
      </trkpt>
      <trkpt lat="45.17055" lon="5.56263">
        <ele>1128.8</ele>
        <time>2015-06-11T15:20:17Z</time>
      </trkpt>
      <trkpt lat="45.17054" lon="5.56266">
        <ele>1129.2</ele>
        <time>2015-06-11T15:20:18Z</time>
      </trkpt>
      <trkpt lat="45.17054" lon="5.5627">
        <ele>1129.5</ele>
        <time>2015-06-11T15:20:19Z</time>
      </trkpt>
      <trkpt lat="45.17054" lon="5.56273">
        <ele>1129.8</ele>
        <time>2015-06-11T15:20:20Z</time>
      </trkpt>
      <trkpt lat="45.17054" lon="5.56276">
        <ele>1130.2</ele>
        <time>2015-06-11T15:20:21Z</time>
      </trkpt>
      <trkpt lat="45.17054" lon="5.56279">
        <ele>1130.5</ele>
        <time>2015-06-11T15:20:22Z</time>
      </trkpt>
      <trkpt lat="45.17054" lon="5.56283">
        <ele>1130.8</ele>
        <time>2015-06-11T15:20:23Z</time>
      </trkpt>
      <trkpt lat="45.17054" lon="5.56286">
        <ele>1131.2</ele>
        <time>2015-06-11T15:20:24Z</time>
      </trkpt>
      <trkpt lat="45.17053" lon="5.56289">
        <ele>1131.5</ele>
        <time>2015-06-11T15:20:25Z</time>
      </trkpt>
      <trkpt lat="45.17053" lon="5.56292">
        <ele>1131.8</ele>
        <time>2015-06-11T15:20:26Z</time>
      </trkpt>
      <trkpt lat="45.17053" lon="5.56296">
        <ele>1132.5</ele>
        <time>2015-06-11T15:20:27Z</time>
      </trkpt>
      <trkpt lat="45.17053" lon="5.56299">
        <ele>1133.1</ele>
        <time>2015-06-11T15:20:28Z</time>
      </trkpt>
      <trkpt lat="45.17053" lon="5.56303">
        <ele>1133.8</ele>
        <time>2015-06-11T15:20:29Z</time>
      </trkpt>
      <trkpt lat="45.17053" lon="5.56306">
        <ele>1134.4</ele>
        <time>2015-06-11T15:20:30Z</time>
      </trkpt>
      <trkpt lat="45.17053" lon="5.56309">
        <ele>1135</ele>
        <time>2015-06-11T15:20:31Z</time>
      </trkpt>
      <trkpt lat="45.17053" lon="5.56313">
        <ele>1135.6</ele>
        <time>2015-06-11T15:20:32Z</time>
      </trkpt>
      <trkpt lat="45.17052" lon="5.56316">
        <ele>1136.2</ele>
        <time>2015-06-11T15:20:33Z</time>
      </trkpt>
      <trkpt lat="45.17052" lon="5.5632">
        <ele>1136.9</ele>
        <time>2015-06-11T15:20:34Z</time>
      </trkpt>
      <trkpt lat="45.17051" lon="5.56323">
        <ele>1137.7</ele>
        <time>2015-06-11T15:20:35Z</time>
      </trkpt>
      <trkpt lat="45.17051" lon="5.56327">
        <ele>1138.3</ele>
        <time>2015-06-11T15:20:36Z</time>
      </trkpt>
      <trkpt lat="45.17051" lon="5.5633">
        <ele>1139</ele>
        <time>2015-06-11T15:20:37Z</time>
      </trkpt>
      <trkpt lat="45.1705" lon="5.56334">
        <ele>1139.8</ele>
        <time>2015-06-11T15:20:38Z</time>
      </trkpt>
      <trkpt lat="45.1705" lon="5.56337">
        <ele>1140.4</ele>
        <time>2015-06-11T15:20:39Z</time>
      </trkpt>
      <trkpt lat="45.1705" lon="5.5634">
        <ele>1140.9</ele>
        <time>2015-06-11T15:20:40Z</time>
      </trkpt>
      <trkpt lat="45.17049" lon="5.56343">
        <ele>1141.6</ele>
        <time>2015-06-11T15:20:41Z</time>
      </trkpt>
      <trkpt lat="45.17049" lon="5.56347">
        <ele>1142.3</ele>
        <time>2015-06-11T15:20:42Z</time>
      </trkpt>
      <trkpt lat="45.17048" lon="5.5635">
        <ele>1143</ele>
        <time>2015-06-11T15:20:43Z</time>
      </trkpt>
      <trkpt lat="45.17048" lon="5.56353">
        <ele>1143.7</ele>
        <time>2015-06-11T15:20:44Z</time>
      </trkpt>
      <trkpt lat="45.17047" lon="5.56356">
        <ele>1144.4</ele>
        <time>2015-06-11T15:20:45Z</time>
      </trkpt>
      <trkpt lat="45.17047" lon="5.5636">
        <ele>1145</ele>
        <time>2015-06-11T15:20:46Z</time>
      </trkpt>
      <trkpt lat="45.17047" lon="5.56363">
        <ele>1145.6</ele>
        <time>2015-06-11T15:20:47Z</time>
      </trkpt>
      <trkpt lat="45.17047" lon="5.56367">
        <ele>1146.3</ele>
        <time>2015-06-11T15:20:48Z</time>
      </trkpt>
      <trkpt lat="45.17047" lon="5.5637">
        <ele>1147</ele>
        <time>2015-06-11T15:20:49Z</time>
      </trkpt>
      <trkpt lat="45.17047" lon="5.56374">
        <ele>1147.7</ele>
        <time>2015-06-11T15:20:50Z</time>
      </trkpt>
      <trkpt lat="45.17046" lon="5.56378">
        <ele>1148.3</ele>
        <time>2015-06-11T15:20:51Z</time>
      </trkpt>
      <trkpt lat="45.17046" lon="5.56382">
        <ele>1148.9</ele>
        <time>2015-06-11T15:20:52Z</time>
      </trkpt>
      <trkpt lat="45.17045" lon="5.56386">
        <ele>1149.5</ele>
        <time>2015-06-11T15:20:53Z</time>
      </trkpt>
      <trkpt lat="45.17045" lon="5.56389">
        <ele>1149.9</ele>
        <time>2015-06-11T15:20:54Z</time>
      </trkpt>
      <trkpt lat="45.17045" lon="5.56392">
        <ele>1150.3</ele>
        <time>2015-06-11T15:20:55Z</time>
      </trkpt>
      <trkpt lat="45.17044" lon="5.56396">
        <ele>1150.8</ele>
        <time>2015-06-11T15:20:56Z</time>
      </trkpt>
      <trkpt lat="45.17044" lon="5.56399">
        <ele>1151.2</ele>
        <time>2015-06-11T15:20:57Z</time>
      </trkpt>
      <trkpt lat="45.17045" lon="5.56402">
        <ele>1151.4</ele>
        <time>2015-06-11T15:20:58Z</time>
      </trkpt>
      <trkpt lat="45.17045" lon="5.56405">
        <ele>1151.8</ele>
        <time>2015-06-11T15:20:59Z</time>
      </trkpt>
      <trkpt lat="45.17046" lon="5.56409">
        <ele>1152.1</ele>
        <time>2015-06-11T15:21:00Z</time>
      </trkpt>
      <trkpt lat="45.17046" lon="5.56411">
        <ele>1152.3</ele>
        <time>2015-06-11T15:21:01Z</time>
      </trkpt>
      <trkpt lat="45.17047" lon="5.56414">
        <ele>1152.4</ele>
        <time>2015-06-11T15:21:02Z</time>
      </trkpt>
      <trkpt lat="45.17047" lon="5.56417">
        <ele>1152.8</ele>
        <time>2015-06-11T15:21:03Z</time>
      </trkpt>
      <trkpt lat="45.17047" lon="5.5642">
        <ele>1153.1</ele>
        <time>2015-06-11T15:21:04Z</time>
      </trkpt>
      <trkpt lat="45.17047" lon="5.56424">
        <ele>1153.4</ele>
        <time>2015-06-11T15:21:05Z</time>
      </trkpt>
      <trkpt lat="45.17048" lon="5.56427">
        <ele>1153.7</ele>
        <time>2015-06-11T15:21:06Z</time>
      </trkpt>
      <trkpt lat="45.17048" lon="5.56431">
        <ele>1154.1</ele>
        <time>2015-06-11T15:21:07Z</time>
      </trkpt>
      <trkpt lat="45.17048" lon="5.56434">
        <ele>1154.5</ele>
        <time>2015-06-11T15:21:08Z</time>
      </trkpt>
      <trkpt lat="45.17048" lon="5.56437">
        <ele>1154.9</ele>
        <time>2015-06-11T15:21:09Z</time>
      </trkpt>
      <trkpt lat="45.17047" lon="5.5644">
        <ele>1155.4</ele>
        <time>2015-06-11T15:21:10Z</time>
      </trkpt>
      <trkpt lat="45.17047" lon="5.56443">
        <ele>1155.8</ele>
        <time>2015-06-11T15:21:11Z</time>
      </trkpt>
      <trkpt lat="45.17046" lon="5.56446">
        <ele>1156.2</ele>
        <time>2015-06-11T15:21:12Z</time>
      </trkpt>
      <trkpt lat="45.17046" lon="5.56449">
        <ele>1156.6</ele>
        <time>2015-06-11T15:21:13Z</time>
      </trkpt>
      <trkpt lat="45.17045" lon="5.56451">
        <ele>1157.1</ele>
        <time>2015-06-11T15:21:14Z</time>
      </trkpt>
      <trkpt lat="45.17045" lon="5.56453">
        <ele>1157.4</ele>
        <time>2015-06-11T15:21:15Z</time>
      </trkpt>
      <trkpt lat="45.17044" lon="5.56455">
        <ele>1157.8</ele>
        <time>2015-06-11T15:21:16Z</time>
      </trkpt>
      <trkpt lat="45.17044" lon="5.56457">
        <ele>1158.1</ele>
        <time>2015-06-11T15:21:17Z</time>
      </trkpt>
      <trkpt lat="45.17045" lon="5.5646">
        <ele>1158.1</ele>
        <time>2015-06-11T15:21:18Z</time>
      </trkpt>
      <trkpt lat="45.17046" lon="5.56463">
        <ele>1158.1</ele>
        <time>2015-06-11T15:21:19Z</time>
      </trkpt>
      <trkpt lat="45.17045" lon="5.56466">
        <ele>1158.4</ele>
        <time>2015-06-11T15:21:20Z</time>
      </trkpt>
      <trkpt lat="45.17046" lon="5.56468">
        <ele>1158.4</ele>
        <time>2015-06-11T15:21:21Z</time>
      </trkpt>
      <trkpt lat="45.17046" lon="5.56469">
        <ele>1158.3</ele>
        <time>2015-06-11T15:21:22Z</time>
      </trkpt>
      <trkpt lat="45.17046" lon="5.56468">
        <ele>1158.2</ele>
        <time>2015-06-11T15:21:23Z</time>
      </trkpt>
      <trkpt lat="45.17048" lon="5.56468">
        <ele>1157.9</ele>
        <time>2015-06-11T15:21:24Z</time>
      </trkpt>
      <trkpt lat="45.17049" lon="5.56467">
        <ele>1157.4</ele>
        <time>2015-06-11T15:21:25Z</time>
      </trkpt>
      <trkpt lat="45.17051" lon="5.56466">
        <ele>1157</ele>
        <time>2015-06-11T15:21:26Z</time>
      </trkpt>
      <trkpt lat="45.17052" lon="5.56465">
        <ele>1156.5</ele>
        <time>2015-06-11T15:21:27Z</time>
      </trkpt>
      <trkpt lat="45.17054" lon="5.56464">
        <ele>1155.8</ele>
        <time>2015-06-11T15:21:28Z</time>
      </trkpt>
      <trkpt lat="45.17056" lon="5.56463">
        <ele>1155.2</ele>
        <time>2015-06-11T15:21:29Z</time>
      </trkpt>
      <trkpt lat="45.17057" lon="5.56461">
        <ele>1154.7</ele>
        <time>2015-06-11T15:21:30Z</time>
      </trkpt>
      <trkpt lat="45.17059" lon="5.56461">
        <ele>1154.2</ele>
        <time>2015-06-11T15:21:31Z</time>
      </trkpt>
      <trkpt lat="45.17061" lon="5.5646">
        <ele>1153.6</ele>
        <time>2015-06-11T15:21:32Z</time>
      </trkpt>
      <trkpt lat="45.17062" lon="5.5646">
        <ele>1153.2</ele>
        <time>2015-06-11T15:21:33Z</time>
      </trkpt>
      <trkpt lat="45.17064" lon="5.5646">
        <ele>1152.7</ele>
        <time>2015-06-11T15:21:34Z</time>
      </trkpt>
      <trkpt lat="45.17066" lon="5.56459">
        <ele>1152.1</ele>
        <time>2015-06-11T15:21:35Z</time>
      </trkpt>
      <trkpt lat="45.17068" lon="5.56458">
        <ele>1151.5</ele>
        <time>2015-06-11T15:21:36Z</time>
      </trkpt>
      <trkpt lat="45.1707" lon="5.56457">
        <ele>1150.8</ele>
        <time>2015-06-11T15:21:37Z</time>
      </trkpt>
      <trkpt lat="45.17072" lon="5.56456">
        <ele>1150</ele>
        <time>2015-06-11T15:21:38Z</time>
      </trkpt>
      <trkpt lat="45.17075" lon="5.56455">
        <ele>1149.2</ele>
        <time>2015-06-11T15:21:39Z</time>
      </trkpt>
      <trkpt lat="45.17077" lon="5.56455">
        <ele>1148.5</ele>
        <time>2015-06-11T15:21:40Z</time>
      </trkpt>
      <trkpt lat="45.17079" lon="5.56455">
        <ele>1147.9</ele>
        <time>2015-06-11T15:21:41Z</time>
      </trkpt>
      <trkpt lat="45.17082" lon="5.56454">
        <ele>1147.2</ele>
        <time>2015-06-11T15:21:42Z</time>
      </trkpt>
      <trkpt lat="45.17083" lon="5.56454">
        <ele>1146.8</ele>
        <time>2015-06-11T15:21:43Z</time>
      </trkpt>
      <trkpt lat="45.17084" lon="5.56454">
        <ele>1146.5</ele>
        <time>2015-06-11T15:21:44Z</time>
      </trkpt>
      <trkpt lat="45.17085" lon="5.56455">
        <ele>1146.1</ele>
        <time>2015-06-11T15:21:45Z</time>
      </trkpt>
      <trkpt lat="45.17086" lon="5.56455">
        <ele>1145.8</ele>
        <time>2015-06-11T15:21:46Z</time>
      </trkpt>
      <trkpt lat="45.17088" lon="5.56455">
        <ele>1145.4</ele>
        <time>2015-06-11T15:21:47Z</time>
      </trkpt>
      <trkpt lat="45.17089" lon="5.56455">
        <ele>1145.1</ele>
        <time>2015-06-11T15:21:48Z</time>
      </trkpt>
      <trkpt lat="45.1709" lon="5.56455">
        <ele>1144.8</ele>
        <time>2015-06-11T15:21:49Z</time>
      </trkpt>
      <trkpt lat="45.17092" lon="5.56455">
        <ele>1144.3</ele>
        <time>2015-06-11T15:21:50Z</time>
      </trkpt>
      <trkpt lat="45.17094" lon="5.56455">
        <ele>1143.8</ele>
        <time>2015-06-11T15:21:51Z</time>
      </trkpt>
      <trkpt lat="45.17095" lon="5.56456">
        <ele>1143.4</ele>
        <time>2015-06-11T15:21:52Z</time>
      </trkpt>
      <trkpt lat="45.17097" lon="5.56456">
        <ele>1143</ele>
        <time>2015-06-11T15:21:53Z</time>
      </trkpt>
      <trkpt lat="45.17098" lon="5.56456">
        <ele>1142.6</ele>
        <time>2015-06-11T15:21:54Z</time>
      </trkpt>
      <trkpt lat="45.17099" lon="5.56457">
        <ele>1142.5</ele>
        <time>2015-06-11T15:21:55Z</time>
      </trkpt>
      <trkpt lat="45.17099" lon="5.56457">
        <ele>1142.4</ele>
        <time>2015-06-11T15:21:56Z</time>
      </trkpt>
      <trkpt lat="45.17099" lon="5.56457">
        <ele>1142.3</ele>
        <time>2015-06-11T15:21:57Z</time>
      </trkpt>
      <trkpt lat="45.171" lon="5.56458">
        <ele>1142.2</ele>
        <time>2015-06-11T15:21:58Z</time>
      </trkpt>
      <trkpt lat="45.171" lon="5.56458">
        <ele>1142.2</ele>
        <time>2015-06-11T15:21:59Z</time>
      </trkpt>
      <trkpt lat="45.17101" lon="5.56459">
        <ele>1142.2</ele>
        <time>2015-06-11T15:22:00Z</time>
      </trkpt>
      <trkpt lat="45.17101" lon="5.5646">
        <ele>1142.4</ele>
        <time>2015-06-11T15:22:01Z</time>
      </trkpt>
      <trkpt lat="45.171" lon="5.56461">
        <ele>1142.7</ele>
        <time>2015-06-11T15:22:02Z</time>
      </trkpt>
      <trkpt lat="45.171" lon="5.56462">
        <ele>1142.9</ele>
        <time>2015-06-11T15:22:03Z</time>
      </trkpt>
      <trkpt lat="45.17099" lon="5.56462">
        <ele>1143.2</ele>
        <time>2015-06-11T15:22:04Z</time>
      </trkpt>
      <trkpt lat="45.17098" lon="5.56463">
        <ele>1143.6</ele>
        <time>2015-06-11T15:22:05Z</time>
      </trkpt>
      <trkpt lat="45.17098" lon="5.56464">
        <ele>1143.9</ele>
        <time>2015-06-11T15:22:06Z</time>
      </trkpt>
      <trkpt lat="45.17096" lon="5.56465">
        <ele>1144.5</ele>
        <time>2015-06-11T15:22:07Z</time>
      </trkpt>
      <trkpt lat="45.17096" lon="5.56467">
        <ele>1145</ele>
        <time>2015-06-11T15:22:08Z</time>
      </trkpt>
      <trkpt lat="45.17095" lon="5.56468">
        <ele>1145.3</ele>
        <time>2015-06-11T15:22:09Z</time>
      </trkpt>
      <trkpt lat="45.17095" lon="5.56469">
        <ele>1145.5</ele>
        <time>2015-06-11T15:22:10Z</time>
      </trkpt>
      <trkpt lat="45.17096" lon="5.56469">
        <ele>1145.4</ele>
        <time>2015-06-11T15:22:11Z</time>
      </trkpt>
      <trkpt lat="45.17096" lon="5.56469">
        <ele>1145.3</ele>
        <time>2015-06-11T15:22:12Z</time>
      </trkpt>
      <trkpt lat="45.17097" lon="5.56469">
        <ele>1145.1</ele>
        <time>2015-06-11T15:22:13Z</time>
      </trkpt>
      <trkpt lat="45.17098" lon="5.56469">
        <ele>1144.8</ele>
        <time>2015-06-11T15:22:14Z</time>
      </trkpt>
      <trkpt lat="45.17099" lon="5.56469">
        <ele>1144.6</ele>
        <time>2015-06-11T15:22:15Z</time>
      </trkpt>
      <trkpt lat="45.171" lon="5.56469">
        <ele>1144.2</ele>
        <time>2015-06-11T15:22:16Z</time>
      </trkpt>
      <trkpt lat="45.17101" lon="5.56469">
        <ele>1143.9</ele>
        <time>2015-06-11T15:22:17Z</time>
      </trkpt>
      <trkpt lat="45.17102" lon="5.5647">
        <ele>1143.9</ele>
        <time>2015-06-11T15:22:18Z</time>
      </trkpt>
      <trkpt lat="45.17102" lon="5.56471">
        <ele>1144.2</ele>
        <time>2015-06-11T15:22:19Z</time>
      </trkpt>
      <trkpt lat="45.17101" lon="5.56473">
        <ele>1144.8</ele>
        <time>2015-06-11T15:22:20Z</time>
      </trkpt>
      <trkpt lat="45.171" lon="5.56474">
        <ele>1145.2</ele>
        <time>2015-06-11T15:22:21Z</time>
      </trkpt>
      <trkpt lat="45.17099" lon="5.56475">
        <ele>1145.5</ele>
        <time>2015-06-11T15:22:22Z</time>
      </trkpt>
      <trkpt lat="45.17099" lon="5.56475">
        <ele>1145.5</ele>
        <time>2015-06-11T15:22:23Z</time>
      </trkpt>
      <trkpt lat="45.17101" lon="5.56475">
        <ele>1145.3</ele>
        <time>2015-06-11T15:22:24Z</time>
      </trkpt>
      <trkpt lat="45.17102" lon="5.56476">
        <ele>1145</ele>
        <time>2015-06-11T15:22:25Z</time>
      </trkpt>
      <trkpt lat="45.17104" lon="5.56476">
        <ele>1144.7</ele>
        <time>2015-06-11T15:22:26Z</time>
      </trkpt>
      <trkpt lat="45.17105" lon="5.56477">
        <ele>1144.6</ele>
        <time>2015-06-11T15:22:27Z</time>
      </trkpt>
      <trkpt lat="45.17106" lon="5.56478">
        <ele>1144.6</ele>
        <time>2015-06-11T15:22:28Z</time>
      </trkpt>
      <trkpt lat="45.17107" lon="5.5648">
        <ele>1144.6</ele>
        <time>2015-06-11T15:22:29Z</time>
      </trkpt>
      <trkpt lat="45.17109" lon="5.5648">
        <ele>1144.4</ele>
        <time>2015-06-11T15:22:30Z</time>
      </trkpt>
      <trkpt lat="45.1711" lon="5.5648">
        <ele>1144</ele>
        <time>2015-06-11T15:22:31Z</time>
      </trkpt>
      <trkpt lat="45.17112" lon="5.5648">
        <ele>1143.7</ele>
        <time>2015-06-11T15:22:32Z</time>
      </trkpt>
      <trkpt lat="45.17113" lon="5.5648">
        <ele>1143.4</ele>
        <time>2015-06-11T15:22:33Z</time>
      </trkpt>
      <trkpt lat="45.17115" lon="5.56481">
        <ele>1143</ele>
        <time>2015-06-11T15:22:34Z</time>
      </trkpt>
      <trkpt lat="45.17116" lon="5.56481">
        <ele>1142.8</ele>
        <time>2015-06-11T15:22:35Z</time>
      </trkpt>
      <trkpt lat="45.17118" lon="5.56482">
        <ele>1142.5</ele>
        <time>2015-06-11T15:22:36Z</time>
      </trkpt>
      <trkpt lat="45.1712" lon="5.56483">
        <ele>1142.3</ele>
        <time>2015-06-11T15:22:37Z</time>
      </trkpt>
      <trkpt lat="45.17122" lon="5.56484">
        <ele>1142</ele>
        <time>2015-06-11T15:22:38Z</time>
      </trkpt>
      <trkpt lat="45.17122" lon="5.56484">
        <ele>1142</ele>
        <time>2015-06-11T15:22:39Z</time>
      </trkpt>
      <trkpt lat="45.17123" lon="5.56484">
        <ele>1142</ele>
        <time>2015-06-11T15:22:40Z</time>
      </trkpt>
      <trkpt lat="45.17124" lon="5.56485">
        <ele>1141.9</ele>
        <time>2015-06-11T15:22:41Z</time>
      </trkpt>
      <trkpt lat="45.17125" lon="5.56486">
        <ele>1141.9</ele>
        <time>2015-06-11T15:22:42Z</time>
      </trkpt>
      <trkpt lat="45.17127" lon="5.56486">
        <ele>1142.1</ele>
        <time>2015-06-11T15:22:43Z</time>
      </trkpt>
      <trkpt lat="45.17128" lon="5.56487">
        <ele>1142.4</ele>
        <time>2015-06-11T15:22:44Z</time>
      </trkpt>
      <trkpt lat="45.17129" lon="5.56488">
        <ele>1142.6</ele>
        <time>2015-06-11T15:22:45Z</time>
      </trkpt>
      <trkpt lat="45.17131" lon="5.56489">
        <ele>1142.9</ele>
        <time>2015-06-11T15:22:46Z</time>
      </trkpt>
      <trkpt lat="45.17133" lon="5.5649">
        <ele>1143.2</ele>
        <time>2015-06-11T15:22:47Z</time>
      </trkpt>
      <trkpt lat="45.17134" lon="5.56491">
        <ele>1143.5</ele>
        <time>2015-06-11T15:22:48Z</time>
      </trkpt>
      <trkpt lat="45.17135" lon="5.56492">
        <ele>1143.9</ele>
        <time>2015-06-11T15:22:49Z</time>
      </trkpt>
      <trkpt lat="45.17136" lon="5.56493">
        <ele>1144.2</ele>
        <time>2015-06-11T15:22:50Z</time>
      </trkpt>
      <trkpt lat="45.17137" lon="5.56493">
        <ele>1144.3</ele>
        <time>2015-06-11T15:22:51Z</time>
      </trkpt>
      <trkpt lat="45.17138" lon="5.56494">
        <ele>1144.6</ele>
        <time>2015-06-11T15:22:52Z</time>
      </trkpt>
      <trkpt lat="45.17139" lon="5.56495">
        <ele>1145</ele>
        <time>2015-06-11T15:22:53Z</time>
      </trkpt>
      <trkpt lat="45.17141" lon="5.56497">
        <ele>1145.5</ele>
        <time>2015-06-11T15:22:54Z</time>
      </trkpt>
      <trkpt lat="45.17144" lon="5.56498">
        <ele>1145.9</ele>
        <time>2015-06-11T15:22:55Z</time>
      </trkpt>
      <trkpt lat="45.17146" lon="5.56499">
        <ele>1146.4</ele>
        <time>2015-06-11T15:22:56Z</time>
      </trkpt>
      <trkpt lat="45.17148" lon="5.56501">
        <ele>1146.9</ele>
        <time>2015-06-11T15:22:57Z</time>
      </trkpt>
      <trkpt lat="45.17149" lon="5.56502">
        <ele>1147.3</ele>
        <time>2015-06-11T15:22:58Z</time>
      </trkpt>
      <trkpt lat="45.17151" lon="5.56503">
        <ele>1147.7</ele>
        <time>2015-06-11T15:22:59Z</time>
      </trkpt>
      <trkpt lat="45.17152" lon="5.56504">
        <ele>1148.1</ele>
        <time>2015-06-11T15:23:00Z</time>
      </trkpt>
      <trkpt lat="45.17154" lon="5.56506">
        <ele>1148.6</ele>
        <time>2015-06-11T15:23:01Z</time>
      </trkpt>
      <trkpt lat="45.17156" lon="5.56507">
        <ele>1149</ele>
        <time>2015-06-11T15:23:02Z</time>
      </trkpt>
      <trkpt lat="45.17157" lon="5.56509">
        <ele>1149.6</ele>
        <time>2015-06-11T15:23:03Z</time>
      </trkpt>
      <trkpt lat="45.17158" lon="5.5651">
        <ele>1150.1</ele>
        <time>2015-06-11T15:23:04Z</time>
      </trkpt>
      <trkpt lat="45.1716" lon="5.56512">
        <ele>1150.7</ele>
        <time>2015-06-11T15:23:05Z</time>
      </trkpt>
      <trkpt lat="45.17161" lon="5.56514">
        <ele>1151.2</ele>
        <time>2015-06-11T15:23:06Z</time>
      </trkpt>
      <trkpt lat="45.17162" lon="5.56515">
        <ele>1151.6</ele>
        <time>2015-06-11T15:23:07Z</time>
      </trkpt>
      <trkpt lat="45.17164" lon="5.56516">
        <ele>1152.1</ele>
        <time>2015-06-11T15:23:08Z</time>
      </trkpt>
      <trkpt lat="45.17165" lon="5.56517">
        <ele>1152.5</ele>
        <time>2015-06-11T15:23:09Z</time>
      </trkpt>
      <trkpt lat="45.17167" lon="5.56519">
        <ele>1153</ele>
        <time>2015-06-11T15:23:10Z</time>
      </trkpt>
      <trkpt lat="45.17168" lon="5.5652">
        <ele>1153.5</ele>
        <time>2015-06-11T15:23:11Z</time>
      </trkpt>
      <trkpt lat="45.1717" lon="5.56521">
        <ele>1154</ele>
        <time>2015-06-11T15:23:12Z</time>
      </trkpt>
      <trkpt lat="45.17172" lon="5.56523">
        <ele>1154.5</ele>
        <time>2015-06-11T15:23:13Z</time>
      </trkpt>
      <trkpt lat="45.17173" lon="5.56524">
        <ele>1155.1</ele>
        <time>2015-06-11T15:23:14Z</time>
      </trkpt>
      <trkpt lat="45.17175" lon="5.56526">
        <ele>1155.6</ele>
        <time>2015-06-11T15:23:15Z</time>
      </trkpt>
      <trkpt lat="45.17176" lon="5.56527">
        <ele>1156</ele>
        <time>2015-06-11T15:23:16Z</time>
      </trkpt>
      <trkpt lat="45.17178" lon="5.56528">
        <ele>1156.4</ele>
        <time>2015-06-11T15:23:17Z</time>
      </trkpt>
      <trkpt lat="45.1718" lon="5.56528">
        <ele>1156.7</ele>
        <time>2015-06-11T15:23:18Z</time>
      </trkpt>
      <trkpt lat="45.17182" lon="5.56529">
        <ele>1157.1</ele>
        <time>2015-06-11T15:23:19Z</time>
      </trkpt>
      <trkpt lat="45.17184" lon="5.5653">
        <ele>1157.6</ele>
        <time>2015-06-11T15:23:20Z</time>
      </trkpt>
      <trkpt lat="45.17186" lon="5.56532">
        <ele>1158.1</ele>
        <time>2015-06-11T15:23:21Z</time>
      </trkpt>
      <trkpt lat="45.17188" lon="5.56533">
        <ele>1158.6</ele>
        <time>2015-06-11T15:23:22Z</time>
      </trkpt>
      <trkpt lat="45.1719" lon="5.56534">
        <ele>1159.1</ele>
        <time>2015-06-11T15:23:23Z</time>
      </trkpt>
      <trkpt lat="45.17192" lon="5.56535">
        <ele>1159.5</ele>
        <time>2015-06-11T15:23:24Z</time>
      </trkpt>
      <trkpt lat="45.17194" lon="5.56536">
        <ele>1160</ele>
        <time>2015-06-11T15:23:25Z</time>
      </trkpt>
      <trkpt lat="45.17196" lon="5.56536">
        <ele>1160.4</ele>
        <time>2015-06-11T15:23:26Z</time>
      </trkpt>
      <trkpt lat="45.17199" lon="5.56537">
        <ele>1160.8</ele>
        <time>2015-06-11T15:23:27Z</time>
      </trkpt>
      <trkpt lat="45.17201" lon="5.56538">
        <ele>1161.1</ele>
        <time>2015-06-11T15:23:28Z</time>
      </trkpt>
      <trkpt lat="45.17204" lon="5.56538">
        <ele>1161.6</ele>
        <time>2015-06-11T15:23:29Z</time>
      </trkpt>
      <trkpt lat="45.17206" lon="5.56539">
        <ele>1162</ele>
        <time>2015-06-11T15:23:30Z</time>
      </trkpt>
      <trkpt lat="45.17209" lon="5.56541">
        <ele>1162.6</ele>
        <time>2015-06-11T15:23:31Z</time>
      </trkpt>
      <trkpt lat="45.17211" lon="5.56542">
        <ele>1163</ele>
        <time>2015-06-11T15:23:32Z</time>
      </trkpt>
      <trkpt lat="45.17213" lon="5.56543">
        <ele>1163.6</ele>
        <time>2015-06-11T15:23:33Z</time>
      </trkpt>
      <trkpt lat="45.17215" lon="5.56544">
        <ele>1164</ele>
        <time>2015-06-11T15:23:34Z</time>
      </trkpt>
      <trkpt lat="45.17217" lon="5.56545">
        <ele>1164.3</ele>
        <time>2015-06-11T15:23:35Z</time>
      </trkpt>
      <trkpt lat="45.17218" lon="5.56546">
        <ele>1164.6</ele>
        <time>2015-06-11T15:23:36Z</time>
      </trkpt>
      <trkpt lat="45.1722" lon="5.56547">
        <ele>1164.7</ele>
        <time>2015-06-11T15:23:37Z</time>
      </trkpt>
      <trkpt lat="45.17221" lon="5.56547">
        <ele>1164.9</ele>
        <time>2015-06-11T15:23:38Z</time>
      </trkpt>
      <trkpt lat="45.17223" lon="5.56548">
        <ele>1165.1</ele>
        <time>2015-06-11T15:23:39Z</time>
      </trkpt>
      <trkpt lat="45.17225" lon="5.56548">
        <ele>1165.1</ele>
        <time>2015-06-11T15:23:40Z</time>
      </trkpt>
      <trkpt lat="45.17226" lon="5.56548">
        <ele>1165.1</ele>
        <time>2015-06-11T15:23:41Z</time>
      </trkpt>
      <trkpt lat="45.17228" lon="5.56548">
        <ele>1165.1</ele>
        <time>2015-06-11T15:23:42Z</time>
      </trkpt>
      <trkpt lat="45.1723" lon="5.56548">
        <ele>1165</ele>
        <time>2015-06-11T15:23:43Z</time>
      </trkpt>
      <trkpt lat="45.17233" lon="5.56548">
        <ele>1165</ele>
        <time>2015-06-11T15:23:44Z</time>
      </trkpt>
      <trkpt lat="45.17237" lon="5.56549">
        <ele>1165</ele>
        <time>2015-06-11T15:23:45Z</time>
      </trkpt>
      <trkpt lat="45.17239" lon="5.56549">
        <ele>1165</ele>
        <time>2015-06-11T15:23:46Z</time>
      </trkpt>
      <trkpt lat="45.17242" lon="5.5655">
        <ele>1165.1</ele>
        <time>2015-06-11T15:23:47Z</time>
      </trkpt>
      <trkpt lat="45.17244" lon="5.5655">
        <ele>1165.3</ele>
        <time>2015-06-11T15:23:48Z</time>
      </trkpt>
      <trkpt lat="45.17247" lon="5.56551">
        <ele>1165.6</ele>
        <time>2015-06-11T15:23:49Z</time>
      </trkpt>
      <trkpt lat="45.17249" lon="5.56552">
        <ele>1165.8</ele>
        <time>2015-06-11T15:23:50Z</time>
      </trkpt>
      <trkpt lat="45.17251" lon="5.56553">
        <ele>1166</ele>
        <time>2015-06-11T15:23:51Z</time>
      </trkpt>
      <trkpt lat="45.17253" lon="5.56553">
        <ele>1166.2</ele>
        <time>2015-06-11T15:23:52Z</time>
      </trkpt>
      <trkpt lat="45.17254" lon="5.56554">
        <ele>1166.2</ele>
        <time>2015-06-11T15:23:53Z</time>
      </trkpt>
      <trkpt lat="45.17255" lon="5.56554">
        <ele>1166.3</ele>
        <time>2015-06-11T15:23:54Z</time>
      </trkpt>
      <trkpt lat="45.17256" lon="5.56554">
        <ele>1166.4</ele>
        <time>2015-06-11T15:23:55Z</time>
      </trkpt>
      <trkpt lat="45.17258" lon="5.56554">
        <ele>1166.3</ele>
        <time>2015-06-11T15:23:56Z</time>
      </trkpt>
      <trkpt lat="45.17259" lon="5.56555">
        <ele>1166.3</ele>
        <time>2015-06-11T15:23:57Z</time>
      </trkpt>
      <trkpt lat="45.17261" lon="5.56555">
        <ele>1166.3</ele>
        <time>2015-06-11T15:23:58Z</time>
      </trkpt>
      <trkpt lat="45.17263" lon="5.56555">
        <ele>1166.4</ele>
        <time>2015-06-11T15:23:59Z</time>
      </trkpt>
      <trkpt lat="45.17265" lon="5.56555">
        <ele>1166.3</ele>
        <time>2015-06-11T15:24:00Z</time>
      </trkpt>
      <trkpt lat="45.17268" lon="5.56555">
        <ele>1166.2</ele>
        <time>2015-06-11T15:24:01Z</time>
      </trkpt>
      <trkpt lat="45.17271" lon="5.56555">
        <ele>1165.9</ele>
        <time>2015-06-11T15:24:02Z</time>
      </trkpt>
      <trkpt lat="45.17274" lon="5.56555">
        <ele>1165.8</ele>
        <time>2015-06-11T15:24:03Z</time>
      </trkpt>
      <trkpt lat="45.17277" lon="5.56555">
        <ele>1165.6</ele>
        <time>2015-06-11T15:24:04Z</time>
      </trkpt>
      <trkpt lat="45.17279" lon="5.56555">
        <ele>1165.5</ele>
        <time>2015-06-11T15:24:05Z</time>
      </trkpt>
      <trkpt lat="45.17282" lon="5.56556">
        <ele>1165.6</ele>
        <time>2015-06-11T15:24:06Z</time>
      </trkpt>
      <trkpt lat="45.17284" lon="5.56557">
        <ele>1165.8</ele>
        <time>2015-06-11T15:24:07Z</time>
      </trkpt>
      <trkpt lat="45.17286" lon="5.56558">
        <ele>1166.1</ele>
        <time>2015-06-11T15:24:08Z</time>
      </trkpt>
      <trkpt lat="45.17288" lon="5.56559">
        <ele>1166.4</ele>
        <time>2015-06-11T15:24:09Z</time>
      </trkpt>
      <trkpt lat="45.1729" lon="5.5656">
        <ele>1166.7</ele>
        <time>2015-06-11T15:24:10Z</time>
      </trkpt>
      <trkpt lat="45.17292" lon="5.56562">
        <ele>1167.1</ele>
        <time>2015-06-11T15:24:11Z</time>
      </trkpt>
      <trkpt lat="45.17294" lon="5.56563">
        <ele>1167.2</ele>
        <time>2015-06-11T15:24:12Z</time>
      </trkpt>
      <trkpt lat="45.17297" lon="5.56564">
        <ele>1167.3</ele>
        <time>2015-06-11T15:24:13Z</time>
      </trkpt>
      <trkpt lat="45.173" lon="5.56565">
        <ele>1167.4</ele>
        <time>2015-06-11T15:24:14Z</time>
      </trkpt>
      <trkpt lat="45.17302" lon="5.56567">
        <ele>1167.6</ele>
        <time>2015-06-11T15:24:15Z</time>
      </trkpt>
      <trkpt lat="45.17304" lon="5.56568">
        <ele>1167.9</ele>
        <time>2015-06-11T15:24:16Z</time>
      </trkpt>
      <trkpt lat="45.17306" lon="5.5657">
        <ele>1168.2</ele>
        <time>2015-06-11T15:24:17Z</time>
      </trkpt>
      <trkpt lat="45.17308" lon="5.56572">
        <ele>1168.5</ele>
        <time>2015-06-11T15:24:18Z</time>
      </trkpt>
      <trkpt lat="45.17311" lon="5.56574">
        <ele>1168.8</ele>
        <time>2015-06-11T15:24:19Z</time>
      </trkpt>
      <trkpt lat="45.17313" lon="5.56575">
        <ele>1169</ele>
        <time>2015-06-11T15:24:20Z</time>
      </trkpt>
      <trkpt lat="45.17316" lon="5.56577">
        <ele>1169.2</ele>
        <time>2015-06-11T15:24:21Z</time>
      </trkpt>
      <trkpt lat="45.17318" lon="5.56578">
        <ele>1169.4</ele>
        <time>2015-06-11T15:24:22Z</time>
      </trkpt>
      <trkpt lat="45.1732" lon="5.56579">
        <ele>1169.5</ele>
        <time>2015-06-11T15:24:23Z</time>
      </trkpt>
      <trkpt lat="45.17322" lon="5.5658">
        <ele>1169.6</ele>
        <time>2015-06-11T15:24:24Z</time>
      </trkpt>
      <trkpt lat="45.17324" lon="5.56581">
        <ele>1169.6</ele>
        <time>2015-06-11T15:24:25Z</time>
      </trkpt>
      <trkpt lat="45.17326" lon="5.56582">
        <ele>1169.6</ele>
        <time>2015-06-11T15:24:26Z</time>
      </trkpt>
      <trkpt lat="45.17328" lon="5.56583">
        <ele>1169.6</ele>
        <time>2015-06-11T15:24:27Z</time>
      </trkpt>
      <trkpt lat="45.17329" lon="5.56584">
        <ele>1169.7</ele>
        <time>2015-06-11T15:24:28Z</time>
      </trkpt>
      <trkpt lat="45.17331" lon="5.56585">
        <ele>1169.9</ele>
        <time>2015-06-11T15:24:29Z</time>
      </trkpt>
      <trkpt lat="45.17333" lon="5.56586">
        <ele>1170.2</ele>
        <time>2015-06-11T15:24:30Z</time>
      </trkpt>
      <trkpt lat="45.17334" lon="5.56588">
        <ele>1170.4</ele>
        <time>2015-06-11T15:24:31Z</time>
      </trkpt>
      <trkpt lat="45.17336" lon="5.56589">
        <ele>1170.7</ele>
        <time>2015-06-11T15:24:32Z</time>
      </trkpt>
      <trkpt lat="45.17338" lon="5.5659">
        <ele>1170.8</ele>
        <time>2015-06-11T15:24:33Z</time>
      </trkpt>
      <trkpt lat="45.1734" lon="5.56591">
        <ele>1170.8</ele>
        <time>2015-06-11T15:24:34Z</time>
      </trkpt>
      <trkpt lat="45.17342" lon="5.56592">
        <ele>1170.8</ele>
        <time>2015-06-11T15:24:35Z</time>
      </trkpt>
      <trkpt lat="45.17344" lon="5.56593">
        <ele>1170.8</ele>
        <time>2015-06-11T15:24:36Z</time>
      </trkpt>
      <trkpt lat="45.17347" lon="5.56594">
        <ele>1170.8</ele>
        <time>2015-06-11T15:24:37Z</time>
      </trkpt>
      <trkpt lat="45.17349" lon="5.56595">
        <ele>1170.9</ele>
        <time>2015-06-11T15:24:38Z</time>
      </trkpt>
      <trkpt lat="45.1735" lon="5.56597">
        <ele>1171.1</ele>
        <time>2015-06-11T15:24:39Z</time>
      </trkpt>
      <trkpt lat="45.17352" lon="5.56598">
        <ele>1171.2</ele>
        <time>2015-06-11T15:24:40Z</time>
      </trkpt>
      <trkpt lat="45.17355" lon="5.56599">
        <ele>1171.3</ele>
        <time>2015-06-11T15:24:41Z</time>
      </trkpt>
      <trkpt lat="45.17357" lon="5.56601">
        <ele>1171.6</ele>
        <time>2015-06-11T15:24:42Z</time>
      </trkpt>
      <trkpt lat="45.17359" lon="5.56602">
        <ele>1171.8</ele>
        <time>2015-06-11T15:24:43Z</time>
      </trkpt>
      <trkpt lat="45.17361" lon="5.56604">
        <ele>1171.9</ele>
        <time>2015-06-11T15:24:44Z</time>
      </trkpt>
      <trkpt lat="45.17363" lon="5.56605">
        <ele>1172</ele>
        <time>2015-06-11T15:24:45Z</time>
      </trkpt>
      <trkpt lat="45.17365" lon="5.56606">
        <ele>1172.1</ele>
        <time>2015-06-11T15:24:46Z</time>
      </trkpt>
      <trkpt lat="45.17366" lon="5.56606">
        <ele>1172.1</ele>
        <time>2015-06-11T15:24:47Z</time>
      </trkpt>
      <trkpt lat="45.17368" lon="5.56607">
        <ele>1172.1</ele>
        <time>2015-06-11T15:24:48Z</time>
      </trkpt>
      <trkpt lat="45.1737" lon="5.56608">
        <ele>1172.1</ele>
        <time>2015-06-11T15:24:49Z</time>
      </trkpt>
      <trkpt lat="45.17371" lon="5.56609">
        <ele>1172.2</ele>
        <time>2015-06-11T15:24:50Z</time>
      </trkpt>
      <trkpt lat="45.17374" lon="5.5661">
        <ele>1172.1</ele>
        <time>2015-06-11T15:24:51Z</time>
      </trkpt>
      <trkpt lat="45.17376" lon="5.5661">
        <ele>1172</ele>
        <time>2015-06-11T15:24:52Z</time>
      </trkpt>
      <trkpt lat="45.17378" lon="5.56611">
        <ele>1171.9</ele>
        <time>2015-06-11T15:24:53Z</time>
      </trkpt>
      <trkpt lat="45.1738" lon="5.56611">
        <ele>1171.8</ele>
        <time>2015-06-11T15:24:54Z</time>
      </trkpt>
      <trkpt lat="45.17382" lon="5.56612">
        <ele>1171.6</ele>
        <time>2015-06-11T15:24:55Z</time>
      </trkpt>
      <trkpt lat="45.17385" lon="5.56612">
        <ele>1171.5</ele>
        <time>2015-06-11T15:24:56Z</time>
      </trkpt>
      <trkpt lat="45.17387" lon="5.56612">
        <ele>1171.3</ele>
        <time>2015-06-11T15:24:57Z</time>
      </trkpt>
      <trkpt lat="45.17389" lon="5.56613">
        <ele>1171.2</ele>
        <time>2015-06-11T15:24:58Z</time>
      </trkpt>
      <trkpt lat="45.17392" lon="5.56613">
        <ele>1171.2</ele>
        <time>2015-06-11T15:24:59Z</time>
      </trkpt>
      <trkpt lat="45.17394" lon="5.56615">
        <ele>1171.3</ele>
        <time>2015-06-11T15:25:00Z</time>
      </trkpt>
      <trkpt lat="45.17396" lon="5.56615">
        <ele>1171.3</ele>
        <time>2015-06-11T15:25:01Z</time>
      </trkpt>
      <trkpt lat="45.17398" lon="5.56616">
        <ele>1171.3</ele>
        <time>2015-06-11T15:25:02Z</time>
      </trkpt>
      <trkpt lat="45.174" lon="5.56617">
        <ele>1171.5</ele>
        <time>2015-06-11T15:25:03Z</time>
      </trkpt>
      <trkpt lat="45.17402" lon="5.56619">
        <ele>1171.7</ele>
        <time>2015-06-11T15:25:04Z</time>
      </trkpt>
      <trkpt lat="45.17404" lon="5.5662">
        <ele>1171.9</ele>
        <time>2015-06-11T15:25:05Z</time>
      </trkpt>
      <trkpt lat="45.17407" lon="5.56621">
        <ele>1172</ele>
        <time>2015-06-11T15:25:06Z</time>
      </trkpt>
      <trkpt lat="45.17409" lon="5.56623">
        <ele>1172.2</ele>
        <time>2015-06-11T15:25:07Z</time>
      </trkpt>
      <trkpt lat="45.17411" lon="5.56624">
        <ele>1172.4</ele>
        <time>2015-06-11T15:25:08Z</time>
      </trkpt>
      <trkpt lat="45.17414" lon="5.56625">
        <ele>1172.5</ele>
        <time>2015-06-11T15:25:09Z</time>
      </trkpt>
      <trkpt lat="45.17416" lon="5.56626">
        <ele>1172.5</ele>
        <time>2015-06-11T15:25:10Z</time>
      </trkpt>
      <trkpt lat="45.17418" lon="5.56627">
        <ele>1172.4</ele>
        <time>2015-06-11T15:25:11Z</time>
      </trkpt>
      <trkpt lat="45.1742" lon="5.56627">
        <ele>1172.2</ele>
        <time>2015-06-11T15:25:12Z</time>
      </trkpt>
      <trkpt lat="45.17422" lon="5.56627">
        <ele>1171.9</ele>
        <time>2015-06-11T15:25:13Z</time>
      </trkpt>
      <trkpt lat="45.17424" lon="5.56627">
        <ele>1171.7</ele>
        <time>2015-06-11T15:25:14Z</time>
      </trkpt>
      <trkpt lat="45.17426" lon="5.56627">
        <ele>1171.6</ele>
        <time>2015-06-11T15:25:15Z</time>
      </trkpt>
      <trkpt lat="45.17428" lon="5.56628">
        <ele>1171.7</ele>
        <time>2015-06-11T15:25:16Z</time>
      </trkpt>
      <trkpt lat="45.1743" lon="5.56629">
        <ele>1171.8</ele>
        <time>2015-06-11T15:25:17Z</time>
      </trkpt>
      <trkpt lat="45.17432" lon="5.5663">
        <ele>1171.8</ele>
        <time>2015-06-11T15:25:18Z</time>
      </trkpt>
      <trkpt lat="45.17434" lon="5.5663">
        <ele>1171.9</ele>
        <time>2015-06-11T15:25:19Z</time>
      </trkpt>
      <trkpt lat="45.17436" lon="5.56631">
        <ele>1172</ele>
        <time>2015-06-11T15:25:20Z</time>
      </trkpt>
      <trkpt lat="45.17437" lon="5.56632">
        <ele>1172.1</ele>
        <time>2015-06-11T15:25:21Z</time>
      </trkpt>
      <trkpt lat="45.17438" lon="5.56633">
        <ele>1172.3</ele>
        <time>2015-06-11T15:25:22Z</time>
      </trkpt>
      <trkpt lat="45.17439" lon="5.56634">
        <ele>1172.5</ele>
        <time>2015-06-11T15:25:23Z</time>
      </trkpt>
      <trkpt lat="45.1744" lon="5.56635">
        <ele>1172.7</ele>
        <time>2015-06-11T15:25:24Z</time>
      </trkpt>
      <trkpt lat="45.17441" lon="5.56636">
        <ele>1172.8</ele>
        <time>2015-06-11T15:25:25Z</time>
      </trkpt>
      <trkpt lat="45.17443" lon="5.56637">
        <ele>1173</ele>
        <time>2015-06-11T15:25:26Z</time>
      </trkpt>
      <trkpt lat="45.17445" lon="5.56638">
        <ele>1173.2</ele>
        <time>2015-06-11T15:25:27Z</time>
      </trkpt>
      <trkpt lat="45.17447" lon="5.56639">
        <ele>1173.3</ele>
        <time>2015-06-11T15:25:28Z</time>
      </trkpt>
      <trkpt lat="45.17448" lon="5.5664">
        <ele>1173.4</ele>
        <time>2015-06-11T15:25:29Z</time>
      </trkpt>
      <trkpt lat="45.1745" lon="5.5664">
        <ele>1173.3</ele>
        <time>2015-06-11T15:25:30Z</time>
      </trkpt>
      <trkpt lat="45.17451" lon="5.5664">
        <ele>1173.3</ele>
        <time>2015-06-11T15:25:31Z</time>
      </trkpt>
      <trkpt lat="45.17453" lon="5.56641">
        <ele>1173.4</ele>
        <time>2015-06-11T15:25:32Z</time>
      </trkpt>
      <trkpt lat="45.17454" lon="5.56642">
        <ele>1173.5</ele>
        <time>2015-06-11T15:25:33Z</time>
      </trkpt>
      <trkpt lat="45.17456" lon="5.56643">
        <ele>1173.6</ele>
        <time>2015-06-11T15:25:34Z</time>
      </trkpt>
      <trkpt lat="45.17457" lon="5.56644">
        <ele>1173.7</ele>
        <time>2015-06-11T15:25:35Z</time>
      </trkpt>
      <trkpt lat="45.17459" lon="5.56645">
        <ele>1173.8</ele>
        <time>2015-06-11T15:25:36Z</time>
      </trkpt>
      <trkpt lat="45.17461" lon="5.56646">
        <ele>1173.8</ele>
        <time>2015-06-11T15:25:37Z</time>
      </trkpt>
      <trkpt lat="45.17463" lon="5.56647">
        <ele>1173.9</ele>
        <time>2015-06-11T15:25:38Z</time>
      </trkpt>
      <trkpt lat="45.17465" lon="5.56648">
        <ele>1174</ele>
        <time>2015-06-11T15:25:39Z</time>
      </trkpt>
      <trkpt lat="45.17467" lon="5.56649">
        <ele>1174.1</ele>
        <time>2015-06-11T15:25:40Z</time>
      </trkpt>
      <trkpt lat="45.17469" lon="5.56651">
        <ele>1174.3</ele>
        <time>2015-06-11T15:25:41Z</time>
      </trkpt>
      <trkpt lat="45.17471" lon="5.56652">
        <ele>1174.4</ele>
        <time>2015-06-11T15:25:42Z</time>
      </trkpt>
      <trkpt lat="45.17473" lon="5.56653">
        <ele>1174.5</ele>
        <time>2015-06-11T15:25:43Z</time>
      </trkpt>
      <trkpt lat="45.17476" lon="5.56655">
        <ele>1174.6</ele>
        <time>2015-06-11T15:25:44Z</time>
      </trkpt>
      <trkpt lat="45.17478" lon="5.56656">
        <ele>1174.6</ele>
        <time>2015-06-11T15:25:45Z</time>
      </trkpt>
      <trkpt lat="45.1748" lon="5.56657">
        <ele>1174.6</ele>
        <time>2015-06-11T15:25:46Z</time>
      </trkpt>
      <trkpt lat="45.17483" lon="5.56658">
        <ele>1174.6</ele>
        <time>2015-06-11T15:25:47Z</time>
      </trkpt>
      <trkpt lat="45.17485" lon="5.5666">
        <ele>1174.8</ele>
        <time>2015-06-11T15:25:48Z</time>
      </trkpt>
      <trkpt lat="45.17487" lon="5.56661">
        <ele>1175.1</ele>
        <time>2015-06-11T15:25:49Z</time>
      </trkpt>
      <trkpt lat="45.1749" lon="5.56663">
        <ele>1175.4</ele>
        <time>2015-06-11T15:25:50Z</time>
      </trkpt>
      <trkpt lat="45.17492" lon="5.56665">
        <ele>1175.8</ele>
        <time>2015-06-11T15:25:51Z</time>
      </trkpt>
      <trkpt lat="45.17494" lon="5.56667">
        <ele>1176</ele>
        <time>2015-06-11T15:25:52Z</time>
      </trkpt>
      <trkpt lat="45.17496" lon="5.56668">
        <ele>1176.2</ele>
        <time>2015-06-11T15:25:53Z</time>
      </trkpt>
      <trkpt lat="45.17498" lon="5.5667">
        <ele>1176.4</ele>
        <time>2015-06-11T15:25:54Z</time>
      </trkpt>
      <trkpt lat="45.175" lon="5.56671">
        <ele>1176.5</ele>
        <time>2015-06-11T15:25:55Z</time>
      </trkpt>
      <trkpt lat="45.17502" lon="5.56672">
        <ele>1176.5</ele>
        <time>2015-06-11T15:25:56Z</time>
      </trkpt>
      <trkpt lat="45.17504" lon="5.56673">
        <ele>1176.6</ele>
        <time>2015-06-11T15:25:57Z</time>
      </trkpt>
      <trkpt lat="45.17506" lon="5.56674">
        <ele>1176.7</ele>
        <time>2015-06-11T15:25:58Z</time>
      </trkpt>
      <trkpt lat="45.17508" lon="5.56675">
        <ele>1176.6</ele>
        <time>2015-06-11T15:25:59Z</time>
      </trkpt>
      <trkpt lat="45.1751" lon="5.56676">
        <ele>1176.6</ele>
        <time>2015-06-11T15:26:00Z</time>
      </trkpt>
      <trkpt lat="45.17512" lon="5.56677">
        <ele>1176.6</ele>
        <time>2015-06-11T15:26:01Z</time>
      </trkpt>
      <trkpt lat="45.17514" lon="5.56678">
        <ele>1176.5</ele>
        <time>2015-06-11T15:26:02Z</time>
      </trkpt>
      <trkpt lat="45.17516" lon="5.56678">
        <ele>1176.5</ele>
        <time>2015-06-11T15:26:03Z</time>
      </trkpt>
      <trkpt lat="45.17519" lon="5.56679">
        <ele>1176.4</ele>
        <time>2015-06-11T15:26:04Z</time>
      </trkpt>
      <trkpt lat="45.17521" lon="5.5668">
        <ele>1176.3</ele>
        <time>2015-06-11T15:26:05Z</time>
      </trkpt>
      <trkpt lat="45.17523" lon="5.56681">
        <ele>1176.3</ele>
        <time>2015-06-11T15:26:06Z</time>
      </trkpt>
      <trkpt lat="45.17525" lon="5.56682">
        <ele>1176.3</ele>
        <time>2015-06-11T15:26:07Z</time>
      </trkpt>
      <trkpt lat="45.17527" lon="5.56682">
        <ele>1176.2</ele>
        <time>2015-06-11T15:26:08Z</time>
      </trkpt>
      <trkpt lat="45.17529" lon="5.56683">
        <ele>1176.2</ele>
        <time>2015-06-11T15:26:09Z</time>
      </trkpt>
      <trkpt lat="45.17531" lon="5.56684">
        <ele>1176.2</ele>
        <time>2015-06-11T15:26:10Z</time>
      </trkpt>
      <trkpt lat="45.17534" lon="5.56685">
        <ele>1176.2</ele>
        <time>2015-06-11T15:26:11Z</time>
      </trkpt>
      <trkpt lat="45.17535" lon="5.56686">
        <ele>1176.2</ele>
        <time>2015-06-11T15:26:12Z</time>
      </trkpt>
      <trkpt lat="45.17537" lon="5.56687">
        <ele>1176.3</ele>
        <time>2015-06-11T15:26:13Z</time>
      </trkpt>
      <trkpt lat="45.17539" lon="5.56688">
        <ele>1176.3</ele>
        <time>2015-06-11T15:26:14Z</time>
      </trkpt>
      <trkpt lat="45.17541" lon="5.56689">
        <ele>1176.4</ele>
        <time>2015-06-11T15:26:15Z</time>
      </trkpt>
      <trkpt lat="45.17543" lon="5.5669">
        <ele>1176.6</ele>
        <time>2015-06-11T15:26:16Z</time>
      </trkpt>
      <trkpt lat="45.17545" lon="5.56692">
        <ele>1176.8</ele>
        <time>2015-06-11T15:26:17Z</time>
      </trkpt>
      <trkpt lat="45.17547" lon="5.56693">
        <ele>1177</ele>
        <time>2015-06-11T15:26:18Z</time>
      </trkpt>
      <trkpt lat="45.17549" lon="5.56694">
        <ele>1177.2</ele>
        <time>2015-06-11T15:26:19Z</time>
      </trkpt>
      <trkpt lat="45.17551" lon="5.56695">
        <ele>1177.4</ele>
        <time>2015-06-11T15:26:20Z</time>
      </trkpt>
      <trkpt lat="45.17552" lon="5.56697">
        <ele>1177.8</ele>
        <time>2015-06-11T15:26:21Z</time>
      </trkpt>
      <trkpt lat="45.17554" lon="5.56698">
        <ele>1178.1</ele>
        <time>2015-06-11T15:26:22Z</time>
      </trkpt>
      <trkpt lat="45.17556" lon="5.567">
        <ele>1178.3</ele>
        <time>2015-06-11T15:26:23Z</time>
      </trkpt>
      <trkpt lat="45.17558" lon="5.56701">
        <ele>1178.6</ele>
        <time>2015-06-11T15:26:24Z</time>
      </trkpt>
      <trkpt lat="45.1756" lon="5.56703">
        <ele>1178.9</ele>
        <time>2015-06-11T15:26:25Z</time>
      </trkpt>
      <trkpt lat="45.17562" lon="5.56704">
        <ele>1179.2</ele>
        <time>2015-06-11T15:26:26Z</time>
      </trkpt>
      <trkpt lat="45.17564" lon="5.56706">
        <ele>1179.5</ele>
        <time>2015-06-11T15:26:27Z</time>
      </trkpt>
      <trkpt lat="45.17566" lon="5.56707">
        <ele>1179.7</ele>
        <time>2015-06-11T15:26:28Z</time>
      </trkpt>
      <trkpt lat="45.17568" lon="5.56708">
        <ele>1179.8</ele>
        <time>2015-06-11T15:26:29Z</time>
      </trkpt>
      <trkpt lat="45.1757" lon="5.56709">
        <ele>1180.1</ele>
        <time>2015-06-11T15:26:30Z</time>
      </trkpt>
      <trkpt lat="45.17572" lon="5.5671">
        <ele>1180.2</ele>
        <time>2015-06-11T15:26:31Z</time>
      </trkpt>
      <trkpt lat="45.17574" lon="5.56711">
        <ele>1180.3</ele>
        <time>2015-06-11T15:26:32Z</time>
      </trkpt>
      <trkpt lat="45.17577" lon="5.56712">
        <ele>1180.2</ele>
        <time>2015-06-11T15:26:33Z</time>
      </trkpt>
      <trkpt lat="45.17579" lon="5.56712">
        <ele>1180</ele>
        <time>2015-06-11T15:26:34Z</time>
      </trkpt>
      <trkpt lat="45.17581" lon="5.56712">
        <ele>1179.8</ele>
        <time>2015-06-11T15:26:35Z</time>
      </trkpt>
      <trkpt lat="45.17584" lon="5.56712">
        <ele>1179.5</ele>
        <time>2015-06-11T15:26:36Z</time>
      </trkpt>
      <trkpt lat="45.17586" lon="5.56712">
        <ele>1179.1</ele>
        <time>2015-06-11T15:26:37Z</time>
      </trkpt>
      <trkpt lat="45.17588" lon="5.56712">
        <ele>1178.7</ele>
        <time>2015-06-11T15:26:38Z</time>
      </trkpt>
      <trkpt lat="45.17591" lon="5.56711">
        <ele>1178.3</ele>
        <time>2015-06-11T15:26:39Z</time>
      </trkpt>
      <trkpt lat="45.17593" lon="5.56711">
        <ele>1177.9</ele>
        <time>2015-06-11T15:26:40Z</time>
      </trkpt>
      <trkpt lat="45.17596" lon="5.56711">
        <ele>1177.5</ele>
        <time>2015-06-11T15:26:41Z</time>
      </trkpt>
      <trkpt lat="45.17598" lon="5.5671">
        <ele>1177</ele>
        <time>2015-06-11T15:26:42Z</time>
      </trkpt>
      <trkpt lat="45.17601" lon="5.5671">
        <ele>1176.6</ele>
        <time>2015-06-11T15:26:43Z</time>
      </trkpt>
      <trkpt lat="45.17603" lon="5.5671">
        <ele>1176.2</ele>
        <time>2015-06-11T15:26:44Z</time>
      </trkpt>
      <trkpt lat="45.17606" lon="5.5671">
        <ele>1175.8</ele>
        <time>2015-06-11T15:26:45Z</time>
      </trkpt>
      <trkpt lat="45.17609" lon="5.5671">
        <ele>1175.5</ele>
        <time>2015-06-11T15:26:46Z</time>
      </trkpt>
      <trkpt lat="45.17611" lon="5.5671">
        <ele>1175.1</ele>
        <time>2015-06-11T15:26:47Z</time>
      </trkpt>
      <trkpt lat="45.17614" lon="5.5671">
        <ele>1174.8</ele>
        <time>2015-06-11T15:26:48Z</time>
      </trkpt>
      <trkpt lat="45.17616" lon="5.5671">
        <ele>1174.6</ele>
        <time>2015-06-11T15:26:49Z</time>
      </trkpt>
      <trkpt lat="45.17619" lon="5.5671">
        <ele>1174.4</ele>
        <time>2015-06-11T15:26:50Z</time>
      </trkpt>
      <trkpt lat="45.17621" lon="5.5671">
        <ele>1174.2</ele>
        <time>2015-06-11T15:26:51Z</time>
      </trkpt>
      <trkpt lat="45.17624" lon="5.56711">
        <ele>1174</ele>
        <time>2015-06-11T15:26:52Z</time>
      </trkpt>
      <trkpt lat="45.17626" lon="5.56711">
        <ele>1174</ele>
        <time>2015-06-11T15:26:53Z</time>
      </trkpt>
      <trkpt lat="45.17629" lon="5.56712">
        <ele>1173.8</ele>
        <time>2015-06-11T15:26:54Z</time>
      </trkpt>
      <trkpt lat="45.17631" lon="5.56713">
        <ele>1173.7</ele>
        <time>2015-06-11T15:26:55Z</time>
      </trkpt>
      <trkpt lat="45.17633" lon="5.56714">
        <ele>1173.7</ele>
        <time>2015-06-11T15:26:56Z</time>
      </trkpt>
      <trkpt lat="45.17635" lon="5.56715">
        <ele>1173.7</ele>
        <time>2015-06-11T15:26:57Z</time>
      </trkpt>
      <trkpt lat="45.17637" lon="5.56716">
        <ele>1173.8</ele>
        <time>2015-06-11T15:26:58Z</time>
      </trkpt>
      <trkpt lat="45.1764" lon="5.56717">
        <ele>1173.8</ele>
        <time>2015-06-11T15:26:59Z</time>
      </trkpt>
      <trkpt lat="45.17642" lon="5.56719">
        <ele>1173.8</ele>
        <time>2015-06-11T15:27:00Z</time>
      </trkpt>
      <trkpt lat="45.17644" lon="5.5672">
        <ele>1173.9</ele>
        <time>2015-06-11T15:27:01Z</time>
      </trkpt>
      <trkpt lat="45.17646" lon="5.56721">
        <ele>1174</ele>
        <time>2015-06-11T15:27:02Z</time>
      </trkpt>
      <trkpt lat="45.17649" lon="5.56722">
        <ele>1174</ele>
        <time>2015-06-11T15:27:03Z</time>
      </trkpt>
      <trkpt lat="45.17651" lon="5.56724">
        <ele>1174</ele>
        <time>2015-06-11T15:27:04Z</time>
      </trkpt>
      <trkpt lat="45.17654" lon="5.56725">
        <ele>1174.1</ele>
        <time>2015-06-11T15:27:05Z</time>
      </trkpt>
      <trkpt lat="45.17656" lon="5.56727">
        <ele>1174.2</ele>
        <time>2015-06-11T15:27:06Z</time>
      </trkpt>
      <trkpt lat="45.17659" lon="5.56728">
        <ele>1174.2</ele>
        <time>2015-06-11T15:27:07Z</time>
      </trkpt>
      <trkpt lat="45.17661" lon="5.5673">
        <ele>1174.4</ele>
        <time>2015-06-11T15:27:08Z</time>
      </trkpt>
      <trkpt lat="45.17663" lon="5.56731">
        <ele>1174.6</ele>
        <time>2015-06-11T15:27:09Z</time>
      </trkpt>
      <trkpt lat="45.17665" lon="5.56733">
        <ele>1175</ele>
        <time>2015-06-11T15:27:10Z</time>
      </trkpt>
      <trkpt lat="45.17667" lon="5.56735">
        <ele>1175.3</ele>
        <time>2015-06-11T15:27:11Z</time>
      </trkpt>
      <trkpt lat="45.17668" lon="5.56737">
        <ele>1175.8</ele>
        <time>2015-06-11T15:27:12Z</time>
      </trkpt>
      <trkpt lat="45.17669" lon="5.56739">
        <ele>1176.2</ele>
        <time>2015-06-11T15:27:13Z</time>
      </trkpt>
      <trkpt lat="45.1767" lon="5.56741">
        <ele>1176.7</ele>
        <time>2015-06-11T15:27:14Z</time>
      </trkpt>
      <trkpt lat="45.17671" lon="5.56743">
        <ele>1177.1</ele>
        <time>2015-06-11T15:27:15Z</time>
      </trkpt>
      <trkpt lat="45.17672" lon="5.56744">
        <ele>1177.4</ele>
        <time>2015-06-11T15:27:16Z</time>
      </trkpt>
      <trkpt lat="45.17673" lon="5.56746">
        <ele>1177.8</ele>
        <time>2015-06-11T15:27:17Z</time>
      </trkpt>
      <trkpt lat="45.17674" lon="5.56747">
        <ele>1178.1</ele>
        <time>2015-06-11T15:27:18Z</time>
      </trkpt>
      <trkpt lat="45.17675" lon="5.56749">
        <ele>1178.4</ele>
        <time>2015-06-11T15:27:19Z</time>
      </trkpt>
      <trkpt lat="45.17677" lon="5.5675">
        <ele>1178.7</ele>
        <time>2015-06-11T15:27:20Z</time>
      </trkpt>
      <trkpt lat="45.17678" lon="5.56752">
        <ele>1179</ele>
        <time>2015-06-11T15:27:21Z</time>
      </trkpt>
      <trkpt lat="45.17679" lon="5.56753">
        <ele>1179.2</ele>
        <time>2015-06-11T15:27:22Z</time>
      </trkpt>
      <trkpt lat="45.1768" lon="5.56755">
        <ele>1179.6</ele>
        <time>2015-06-11T15:27:23Z</time>
      </trkpt>
      <trkpt lat="45.17682" lon="5.56756">
        <ele>1179.8</ele>
        <time>2015-06-11T15:27:24Z</time>
      </trkpt>
      <trkpt lat="45.17683" lon="5.56758">
        <ele>1180.2</ele>
        <time>2015-06-11T15:27:25Z</time>
      </trkpt>
      <trkpt lat="45.17684" lon="5.5676">
        <ele>1180.5</ele>
        <time>2015-06-11T15:27:26Z</time>
      </trkpt>
      <trkpt lat="45.17686" lon="5.56762">
        <ele>1180.8</ele>
        <time>2015-06-11T15:27:27Z</time>
      </trkpt>
      <trkpt lat="45.17687" lon="5.56764">
        <ele>1181.1</ele>
        <time>2015-06-11T15:27:28Z</time>
      </trkpt>
      <trkpt lat="45.17689" lon="5.56765">
        <ele>1181.4</ele>
        <time>2015-06-11T15:27:29Z</time>
      </trkpt>
      <trkpt lat="45.1769" lon="5.56767">
        <ele>1181.6</ele>
        <time>2015-06-11T15:27:30Z</time>
      </trkpt>
      <trkpt lat="45.17692" lon="5.56769">
        <ele>1181.9</ele>
        <time>2015-06-11T15:27:31Z</time>
      </trkpt>
      <trkpt lat="45.17693" lon="5.5677">
        <ele>1182.2</ele>
        <time>2015-06-11T15:27:32Z</time>
      </trkpt>
      <trkpt lat="45.17695" lon="5.56772">
        <ele>1182.4</ele>
        <time>2015-06-11T15:27:33Z</time>
      </trkpt>
      <trkpt lat="45.17696" lon="5.56773">
        <ele>1182.7</ele>
        <time>2015-06-11T15:27:34Z</time>
      </trkpt>
      <trkpt lat="45.17697" lon="5.56775">
        <ele>1182.9</ele>
        <time>2015-06-11T15:27:35Z</time>
      </trkpt>
      <trkpt lat="45.17698" lon="5.56776">
        <ele>1183.1</ele>
        <time>2015-06-11T15:27:36Z</time>
      </trkpt>
      <trkpt lat="45.177" lon="5.56778">
        <ele>1183.3</ele>
        <time>2015-06-11T15:27:37Z</time>
      </trkpt>
      <trkpt lat="45.17701" lon="5.5678">
        <ele>1183.6</ele>
        <time>2015-06-11T15:27:38Z</time>
      </trkpt>
      <trkpt lat="45.17703" lon="5.56781">
        <ele>1183.8</ele>
        <time>2015-06-11T15:27:39Z</time>
      </trkpt>
      <trkpt lat="45.17704" lon="5.56783">
        <ele>1184</ele>
        <time>2015-06-11T15:27:40Z</time>
      </trkpt>
      <trkpt lat="45.17706" lon="5.56785">
        <ele>1184.3</ele>
        <time>2015-06-11T15:27:41Z</time>
      </trkpt>
      <trkpt lat="45.17707" lon="5.56786">
        <ele>1184.5</ele>
        <time>2015-06-11T15:27:42Z</time>
      </trkpt>
      <trkpt lat="45.17708" lon="5.56788">
        <ele>1184.9</ele>
        <time>2015-06-11T15:27:43Z</time>
      </trkpt>
      <trkpt lat="45.1771" lon="5.5679">
        <ele>1185.3</ele>
        <time>2015-06-11T15:27:44Z</time>
      </trkpt>
      <trkpt lat="45.17711" lon="5.56792">
        <ele>1185.7</ele>
        <time>2015-06-11T15:27:45Z</time>
      </trkpt>
      <trkpt lat="45.17712" lon="5.56794">
        <ele>1186.4</ele>
        <time>2015-06-11T15:27:46Z</time>
      </trkpt>
      <trkpt lat="45.17714" lon="5.56796">
        <ele>1187</ele>
        <time>2015-06-11T15:27:47Z</time>
      </trkpt>
      <trkpt lat="45.17715" lon="5.56798">
        <ele>1187.6</ele>
        <time>2015-06-11T15:27:48Z</time>
      </trkpt>
      <trkpt lat="45.17716" lon="5.568">
        <ele>1188.3</ele>
        <time>2015-06-11T15:27:49Z</time>
      </trkpt>
      <trkpt lat="45.17717" lon="5.56802">
        <ele>1188.9</ele>
        <time>2015-06-11T15:27:50Z</time>
      </trkpt>
      <trkpt lat="45.17719" lon="5.56805">
        <ele>1189.4</ele>
        <time>2015-06-11T15:27:51Z</time>
      </trkpt>
      <trkpt lat="45.1772" lon="5.56807">
        <ele>1190</ele>
        <time>2015-06-11T15:27:52Z</time>
      </trkpt>
      <trkpt lat="45.17721" lon="5.56808">
        <ele>1190.6</ele>
        <time>2015-06-11T15:27:53Z</time>
      </trkpt>
      <trkpt lat="45.17722" lon="5.5681">
        <ele>1191</ele>
        <time>2015-06-11T15:27:54Z</time>
      </trkpt>
      <trkpt lat="45.17724" lon="5.56812">
        <ele>1191.4</ele>
        <time>2015-06-11T15:27:55Z</time>
      </trkpt>
      <trkpt lat="45.17725" lon="5.56814">
        <ele>1191.7</ele>
        <time>2015-06-11T15:27:56Z</time>
      </trkpt>
      <trkpt lat="45.17727" lon="5.56815">
        <ele>1192.1</ele>
        <time>2015-06-11T15:27:57Z</time>
      </trkpt>
      <trkpt lat="45.17728" lon="5.56816">
        <ele>1192.3</ele>
        <time>2015-06-11T15:27:58Z</time>
      </trkpt>
      <trkpt lat="45.1773" lon="5.56818">
        <ele>1192.4</ele>
        <time>2015-06-11T15:27:59Z</time>
      </trkpt>
      <trkpt lat="45.17731" lon="5.56819">
        <ele>1192.5</ele>
        <time>2015-06-11T15:28:00Z</time>
      </trkpt>
      <trkpt lat="45.17733" lon="5.5682">
        <ele>1192.6</ele>
        <time>2015-06-11T15:28:01Z</time>
      </trkpt>
      <trkpt lat="45.17735" lon="5.5682">
        <ele>1192.4</ele>
        <time>2015-06-11T15:28:02Z</time>
      </trkpt>
      <trkpt lat="45.17736" lon="5.56821">
        <ele>1192.3</ele>
        <time>2015-06-11T15:28:03Z</time>
      </trkpt>
      <trkpt lat="45.17738" lon="5.56821">
        <ele>1192.1</ele>
        <time>2015-06-11T15:28:04Z</time>
      </trkpt>
      <trkpt lat="45.1774" lon="5.56822">
        <ele>1191.8</ele>
        <time>2015-06-11T15:28:05Z</time>
      </trkpt>
      <trkpt lat="45.17742" lon="5.56822">
        <ele>1191.5</ele>
        <time>2015-06-11T15:28:06Z</time>
      </trkpt>
      <trkpt lat="45.17744" lon="5.56822">
        <ele>1191.1</ele>
        <time>2015-06-11T15:28:07Z</time>
      </trkpt>
      <trkpt lat="45.17747" lon="5.56822">
        <ele>1190.6</ele>
        <time>2015-06-11T15:28:08Z</time>
      </trkpt>
      <trkpt lat="45.17749" lon="5.56822">
        <ele>1190.2</ele>
        <time>2015-06-11T15:28:09Z</time>
      </trkpt>
      <trkpt lat="45.17751" lon="5.56821">
        <ele>1189.7</ele>
        <time>2015-06-11T15:28:10Z</time>
      </trkpt>
      <trkpt lat="45.17754" lon="5.56821">
        <ele>1189.2</ele>
        <time>2015-06-11T15:28:11Z</time>
      </trkpt>
      <trkpt lat="45.17756" lon="5.56821">
        <ele>1188.8</ele>
        <time>2015-06-11T15:28:12Z</time>
      </trkpt>
      <trkpt lat="45.17758" lon="5.56821">
        <ele>1188.5</ele>
        <time>2015-06-11T15:28:13Z</time>
      </trkpt>
      <trkpt lat="45.17761" lon="5.56822">
        <ele>1188</ele>
        <time>2015-06-11T15:28:14Z</time>
      </trkpt>
      <trkpt lat="45.17763" lon="5.56822">
        <ele>1187.6</ele>
        <time>2015-06-11T15:28:15Z</time>
      </trkpt>
      <trkpt lat="45.17765" lon="5.56822">
        <ele>1187.2</ele>
        <time>2015-06-11T15:28:16Z</time>
      </trkpt>
      <trkpt lat="45.17767" lon="5.56822">
        <ele>1186.8</ele>
        <time>2015-06-11T15:28:17Z</time>
      </trkpt>
      <trkpt lat="45.1777" lon="5.56822">
        <ele>1186.3</ele>
        <time>2015-06-11T15:28:18Z</time>
      </trkpt>
      <trkpt lat="45.17772" lon="5.56822">
        <ele>1185.9</ele>
        <time>2015-06-11T15:28:19Z</time>
      </trkpt>
      <trkpt lat="45.17775" lon="5.56822">
        <ele>1185.4</ele>
        <time>2015-06-11T15:28:20Z</time>
      </trkpt>
      <trkpt lat="45.17777" lon="5.56822">
        <ele>1184.9</ele>
        <time>2015-06-11T15:28:21Z</time>
      </trkpt>
      <trkpt lat="45.1778" lon="5.56822">
        <ele>1184.5</ele>
        <time>2015-06-11T15:28:22Z</time>
      </trkpt>
      <trkpt lat="45.17782" lon="5.56822">
        <ele>1184.1</ele>
        <time>2015-06-11T15:28:23Z</time>
      </trkpt>
      <trkpt lat="45.17785" lon="5.56822">
        <ele>1183.7</ele>
        <time>2015-06-11T15:28:24Z</time>
      </trkpt>
      <trkpt lat="45.17787" lon="5.56823">
        <ele>1183.4</ele>
        <time>2015-06-11T15:28:25Z</time>
      </trkpt>
      <trkpt lat="45.1779" lon="5.56823">
        <ele>1183</ele>
        <time>2015-06-11T15:28:26Z</time>
      </trkpt>
      <trkpt lat="45.17792" lon="5.56824">
        <ele>1182.8</ele>
        <time>2015-06-11T15:28:27Z</time>
      </trkpt>
      <trkpt lat="45.17794" lon="5.56825">
        <ele>1182.9</ele>
        <time>2015-06-11T15:28:28Z</time>
      </trkpt>
      <trkpt lat="45.17796" lon="5.56826">
        <ele>1183</ele>
        <time>2015-06-11T15:28:29Z</time>
      </trkpt>
      <trkpt lat="45.17798" lon="5.56827">
        <ele>1183.2</ele>
        <time>2015-06-11T15:28:30Z</time>
      </trkpt>
      <trkpt lat="45.178" lon="5.56828">
        <ele>1183.3</ele>
        <time>2015-06-11T15:28:31Z</time>
      </trkpt>
      <trkpt lat="45.17802" lon="5.56828">
        <ele>1183.5</ele>
        <time>2015-06-11T15:28:32Z</time>
      </trkpt>
      <trkpt lat="45.17804" lon="5.56829">
        <ele>1183.6</ele>
        <time>2015-06-11T15:28:33Z</time>
      </trkpt>
      <trkpt lat="45.17806" lon="5.5683">
        <ele>1183.6</ele>
        <time>2015-06-11T15:28:34Z</time>
      </trkpt>
      <trkpt lat="45.17807" lon="5.5683">
        <ele>1183.6</ele>
        <time>2015-06-11T15:28:35Z</time>
      </trkpt>
      <trkpt lat="45.17809" lon="5.5683">
        <ele>1183.6</ele>
        <time>2015-06-11T15:28:36Z</time>
      </trkpt>
      <trkpt lat="45.17811" lon="5.5683">
        <ele>1183.6</ele>
        <time>2015-06-11T15:28:37Z</time>
      </trkpt>
      <trkpt lat="45.17814" lon="5.5683">
        <ele>1183.4</ele>
        <time>2015-06-11T15:28:38Z</time>
      </trkpt>
      <trkpt lat="45.17815" lon="5.5683">
        <ele>1183.3</ele>
        <time>2015-06-11T15:28:39Z</time>
      </trkpt>
      <trkpt lat="45.17818" lon="5.56829">
        <ele>1183.1</ele>
        <time>2015-06-11T15:28:40Z</time>
      </trkpt>
      <trkpt lat="45.1782" lon="5.56829">
        <ele>1183</ele>
        <time>2015-06-11T15:28:41Z</time>
      </trkpt>
      <trkpt lat="45.17822" lon="5.56829">
        <ele>1182.9</ele>
        <time>2015-06-11T15:28:42Z</time>
      </trkpt>
      <trkpt lat="45.17824" lon="5.56829">
        <ele>1182.8</ele>
        <time>2015-06-11T15:28:43Z</time>
      </trkpt>
      <trkpt lat="45.17827" lon="5.56829">
        <ele>1182.7</ele>
        <time>2015-06-11T15:28:44Z</time>
      </trkpt>
      <trkpt lat="45.17829" lon="5.56829">
        <ele>1182.6</ele>
        <time>2015-06-11T15:28:45Z</time>
      </trkpt>
      <trkpt lat="45.17831" lon="5.56829">
        <ele>1182.6</ele>
        <time>2015-06-11T15:28:46Z</time>
      </trkpt>
      <trkpt lat="45.17834" lon="5.56829">
        <ele>1182.5</ele>
        <time>2015-06-11T15:28:47Z</time>
      </trkpt>
      <trkpt lat="45.17836" lon="5.56829">
        <ele>1182.4</ele>
        <time>2015-06-11T15:28:48Z</time>
      </trkpt>
      <trkpt lat="45.17839" lon="5.56829">
        <ele>1182.4</ele>
        <time>2015-06-11T15:28:49Z</time>
      </trkpt>
      <trkpt lat="45.17842" lon="5.5683">
        <ele>1182.4</ele>
        <time>2015-06-11T15:28:50Z</time>
      </trkpt>
      <trkpt lat="45.17844" lon="5.5683">
        <ele>1182.4</ele>
        <time>2015-06-11T15:28:51Z</time>
      </trkpt>
      <trkpt lat="45.17847" lon="5.56831">
        <ele>1182.4</ele>
        <time>2015-06-11T15:28:52Z</time>
      </trkpt>
      <trkpt lat="45.17849" lon="5.56831">
        <ele>1182.5</ele>
        <time>2015-06-11T15:28:53Z</time>
      </trkpt>
      <trkpt lat="45.17851" lon="5.56832">
        <ele>1182.6</ele>
        <time>2015-06-11T15:28:54Z</time>
      </trkpt>
      <trkpt lat="45.17852" lon="5.56833">
        <ele>1182.8</ele>
        <time>2015-06-11T15:28:55Z</time>
      </trkpt>
      <trkpt lat="45.17854" lon="5.56834">
        <ele>1182.9</ele>
        <time>2015-06-11T15:28:56Z</time>
      </trkpt>
      <trkpt lat="45.17856" lon="5.56835">
        <ele>1183.1</ele>
        <time>2015-06-11T15:28:57Z</time>
      </trkpt>
      <trkpt lat="45.17858" lon="5.56836">
        <ele>1183.2</ele>
        <time>2015-06-11T15:28:58Z</time>
      </trkpt>
      <trkpt lat="45.1786" lon="5.56837">
        <ele>1183.4</ele>
        <time>2015-06-11T15:28:59Z</time>
      </trkpt>
      <trkpt lat="45.17862" lon="5.56838">
        <ele>1183.5</ele>
        <time>2015-06-11T15:29:00Z</time>
      </trkpt>
      <trkpt lat="45.17864" lon="5.56839">
        <ele>1183.6</ele>
        <time>2015-06-11T15:29:01Z</time>
      </trkpt>
      <trkpt lat="45.17866" lon="5.5684">
        <ele>1183.7</ele>
        <time>2015-06-11T15:29:02Z</time>
      </trkpt>
      <trkpt lat="45.17868" lon="5.5684">
        <ele>1183.8</ele>
        <time>2015-06-11T15:29:03Z</time>
      </trkpt>
      <trkpt lat="45.1787" lon="5.56841">
        <ele>1183.9</ele>
        <time>2015-06-11T15:29:04Z</time>
      </trkpt>
      <trkpt lat="45.17872" lon="5.56842">
        <ele>1184</ele>
        <time>2015-06-11T15:29:05Z</time>
      </trkpt>
      <trkpt lat="45.17875" lon="5.56843">
        <ele>1184.1</ele>
        <time>2015-06-11T15:29:06Z</time>
      </trkpt>
      <trkpt lat="45.17877" lon="5.56844">
        <ele>1184.2</ele>
        <time>2015-06-11T15:29:07Z</time>
      </trkpt>
      <trkpt lat="45.17879" lon="5.56845">
        <ele>1184.3</ele>
        <time>2015-06-11T15:29:08Z</time>
      </trkpt>
      <trkpt lat="45.17882" lon="5.56845">
        <ele>1184.4</ele>
        <time>2015-06-11T15:29:09Z</time>
      </trkpt>
      <trkpt lat="45.17884" lon="5.56846">
        <ele>1184.5</ele>
        <time>2015-06-11T15:29:10Z</time>
      </trkpt>
      <trkpt lat="45.17886" lon="5.56847">
        <ele>1184.6</ele>
        <time>2015-06-11T15:29:11Z</time>
      </trkpt>
      <trkpt lat="45.17889" lon="5.56848">
        <ele>1184.7</ele>
        <time>2015-06-11T15:29:12Z</time>
      </trkpt>
      <trkpt lat="45.17891" lon="5.56849">
        <ele>1184.8</ele>
        <time>2015-06-11T15:29:13Z</time>
      </trkpt>
      <trkpt lat="45.17894" lon="5.5685">
        <ele>1184.9</ele>
        <time>2015-06-11T15:29:14Z</time>
      </trkpt>
      <trkpt lat="45.17896" lon="5.56851">
        <ele>1185</ele>
        <time>2015-06-11T15:29:15Z</time>
      </trkpt>
      <trkpt lat="45.17899" lon="5.56852">
        <ele>1185</ele>
        <time>2015-06-11T15:29:16Z</time>
      </trkpt>
      <trkpt lat="45.17901" lon="5.56852">
        <ele>1185.1</ele>
        <time>2015-06-11T15:29:17Z</time>
      </trkpt>
      <trkpt lat="45.17904" lon="5.56853">
        <ele>1185.2</ele>
        <time>2015-06-11T15:29:18Z</time>
      </trkpt>
      <trkpt lat="45.17906" lon="5.56854">
        <ele>1185.2</ele>
        <time>2015-06-11T15:29:19Z</time>
      </trkpt>
      <trkpt lat="45.17908" lon="5.56855">
        <ele>1185.3</ele>
        <time>2015-06-11T15:29:20Z</time>
      </trkpt>
      <trkpt lat="45.1791" lon="5.56856">
        <ele>1185.4</ele>
        <time>2015-06-11T15:29:21Z</time>
      </trkpt>
      <trkpt lat="45.17912" lon="5.56856">
        <ele>1185.5</ele>
        <time>2015-06-11T15:29:22Z</time>
      </trkpt>
      <trkpt lat="45.17915" lon="5.56857">
        <ele>1185.6</ele>
        <time>2015-06-11T15:29:23Z</time>
      </trkpt>
      <trkpt lat="45.17917" lon="5.56858">
        <ele>1185.7</ele>
        <time>2015-06-11T15:29:24Z</time>
      </trkpt>
      <trkpt lat="45.17918" lon="5.56859">
        <ele>1185.8</ele>
        <time>2015-06-11T15:29:25Z</time>
      </trkpt>
      <trkpt lat="45.17921" lon="5.56861">
        <ele>1186</ele>
        <time>2015-06-11T15:29:26Z</time>
      </trkpt>
      <trkpt lat="45.17922" lon="5.56862">
        <ele>1186.2</ele>
        <time>2015-06-11T15:29:27Z</time>
      </trkpt>
      <trkpt lat="45.17924" lon="5.56863">
        <ele>1186.4</ele>
        <time>2015-06-11T15:29:28Z</time>
      </trkpt>
      <trkpt lat="45.17926" lon="5.56865">
        <ele>1186.6</ele>
        <time>2015-06-11T15:29:29Z</time>
      </trkpt>
      <trkpt lat="45.17928" lon="5.56867">
        <ele>1186.9</ele>
        <time>2015-06-11T15:29:30Z</time>
      </trkpt>
      <trkpt lat="45.17929" lon="5.56869">
        <ele>1187.2</ele>
        <time>2015-06-11T15:29:31Z</time>
      </trkpt>
      <trkpt lat="45.17931" lon="5.56871">
        <ele>1187.4</ele>
        <time>2015-06-11T15:29:32Z</time>
      </trkpt>
      <trkpt lat="45.17932" lon="5.56873">
        <ele>1187.8</ele>
        <time>2015-06-11T15:29:33Z</time>
      </trkpt>
      <trkpt lat="45.17934" lon="5.56874">
        <ele>1188.1</ele>
        <time>2015-06-11T15:29:34Z</time>
      </trkpt>
      <trkpt lat="45.17935" lon="5.56876">
        <ele>1188.6</ele>
        <time>2015-06-11T15:29:35Z</time>
      </trkpt>
      <trkpt lat="45.17937" lon="5.56878">
        <ele>1189.2</ele>
        <time>2015-06-11T15:29:36Z</time>
      </trkpt>
      <trkpt lat="45.17938" lon="5.5688">
        <ele>1189.8</ele>
        <time>2015-06-11T15:29:37Z</time>
      </trkpt>
      <trkpt lat="45.1794" lon="5.56882">
        <ele>1190.4</ele>
        <time>2015-06-11T15:29:38Z</time>
      </trkpt>
      <trkpt lat="45.17941" lon="5.56884">
        <ele>1190.9</ele>
        <time>2015-06-11T15:29:39Z</time>
      </trkpt>
      <trkpt lat="45.17942" lon="5.56885">
        <ele>1191.5</ele>
        <time>2015-06-11T15:29:40Z</time>
      </trkpt>
      <trkpt lat="45.17944" lon="5.56887">
        <ele>1191.9</ele>
        <time>2015-06-11T15:29:41Z</time>
      </trkpt>
      <trkpt lat="45.17946" lon="5.56888">
        <ele>1192.2</ele>
        <time>2015-06-11T15:29:42Z</time>
      </trkpt>
      <trkpt lat="45.17948" lon="5.56889">
        <ele>1192.5</ele>
        <time>2015-06-11T15:29:43Z</time>
      </trkpt>
      <trkpt lat="45.1795" lon="5.5689">
        <ele>1192.7</ele>
        <time>2015-06-11T15:29:44Z</time>
      </trkpt>
      <trkpt lat="45.17952" lon="5.56891">
        <ele>1192.9</ele>
        <time>2015-06-11T15:29:45Z</time>
      </trkpt>
      <trkpt lat="45.17954" lon="5.56892">
        <ele>1193</ele>
        <time>2015-06-11T15:29:46Z</time>
      </trkpt>
      <trkpt lat="45.17956" lon="5.56893">
        <ele>1193</ele>
        <time>2015-06-11T15:29:47Z</time>
      </trkpt>
      <trkpt lat="45.17959" lon="5.56893">
        <ele>1193</ele>
        <time>2015-06-11T15:29:48Z</time>
      </trkpt>
      <trkpt lat="45.17961" lon="5.56893">
        <ele>1192.7</ele>
        <time>2015-06-11T15:29:49Z</time>
      </trkpt>
      <trkpt lat="45.17963" lon="5.56893">
        <ele>1192.4</ele>
        <time>2015-06-11T15:29:50Z</time>
      </trkpt>
      <trkpt lat="45.17965" lon="5.56893">
        <ele>1192.1</ele>
        <time>2015-06-11T15:29:51Z</time>
      </trkpt>
      <trkpt lat="45.17967" lon="5.56893">
        <ele>1191.7</ele>
        <time>2015-06-11T15:29:52Z</time>
      </trkpt>
      <trkpt lat="45.17969" lon="5.56892">
        <ele>1191.2</ele>
        <time>2015-06-11T15:29:53Z</time>
      </trkpt>
      <trkpt lat="45.17971" lon="5.56892">
        <ele>1190.7</ele>
        <time>2015-06-11T15:29:54Z</time>
      </trkpt>
      <trkpt lat="45.17974" lon="5.56891">
        <ele>1190</ele>
        <time>2015-06-11T15:29:55Z</time>
      </trkpt>
      <trkpt lat="45.17977" lon="5.5689">
        <ele>1189.3</ele>
        <time>2015-06-11T15:29:56Z</time>
      </trkpt>
      <trkpt lat="45.17979" lon="5.5689">
        <ele>1188.7</ele>
        <time>2015-06-11T15:29:57Z</time>
      </trkpt>
      <trkpt lat="45.17982" lon="5.56889">
        <ele>1188.2</ele>
        <time>2015-06-11T15:29:58Z</time>
      </trkpt>
      <trkpt lat="45.17985" lon="5.56889">
        <ele>1187.7</ele>
        <time>2015-06-11T15:29:59Z</time>
      </trkpt>
      <trkpt lat="45.17987" lon="5.56889">
        <ele>1187.6</ele>
        <time>2015-06-11T15:30:00Z</time>
      </trkpt>
      <trkpt lat="45.17989" lon="5.5689">
        <ele>1187.5</ele>
        <time>2015-06-11T15:30:01Z</time>
      </trkpt>
      <trkpt lat="45.17991" lon="5.56891">
        <ele>1187.6</ele>
        <time>2015-06-11T15:30:02Z</time>
      </trkpt>
      <trkpt lat="45.17992" lon="5.56892">
        <ele>1187.7</ele>
        <time>2015-06-11T15:30:03Z</time>
      </trkpt>
      <trkpt lat="45.17994" lon="5.56893">
        <ele>1187.9</ele>
        <time>2015-06-11T15:30:04Z</time>
      </trkpt>
      <trkpt lat="45.17995" lon="5.56894">
        <ele>1188</ele>
        <time>2015-06-11T15:30:05Z</time>
      </trkpt>
      <trkpt lat="45.17997" lon="5.56895">
        <ele>1188.1</ele>
        <time>2015-06-11T15:30:06Z</time>
      </trkpt>
      <trkpt lat="45.17998" lon="5.56896">
        <ele>1188.1</ele>
        <time>2015-06-11T15:30:07Z</time>
      </trkpt>
      <trkpt lat="45.18" lon="5.56896">
        <ele>1188.1</ele>
        <time>2015-06-11T15:30:08Z</time>
      </trkpt>
      <trkpt lat="45.18001" lon="5.56897">
        <ele>1188.1</ele>
        <time>2015-06-11T15:30:09Z</time>
      </trkpt>
      <trkpt lat="45.18003" lon="5.56897">
        <ele>1187.9</ele>
        <time>2015-06-11T15:30:10Z</time>
      </trkpt>
      <trkpt lat="45.18005" lon="5.56898">
        <ele>1187.8</ele>
        <time>2015-06-11T15:30:11Z</time>
      </trkpt>
      <trkpt lat="45.18007" lon="5.56898">
        <ele>1187.7</ele>
        <time>2015-06-11T15:30:12Z</time>
      </trkpt>
      <trkpt lat="45.18009" lon="5.56899">
        <ele>1187.5</ele>
        <time>2015-06-11T15:30:13Z</time>
      </trkpt>
      <trkpt lat="45.18012" lon="5.56899">
        <ele>1187.2</ele>
        <time>2015-06-11T15:30:14Z</time>
      </trkpt>
      <trkpt lat="45.18014" lon="5.56899">
        <ele>1187.1</ele>
        <time>2015-06-11T15:30:15Z</time>
      </trkpt>
      <trkpt lat="45.18016" lon="5.569">
        <ele>1186.8</ele>
        <time>2015-06-11T15:30:16Z</time>
      </trkpt>
      <trkpt lat="45.18018" lon="5.569">
        <ele>1186.6</ele>
        <time>2015-06-11T15:30:17Z</time>
      </trkpt>
      <trkpt lat="45.18021" lon="5.569">
        <ele>1186.3</ele>
        <time>2015-06-11T15:30:18Z</time>
      </trkpt>
      <trkpt lat="45.18024" lon="5.569">
        <ele>1186.1</ele>
        <time>2015-06-11T15:30:19Z</time>
      </trkpt>
      <trkpt lat="45.18026" lon="5.56901">
        <ele>1185.8</ele>
        <time>2015-06-11T15:30:20Z</time>
      </trkpt>
      <trkpt lat="45.18028" lon="5.56901">
        <ele>1185.6</ele>
        <time>2015-06-11T15:30:21Z</time>
      </trkpt>
      <trkpt lat="45.18031" lon="5.56901">
        <ele>1185.3</ele>
        <time>2015-06-11T15:30:22Z</time>
      </trkpt>
      <trkpt lat="45.18033" lon="5.56902">
        <ele>1185.1</ele>
        <time>2015-06-11T15:30:23Z</time>
      </trkpt>
      <trkpt lat="45.18036" lon="5.56902">
        <ele>1184.9</ele>
        <time>2015-06-11T15:30:24Z</time>
      </trkpt>
      <trkpt lat="45.18038" lon="5.56902">
        <ele>1184.7</ele>
        <time>2015-06-11T15:30:25Z</time>
      </trkpt>
      <trkpt lat="45.1804" lon="5.56903">
        <ele>1184.5</ele>
        <time>2015-06-11T15:30:26Z</time>
      </trkpt>
      <trkpt lat="45.18042" lon="5.56903">
        <ele>1184.4</ele>
        <time>2015-06-11T15:30:27Z</time>
      </trkpt>
      <trkpt lat="45.18045" lon="5.56903">
        <ele>1184.5</ele>
        <time>2015-06-11T15:30:28Z</time>
      </trkpt>
      <trkpt lat="45.18047" lon="5.56904">
        <ele>1184.6</ele>
        <time>2015-06-11T15:30:29Z</time>
      </trkpt>
      <trkpt lat="45.18049" lon="5.56904">
        <ele>1184.8</ele>
        <time>2015-06-11T15:30:30Z</time>
      </trkpt>
      <trkpt lat="45.18051" lon="5.56905">
        <ele>1184.9</ele>
        <time>2015-06-11T15:30:31Z</time>
      </trkpt>
      <trkpt lat="45.18053" lon="5.56905">
        <ele>1185.1</ele>
        <time>2015-06-11T15:30:32Z</time>
      </trkpt>
      <trkpt lat="45.18055" lon="5.56906">
        <ele>1185.2</ele>
        <time>2015-06-11T15:30:33Z</time>
      </trkpt>
      <trkpt lat="45.18058" lon="5.56906">
        <ele>1185.3</ele>
        <time>2015-06-11T15:30:34Z</time>
      </trkpt>
      <trkpt lat="45.1806" lon="5.56906">
        <ele>1185.4</ele>
        <time>2015-06-11T15:30:35Z</time>
      </trkpt>
      <trkpt lat="45.18063" lon="5.56906">
        <ele>1185.3</ele>
        <time>2015-06-11T15:30:36Z</time>
      </trkpt>
      <trkpt lat="45.18066" lon="5.56906">
        <ele>1185.3</ele>
        <time>2015-06-11T15:30:37Z</time>
      </trkpt>
      <trkpt lat="45.18068" lon="5.56906">
        <ele>1185.2</ele>
        <time>2015-06-11T15:30:38Z</time>
      </trkpt>
      <trkpt lat="45.18071" lon="5.56906">
        <ele>1185.2</ele>
        <time>2015-06-11T15:30:39Z</time>
      </trkpt>
      <trkpt lat="45.18074" lon="5.56906">
        <ele>1185.3</ele>
        <time>2015-06-11T15:30:40Z</time>
      </trkpt>
      <trkpt lat="45.18076" lon="5.56907">
        <ele>1185.4</ele>
        <time>2015-06-11T15:30:41Z</time>
      </trkpt>
      <trkpt lat="45.18079" lon="5.56907">
        <ele>1185.6</ele>
        <time>2015-06-11T15:30:42Z</time>
      </trkpt>
      <trkpt lat="45.18081" lon="5.56908">
        <ele>1185.8</ele>
        <time>2015-06-11T15:30:43Z</time>
      </trkpt>
      <trkpt lat="45.18083" lon="5.56909">
        <ele>1186.1</ele>
        <time>2015-06-11T15:30:44Z</time>
      </trkpt>
      <trkpt lat="45.18085" lon="5.5691">
        <ele>1186.3</ele>
        <time>2015-06-11T15:30:45Z</time>
      </trkpt>
      <trkpt lat="45.18087" lon="5.56911">
        <ele>1186.6</ele>
        <time>2015-06-11T15:30:46Z</time>
      </trkpt>
      <trkpt lat="45.18089" lon="5.56912">
        <ele>1186.9</ele>
        <time>2015-06-11T15:30:47Z</time>
      </trkpt>
      <trkpt lat="45.18091" lon="5.56913">
        <ele>1187.2</ele>
        <time>2015-06-11T15:30:48Z</time>
      </trkpt>
      <trkpt lat="45.18093" lon="5.56914">
        <ele>1187.5</ele>
        <time>2015-06-11T15:30:49Z</time>
      </trkpt>
      <trkpt lat="45.18095" lon="5.56915">
        <ele>1187.8</ele>
        <time>2015-06-11T15:30:50Z</time>
      </trkpt>
      <trkpt lat="45.18097" lon="5.56917">
        <ele>1188.2</ele>
        <time>2015-06-11T15:30:51Z</time>
      </trkpt>
      <trkpt lat="45.18099" lon="5.56918">
        <ele>1188.7</ele>
        <time>2015-06-11T15:30:52Z</time>
      </trkpt>
      <trkpt lat="45.18101" lon="5.5692">
        <ele>1189.1</ele>
        <time>2015-06-11T15:30:53Z</time>
      </trkpt>
      <trkpt lat="45.18103" lon="5.56922">
        <ele>1189.6</ele>
        <time>2015-06-11T15:30:54Z</time>
      </trkpt>
      <trkpt lat="45.18105" lon="5.56924">
        <ele>1190</ele>
        <time>2015-06-11T15:30:55Z</time>
      </trkpt>
      <trkpt lat="45.18108" lon="5.56925">
        <ele>1190.5</ele>
        <time>2015-06-11T15:30:56Z</time>
      </trkpt>
      <trkpt lat="45.1811" lon="5.56927">
        <ele>1190.9</ele>
        <time>2015-06-11T15:30:57Z</time>
      </trkpt>
      <trkpt lat="45.18113" lon="5.56929">
        <ele>1191.3</ele>
        <time>2015-06-11T15:30:58Z</time>
      </trkpt>
      <trkpt lat="45.18115" lon="5.5693">
        <ele>1191.7</ele>
        <time>2015-06-11T15:30:59Z</time>
      </trkpt>
      <trkpt lat="45.18117" lon="5.56932">
        <ele>1192.1</ele>
        <time>2015-06-11T15:31:00Z</time>
      </trkpt>
      <trkpt lat="45.18119" lon="5.56934">
        <ele>1192.5</ele>
        <time>2015-06-11T15:31:01Z</time>
      </trkpt>
      <trkpt lat="45.18121" lon="5.56936">
        <ele>1192.9</ele>
        <time>2015-06-11T15:31:02Z</time>
      </trkpt>
      <trkpt lat="45.18123" lon="5.56938">
        <ele>1193.4</ele>
        <time>2015-06-11T15:31:03Z</time>
      </trkpt>
      <trkpt lat="45.18124" lon="5.56939">
        <ele>1193.8</ele>
        <time>2015-06-11T15:31:04Z</time>
      </trkpt>
      <trkpt lat="45.18126" lon="5.56941">
        <ele>1194.2</ele>
        <time>2015-06-11T15:31:05Z</time>
      </trkpt>
      <trkpt lat="45.18127" lon="5.56943">
        <ele>1194.5</ele>
        <time>2015-06-11T15:31:06Z</time>
      </trkpt>
      <trkpt lat="45.18129" lon="5.56944">
        <ele>1194.8</ele>
        <time>2015-06-11T15:31:07Z</time>
      </trkpt>
      <trkpt lat="45.18131" lon="5.56945">
        <ele>1195</ele>
        <time>2015-06-11T15:31:08Z</time>
      </trkpt>
      <trkpt lat="45.18132" lon="5.56946">
        <ele>1195.1</ele>
        <time>2015-06-11T15:31:09Z</time>
      </trkpt>
      <trkpt lat="45.18134" lon="5.56947">
        <ele>1195.2</ele>
        <time>2015-06-11T15:31:10Z</time>
      </trkpt>
      <trkpt lat="45.18136" lon="5.56947">
        <ele>1195</ele>
        <time>2015-06-11T15:31:11Z</time>
      </trkpt>
      <trkpt lat="45.18138" lon="5.56947">
        <ele>1194.8</ele>
        <time>2015-06-11T15:31:12Z</time>
      </trkpt>
      <trkpt lat="45.1814" lon="5.56946">
        <ele>1194.5</ele>
        <time>2015-06-11T15:31:13Z</time>
      </trkpt>
      <trkpt lat="45.18143" lon="5.56945">
        <ele>1194.1</ele>
        <time>2015-06-11T15:31:14Z</time>
      </trkpt>
      <trkpt lat="45.18146" lon="5.56945">
        <ele>1193.7</ele>
        <time>2015-06-11T15:31:15Z</time>
      </trkpt>
      <trkpt lat="45.18148" lon="5.56944">
        <ele>1193.4</ele>
        <time>2015-06-11T15:31:16Z</time>
      </trkpt>
      <trkpt lat="45.18151" lon="5.56944">
        <ele>1193.1</ele>
        <time>2015-06-11T15:31:17Z</time>
      </trkpt>
      <trkpt lat="45.18154" lon="5.56944">
        <ele>1192.9</ele>
        <time>2015-06-11T15:31:18Z</time>
      </trkpt>
      <trkpt lat="45.18156" lon="5.56944">
        <ele>1192.9</ele>
        <time>2015-06-11T15:31:19Z</time>
      </trkpt>
      <trkpt lat="45.18159" lon="5.56945">
        <ele>1192.8</ele>
        <time>2015-06-11T15:31:20Z</time>
      </trkpt>
      <trkpt lat="45.18161" lon="5.56946">
        <ele>1192.8</ele>
        <time>2015-06-11T15:31:21Z</time>
      </trkpt>
      <trkpt lat="45.18164" lon="5.56947">
        <ele>1192.9</ele>
        <time>2015-06-11T15:31:22Z</time>
      </trkpt>
      <trkpt lat="45.18166" lon="5.56947">
        <ele>1192.9</ele>
        <time>2015-06-11T15:31:23Z</time>
      </trkpt>
      <trkpt lat="45.18167" lon="5.56948">
        <ele>1192.9</ele>
        <time>2015-06-11T15:31:24Z</time>
      </trkpt>
      <trkpt lat="45.18169" lon="5.56949">
        <ele>1192.8</ele>
        <time>2015-06-11T15:31:25Z</time>
      </trkpt>
      <trkpt lat="45.18171" lon="5.56949">
        <ele>1192.9</ele>
        <time>2015-06-11T15:31:26Z</time>
      </trkpt>
      <trkpt lat="45.18172" lon="5.5695">
        <ele>1192.9</ele>
        <time>2015-06-11T15:31:27Z</time>
      </trkpt>
      <trkpt lat="45.18174" lon="5.56951">
        <ele>1192.9</ele>
        <time>2015-06-11T15:31:28Z</time>
      </trkpt>
      <trkpt lat="45.18176" lon="5.56952">
        <ele>1192.9</ele>
        <time>2015-06-11T15:31:29Z</time>
      </trkpt>
      <trkpt lat="45.18177" lon="5.56953">
        <ele>1193</ele>
        <time>2015-06-11T15:31:30Z</time>
      </trkpt>
      <trkpt lat="45.18179" lon="5.56954">
        <ele>1193</ele>
        <time>2015-06-11T15:31:31Z</time>
      </trkpt>
      <trkpt lat="45.18181" lon="5.56955">
        <ele>1193</ele>
        <time>2015-06-11T15:31:32Z</time>
      </trkpt>
      <trkpt lat="45.18183" lon="5.56956">
        <ele>1193</ele>
        <time>2015-06-11T15:31:33Z</time>
      </trkpt>
      <trkpt lat="45.18185" lon="5.56957">
        <ele>1193</ele>
        <time>2015-06-11T15:31:34Z</time>
      </trkpt>
      <trkpt lat="45.18187" lon="5.56957">
        <ele>1192.9</ele>
        <time>2015-06-11T15:31:35Z</time>
      </trkpt>
      <trkpt lat="45.18189" lon="5.56958">
        <ele>1192.9</ele>
        <time>2015-06-11T15:31:36Z</time>
      </trkpt>
      <trkpt lat="45.1819" lon="5.56959">
        <ele>1192.9</ele>
        <time>2015-06-11T15:31:37Z</time>
      </trkpt>
      <trkpt lat="45.18192" lon="5.5696">
        <ele>1193</ele>
        <time>2015-06-11T15:31:38Z</time>
      </trkpt>
      <trkpt lat="45.18194" lon="5.56961">
        <ele>1193.1</ele>
        <time>2015-06-11T15:31:39Z</time>
      </trkpt>
      <trkpt lat="45.18195" lon="5.56962">
        <ele>1193.1</ele>
        <time>2015-06-11T15:31:40Z</time>
      </trkpt>
      <trkpt lat="45.18197" lon="5.56962">
        <ele>1193.2</ele>
        <time>2015-06-11T15:31:41Z</time>
      </trkpt>
      <trkpt lat="45.18199" lon="5.56963">
        <ele>1193.3</ele>
        <time>2015-06-11T15:31:42Z</time>
      </trkpt>
      <trkpt lat="45.18201" lon="5.56964">
        <ele>1193.3</ele>
        <time>2015-06-11T15:31:43Z</time>
      </trkpt>
      <trkpt lat="45.18202" lon="5.56965">
        <ele>1193.4</ele>
        <time>2015-06-11T15:31:44Z</time>
      </trkpt>
      <trkpt lat="45.18204" lon="5.56966">
        <ele>1193.5</ele>
        <time>2015-06-11T15:31:45Z</time>
      </trkpt>
      <trkpt lat="45.18206" lon="5.56967">
        <ele>1193.5</ele>
        <time>2015-06-11T15:31:46Z</time>
      </trkpt>
      <trkpt lat="45.18208" lon="5.56968">
        <ele>1193.3</ele>
        <time>2015-06-11T15:31:47Z</time>
      </trkpt>
      <trkpt lat="45.1821" lon="5.56968">
        <ele>1193.4</ele>
        <time>2015-06-11T15:31:48Z</time>
      </trkpt>
      <trkpt lat="45.18213" lon="5.56967">
        <ele>1193.4</ele>
        <time>2015-06-11T15:31:49Z</time>
      </trkpt>
      <trkpt lat="45.18215" lon="5.56967">
        <ele>1193.3</ele>
        <time>2015-06-11T15:31:50Z</time>
      </trkpt>
      <trkpt lat="45.18218" lon="5.56966">
        <ele>1193.1</ele>
        <time>2015-06-11T15:31:51Z</time>
      </trkpt>
      <trkpt lat="45.18221" lon="5.56965">
        <ele>1193</ele>
        <time>2015-06-11T15:31:52Z</time>
      </trkpt>
      <trkpt lat="45.18223" lon="5.56965">
        <ele>1192.8</ele>
        <time>2015-06-11T15:31:53Z</time>
      </trkpt>
      <trkpt lat="45.18226" lon="5.56964">
        <ele>1192.7</ele>
        <time>2015-06-11T15:31:54Z</time>
      </trkpt>
      <trkpt lat="45.18228" lon="5.56964">
        <ele>1192.7</ele>
        <time>2015-06-11T15:31:55Z</time>
      </trkpt>
      <trkpt lat="45.1823" lon="5.56964">
        <ele>1192.7</ele>
        <time>2015-06-11T15:31:56Z</time>
      </trkpt>
      <trkpt lat="45.18232" lon="5.56964">
        <ele>1192.7</ele>
        <time>2015-06-11T15:31:57Z</time>
      </trkpt>
      <trkpt lat="45.18234" lon="5.56964">
        <ele>1192.8</ele>
        <time>2015-06-11T15:31:58Z</time>
      </trkpt>
      <trkpt lat="45.18236" lon="5.56964">
        <ele>1192.8</ele>
        <time>2015-06-11T15:31:59Z</time>
      </trkpt>
      <trkpt lat="45.18238" lon="5.56964">
        <ele>1192.9</ele>
        <time>2015-06-11T15:32:00Z</time>
      </trkpt>
      <trkpt lat="45.1824" lon="5.56964">
        <ele>1193</ele>
        <time>2015-06-11T15:32:01Z</time>
      </trkpt>
      <trkpt lat="45.18241" lon="5.56964">
        <ele>1193</ele>
        <time>2015-06-11T15:32:02Z</time>
      </trkpt>
      <trkpt lat="45.18243" lon="5.56964">
        <ele>1193</ele>
        <time>2015-06-11T15:32:03Z</time>
      </trkpt>
      <trkpt lat="45.18245" lon="5.56964">
        <ele>1193</ele>
        <time>2015-06-11T15:32:04Z</time>
      </trkpt>
      <trkpt lat="45.18246" lon="5.56964">
        <ele>1193</ele>
        <time>2015-06-11T15:32:05Z</time>
      </trkpt>
      <trkpt lat="45.18248" lon="5.56963">
        <ele>1192.9</ele>
        <time>2015-06-11T15:32:06Z</time>
      </trkpt>
      <trkpt lat="45.18249" lon="5.56963">
        <ele>1192.7</ele>
        <time>2015-06-11T15:32:07Z</time>
      </trkpt>
      <trkpt lat="45.18251" lon="5.56962">
        <ele>1192.6</ele>
        <time>2015-06-11T15:32:08Z</time>
      </trkpt>
      <trkpt lat="45.18252" lon="5.56962">
        <ele>1192.5</ele>
        <time>2015-06-11T15:32:09Z</time>
      </trkpt>
      <trkpt lat="45.18254" lon="5.56961">
        <ele>1192.4</ele>
        <time>2015-06-11T15:32:10Z</time>
      </trkpt>
      <trkpt lat="45.18256" lon="5.56961">
        <ele>1192.4</ele>
        <time>2015-06-11T15:32:11Z</time>
      </trkpt>
      <trkpt lat="45.18258" lon="5.56961">
        <ele>1192.3</ele>
        <time>2015-06-11T15:32:12Z</time>
      </trkpt>
      <trkpt lat="45.18259" lon="5.56961">
        <ele>1192.3</ele>
        <time>2015-06-11T15:32:13Z</time>
      </trkpt>
      <trkpt lat="45.18261" lon="5.56961">
        <ele>1192.3</ele>
        <time>2015-06-11T15:32:14Z</time>
      </trkpt>
      <trkpt lat="45.18264" lon="5.5696">
        <ele>1192.3</ele>
        <time>2015-06-11T15:32:15Z</time>
      </trkpt>
      <trkpt lat="45.18266" lon="5.5696">
        <ele>1192.3</ele>
        <time>2015-06-11T15:32:16Z</time>
      </trkpt>
      <trkpt lat="45.18268" lon="5.5696">
        <ele>1192.3</ele>
        <time>2015-06-11T15:32:17Z</time>
      </trkpt>
      <trkpt lat="45.1827" lon="5.5696">
        <ele>1192.3</ele>
        <time>2015-06-11T15:32:18Z</time>
      </trkpt>
      <trkpt lat="45.18272" lon="5.5696">
        <ele>1192.3</ele>
        <time>2015-06-11T15:32:19Z</time>
      </trkpt>
      <trkpt lat="45.18274" lon="5.5696">
        <ele>1192.3</ele>
        <time>2015-06-11T15:32:20Z</time>
      </trkpt>
      <trkpt lat="45.18277" lon="5.5696">
        <ele>1192.3</ele>
        <time>2015-06-11T15:32:21Z</time>
      </trkpt>
      <trkpt lat="45.18279" lon="5.5696">
        <ele>1192.3</ele>
        <time>2015-06-11T15:32:22Z</time>
      </trkpt>
      <trkpt lat="45.18281" lon="5.5696">
        <ele>1192.3</ele>
        <time>2015-06-11T15:32:23Z</time>
      </trkpt>
      <trkpt lat="45.18284" lon="5.5696">
        <ele>1192.3</ele>
        <time>2015-06-11T15:32:24Z</time>
      </trkpt>
      <trkpt lat="45.18285" lon="5.5696">
        <ele>1192.3</ele>
        <time>2015-06-11T15:32:25Z</time>
      </trkpt>
      <trkpt lat="45.18288" lon="5.56959">
        <ele>1192.3</ele>
        <time>2015-06-11T15:32:26Z</time>
      </trkpt>
      <trkpt lat="45.1829" lon="5.56959">
        <ele>1192.3</ele>
        <time>2015-06-11T15:32:27Z</time>
      </trkpt>
      <trkpt lat="45.18292" lon="5.56959">
        <ele>1192.3</ele>
        <time>2015-06-11T15:32:28Z</time>
      </trkpt>
      <trkpt lat="45.18294" lon="5.56959">
        <ele>1192.3</ele>
        <time>2015-06-11T15:32:29Z</time>
      </trkpt>
      <trkpt lat="45.18296" lon="5.56959">
        <ele>1192.4</ele>
        <time>2015-06-11T15:32:30Z</time>
      </trkpt>
      <trkpt lat="45.18298" lon="5.56958">
        <ele>1192.5</ele>
        <time>2015-06-11T15:32:31Z</time>
      </trkpt>
      <trkpt lat="45.183" lon="5.56958">
        <ele>1192.6</ele>
        <time>2015-06-11T15:32:32Z</time>
      </trkpt>
      <trkpt lat="45.18301" lon="5.56958">
        <ele>1192.7</ele>
        <time>2015-06-11T15:32:33Z</time>
      </trkpt>
      <trkpt lat="45.18303" lon="5.56957">
        <ele>1192.8</ele>
        <time>2015-06-11T15:32:34Z</time>
      </trkpt>
      <trkpt lat="45.18304" lon="5.56957">
        <ele>1192.9</ele>
        <time>2015-06-11T15:32:35Z</time>
      </trkpt>
      <trkpt lat="45.18306" lon="5.56956">
        <ele>1193</ele>
        <time>2015-06-11T15:32:36Z</time>
      </trkpt>
      <trkpt lat="45.18308" lon="5.56956">
        <ele>1193</ele>
        <time>2015-06-11T15:32:37Z</time>
      </trkpt>
      <trkpt lat="45.18309" lon="5.56955">
        <ele>1193.1</ele>
        <time>2015-06-11T15:32:38Z</time>
      </trkpt>
      <trkpt lat="45.18311" lon="5.56954">
        <ele>1193.1</ele>
        <time>2015-06-11T15:32:39Z</time>
      </trkpt>
      <trkpt lat="45.18313" lon="5.56952">
        <ele>1193.1</ele>
        <time>2015-06-11T15:32:40Z</time>
      </trkpt>
      <trkpt lat="45.18315" lon="5.56951">
        <ele>1193</ele>
        <time>2015-06-11T15:32:41Z</time>
      </trkpt>
      <trkpt lat="45.18317" lon="5.5695">
        <ele>1193</ele>
        <time>2015-06-11T15:32:42Z</time>
      </trkpt>
      <trkpt lat="45.18318" lon="5.56949">
        <ele>1193</ele>
        <time>2015-06-11T15:32:43Z</time>
      </trkpt>
      <trkpt lat="45.1832" lon="5.56948">
        <ele>1192.9</ele>
        <time>2015-06-11T15:32:44Z</time>
      </trkpt>
      <trkpt lat="45.18322" lon="5.56946">
        <ele>1192.9</ele>
        <time>2015-06-11T15:32:45Z</time>
      </trkpt>
      <trkpt lat="45.18324" lon="5.56945">
        <ele>1192.8</ele>
        <time>2015-06-11T15:32:46Z</time>
      </trkpt>
      <trkpt lat="45.18325" lon="5.56944">
        <ele>1192.8</ele>
        <time>2015-06-11T15:32:47Z</time>
      </trkpt>
      <trkpt lat="45.18327" lon="5.56943">
        <ele>1192.8</ele>
        <time>2015-06-11T15:32:48Z</time>
      </trkpt>
      <trkpt lat="45.18329" lon="5.56942">
        <ele>1192.7</ele>
        <time>2015-06-11T15:32:49Z</time>
      </trkpt>
      <trkpt lat="45.18329" lon="5.56941">
        <ele>1192.6</ele>
        <time>2015-06-11T15:32:50Z</time>
      </trkpt>
      <trkpt lat="45.18329" lon="5.5694">
        <ele>1192.4</ele>
        <time>2015-06-11T15:32:51Z</time>
      </trkpt>
      <trkpt lat="45.18329" lon="5.56939">
        <ele>1192.2</ele>
        <time>2015-06-11T15:32:52Z</time>
      </trkpt>
      <trkpt lat="45.18328" lon="5.56938">
        <ele>1192</ele>
        <time>2015-06-11T15:32:53Z</time>
      </trkpt>
      <trkpt lat="45.18327" lon="5.56936">
        <ele>1191.7</ele>
        <time>2015-06-11T15:32:54Z</time>
      </trkpt>
      <trkpt lat="45.18326" lon="5.56934">
        <ele>1191.5</ele>
        <time>2015-06-11T15:32:55Z</time>
      </trkpt>
      <trkpt lat="45.18325" lon="5.56932">
        <ele>1191.1</ele>
        <time>2015-06-11T15:32:56Z</time>
      </trkpt>
      <trkpt lat="45.18324" lon="5.5693">
        <ele>1190.8</ele>
        <time>2015-06-11T15:32:57Z</time>
      </trkpt>
      <trkpt lat="45.18324" lon="5.56928">
        <ele>1190.5</ele>
        <time>2015-06-11T15:32:58Z</time>
      </trkpt>
      <trkpt lat="45.18324" lon="5.56926">
        <ele>1190.2</ele>
        <time>2015-06-11T15:32:59Z</time>
      </trkpt>
      <trkpt lat="45.18324" lon="5.56924">
        <ele>1189.9</ele>
        <time>2015-06-11T15:33:00Z</time>
      </trkpt>
      <trkpt lat="45.18324" lon="5.56922">
        <ele>1189.6</ele>
        <time>2015-06-11T15:33:01Z</time>
      </trkpt>
      <trkpt lat="45.18325" lon="5.5692">
        <ele>1189.4</ele>
        <time>2015-06-11T15:33:02Z</time>
      </trkpt>
      <trkpt lat="45.18327" lon="5.56918">
        <ele>1189.2</ele>
        <time>2015-06-11T15:33:03Z</time>
      </trkpt>
      <trkpt lat="45.1833" lon="5.56917">
        <ele>1189</ele>
        <time>2015-06-11T15:33:04Z</time>
      </trkpt>
      <trkpt lat="45.18332" lon="5.56916">
        <ele>1188.8</ele>
        <time>2015-06-11T15:33:05Z</time>
      </trkpt>
      <trkpt lat="45.18335" lon="5.56914">
        <ele>1188.6</ele>
        <time>2015-06-11T15:33:06Z</time>
      </trkpt>
      <trkpt lat="45.18337" lon="5.56913">
        <ele>1188.4</ele>
        <time>2015-06-11T15:33:07Z</time>
      </trkpt>
      <trkpt lat="45.1834" lon="5.56912">
        <ele>1188.2</ele>
        <time>2015-06-11T15:33:08Z</time>
      </trkpt>
      <trkpt lat="45.18341" lon="5.5691">
        <ele>1188</ele>
        <time>2015-06-11T15:33:09Z</time>
      </trkpt>
      <trkpt lat="45.18343" lon="5.56909">
        <ele>1187.8</ele>
        <time>2015-06-11T15:33:10Z</time>
      </trkpt>
      <trkpt lat="45.18345" lon="5.56907">
        <ele>1187.5</ele>
        <time>2015-06-11T15:33:11Z</time>
      </trkpt>
      <trkpt lat="45.18347" lon="5.56906">
        <ele>1187.3</ele>
        <time>2015-06-11T15:33:12Z</time>
      </trkpt>
      <trkpt lat="45.18349" lon="5.56905">
        <ele>1187.1</ele>
        <time>2015-06-11T15:33:13Z</time>
      </trkpt>
      <trkpt lat="45.18351" lon="5.56904">
        <ele>1186.9</ele>
        <time>2015-06-11T15:33:14Z</time>
      </trkpt>
      <trkpt lat="45.18352" lon="5.56903">
        <ele>1186.7</ele>
        <time>2015-06-11T15:33:15Z</time>
      </trkpt>
      <trkpt lat="45.18354" lon="5.56903">
        <ele>1186.5</ele>
        <time>2015-06-11T15:33:16Z</time>
      </trkpt>
      <trkpt lat="45.18356" lon="5.56902">
        <ele>1186.4</ele>
        <time>2015-06-11T15:33:17Z</time>
      </trkpt>
      <trkpt lat="45.18358" lon="5.56902">
        <ele>1186.4</ele>
        <time>2015-06-11T15:33:18Z</time>
      </trkpt>
      <trkpt lat="45.1836" lon="5.56902">
        <ele>1186.3</ele>
        <time>2015-06-11T15:33:19Z</time>
      </trkpt>
      <trkpt lat="45.18362" lon="5.56901">
        <ele>1186.1</ele>
        <time>2015-06-11T15:33:20Z</time>
      </trkpt>
      <trkpt lat="45.18363" lon="5.56901">
        <ele>1186</ele>
        <time>2015-06-11T15:33:21Z</time>
      </trkpt>
      <trkpt lat="45.18364" lon="5.569">
        <ele>1185.8</ele>
        <time>2015-06-11T15:33:22Z</time>
      </trkpt>
      <trkpt lat="45.18364" lon="5.56898">
        <ele>1185.6</ele>
        <time>2015-06-11T15:33:23Z</time>
      </trkpt>
      <trkpt lat="45.18363" lon="5.56897">
        <ele>1185.2</ele>
        <time>2015-06-11T15:33:24Z</time>
      </trkpt>
      <trkpt lat="45.18362" lon="5.56895">
        <ele>1184.8</ele>
        <time>2015-06-11T15:33:25Z</time>
      </trkpt>
      <trkpt lat="45.18362" lon="5.56893">
        <ele>1184.4</ele>
        <time>2015-06-11T15:33:26Z</time>
      </trkpt>
      <trkpt lat="45.18361" lon="5.5689">
        <ele>1183.9</ele>
        <time>2015-06-11T15:33:27Z</time>
      </trkpt>
      <trkpt lat="45.18359" lon="5.56887">
        <ele>1183.3</ele>
        <time>2015-06-11T15:33:28Z</time>
      </trkpt>
      <trkpt lat="45.18358" lon="5.56884">
        <ele>1182.8</ele>
        <time>2015-06-11T15:33:29Z</time>
      </trkpt>
      <trkpt lat="45.18357" lon="5.56881">
        <ele>1182.3</ele>
        <time>2015-06-11T15:33:30Z</time>
      </trkpt>
      <trkpt lat="45.18355" lon="5.56879">
        <ele>1181.9</ele>
        <time>2015-06-11T15:33:31Z</time>
      </trkpt>
      <trkpt lat="45.18354" lon="5.56876">
        <ele>1181.5</ele>
        <time>2015-06-11T15:33:32Z</time>
      </trkpt>
      <trkpt lat="45.18353" lon="5.56875">
        <ele>1181.3</ele>
        <time>2015-06-11T15:33:33Z</time>
      </trkpt>
      <trkpt lat="45.18352" lon="5.56873">
        <ele>1180.9</ele>
        <time>2015-06-11T15:33:34Z</time>
      </trkpt>
      <trkpt lat="45.18351" lon="5.56872">
        <ele>1180.5</ele>
        <time>2015-06-11T15:33:35Z</time>
      </trkpt>
      <trkpt lat="45.18351" lon="5.5687">
        <ele>1180.1</ele>
        <time>2015-06-11T15:33:36Z</time>
      </trkpt>
      <trkpt lat="45.18352" lon="5.56869">
        <ele>1179.7</ele>
        <time>2015-06-11T15:33:37Z</time>
      </trkpt>
      <trkpt lat="45.18353" lon="5.56867">
        <ele>1179.2</ele>
        <time>2015-06-11T15:33:38Z</time>
      </trkpt>
      <trkpt lat="45.18355" lon="5.56866">
        <ele>1178.7</ele>
        <time>2015-06-11T15:33:39Z</time>
      </trkpt>
      <trkpt lat="45.18358" lon="5.56865">
        <ele>1178.2</ele>
        <time>2015-06-11T15:33:40Z</time>
      </trkpt>
      <trkpt lat="45.1836" lon="5.56864">
        <ele>1177.7</ele>
        <time>2015-06-11T15:33:41Z</time>
      </trkpt>
      <trkpt lat="45.18362" lon="5.56864">
        <ele>1177.5</ele>
        <time>2015-06-11T15:33:42Z</time>
      </trkpt>
      <trkpt lat="45.18364" lon="5.56864">
        <ele>1177.4</ele>
        <time>2015-06-11T15:33:43Z</time>
      </trkpt>
      <trkpt lat="45.18366" lon="5.56865">
        <ele>1177.4</ele>
        <time>2015-06-11T15:33:44Z</time>
      </trkpt>
      <trkpt lat="45.18368" lon="5.56865">
        <ele>1177.5</ele>
        <time>2015-06-11T15:33:45Z</time>
      </trkpt>
      <trkpt lat="45.1837" lon="5.56866">
        <ele>1177.6</ele>
        <time>2015-06-11T15:33:46Z</time>
      </trkpt>
      <trkpt lat="45.18372" lon="5.56867">
        <ele>1177.6</ele>
        <time>2015-06-11T15:33:47Z</time>
      </trkpt>
      <trkpt lat="45.18374" lon="5.56867">
        <ele>1177.6</ele>
        <time>2015-06-11T15:33:48Z</time>
      </trkpt>
      <trkpt lat="45.18376" lon="5.56867">
        <ele>1177.3</ele>
        <time>2015-06-11T15:33:49Z</time>
      </trkpt>
      <trkpt lat="45.18378" lon="5.56867">
        <ele>1176.9</ele>
        <time>2015-06-11T15:33:50Z</time>
      </trkpt>
      <trkpt lat="45.1838" lon="5.56867">
        <ele>1176.3</ele>
        <time>2015-06-11T15:33:51Z</time>
      </trkpt>
      <trkpt lat="45.18382" lon="5.56867">
        <ele>1175.7</ele>
        <time>2015-06-11T15:33:52Z</time>
      </trkpt>
      <trkpt lat="45.18385" lon="5.56867">
        <ele>1175.2</ele>
        <time>2015-06-11T15:33:53Z</time>
      </trkpt>
      <trkpt lat="45.18387" lon="5.56867">
        <ele>1174.6</ele>
        <time>2015-06-11T15:33:54Z</time>
      </trkpt>
      <trkpt lat="45.1839" lon="5.56867">
        <ele>1174.1</ele>
        <time>2015-06-11T15:33:55Z</time>
      </trkpt>
      <trkpt lat="45.18393" lon="5.56868">
        <ele>1173.6</ele>
        <time>2015-06-11T15:33:56Z</time>
      </trkpt>
      <trkpt lat="45.18395" lon="5.56869">
        <ele>1173.2</ele>
        <time>2015-06-11T15:33:57Z</time>
      </trkpt>
      <trkpt lat="45.18397" lon="5.56869">
        <ele>1172.9</ele>
        <time>2015-06-11T15:33:58Z</time>
      </trkpt>
      <trkpt lat="45.18399" lon="5.5687">
        <ele>1172.7</ele>
        <time>2015-06-11T15:33:59Z</time>
      </trkpt>
      <trkpt lat="45.18401" lon="5.56871">
        <ele>1172.5</ele>
        <time>2015-06-11T15:34:00Z</time>
      </trkpt>
      <trkpt lat="45.18403" lon="5.56872">
        <ele>1172.3</ele>
        <time>2015-06-11T15:34:01Z</time>
      </trkpt>
      <trkpt lat="45.18404" lon="5.56873">
        <ele>1172.4</ele>
        <time>2015-06-11T15:34:02Z</time>
      </trkpt>
      <trkpt lat="45.18406" lon="5.56875">
        <ele>1172.4</ele>
        <time>2015-06-11T15:34:03Z</time>
      </trkpt>
      <trkpt lat="45.18408" lon="5.56876">
        <ele>1172.4</ele>
        <time>2015-06-11T15:34:04Z</time>
      </trkpt>
      <trkpt lat="45.18409" lon="5.56878">
        <ele>1172.5</ele>
        <time>2015-06-11T15:34:05Z</time>
      </trkpt>
      <trkpt lat="45.18411" lon="5.56879">
        <ele>1172.4</ele>
        <time>2015-06-11T15:34:06Z</time>
      </trkpt>
      <trkpt lat="45.18414" lon="5.56881">
        <ele>1172.3</ele>
        <time>2015-06-11T15:34:07Z</time>
      </trkpt>
      <trkpt lat="45.18416" lon="5.56882">
        <ele>1172.1</ele>
        <time>2015-06-11T15:34:08Z</time>
      </trkpt>
      <trkpt lat="45.18418" lon="5.56883">
        <ele>1171.9</ele>
        <time>2015-06-11T15:34:09Z</time>
      </trkpt>
      <trkpt lat="45.1842" lon="5.56884">
        <ele>1171.7</ele>
        <time>2015-06-11T15:34:10Z</time>
      </trkpt>
      <trkpt lat="45.18423" lon="5.56885">
        <ele>1171.4</ele>
        <time>2015-06-11T15:34:11Z</time>
      </trkpt>
      <trkpt lat="45.18425" lon="5.56886">
        <ele>1171.1</ele>
        <time>2015-06-11T15:34:12Z</time>
      </trkpt>
      <trkpt lat="45.18427" lon="5.56887">
        <ele>1171</ele>
        <time>2015-06-11T15:34:13Z</time>
      </trkpt>
      <trkpt lat="45.18428" lon="5.56887">
        <ele>1170.8</ele>
        <time>2015-06-11T15:34:14Z</time>
      </trkpt>
      <trkpt lat="45.1843" lon="5.56888">
        <ele>1170.7</ele>
        <time>2015-06-11T15:34:15Z</time>
      </trkpt>
      <trkpt lat="45.18432" lon="5.56889">
        <ele>1170.6</ele>
        <time>2015-06-11T15:34:16Z</time>
      </trkpt>
      <trkpt lat="45.18433" lon="5.56889">
        <ele>1170.4</ele>
        <time>2015-06-11T15:34:17Z</time>
      </trkpt>
      <trkpt lat="45.18435" lon="5.5689">
        <ele>1170.3</ele>
        <time>2015-06-11T15:34:18Z</time>
      </trkpt>
      <trkpt lat="45.18436" lon="5.5689">
        <ele>1170</ele>
        <time>2015-06-11T15:34:19Z</time>
      </trkpt>
      <trkpt lat="45.18438" lon="5.56891">
        <ele>1169.7</ele>
        <time>2015-06-11T15:34:20Z</time>
      </trkpt>
      <trkpt lat="45.1844" lon="5.56891">
        <ele>1169.4</ele>
        <time>2015-06-11T15:34:21Z</time>
      </trkpt>
      <trkpt lat="45.18443" lon="5.56892">
        <ele>1169</ele>
        <time>2015-06-11T15:34:22Z</time>
      </trkpt>
      <trkpt lat="45.18444" lon="5.56892">
        <ele>1168.7</ele>
        <time>2015-06-11T15:34:23Z</time>
      </trkpt>
      <trkpt lat="45.18447" lon="5.56892">
        <ele>1168.2</ele>
        <time>2015-06-11T15:34:24Z</time>
      </trkpt>
      <trkpt lat="45.18449" lon="5.56892">
        <ele>1167.7</ele>
        <time>2015-06-11T15:34:25Z</time>
      </trkpt>
      <trkpt lat="45.18451" lon="5.56892">
        <ele>1167.3</ele>
        <time>2015-06-11T15:34:26Z</time>
      </trkpt>
      <trkpt lat="45.18453" lon="5.56892">
        <ele>1166.8</ele>
        <time>2015-06-11T15:34:27Z</time>
      </trkpt>
      <trkpt lat="45.18456" lon="5.56892">
        <ele>1166.3</ele>
        <time>2015-06-11T15:34:28Z</time>
      </trkpt>
      <trkpt lat="45.18458" lon="5.56892">
        <ele>1165.7</ele>
        <time>2015-06-11T15:34:29Z</time>
      </trkpt>
      <trkpt lat="45.1846" lon="5.56891">
        <ele>1165.3</ele>
        <time>2015-06-11T15:34:30Z</time>
      </trkpt>
      <trkpt lat="45.18462" lon="5.56891">
        <ele>1164.9</ele>
        <time>2015-06-11T15:34:31Z</time>
      </trkpt>
      <trkpt lat="45.18464" lon="5.56891">
        <ele>1164.5</ele>
        <time>2015-06-11T15:34:32Z</time>
      </trkpt>
      <trkpt lat="45.18467" lon="5.5689">
        <ele>1164</ele>
        <time>2015-06-11T15:34:33Z</time>
      </trkpt>
      <trkpt lat="45.18469" lon="5.56889">
        <ele>1163.6</ele>
        <time>2015-06-11T15:34:34Z</time>
      </trkpt>
      <trkpt lat="45.18471" lon="5.56889">
        <ele>1163</ele>
        <time>2015-06-11T15:34:35Z</time>
      </trkpt>
      <trkpt lat="45.18473" lon="5.56888">
        <ele>1162.6</ele>
        <time>2015-06-11T15:34:36Z</time>
      </trkpt>
      <trkpt lat="45.18475" lon="5.56887">
        <ele>1162.1</ele>
        <time>2015-06-11T15:34:37Z</time>
      </trkpt>
      <trkpt lat="45.18477" lon="5.56886">
        <ele>1161.5</ele>
        <time>2015-06-11T15:34:38Z</time>
      </trkpt>
      <trkpt lat="45.18479" lon="5.56885">
        <ele>1160.9</ele>
        <time>2015-06-11T15:34:39Z</time>
      </trkpt>
      <trkpt lat="45.18481" lon="5.56884">
        <ele>1160.4</ele>
        <time>2015-06-11T15:34:40Z</time>
      </trkpt>
      <trkpt lat="45.18483" lon="5.56883">
        <ele>1159.8</ele>
        <time>2015-06-11T15:34:41Z</time>
      </trkpt>
      <trkpt lat="45.18485" lon="5.56882">
        <ele>1159.2</ele>
        <time>2015-06-11T15:34:42Z</time>
      </trkpt>
      <trkpt lat="45.18487" lon="5.56881">
        <ele>1158.7</ele>
        <time>2015-06-11T15:34:43Z</time>
      </trkpt>
      <trkpt lat="45.18489" lon="5.56881">
        <ele>1158.1</ele>
        <time>2015-06-11T15:34:44Z</time>
      </trkpt>
      <trkpt lat="45.18491" lon="5.5688">
        <ele>1157.5</ele>
        <time>2015-06-11T15:34:45Z</time>
      </trkpt>
      <trkpt lat="45.18493" lon="5.56879">
        <ele>1157</ele>
        <time>2015-06-11T15:34:46Z</time>
      </trkpt>
      <trkpt lat="45.18496" lon="5.56878">
        <ele>1156.4</ele>
        <time>2015-06-11T15:34:47Z</time>
      </trkpt>
      <trkpt lat="45.18498" lon="5.56877">
        <ele>1155.9</ele>
        <time>2015-06-11T15:34:48Z</time>
      </trkpt>
      <trkpt lat="45.18501" lon="5.56877">
        <ele>1155.4</ele>
        <time>2015-06-11T15:34:49Z</time>
      </trkpt>
      <trkpt lat="45.18503" lon="5.56876">
        <ele>1154.9</ele>
        <time>2015-06-11T15:34:50Z</time>
      </trkpt>
      <trkpt lat="45.18506" lon="5.56875">
        <ele>1154.4</ele>
        <time>2015-06-11T15:34:51Z</time>
      </trkpt>
      <trkpt lat="45.18508" lon="5.56875">
        <ele>1154</ele>
        <time>2015-06-11T15:34:52Z</time>
      </trkpt>
      <trkpt lat="45.18511" lon="5.56875">
        <ele>1153.6</ele>
        <time>2015-06-11T15:34:53Z</time>
      </trkpt>
      <trkpt lat="45.18514" lon="5.56874">
        <ele>1153.2</ele>
        <time>2015-06-11T15:34:54Z</time>
      </trkpt>
      <trkpt lat="45.18516" lon="5.56874">
        <ele>1152.8</ele>
        <time>2015-06-11T15:34:55Z</time>
      </trkpt>
      <trkpt lat="45.18518" lon="5.56873">
        <ele>1152.3</ele>
        <time>2015-06-11T15:34:56Z</time>
      </trkpt>
      <trkpt lat="45.18521" lon="5.56873">
        <ele>1152</ele>
        <time>2015-06-11T15:34:57Z</time>
      </trkpt>
      <trkpt lat="45.18523" lon="5.56873">
        <ele>1151.6</ele>
        <time>2015-06-11T15:34:58Z</time>
      </trkpt>
      <trkpt lat="45.18525" lon="5.56873">
        <ele>1151.3</ele>
        <time>2015-06-11T15:34:59Z</time>
      </trkpt>
      <trkpt lat="45.18528" lon="5.56872">
        <ele>1150.9</ele>
        <time>2015-06-11T15:35:00Z</time>
      </trkpt>
      <trkpt lat="45.1853" lon="5.56872">
        <ele>1150.6</ele>
        <time>2015-06-11T15:35:01Z</time>
      </trkpt>
      <trkpt lat="45.18533" lon="5.56873">
        <ele>1150.5</ele>
        <time>2015-06-11T15:35:02Z</time>
      </trkpt>
      <trkpt lat="45.18535" lon="5.56873">
        <ele>1150.4</ele>
        <time>2015-06-11T15:35:03Z</time>
      </trkpt>
      <trkpt lat="45.18537" lon="5.56874">
        <ele>1150.4</ele>
        <time>2015-06-11T15:35:04Z</time>
      </trkpt>
      <trkpt lat="45.18539" lon="5.56876">
        <ele>1150.5</ele>
        <time>2015-06-11T15:35:05Z</time>
      </trkpt>
      <trkpt lat="45.18541" lon="5.56877">
        <ele>1150.7</ele>
        <time>2015-06-11T15:35:06Z</time>
      </trkpt>
      <trkpt lat="45.18543" lon="5.56879">
        <ele>1151</ele>
        <time>2015-06-11T15:35:07Z</time>
      </trkpt>
      <trkpt lat="45.18545" lon="5.56881">
        <ele>1151.4</ele>
        <time>2015-06-11T15:35:08Z</time>
      </trkpt>
      <trkpt lat="45.18547" lon="5.56883">
        <ele>1151.8</ele>
        <time>2015-06-11T15:35:09Z</time>
      </trkpt>
      <trkpt lat="45.18549" lon="5.56885">
        <ele>1152.1</ele>
        <time>2015-06-11T15:35:10Z</time>
      </trkpt>
      <trkpt lat="45.18551" lon="5.56887">
        <ele>1152.5</ele>
        <time>2015-06-11T15:35:11Z</time>
      </trkpt>
      <trkpt lat="45.18552" lon="5.56889">
        <ele>1152.8</ele>
        <time>2015-06-11T15:35:12Z</time>
      </trkpt>
      <trkpt lat="45.18554" lon="5.5689">
        <ele>1153.2</ele>
        <time>2015-06-11T15:35:13Z</time>
      </trkpt>
      <trkpt lat="45.18555" lon="5.56892">
        <ele>1153.6</ele>
        <time>2015-06-11T15:35:14Z</time>
      </trkpt>
      <trkpt lat="45.18557" lon="5.56894">
        <ele>1153.9</ele>
        <time>2015-06-11T15:35:15Z</time>
      </trkpt>
      <trkpt lat="45.18559" lon="5.56896">
        <ele>1154.3</ele>
        <time>2015-06-11T15:35:16Z</time>
      </trkpt>
      <trkpt lat="45.1856" lon="5.56898">
        <ele>1154.6</ele>
        <time>2015-06-11T15:35:17Z</time>
      </trkpt>
      <trkpt lat="45.18562" lon="5.569">
        <ele>1155</ele>
        <time>2015-06-11T15:35:18Z</time>
      </trkpt>
      <trkpt lat="45.18564" lon="5.56903">
        <ele>1155.4</ele>
        <time>2015-06-11T15:35:19Z</time>
      </trkpt>
      <trkpt lat="45.18567" lon="5.56905">
        <ele>1155.8</ele>
        <time>2015-06-11T15:35:20Z</time>
      </trkpt>
      <trkpt lat="45.18569" lon="5.56907">
        <ele>1156.1</ele>
        <time>2015-06-11T15:35:21Z</time>
      </trkpt>
      <trkpt lat="45.18571" lon="5.56909">
        <ele>1156.4</ele>
        <time>2015-06-11T15:35:22Z</time>
      </trkpt>
      <trkpt lat="45.18573" lon="5.56911">
        <ele>1156.6</ele>
        <time>2015-06-11T15:35:23Z</time>
      </trkpt>
      <trkpt lat="45.18575" lon="5.56912">
        <ele>1156.8</ele>
        <time>2015-06-11T15:35:24Z</time>
      </trkpt>
      <trkpt lat="45.18576" lon="5.56914">
        <ele>1156.9</ele>
        <time>2015-06-11T15:35:25Z</time>
      </trkpt>
      <trkpt lat="45.18578" lon="5.56915">
        <ele>1157</ele>
        <time>2015-06-11T15:35:26Z</time>
      </trkpt>
      <trkpt lat="45.1858" lon="5.56916">
        <ele>1157.1</ele>
        <time>2015-06-11T15:35:27Z</time>
      </trkpt>
      <trkpt lat="45.18581" lon="5.56917">
        <ele>1157.2</ele>
        <time>2015-06-11T15:35:28Z</time>
      </trkpt>
      <trkpt lat="45.18583" lon="5.56919">
        <ele>1157.3</ele>
        <time>2015-06-11T15:35:29Z</time>
      </trkpt>
      <trkpt lat="45.18585" lon="5.5692">
        <ele>1157.3</ele>
        <time>2015-06-11T15:35:30Z</time>
      </trkpt>
      <trkpt lat="45.18587" lon="5.56921">
        <ele>1157.3</ele>
        <time>2015-06-11T15:35:31Z</time>
      </trkpt>
      <trkpt lat="45.18589" lon="5.56921">
        <ele>1157.2</ele>
        <time>2015-06-11T15:35:32Z</time>
      </trkpt>
      <trkpt lat="45.1859" lon="5.56922">
        <ele>1157.1</ele>
        <time>2015-06-11T15:35:33Z</time>
      </trkpt>
      <trkpt lat="45.18592" lon="5.56922">
        <ele>1156.9</ele>
        <time>2015-06-11T15:35:34Z</time>
      </trkpt>
      <trkpt lat="45.18594" lon="5.56922">
        <ele>1156.7</ele>
        <time>2015-06-11T15:35:35Z</time>
      </trkpt>
      <trkpt lat="45.18596" lon="5.56922">
        <ele>1156.4</ele>
        <time>2015-06-11T15:35:36Z</time>
      </trkpt>
      <trkpt lat="45.18597" lon="5.56922">
        <ele>1156.1</ele>
        <time>2015-06-11T15:35:37Z</time>
      </trkpt>
      <trkpt lat="45.18599" lon="5.56922">
        <ele>1155.8</ele>
        <time>2015-06-11T15:35:38Z</time>
      </trkpt>
      <trkpt lat="45.18601" lon="5.56921">
        <ele>1155.4</ele>
        <time>2015-06-11T15:35:39Z</time>
      </trkpt>
      <trkpt lat="45.18603" lon="5.5692">
        <ele>1155</ele>
        <time>2015-06-11T15:35:40Z</time>
      </trkpt>
      <trkpt lat="45.18604" lon="5.5692">
        <ele>1154.6</ele>
        <time>2015-06-11T15:35:41Z</time>
      </trkpt>
      <trkpt lat="45.18606" lon="5.56919">
        <ele>1154.1</ele>
        <time>2015-06-11T15:35:42Z</time>
      </trkpt>
      <trkpt lat="45.18607" lon="5.56917">
        <ele>1153.6</ele>
        <time>2015-06-11T15:35:43Z</time>
      </trkpt>
      <trkpt lat="45.18607" lon="5.56915">
        <ele>1153.1</ele>
        <time>2015-06-11T15:35:44Z</time>
      </trkpt>
      <trkpt lat="45.18608" lon="5.56913">
        <ele>1152.4</ele>
        <time>2015-06-11T15:35:45Z</time>
      </trkpt>
      <trkpt lat="45.18609" lon="5.56911">
        <ele>1151.8</ele>
        <time>2015-06-11T15:35:46Z</time>
      </trkpt>
      <trkpt lat="45.18609" lon="5.56909">
        <ele>1151.2</ele>
        <time>2015-06-11T15:35:47Z</time>
      </trkpt>
      <trkpt lat="45.18609" lon="5.56907">
        <ele>1150.8</ele>
        <time>2015-06-11T15:35:48Z</time>
      </trkpt>
      <trkpt lat="45.1861" lon="5.56906">
        <ele>1150.3</ele>
        <time>2015-06-11T15:35:49Z</time>
      </trkpt>
      <trkpt lat="45.1861" lon="5.56904">
        <ele>1149.9</ele>
        <time>2015-06-11T15:35:50Z</time>
      </trkpt>
      <trkpt lat="45.1861" lon="5.56902">
        <ele>1149.4</ele>
        <time>2015-06-11T15:35:51Z</time>
      </trkpt>
      <trkpt lat="45.18609" lon="5.569">
        <ele>1149</ele>
        <time>2015-06-11T15:35:52Z</time>
      </trkpt>
      <trkpt lat="45.18609" lon="5.56898">
        <ele>1148.5</ele>
        <time>2015-06-11T15:35:53Z</time>
      </trkpt>
      <trkpt lat="45.18607" lon="5.56895">
        <ele>1148.1</ele>
        <time>2015-06-11T15:35:54Z</time>
      </trkpt>
      <trkpt lat="45.18606" lon="5.56893">
        <ele>1147.6</ele>
        <time>2015-06-11T15:35:55Z</time>
      </trkpt>
      <trkpt lat="45.18605" lon="5.5689">
        <ele>1147</ele>
        <time>2015-06-11T15:35:56Z</time>
      </trkpt>
      <trkpt lat="45.18604" lon="5.56887">
        <ele>1146.3</ele>
        <time>2015-06-11T15:35:57Z</time>
      </trkpt>
      <trkpt lat="45.18604" lon="5.56884">
        <ele>1145.6</ele>
        <time>2015-06-11T15:35:58Z</time>
      </trkpt>
      <trkpt lat="45.18604" lon="5.56881">
        <ele>1144.8</ele>
        <time>2015-06-11T15:35:59Z</time>
      </trkpt>
      <trkpt lat="45.18604" lon="5.56878">
        <ele>1144</ele>
        <time>2015-06-11T15:36:00Z</time>
      </trkpt>
      <trkpt lat="45.18604" lon="5.56875">
        <ele>1143.1</ele>
        <time>2015-06-11T15:36:01Z</time>
      </trkpt>
      <trkpt lat="45.18605" lon="5.56871">
        <ele>1142.1</ele>
        <time>2015-06-11T15:36:02Z</time>
      </trkpt>
      <trkpt lat="45.18605" lon="5.56867">
        <ele>1141.1</ele>
        <time>2015-06-11T15:36:03Z</time>
      </trkpt>
      <trkpt lat="45.18605" lon="5.56864">
        <ele>1140.1</ele>
        <time>2015-06-11T15:36:04Z</time>
      </trkpt>
      <trkpt lat="45.18605" lon="5.5686">
        <ele>1139.1</ele>
        <time>2015-06-11T15:36:05Z</time>
      </trkpt>
      <trkpt lat="45.18605" lon="5.56857">
        <ele>1138.4</ele>
        <time>2015-06-11T15:36:06Z</time>
      </trkpt>
      <trkpt lat="45.18604" lon="5.56854">
        <ele>1137.7</ele>
        <time>2015-06-11T15:36:07Z</time>
      </trkpt>
      <trkpt lat="45.18603" lon="5.56852">
        <ele>1137.3</ele>
        <time>2015-06-11T15:36:08Z</time>
      </trkpt>
      <trkpt lat="45.18602" lon="5.5685">
        <ele>1136.9</ele>
        <time>2015-06-11T15:36:09Z</time>
      </trkpt>
      <trkpt lat="45.186" lon="5.56848">
        <ele>1136.6</ele>
        <time>2015-06-11T15:36:10Z</time>
      </trkpt>
      <trkpt lat="45.18598" lon="5.56846">
        <ele>1136.2</ele>
        <time>2015-06-11T15:36:11Z</time>
      </trkpt>
      <trkpt lat="45.18597" lon="5.56844">
        <ele>1135.8</ele>
        <time>2015-06-11T15:36:12Z</time>
      </trkpt>
      <trkpt lat="45.18596" lon="5.56842">
        <ele>1135.4</ele>
        <time>2015-06-11T15:36:13Z</time>
      </trkpt>
      <trkpt lat="45.18594" lon="5.5684">
        <ele>1134.9</ele>
        <time>2015-06-11T15:36:14Z</time>
      </trkpt>
      <trkpt lat="45.18593" lon="5.56837">
        <ele>1134.3</ele>
        <time>2015-06-11T15:36:15Z</time>
      </trkpt>
      <trkpt lat="45.18592" lon="5.56835">
        <ele>1133.8</ele>
        <time>2015-06-11T15:36:16Z</time>
      </trkpt>
      <trkpt lat="45.18591" lon="5.56832">
        <ele>1133.2</ele>
        <time>2015-06-11T15:36:17Z</time>
      </trkpt>
      <trkpt lat="45.1859" lon="5.5683">
        <ele>1132.6</ele>
        <time>2015-06-11T15:36:18Z</time>
      </trkpt>
      <trkpt lat="45.18589" lon="5.56827">
        <ele>1132</ele>
        <time>2015-06-11T15:36:19Z</time>
      </trkpt>
      <trkpt lat="45.18587" lon="5.56824">
        <ele>1131.4</ele>
        <time>2015-06-11T15:36:20Z</time>
      </trkpt>
      <trkpt lat="45.18586" lon="5.56821">
        <ele>1130.7</ele>
        <time>2015-06-11T15:36:21Z</time>
      </trkpt>
      <trkpt lat="45.18585" lon="5.56818">
        <ele>1130.1</ele>
        <time>2015-06-11T15:36:22Z</time>
      </trkpt>
      <trkpt lat="45.18583" lon="5.56816">
        <ele>1129.4</ele>
        <time>2015-06-11T15:36:23Z</time>
      </trkpt>
      <trkpt lat="45.18582" lon="5.56813">
        <ele>1128.8</ele>
        <time>2015-06-11T15:36:24Z</time>
      </trkpt>
      <trkpt lat="45.1858" lon="5.5681">
        <ele>1128.2</ele>
        <time>2015-06-11T15:36:25Z</time>
      </trkpt>
      <trkpt lat="45.18578" lon="5.56807">
        <ele>1127.6</ele>
        <time>2015-06-11T15:36:26Z</time>
      </trkpt>
      <trkpt lat="45.18577" lon="5.56804">
        <ele>1127</ele>
        <time>2015-06-11T15:36:27Z</time>
      </trkpt>
      <trkpt lat="45.18576" lon="5.56801">
        <ele>1126.3</ele>
        <time>2015-06-11T15:36:28Z</time>
      </trkpt>
      <trkpt lat="45.18574" lon="5.56799">
        <ele>1125.8</ele>
        <time>2015-06-11T15:36:29Z</time>
      </trkpt>
      <trkpt lat="45.18573" lon="5.56796">
        <ele>1125.1</ele>
        <time>2015-06-11T15:36:30Z</time>
      </trkpt>
      <trkpt lat="45.18572" lon="5.56793">
        <ele>1124.4</ele>
        <time>2015-06-11T15:36:31Z</time>
      </trkpt>
      <trkpt lat="45.1857" lon="5.5679">
        <ele>1123.9</ele>
        <time>2015-06-11T15:36:32Z</time>
      </trkpt>
      <trkpt lat="45.1857" lon="5.56787">
        <ele>1123.3</ele>
        <time>2015-06-11T15:36:33Z</time>
      </trkpt>
      <trkpt lat="45.18569" lon="5.56784">
        <ele>1122.8</ele>
        <time>2015-06-11T15:36:34Z</time>
      </trkpt>
      <trkpt lat="45.18568" lon="5.56781">
        <ele>1122.3</ele>
        <time>2015-06-11T15:36:35Z</time>
      </trkpt>
      <trkpt lat="45.18568" lon="5.56778">
        <ele>1121.8</ele>
        <time>2015-06-11T15:36:36Z</time>
      </trkpt>
      <trkpt lat="45.18568" lon="5.56776">
        <ele>1121.2</ele>
        <time>2015-06-11T15:36:37Z</time>
      </trkpt>
      <trkpt lat="45.18569" lon="5.56773">
        <ele>1120.6</ele>
        <time>2015-06-11T15:36:38Z</time>
      </trkpt>
      <trkpt lat="45.1857" lon="5.5677">
        <ele>1120</ele>
        <time>2015-06-11T15:36:39Z</time>
      </trkpt>
      <trkpt lat="45.1857" lon="5.56767">
        <ele>1119.4</ele>
        <time>2015-06-11T15:36:40Z</time>
      </trkpt>
      <trkpt lat="45.1857" lon="5.56763">
        <ele>1118.6</ele>
        <time>2015-06-11T15:36:41Z</time>
      </trkpt>
      <trkpt lat="45.18569" lon="5.56759">
        <ele>1117.8</ele>
        <time>2015-06-11T15:36:42Z</time>
      </trkpt>
      <trkpt lat="45.18569" lon="5.56755">
        <ele>1117</ele>
        <time>2015-06-11T15:36:43Z</time>
      </trkpt>
      <trkpt lat="45.18569" lon="5.56751">
        <ele>1116.2</ele>
        <time>2015-06-11T15:36:44Z</time>
      </trkpt>
      <trkpt lat="45.1857" lon="5.56747">
        <ele>1115.3</ele>
        <time>2015-06-11T15:36:45Z</time>
      </trkpt>
      <trkpt lat="45.1857" lon="5.56743">
        <ele>1114.6</ele>
        <time>2015-06-11T15:36:46Z</time>
      </trkpt>
      <trkpt lat="45.1857" lon="5.56739">
        <ele>1113.8</ele>
        <time>2015-06-11T15:36:47Z</time>
      </trkpt>
      <trkpt lat="45.18571" lon="5.56735">
        <ele>1113</ele>
        <time>2015-06-11T15:36:48Z</time>
      </trkpt>
      <trkpt lat="45.18572" lon="5.56732">
        <ele>1112.2</ele>
        <time>2015-06-11T15:36:49Z</time>
      </trkpt>
      <trkpt lat="45.18573" lon="5.56728">
        <ele>1111.5</ele>
        <time>2015-06-11T15:36:50Z</time>
      </trkpt>
      <trkpt lat="45.18574" lon="5.56725">
        <ele>1110.7</ele>
        <time>2015-06-11T15:36:51Z</time>
      </trkpt>
      <trkpt lat="45.18575" lon="5.56721">
        <ele>1110</ele>
        <time>2015-06-11T15:36:52Z</time>
      </trkpt>
      <trkpt lat="45.18575" lon="5.56718">
        <ele>1109.3</ele>
        <time>2015-06-11T15:36:53Z</time>
      </trkpt>
      <trkpt lat="45.18576" lon="5.56715">
        <ele>1108.6</ele>
        <time>2015-06-11T15:36:54Z</time>
      </trkpt>
      <trkpt lat="45.18577" lon="5.56712">
        <ele>1108</ele>
        <time>2015-06-11T15:36:55Z</time>
      </trkpt>
      <trkpt lat="45.18578" lon="5.56709">
        <ele>1107.3</ele>
        <time>2015-06-11T15:36:56Z</time>
      </trkpt>
      <trkpt lat="45.18579" lon="5.56706">
        <ele>1106.8</ele>
        <time>2015-06-11T15:36:57Z</time>
      </trkpt>
      <trkpt lat="45.1858" lon="5.56703">
        <ele>1106.4</ele>
        <time>2015-06-11T15:36:58Z</time>
      </trkpt>
      <trkpt lat="45.18581" lon="5.567">
        <ele>1105.9</ele>
        <time>2015-06-11T15:36:59Z</time>
      </trkpt>
      <trkpt lat="45.18582" lon="5.56696">
        <ele>1105.4</ele>
        <time>2015-06-11T15:37:00Z</time>
      </trkpt>
      <trkpt lat="45.18582" lon="5.56693">
        <ele>1105</ele>
        <time>2015-06-11T15:37:01Z</time>
      </trkpt>
      <trkpt lat="45.18583" lon="5.5669">
        <ele>1104.5</ele>
        <time>2015-06-11T15:37:02Z</time>
      </trkpt>
      <trkpt lat="45.18584" lon="5.56687">
        <ele>1104</ele>
        <time>2015-06-11T15:37:03Z</time>
      </trkpt>
      <trkpt lat="45.18584" lon="5.56683">
        <ele>1103.5</ele>
        <time>2015-06-11T15:37:04Z</time>
      </trkpt>
      <trkpt lat="45.18585" lon="5.5668">
        <ele>1103</ele>
        <time>2015-06-11T15:37:05Z</time>
      </trkpt>
      <trkpt lat="45.18586" lon="5.56677">
        <ele>1102.5</ele>
        <time>2015-06-11T15:37:06Z</time>
      </trkpt>
      <trkpt lat="45.18586" lon="5.56673">
        <ele>1102.1</ele>
        <time>2015-06-11T15:37:07Z</time>
      </trkpt>
      <trkpt lat="45.18587" lon="5.5667">
        <ele>1101.6</ele>
        <time>2015-06-11T15:37:08Z</time>
      </trkpt>
      <trkpt lat="45.18588" lon="5.56666">
        <ele>1101.1</ele>
        <time>2015-06-11T15:37:09Z</time>
      </trkpt>
      <trkpt lat="45.18589" lon="5.56663">
        <ele>1100.6</ele>
        <time>2015-06-11T15:37:10Z</time>
      </trkpt>
      <trkpt lat="45.18589" lon="5.5666">
        <ele>1100.2</ele>
        <time>2015-06-11T15:37:11Z</time>
      </trkpt>
      <trkpt lat="45.1859" lon="5.56657">
        <ele>1099.7</ele>
        <time>2015-06-11T15:37:12Z</time>
      </trkpt>
      <trkpt lat="45.18591" lon="5.56653">
        <ele>1099.2</ele>
        <time>2015-06-11T15:37:13Z</time>
      </trkpt>
      <trkpt lat="45.18592" lon="5.5665">
        <ele>1098.8</ele>
        <time>2015-06-11T15:37:14Z</time>
      </trkpt>
      <trkpt lat="45.18593" lon="5.56647">
        <ele>1098.3</ele>
        <time>2015-06-11T15:37:15Z</time>
      </trkpt>
      <trkpt lat="45.18594" lon="5.56643">
        <ele>1097.8</ele>
        <time>2015-06-11T15:37:16Z</time>
      </trkpt>
      <trkpt lat="45.18594" lon="5.5664">
        <ele>1097.4</ele>
        <time>2015-06-11T15:37:17Z</time>
      </trkpt>
      <trkpt lat="45.18595" lon="5.56637">
        <ele>1096.9</ele>
        <time>2015-06-11T15:37:18Z</time>
      </trkpt>
      <trkpt lat="45.18596" lon="5.56633">
        <ele>1096.4</ele>
        <time>2015-06-11T15:37:19Z</time>
      </trkpt>
      <trkpt lat="45.18597" lon="5.5663">
        <ele>1096</ele>
        <time>2015-06-11T15:37:20Z</time>
      </trkpt>
      <trkpt lat="45.18597" lon="5.56627">
        <ele>1095.5</ele>
        <time>2015-06-11T15:37:21Z</time>
      </trkpt>
      <trkpt lat="45.18598" lon="5.56623">
        <ele>1095.2</ele>
        <time>2015-06-11T15:37:22Z</time>
      </trkpt>
      <trkpt lat="45.18599" lon="5.5662">
        <ele>1095.1</ele>
        <time>2015-06-11T15:37:23Z</time>
      </trkpt>
      <trkpt lat="45.186" lon="5.56617">
        <ele>1094.9</ele>
        <time>2015-06-11T15:37:24Z</time>
      </trkpt>
      <trkpt lat="45.18601" lon="5.56613">
        <ele>1094.8</ele>
        <time>2015-06-11T15:37:25Z</time>
      </trkpt>
      <trkpt lat="45.18602" lon="5.5661">
        <ele>1094.6</ele>
        <time>2015-06-11T15:37:26Z</time>
      </trkpt>
      <trkpt lat="45.18602" lon="5.56607">
        <ele>1094.5</ele>
        <time>2015-06-11T15:37:27Z</time>
      </trkpt>
      <trkpt lat="45.18604" lon="5.56604">
        <ele>1094.3</ele>
        <time>2015-06-11T15:37:28Z</time>
      </trkpt>
      <trkpt lat="45.18604" lon="5.566">
        <ele>1094.2</ele>
        <time>2015-06-11T15:37:29Z</time>
      </trkpt>
      <trkpt lat="45.18605" lon="5.56597">
        <ele>1094.1</ele>
        <time>2015-06-11T15:37:30Z</time>
      </trkpt>
      <trkpt lat="45.18606" lon="5.56594">
        <ele>1094</ele>
        <time>2015-06-11T15:37:31Z</time>
      </trkpt>
      <trkpt lat="45.18607" lon="5.56591">
        <ele>1093.8</ele>
        <time>2015-06-11T15:37:32Z</time>
      </trkpt>
      <trkpt lat="45.18607" lon="5.56587">
        <ele>1093.7</ele>
        <time>2015-06-11T15:37:33Z</time>
      </trkpt>
      <trkpt lat="45.18609" lon="5.56584">
        <ele>1093.6</ele>
        <time>2015-06-11T15:37:34Z</time>
      </trkpt>
      <trkpt lat="45.18609" lon="5.56581">
        <ele>1093.5</ele>
        <time>2015-06-11T15:37:35Z</time>
      </trkpt>
      <trkpt lat="45.1861" lon="5.56578">
        <ele>1093.4</ele>
        <time>2015-06-11T15:37:36Z</time>
      </trkpt>
      <trkpt lat="45.18611" lon="5.56575">
        <ele>1093.3</ele>
        <time>2015-06-11T15:37:37Z</time>
      </trkpt>
      <trkpt lat="45.18611" lon="5.56571">
        <ele>1093.2</ele>
        <time>2015-06-11T15:37:38Z</time>
      </trkpt>
      <trkpt lat="45.18612" lon="5.56568">
        <ele>1093.1</ele>
        <time>2015-06-11T15:37:39Z</time>
      </trkpt>
      <trkpt lat="45.18613" lon="5.56565">
        <ele>1093.1</ele>
        <time>2015-06-11T15:37:40Z</time>
      </trkpt>
      <trkpt lat="45.18613" lon="5.56561">
        <ele>1093</ele>
        <time>2015-06-11T15:37:41Z</time>
      </trkpt>
      <trkpt lat="45.18614" lon="5.56558">
        <ele>1092.9</ele>
        <time>2015-06-11T15:37:42Z</time>
      </trkpt>
      <trkpt lat="45.18615" lon="5.56555">
        <ele>1092.8</ele>
        <time>2015-06-11T15:37:43Z</time>
      </trkpt>
      <trkpt lat="45.18616" lon="5.56551">
        <ele>1092.8</ele>
        <time>2015-06-11T15:37:44Z</time>
      </trkpt>
      <trkpt lat="45.18617" lon="5.56548">
        <ele>1092.7</ele>
        <time>2015-06-11T15:37:45Z</time>
      </trkpt>
      <trkpt lat="45.18617" lon="5.56545">
        <ele>1092.6</ele>
        <time>2015-06-11T15:37:46Z</time>
      </trkpt>
      <trkpt lat="45.18618" lon="5.56541">
        <ele>1092.6</ele>
        <time>2015-06-11T15:37:47Z</time>
      </trkpt>
      <trkpt lat="45.18619" lon="5.56538">
        <ele>1092.5</ele>
        <time>2015-06-11T15:37:48Z</time>
      </trkpt>
      <trkpt lat="45.1862" lon="5.56535">
        <ele>1092.4</ele>
        <time>2015-06-11T15:37:49Z</time>
      </trkpt>
      <trkpt lat="45.18621" lon="5.56531">
        <ele>1092.3</ele>
        <time>2015-06-11T15:37:50Z</time>
      </trkpt>
      <trkpt lat="45.18622" lon="5.56528">
        <ele>1092.3</ele>
        <time>2015-06-11T15:37:51Z</time>
      </trkpt>
      <trkpt lat="45.18623" lon="5.56524">
        <ele>1092.2</ele>
        <time>2015-06-11T15:37:52Z</time>
      </trkpt>
      <trkpt lat="45.18624" lon="5.56521">
        <ele>1092.2</ele>
        <time>2015-06-11T15:37:53Z</time>
      </trkpt>
      <trkpt lat="45.18625" lon="5.56517">
        <ele>1092.1</ele>
        <time>2015-06-11T15:37:54Z</time>
      </trkpt>
      <trkpt lat="45.18626" lon="5.56514">
        <ele>1092</ele>
        <time>2015-06-11T15:37:55Z</time>
      </trkpt>
      <trkpt lat="45.18627" lon="5.56511">
        <ele>1091.8</ele>
        <time>2015-06-11T15:37:56Z</time>
      </trkpt>
      <trkpt lat="45.18628" lon="5.56507">
        <ele>1091.7</ele>
        <time>2015-06-11T15:37:57Z</time>
      </trkpt>
      <trkpt lat="45.1863" lon="5.56504">
        <ele>1091.5</ele>
        <time>2015-06-11T15:37:58Z</time>
      </trkpt>
      <trkpt lat="45.18631" lon="5.565">
        <ele>1091.3</ele>
        <time>2015-06-11T15:37:59Z</time>
      </trkpt>
      <trkpt lat="45.18632" lon="5.56497">
        <ele>1091.2</ele>
        <time>2015-06-11T15:38:00Z</time>
      </trkpt>
      <trkpt lat="45.18633" lon="5.56494">
        <ele>1091.1</ele>
        <time>2015-06-11T15:38:01Z</time>
      </trkpt>
      <trkpt lat="45.18633" lon="5.56491">
        <ele>1090.9</ele>
        <time>2015-06-11T15:38:02Z</time>
      </trkpt>
      <trkpt lat="45.18634" lon="5.56488">
        <ele>1090.8</ele>
        <time>2015-06-11T15:38:03Z</time>
      </trkpt>
      <trkpt lat="45.18635" lon="5.56484">
        <ele>1090.7</ele>
        <time>2015-06-11T15:38:04Z</time>
      </trkpt>
      <trkpt lat="45.18636" lon="5.56481">
        <ele>1090.5</ele>
        <time>2015-06-11T15:38:05Z</time>
      </trkpt>
      <trkpt lat="45.18638" lon="5.56477">
        <ele>1090.4</ele>
        <time>2015-06-11T15:38:06Z</time>
      </trkpt>
      <trkpt lat="45.18639" lon="5.56474">
        <ele>1090.2</ele>
        <time>2015-06-11T15:38:07Z</time>
      </trkpt>
      <trkpt lat="45.18639" lon="5.56471">
        <ele>1090.1</ele>
        <time>2015-06-11T15:38:08Z</time>
      </trkpt>
      <trkpt lat="45.18641" lon="5.56468">
        <ele>1090</ele>
        <time>2015-06-11T15:38:09Z</time>
      </trkpt>
      <trkpt lat="45.18641" lon="5.56465">
        <ele>1089.8</ele>
        <time>2015-06-11T15:38:10Z</time>
      </trkpt>
      <trkpt lat="45.18642" lon="5.56462">
        <ele>1089.7</ele>
        <time>2015-06-11T15:38:11Z</time>
      </trkpt>
      <trkpt lat="45.18642" lon="5.56458">
        <ele>1089.5</ele>
        <time>2015-06-11T15:38:12Z</time>
      </trkpt>
      <trkpt lat="45.18643" lon="5.56454">
        <ele>1089</ele>
        <time>2015-06-11T15:38:13Z</time>
      </trkpt>
      <trkpt lat="45.18644" lon="5.5645">
        <ele>1088.5</ele>
        <time>2015-06-11T15:38:14Z</time>
      </trkpt>
      <trkpt lat="45.18645" lon="5.56446">
        <ele>1088</ele>
        <time>2015-06-11T15:38:15Z</time>
      </trkpt>
      <trkpt lat="45.18646" lon="5.56442">
        <ele>1087.5</ele>
        <time>2015-06-11T15:38:16Z</time>
      </trkpt>
      <trkpt lat="45.18647" lon="5.56438">
        <ele>1087.1</ele>
        <time>2015-06-11T15:38:17Z</time>
      </trkpt>
      <trkpt lat="45.18647" lon="5.56434">
        <ele>1086.7</ele>
        <time>2015-06-11T15:38:18Z</time>
      </trkpt>
      <trkpt lat="45.18649" lon="5.56431">
        <ele>1086.2</ele>
        <time>2015-06-11T15:38:19Z</time>
      </trkpt>
      <trkpt lat="45.18649" lon="5.56427">
        <ele>1085.8</ele>
        <time>2015-06-11T15:38:20Z</time>
      </trkpt>
      <trkpt lat="45.1865" lon="5.56423">
        <ele>1085.4</ele>
        <time>2015-06-11T15:38:21Z</time>
      </trkpt>
      <trkpt lat="45.1865" lon="5.56419">
        <ele>1084.9</ele>
        <time>2015-06-11T15:38:22Z</time>
      </trkpt>
      <trkpt lat="45.1865" lon="5.56415">
        <ele>1084.5</ele>
        <time>2015-06-11T15:38:23Z</time>
      </trkpt>
      <trkpt lat="45.1865" lon="5.56411">
        <ele>1084</ele>
        <time>2015-06-11T15:38:24Z</time>
      </trkpt>
      <trkpt lat="45.18649" lon="5.56408">
        <ele>1083.6</ele>
        <time>2015-06-11T15:38:25Z</time>
      </trkpt>
      <trkpt lat="45.18649" lon="5.56404">
        <ele>1083.2</ele>
        <time>2015-06-11T15:38:26Z</time>
      </trkpt>
      <trkpt lat="45.18649" lon="5.564">
        <ele>1082.8</ele>
        <time>2015-06-11T15:38:27Z</time>
      </trkpt>
      <trkpt lat="45.18649" lon="5.56397">
        <ele>1082.4</ele>
        <time>2015-06-11T15:38:28Z</time>
      </trkpt>
      <trkpt lat="45.18649" lon="5.56394">
        <ele>1082</ele>
        <time>2015-06-11T15:38:29Z</time>
      </trkpt>
      <trkpt lat="45.18649" lon="5.5639">
        <ele>1081.6</ele>
        <time>2015-06-11T15:38:30Z</time>
      </trkpt>
      <trkpt lat="45.18648" lon="5.56387">
        <ele>1081.2</ele>
        <time>2015-06-11T15:38:31Z</time>
      </trkpt>
      <trkpt lat="45.18647" lon="5.56384">
        <ele>1080.8</ele>
        <time>2015-06-11T15:38:32Z</time>
      </trkpt>
      <trkpt lat="45.18646" lon="5.56381">
        <ele>1080.4</ele>
        <time>2015-06-11T15:38:33Z</time>
      </trkpt>
      <trkpt lat="45.18645" lon="5.56378">
        <ele>1080</ele>
        <time>2015-06-11T15:38:34Z</time>
      </trkpt>
      <trkpt lat="45.18644" lon="5.56375">
        <ele>1079.7</ele>
        <time>2015-06-11T15:38:35Z</time>
      </trkpt>
      <trkpt lat="45.18642" lon="5.56372">
        <ele>1079.8</ele>
        <time>2015-06-11T15:38:36Z</time>
      </trkpt>
      <trkpt lat="45.1864" lon="5.56369">
        <ele>1079.8</ele>
        <time>2015-06-11T15:38:37Z</time>
      </trkpt>
      <trkpt lat="45.18639" lon="5.56366">
        <ele>1079.9</ele>
        <time>2015-06-11T15:38:38Z</time>
      </trkpt>
      <trkpt lat="45.18637" lon="5.56363">
        <ele>1080</ele>
        <time>2015-06-11T15:38:39Z</time>
      </trkpt>
      <trkpt lat="45.18635" lon="5.5636">
        <ele>1080.1</ele>
        <time>2015-06-11T15:38:40Z</time>
      </trkpt>
      <trkpt lat="45.18633" lon="5.56358">
        <ele>1080.2</ele>
        <time>2015-06-11T15:38:41Z</time>
      </trkpt>
      <trkpt lat="45.18631" lon="5.56355">
        <ele>1080.3</ele>
        <time>2015-06-11T15:38:42Z</time>
      </trkpt>
      <trkpt lat="45.18629" lon="5.56353">
        <ele>1080.4</ele>
        <time>2015-06-11T15:38:43Z</time>
      </trkpt>
      <trkpt lat="45.18627" lon="5.5635">
        <ele>1080.5</ele>
        <time>2015-06-11T15:38:44Z</time>
      </trkpt>
      <trkpt lat="45.18625" lon="5.56348">
        <ele>1080.6</ele>
        <time>2015-06-11T15:38:45Z</time>
      </trkpt>
      <trkpt lat="45.18623" lon="5.56346">
        <ele>1080.5</ele>
        <time>2015-06-11T15:38:46Z</time>
      </trkpt>
      <trkpt lat="45.1862" lon="5.56344">
        <ele>1080.4</ele>
        <time>2015-06-11T15:38:47Z</time>
      </trkpt>
      <trkpt lat="45.18618" lon="5.56342">
        <ele>1080.4</ele>
        <time>2015-06-11T15:38:48Z</time>
      </trkpt>
      <trkpt lat="45.18616" lon="5.5634">
        <ele>1080.3</ele>
        <time>2015-06-11T15:38:49Z</time>
      </trkpt>
      <trkpt lat="45.18614" lon="5.56338">
        <ele>1080.2</ele>
        <time>2015-06-11T15:38:50Z</time>
      </trkpt>
      <trkpt lat="45.18612" lon="5.56337">
        <ele>1080.2</ele>
        <time>2015-06-11T15:38:51Z</time>
      </trkpt>
      <trkpt lat="45.1861" lon="5.56335">
        <ele>1080.1</ele>
        <time>2015-06-11T15:38:52Z</time>
      </trkpt>
      <trkpt lat="45.18607" lon="5.56333">
        <ele>1080.1</ele>
        <time>2015-06-11T15:38:53Z</time>
      </trkpt>
      <trkpt lat="45.18605" lon="5.56331">
        <ele>1080</ele>
        <time>2015-06-11T15:38:54Z</time>
      </trkpt>
      <trkpt lat="45.18604" lon="5.56329">
        <ele>1080.1</ele>
        <time>2015-06-11T15:38:55Z</time>
      </trkpt>
      <trkpt lat="45.18602" lon="5.56326">
        <ele>1080.1</ele>
        <time>2015-06-11T15:38:56Z</time>
      </trkpt>
      <trkpt lat="45.18601" lon="5.56324">
        <ele>1080.2</ele>
        <time>2015-06-11T15:38:57Z</time>
      </trkpt>
      <trkpt lat="45.18601" lon="5.56322">
        <ele>1080.3</ele>
        <time>2015-06-11T15:38:58Z</time>
      </trkpt>
      <trkpt lat="45.18599" lon="5.56319">
        <ele>1080.4</ele>
        <time>2015-06-11T15:38:59Z</time>
      </trkpt>
      <trkpt lat="45.18599" lon="5.56316">
        <ele>1080.6</ele>
        <time>2015-06-11T15:39:00Z</time>
      </trkpt>
      <trkpt lat="45.18598" lon="5.56313">
        <ele>1080.7</ele>
        <time>2015-06-11T15:39:01Z</time>
      </trkpt>
      <trkpt lat="45.18598" lon="5.5631">
        <ele>1081</ele>
        <time>2015-06-11T15:39:02Z</time>
      </trkpt>
      <trkpt lat="45.18597" lon="5.56307">
        <ele>1081.1</ele>
        <time>2015-06-11T15:39:03Z</time>
      </trkpt>
      <trkpt lat="45.18596" lon="5.56304">
        <ele>1081.3</ele>
        <time>2015-06-11T15:39:04Z</time>
      </trkpt>
      <trkpt lat="45.18596" lon="5.563">
        <ele>1081.6</ele>
        <time>2015-06-11T15:39:05Z</time>
      </trkpt>
      <trkpt lat="45.18595" lon="5.56297">
        <ele>1081.8</ele>
        <time>2015-06-11T15:39:06Z</time>
      </trkpt>
      <trkpt lat="45.18594" lon="5.56294">
        <ele>1082</ele>
        <time>2015-06-11T15:39:07Z</time>
      </trkpt>
      <trkpt lat="45.18594" lon="5.56291">
        <ele>1082.1</ele>
        <time>2015-06-11T15:39:08Z</time>
      </trkpt>
      <trkpt lat="45.18593" lon="5.56288">
        <ele>1082.1</ele>
        <time>2015-06-11T15:39:09Z</time>
      </trkpt>
      <trkpt lat="45.18593" lon="5.56285">
        <ele>1082</ele>
        <time>2015-06-11T15:39:10Z</time>
      </trkpt>
      <trkpt lat="45.18592" lon="5.56282">
        <ele>1082</ele>
        <time>2015-06-11T15:39:11Z</time>
      </trkpt>
      <trkpt lat="45.18591" lon="5.56279">
        <ele>1082</ele>
        <time>2015-06-11T15:39:12Z</time>
      </trkpt>
      <trkpt lat="45.18591" lon="5.56276">
        <ele>1082</ele>
        <time>2015-06-11T15:39:13Z</time>
      </trkpt>
      <trkpt lat="45.18591" lon="5.56273">
        <ele>1081.9</ele>
        <time>2015-06-11T15:39:14Z</time>
      </trkpt>
      <trkpt lat="45.1859" lon="5.5627">
        <ele>1081.9</ele>
        <time>2015-06-11T15:39:15Z</time>
      </trkpt>
      <trkpt lat="45.1859" lon="5.56267">
        <ele>1081.9</ele>
        <time>2015-06-11T15:39:16Z</time>
      </trkpt>
      <trkpt lat="45.1859" lon="5.56265">
        <ele>1081.9</ele>
        <time>2015-06-11T15:39:17Z</time>
      </trkpt>
      <trkpt lat="45.18591" lon="5.56262">
        <ele>1081.9</ele>
        <time>2015-06-11T15:39:18Z</time>
      </trkpt>
      <trkpt lat="45.18591" lon="5.56259">
        <ele>1081.9</ele>
        <time>2015-06-11T15:39:19Z</time>
      </trkpt>
      <trkpt lat="45.18591" lon="5.56257">
        <ele>1082</ele>
        <time>2015-06-11T15:39:20Z</time>
      </trkpt>
      <trkpt lat="45.18592" lon="5.56254">
        <ele>1082</ele>
        <time>2015-06-11T15:39:21Z</time>
      </trkpt>
      <trkpt lat="45.18593" lon="5.56252">
        <ele>1082</ele>
        <time>2015-06-11T15:39:22Z</time>
      </trkpt>
      <trkpt lat="45.18593" lon="5.56249">
        <ele>1082.1</ele>
        <time>2015-06-11T15:39:23Z</time>
      </trkpt>
      <trkpt lat="45.18594" lon="5.56247">
        <ele>1082.2</ele>
        <time>2015-06-11T15:39:24Z</time>
      </trkpt>
      <trkpt lat="45.18595" lon="5.56245">
        <ele>1082.2</ele>
        <time>2015-06-11T15:39:25Z</time>
      </trkpt>
      <trkpt lat="45.18596" lon="5.56242">
        <ele>1082.3</ele>
        <time>2015-06-11T15:39:26Z</time>
      </trkpt>
      <trkpt lat="45.18597" lon="5.5624">
        <ele>1082.3</ele>
        <time>2015-06-11T15:39:27Z</time>
      </trkpt>
      <trkpt lat="45.18599" lon="5.56238">
        <ele>1082.4</ele>
        <time>2015-06-11T15:39:28Z</time>
      </trkpt>
      <trkpt lat="45.18601" lon="5.56236">
        <ele>1082.5</ele>
        <time>2015-06-11T15:39:29Z</time>
      </trkpt>
      <trkpt lat="45.18602" lon="5.56234">
        <ele>1082.6</ele>
        <time>2015-06-11T15:39:30Z</time>
      </trkpt>
      <trkpt lat="45.18604" lon="5.56232">
        <ele>1082.7</ele>
        <time>2015-06-11T15:39:31Z</time>
      </trkpt>
      <trkpt lat="45.18605" lon="5.56229">
        <ele>1082.8</ele>
        <time>2015-06-11T15:39:32Z</time>
      </trkpt>
      <trkpt lat="45.18607" lon="5.56227">
        <ele>1082.9</ele>
        <time>2015-06-11T15:39:33Z</time>
      </trkpt>
      <trkpt lat="45.18609" lon="5.56224">
        <ele>1083</ele>
        <time>2015-06-11T15:39:34Z</time>
      </trkpt>
      <trkpt lat="45.1861" lon="5.56222">
        <ele>1083.1</ele>
        <time>2015-06-11T15:39:35Z</time>
      </trkpt>
      <trkpt lat="45.18612" lon="5.56219">
        <ele>1083.2</ele>
        <time>2015-06-11T15:39:36Z</time>
      </trkpt>
      <trkpt lat="45.18613" lon="5.56216">
        <ele>1083.3</ele>
        <time>2015-06-11T15:39:37Z</time>
      </trkpt>
      <trkpt lat="45.18615" lon="5.56214">
        <ele>1083.4</ele>
        <time>2015-06-11T15:39:38Z</time>
      </trkpt>
      <trkpt lat="45.18615" lon="5.56211">
        <ele>1083.4</ele>
        <time>2015-06-11T15:39:39Z</time>
      </trkpt>
      <trkpt lat="45.18617" lon="5.56208">
        <ele>1083.5</ele>
        <time>2015-06-11T15:39:40Z</time>
      </trkpt>
      <trkpt lat="45.18617" lon="5.56204">
        <ele>1083.5</ele>
        <time>2015-06-11T15:39:41Z</time>
      </trkpt>
      <trkpt lat="45.18618" lon="5.56201">
        <ele>1083.6</ele>
        <time>2015-06-11T15:39:42Z</time>
      </trkpt>
      <trkpt lat="45.1862" lon="5.56199">
        <ele>1083.7</ele>
        <time>2015-06-11T15:39:43Z</time>
      </trkpt>
      <trkpt lat="45.18621" lon="5.56198">
        <ele>1083.7</ele>
        <time>2015-06-11T15:39:44Z</time>
      </trkpt>
      <trkpt lat="45.18623" lon="5.56197">
        <ele>1083.8</ele>
        <time>2015-06-11T15:39:45Z</time>
      </trkpt>
      <trkpt lat="45.18625" lon="5.56195">
        <ele>1084</ele>
        <time>2015-06-11T15:39:46Z</time>
      </trkpt>
      <trkpt lat="45.18627" lon="5.56193">
        <ele>1084</ele>
        <time>2015-06-11T15:39:47Z</time>
      </trkpt>
      <trkpt lat="45.18629" lon="5.5619">
        <ele>1084</ele>
        <time>2015-06-11T15:39:48Z</time>
      </trkpt>
      <trkpt lat="45.1863" lon="5.56188">
        <ele>1084</ele>
        <time>2015-06-11T15:39:49Z</time>
      </trkpt>
      <trkpt lat="45.18632" lon="5.56185">
        <ele>1084.1</ele>
        <time>2015-06-11T15:39:50Z</time>
      </trkpt>
      <trkpt lat="45.18633" lon="5.56183">
        <ele>1084.1</ele>
        <time>2015-06-11T15:39:51Z</time>
      </trkpt>
      <trkpt lat="45.18634" lon="5.5618">
        <ele>1084.1</ele>
        <time>2015-06-11T15:39:52Z</time>
      </trkpt>
      <trkpt lat="45.18635" lon="5.56178">
        <ele>1084.1</ele>
        <time>2015-06-11T15:39:53Z</time>
      </trkpt>
      <trkpt lat="45.18636" lon="5.56175">
        <ele>1084.2</ele>
        <time>2015-06-11T15:39:54Z</time>
      </trkpt>
      <trkpt lat="45.18637" lon="5.56172">
        <ele>1084.2</ele>
        <time>2015-06-11T15:39:55Z</time>
      </trkpt>
      <trkpt lat="45.18638" lon="5.5617">
        <ele>1084.3</ele>
        <time>2015-06-11T15:39:56Z</time>
      </trkpt>
      <trkpt lat="45.18638" lon="5.56167">
        <ele>1084.3</ele>
        <time>2015-06-11T15:39:57Z</time>
      </trkpt>
      <trkpt lat="45.18639" lon="5.56164">
        <ele>1084.4</ele>
        <time>2015-06-11T15:39:58Z</time>
      </trkpt>
      <trkpt lat="45.1864" lon="5.56161">
        <ele>1084.4</ele>
        <time>2015-06-11T15:39:59Z</time>
      </trkpt>
      <trkpt lat="45.18641" lon="5.56158">
        <ele>1084.5</ele>
        <time>2015-06-11T15:40:00Z</time>
      </trkpt>
      <trkpt lat="45.18641" lon="5.56155">
        <ele>1084.5</ele>
        <time>2015-06-11T15:40:01Z</time>
      </trkpt>
      <trkpt lat="45.18642" lon="5.56152">
        <ele>1084.6</ele>
        <time>2015-06-11T15:40:02Z</time>
      </trkpt>
      <trkpt lat="45.18643" lon="5.56149">
        <ele>1084.7</ele>
        <time>2015-06-11T15:40:03Z</time>
      </trkpt>
      <trkpt lat="45.18644" lon="5.56146">
        <ele>1084.8</ele>
        <time>2015-06-11T15:40:04Z</time>
      </trkpt>
      <trkpt lat="45.18644" lon="5.56143">
        <ele>1084.9</ele>
        <time>2015-06-11T15:40:05Z</time>
      </trkpt>
      <trkpt lat="45.18645" lon="5.56141">
        <ele>1084.9</ele>
        <time>2015-06-11T15:40:06Z</time>
      </trkpt>
      <trkpt lat="45.18646" lon="5.56138">
        <ele>1085</ele>
        <time>2015-06-11T15:40:07Z</time>
      </trkpt>
      <trkpt lat="45.18647" lon="5.56135">
        <ele>1085.1</ele>
        <time>2015-06-11T15:40:08Z</time>
      </trkpt>
      <trkpt lat="45.18648" lon="5.56133">
        <ele>1085.2</ele>
        <time>2015-06-11T15:40:09Z</time>
      </trkpt>
      <trkpt lat="45.18649" lon="5.5613">
        <ele>1085.3</ele>
        <time>2015-06-11T15:40:10Z</time>
      </trkpt>
      <trkpt lat="45.1865" lon="5.56128">
        <ele>1085.4</ele>
        <time>2015-06-11T15:40:11Z</time>
      </trkpt>
      <trkpt lat="45.18651" lon="5.56125">
        <ele>1085.6</ele>
        <time>2015-06-11T15:40:12Z</time>
      </trkpt>
      <trkpt lat="45.18652" lon="5.56123">
        <ele>1085.8</ele>
        <time>2015-06-11T15:40:13Z</time>
      </trkpt>
      <trkpt lat="45.18653" lon="5.5612">
        <ele>1086</ele>
        <time>2015-06-11T15:40:14Z</time>
      </trkpt>
      <trkpt lat="45.18654" lon="5.56117">
        <ele>1086.3</ele>
        <time>2015-06-11T15:40:15Z</time>
      </trkpt>
      <trkpt lat="45.18655" lon="5.56114">
        <ele>1086.5</ele>
        <time>2015-06-11T15:40:16Z</time>
      </trkpt>
      <trkpt lat="45.18656" lon="5.56111">
        <ele>1086.8</ele>
        <time>2015-06-11T15:40:17Z</time>
      </trkpt>
      <trkpt lat="45.18657" lon="5.56108">
        <ele>1087</ele>
        <time>2015-06-11T15:40:18Z</time>
      </trkpt>
      <trkpt lat="45.18658" lon="5.56106">
        <ele>1087.2</ele>
        <time>2015-06-11T15:40:19Z</time>
      </trkpt>
      <trkpt lat="45.18659" lon="5.56104">
        <ele>1087.4</ele>
        <time>2015-06-11T15:40:20Z</time>
      </trkpt>
      <trkpt lat="45.1866" lon="5.56102">
        <ele>1087.6</ele>
        <time>2015-06-11T15:40:21Z</time>
      </trkpt>
      <trkpt lat="45.18661" lon="5.56099">
        <ele>1087.9</ele>
        <time>2015-06-11T15:40:22Z</time>
      </trkpt>
      <trkpt lat="45.18662" lon="5.56096">
        <ele>1088.2</ele>
        <time>2015-06-11T15:40:23Z</time>
      </trkpt>
      <trkpt lat="45.18663" lon="5.56094">
        <ele>1088.5</ele>
        <time>2015-06-11T15:40:24Z</time>
      </trkpt>
      <trkpt lat="45.18665" lon="5.56092">
        <ele>1088.7</ele>
        <time>2015-06-11T15:40:25Z</time>
      </trkpt>
      <trkpt lat="45.18665" lon="5.56089">
        <ele>1088.9</ele>
        <time>2015-06-11T15:40:26Z</time>
      </trkpt>
      <trkpt lat="45.18667" lon="5.56087">
        <ele>1089.2</ele>
        <time>2015-06-11T15:40:27Z</time>
      </trkpt>
      <trkpt lat="45.18668" lon="5.56085">
        <ele>1089.5</ele>
        <time>2015-06-11T15:40:28Z</time>
      </trkpt>
      <trkpt lat="45.18669" lon="5.56083">
        <ele>1089.7</ele>
        <time>2015-06-11T15:40:29Z</time>
      </trkpt>
      <trkpt lat="45.1867" lon="5.56081">
        <ele>1090</ele>
        <time>2015-06-11T15:40:30Z</time>
      </trkpt>
      <trkpt lat="45.18671" lon="5.56078">
        <ele>1090.3</ele>
        <time>2015-06-11T15:40:31Z</time>
      </trkpt>
      <trkpt lat="45.18672" lon="5.56076">
        <ele>1090.6</ele>
        <time>2015-06-11T15:40:32Z</time>
      </trkpt>
      <trkpt lat="45.18673" lon="5.56073">
        <ele>1090.9</ele>
        <time>2015-06-11T15:40:33Z</time>
      </trkpt>
      <trkpt lat="45.18674" lon="5.56071">
        <ele>1091.2</ele>
        <time>2015-06-11T15:40:34Z</time>
      </trkpt>
      <trkpt lat="45.18675" lon="5.56069">
        <ele>1091.5</ele>
        <time>2015-06-11T15:40:35Z</time>
      </trkpt>
      <trkpt lat="45.18676" lon="5.56067">
        <ele>1091.8</ele>
        <time>2015-06-11T15:40:36Z</time>
      </trkpt>
      <trkpt lat="45.18678" lon="5.56065">
        <ele>1092.1</ele>
        <time>2015-06-11T15:40:37Z</time>
      </trkpt>
      <trkpt lat="45.18678" lon="5.56063">
        <ele>1092.3</ele>
        <time>2015-06-11T15:40:38Z</time>
      </trkpt>
      <trkpt lat="45.18679" lon="5.5606">
        <ele>1092.6</ele>
        <time>2015-06-11T15:40:39Z</time>
      </trkpt>
      <trkpt lat="45.1868" lon="5.56058">
        <ele>1092.9</ele>
        <time>2015-06-11T15:40:40Z</time>
      </trkpt>
      <trkpt lat="45.18681" lon="5.56056">
        <ele>1093.2</ele>
        <time>2015-06-11T15:40:41Z</time>
      </trkpt>
      <trkpt lat="45.18682" lon="5.56054">
        <ele>1093.5</ele>
        <time>2015-06-11T15:40:42Z</time>
      </trkpt>
      <trkpt lat="45.18683" lon="5.56052">
        <ele>1093.8</ele>
        <time>2015-06-11T15:40:43Z</time>
      </trkpt>
      <trkpt lat="45.18684" lon="5.5605">
        <ele>1094.1</ele>
        <time>2015-06-11T15:40:44Z</time>
      </trkpt>
      <trkpt lat="45.18685" lon="5.56048">
        <ele>1094.4</ele>
        <time>2015-06-11T15:40:45Z</time>
      </trkpt>
      <trkpt lat="45.18686" lon="5.56046">
        <ele>1094.7</ele>
        <time>2015-06-11T15:40:46Z</time>
      </trkpt>
      <trkpt lat="45.18687" lon="5.56044">
        <ele>1094.9</ele>
        <time>2015-06-11T15:40:47Z</time>
      </trkpt>
      <trkpt lat="45.18688" lon="5.56043">
        <ele>1095.2</ele>
        <time>2015-06-11T15:40:48Z</time>
      </trkpt>
      <trkpt lat="45.18689" lon="5.56042">
        <ele>1095.4</ele>
        <time>2015-06-11T15:40:49Z</time>
      </trkpt>
      <trkpt lat="45.18691" lon="5.56042">
        <ele>1095.7</ele>
        <time>2015-06-11T15:40:50Z</time>
      </trkpt>
      <trkpt lat="45.18692" lon="5.56041">
        <ele>1095.8</ele>
        <time>2015-06-11T15:40:51Z</time>
      </trkpt>
      <trkpt lat="45.18693" lon="5.56041">
        <ele>1096</ele>
        <time>2015-06-11T15:40:52Z</time>
      </trkpt>
      <trkpt lat="45.18694" lon="5.56041">
        <ele>1096.2</ele>
        <time>2015-06-11T15:40:53Z</time>
      </trkpt>
      <trkpt lat="45.18695" lon="5.56041">
        <ele>1096.3</ele>
        <time>2015-06-11T15:40:54Z</time>
      </trkpt>
      <trkpt lat="45.18696" lon="5.5604">
        <ele>1096.4</ele>
        <time>2015-06-11T15:40:55Z</time>
      </trkpt>
      <trkpt lat="45.18697" lon="5.5604">
        <ele>1096.6</ele>
        <time>2015-06-11T15:40:56Z</time>
      </trkpt>
      <trkpt lat="45.18698" lon="5.5604">
        <ele>1096.7</ele>
        <time>2015-06-11T15:40:57Z</time>
      </trkpt>
      <trkpt lat="45.18699" lon="5.5604">
        <ele>1096.9</ele>
        <time>2015-06-11T15:40:58Z</time>
      </trkpt>
      <trkpt lat="45.187" lon="5.56039">
        <ele>1097.1</ele>
        <time>2015-06-11T15:40:59Z</time>
      </trkpt>
      <trkpt lat="45.18702" lon="5.56039">
        <ele>1097.3</ele>
        <time>2015-06-11T15:41:00Z</time>
      </trkpt>
      <trkpt lat="45.18704" lon="5.56039">
        <ele>1097.5</ele>
        <time>2015-06-11T15:41:01Z</time>
      </trkpt>
      <trkpt lat="45.18705" lon="5.5604">
        <ele>1097.7</ele>
        <time>2015-06-11T15:41:02Z</time>
      </trkpt>
      <trkpt lat="45.18707" lon="5.5604">
        <ele>1098</ele>
        <time>2015-06-11T15:41:03Z</time>
      </trkpt>
      <trkpt lat="45.18709" lon="5.5604">
        <ele>1098.2</ele>
        <time>2015-06-11T15:41:04Z</time>
      </trkpt>
      <trkpt lat="45.18711" lon="5.5604">
        <ele>1098.5</ele>
        <time>2015-06-11T15:41:05Z</time>
      </trkpt>
      <trkpt lat="45.18712" lon="5.56041">
        <ele>1098.7</ele>
        <time>2015-06-11T15:41:06Z</time>
      </trkpt>
      <trkpt lat="45.18713" lon="5.5604">
        <ele>1098.9</ele>
        <time>2015-06-11T15:41:07Z</time>
      </trkpt>
      <trkpt lat="45.18715" lon="5.5604">
        <ele>1099.1</ele>
        <time>2015-06-11T15:41:08Z</time>
      </trkpt>
      <trkpt lat="45.18716" lon="5.5604">
        <ele>1099.3</ele>
        <time>2015-06-11T15:41:09Z</time>
      </trkpt>
      <trkpt lat="45.18716" lon="5.5604">
        <ele>1099.5</ele>
        <time>2015-06-11T15:41:10Z</time>
      </trkpt>
      <trkpt lat="45.18718" lon="5.5604">
        <ele>1099.7</ele>
        <time>2015-06-11T15:41:11Z</time>
      </trkpt>
      <trkpt lat="45.18719" lon="5.5604">
        <ele>1099.9</ele>
        <time>2015-06-11T15:41:12Z</time>
      </trkpt>
      <trkpt lat="45.1872" lon="5.5604">
        <ele>1100.1</ele>
        <time>2015-06-11T15:41:13Z</time>
      </trkpt>
      <trkpt lat="45.18721" lon="5.5604">
        <ele>1100.2</ele>
        <time>2015-06-11T15:41:14Z</time>
      </trkpt>
      <trkpt lat="45.18722" lon="5.5604">
        <ele>1100.4</ele>
        <time>2015-06-11T15:41:15Z</time>
      </trkpt>
      <trkpt lat="45.18723" lon="5.5604">
        <ele>1100.6</ele>
        <time>2015-06-11T15:41:16Z</time>
      </trkpt>
      <trkpt lat="45.18724" lon="5.5604">
        <ele>1100.8</ele>
        <time>2015-06-11T15:41:17Z</time>
      </trkpt>
      <trkpt lat="45.18725" lon="5.56039">
        <ele>1101</ele>
        <time>2015-06-11T15:41:18Z</time>
      </trkpt>
      <trkpt lat="45.18726" lon="5.56039">
        <ele>1101.2</ele>
        <time>2015-06-11T15:41:19Z</time>
      </trkpt>
      <trkpt lat="45.18727" lon="5.56039">
        <ele>1101.4</ele>
        <time>2015-06-11T15:41:20Z</time>
      </trkpt>
      <trkpt lat="45.18728" lon="5.56038">
        <ele>1101.7</ele>
        <time>2015-06-11T15:41:21Z</time>
      </trkpt>
      <trkpt lat="45.18729" lon="5.56037">
        <ele>1101.8</ele>
        <time>2015-06-11T15:41:22Z</time>
      </trkpt>
      <trkpt lat="45.1873" lon="5.56036">
        <ele>1102.1</ele>
        <time>2015-06-11T15:41:23Z</time>
      </trkpt>
      <trkpt lat="45.18731" lon="5.56035">
        <ele>1102.4</ele>
        <time>2015-06-11T15:41:24Z</time>
      </trkpt>
      <trkpt lat="45.18732" lon="5.56034">
        <ele>1102.6</ele>
        <time>2015-06-11T15:41:25Z</time>
      </trkpt>
      <trkpt lat="45.18732" lon="5.56032">
        <ele>1102.8</ele>
        <time>2015-06-11T15:41:26Z</time>
      </trkpt>
      <trkpt lat="45.18733" lon="5.56031">
        <ele>1103.1</ele>
        <time>2015-06-11T15:41:27Z</time>
      </trkpt>
      <trkpt lat="45.18733" lon="5.56029">
        <ele>1103.2</ele>
        <time>2015-06-11T15:41:28Z</time>
      </trkpt>
      <trkpt lat="45.18734" lon="5.56028">
        <ele>1103.5</ele>
        <time>2015-06-11T15:41:29Z</time>
      </trkpt>
      <trkpt lat="45.18734" lon="5.56026">
        <ele>1103.7</ele>
        <time>2015-06-11T15:41:30Z</time>
      </trkpt>
      <trkpt lat="45.18735" lon="5.56024">
        <ele>1104</ele>
        <time>2015-06-11T15:41:31Z</time>
      </trkpt>
      <trkpt lat="45.18735" lon="5.56022">
        <ele>1104.2</ele>
        <time>2015-06-11T15:41:32Z</time>
      </trkpt>
      <trkpt lat="45.18735" lon="5.5602">
        <ele>1104.3</ele>
        <time>2015-06-11T15:41:33Z</time>
      </trkpt>
      <trkpt lat="45.18736" lon="5.56019">
        <ele>1104.6</ele>
        <time>2015-06-11T15:41:34Z</time>
      </trkpt>
      <trkpt lat="45.18736" lon="5.56017">
        <ele>1104.8</ele>
        <time>2015-06-11T15:41:35Z</time>
      </trkpt>
      <trkpt lat="45.18736" lon="5.56015">
        <ele>1105</ele>
        <time>2015-06-11T15:41:36Z</time>
      </trkpt>
      <trkpt lat="45.18736" lon="5.56014">
        <ele>1105.2</ele>
        <time>2015-06-11T15:41:37Z</time>
      </trkpt>
      <trkpt lat="45.18737" lon="5.56012">
        <ele>1105.3</ele>
        <time>2015-06-11T15:41:38Z</time>
      </trkpt>
      <trkpt lat="45.18737" lon="5.56011">
        <ele>1105.6</ele>
        <time>2015-06-11T15:41:39Z</time>
      </trkpt>
      <trkpt lat="45.18738" lon="5.5601">
        <ele>1105.8</ele>
        <time>2015-06-11T15:41:40Z</time>
      </trkpt>
      <trkpt lat="45.18738" lon="5.56008">
        <ele>1106</ele>
        <time>2015-06-11T15:41:41Z</time>
      </trkpt>
      <trkpt lat="45.18739" lon="5.56007">
        <ele>1106.2</ele>
        <time>2015-06-11T15:41:42Z</time>
      </trkpt>
      <trkpt lat="45.18739" lon="5.56005">
        <ele>1106.5</ele>
        <time>2015-06-11T15:41:43Z</time>
      </trkpt>
      <trkpt lat="45.1874" lon="5.56004">
        <ele>1106.8</ele>
        <time>2015-06-11T15:41:44Z</time>
      </trkpt>
      <trkpt lat="45.18741" lon="5.56002">
        <ele>1107.1</ele>
        <time>2015-06-11T15:41:45Z</time>
      </trkpt>
      <trkpt lat="45.18741" lon="5.56001">
        <ele>1107.3</ele>
        <time>2015-06-11T15:41:46Z</time>
      </trkpt>
      <trkpt lat="45.18742" lon="5.56">
        <ele>1107.6</ele>
        <time>2015-06-11T15:41:47Z</time>
      </trkpt>
      <trkpt lat="45.18743" lon="5.55999">
        <ele>1107.9</ele>
        <time>2015-06-11T15:41:48Z</time>
      </trkpt>
      <trkpt lat="45.18744" lon="5.55998">
        <ele>1108.3</ele>
        <time>2015-06-11T15:41:49Z</time>
      </trkpt>
      <trkpt lat="45.18745" lon="5.55997">
        <ele>1108.5</ele>
        <time>2015-06-11T15:41:50Z</time>
      </trkpt>
      <trkpt lat="45.18746" lon="5.55996">
        <ele>1108.8</ele>
        <time>2015-06-11T15:41:51Z</time>
      </trkpt>
      <trkpt lat="45.18747" lon="5.55995">
        <ele>1109.1</ele>
        <time>2015-06-11T15:41:52Z</time>
      </trkpt>
      <trkpt lat="45.18748" lon="5.55995">
        <ele>1109.4</ele>
        <time>2015-06-11T15:41:53Z</time>
      </trkpt>
      <trkpt lat="45.18749" lon="5.55994">
        <ele>1109.7</ele>
        <time>2015-06-11T15:41:54Z</time>
      </trkpt>
      <trkpt lat="45.1875" lon="5.55993">
        <ele>1109.9</ele>
        <time>2015-06-11T15:41:55Z</time>
      </trkpt>
      <trkpt lat="45.1875" lon="5.55992">
        <ele>1110.1</ele>
        <time>2015-06-11T15:41:56Z</time>
      </trkpt>
      <trkpt lat="45.18751" lon="5.55991">
        <ele>1110.4</ele>
        <time>2015-06-11T15:41:57Z</time>
      </trkpt>
      <trkpt lat="45.18752" lon="5.5599">
        <ele>1110.7</ele>
        <time>2015-06-11T15:41:58Z</time>
      </trkpt>
      <trkpt lat="45.18753" lon="5.5599">
        <ele>1110.9</ele>
        <time>2015-06-11T15:41:59Z</time>
      </trkpt>
      <trkpt lat="45.18753" lon="5.55989">
        <ele>1111.1</ele>
        <time>2015-06-11T15:42:00Z</time>
      </trkpt>
      <trkpt lat="45.18754" lon="5.55988">
        <ele>1111.4</ele>
        <time>2015-06-11T15:42:01Z</time>
      </trkpt>
      <trkpt lat="45.18755" lon="5.55987">
        <ele>1111.6</ele>
        <time>2015-06-11T15:42:02Z</time>
      </trkpt>
      <trkpt lat="45.18755" lon="5.55987">
        <ele>1111.8</ele>
        <time>2015-06-11T15:42:03Z</time>
      </trkpt>
      <trkpt lat="45.18756" lon="5.55986">
        <ele>1112</ele>
        <time>2015-06-11T15:42:04Z</time>
      </trkpt>
      <trkpt lat="45.18757" lon="5.55985">
        <ele>1112.3</ele>
        <time>2015-06-11T15:42:05Z</time>
      </trkpt>
      <trkpt lat="45.18758" lon="5.55985">
        <ele>1112.5</ele>
        <time>2015-06-11T15:42:06Z</time>
      </trkpt>
      <trkpt lat="45.18758" lon="5.55984">
        <ele>1112.7</ele>
        <time>2015-06-11T15:42:07Z</time>
      </trkpt>
      <trkpt lat="45.18759" lon="5.55984">
        <ele>1113</ele>
        <time>2015-06-11T15:42:08Z</time>
      </trkpt>
      <trkpt lat="45.1876" lon="5.55983">
        <ele>1113.2</ele>
        <time>2015-06-11T15:42:09Z</time>
      </trkpt>
      <trkpt lat="45.18761" lon="5.55983">
        <ele>1113.4</ele>
        <time>2015-06-11T15:42:10Z</time>
      </trkpt>
      <trkpt lat="45.18761" lon="5.55982">
        <ele>1113.7</ele>
        <time>2015-06-11T15:42:11Z</time>
      </trkpt>
      <trkpt lat="45.18762" lon="5.55982">
        <ele>1113.9</ele>
        <time>2015-06-11T15:42:12Z</time>
      </trkpt>
      <trkpt lat="45.18763" lon="5.55981">
        <ele>1114.2</ele>
        <time>2015-06-11T15:42:13Z</time>
      </trkpt>
      <trkpt lat="45.18763" lon="5.5598">
        <ele>1114.3</ele>
        <time>2015-06-11T15:42:14Z</time>
      </trkpt>
      <trkpt lat="45.18764" lon="5.5598">
        <ele>1114.5</ele>
        <time>2015-06-11T15:42:15Z</time>
      </trkpt>
      <trkpt lat="45.18765" lon="5.55979">
        <ele>1114.8</ele>
        <time>2015-06-11T15:42:16Z</time>
      </trkpt>
      <trkpt lat="45.18765" lon="5.55979">
        <ele>1115</ele>
        <time>2015-06-11T15:42:17Z</time>
      </trkpt>
      <trkpt lat="45.18766" lon="5.55978">
        <ele>1115.2</ele>
        <time>2015-06-11T15:42:18Z</time>
      </trkpt>
      <trkpt lat="45.18767" lon="5.55977">
        <ele>1115.5</ele>
        <time>2015-06-11T15:42:19Z</time>
      </trkpt>
      <trkpt lat="45.18767" lon="5.55977">
        <ele>1115.6</ele>
        <time>2015-06-11T15:42:20Z</time>
      </trkpt>
      <trkpt lat="45.18768" lon="5.55976">
        <ele>1115.9</ele>
        <time>2015-06-11T15:42:21Z</time>
      </trkpt>
      <trkpt lat="45.18769" lon="5.55975">
        <ele>1116.2</ele>
        <time>2015-06-11T15:42:22Z</time>
      </trkpt>
      <trkpt lat="45.1877" lon="5.55975">
        <ele>1116.6</ele>
        <time>2015-06-11T15:42:23Z</time>
      </trkpt>
      <trkpt lat="45.18771" lon="5.55974">
        <ele>1116.8</ele>
        <time>2015-06-11T15:42:24Z</time>
      </trkpt>
      <trkpt lat="45.18772" lon="5.55973">
        <ele>1117.2</ele>
        <time>2015-06-11T15:42:25Z</time>
      </trkpt>
      <trkpt lat="45.18773" lon="5.55972">
        <ele>1117.5</ele>
        <time>2015-06-11T15:42:26Z</time>
      </trkpt>
      <trkpt lat="45.18774" lon="5.55972">
        <ele>1117.8</ele>
        <time>2015-06-11T15:42:27Z</time>
      </trkpt>
      <trkpt lat="45.18774" lon="5.55971">
        <ele>1118</ele>
        <time>2015-06-11T15:42:28Z</time>
      </trkpt>
      <trkpt lat="45.18776" lon="5.5597">
        <ele>1118.4</ele>
        <time>2015-06-11T15:42:29Z</time>
      </trkpt>
      <trkpt lat="45.18776" lon="5.5597">
        <ele>1118.7</ele>
        <time>2015-06-11T15:42:30Z</time>
      </trkpt>
      <trkpt lat="45.18778" lon="5.55969">
        <ele>1119</ele>
        <time>2015-06-11T15:42:31Z</time>
      </trkpt>
      <trkpt lat="45.18778" lon="5.55968">
        <ele>1119.3</ele>
        <time>2015-06-11T15:42:32Z</time>
      </trkpt>
      <trkpt lat="45.18779" lon="5.55967">
        <ele>1119.7</ele>
        <time>2015-06-11T15:42:33Z</time>
      </trkpt>
      <trkpt lat="45.1878" lon="5.55966">
        <ele>1120</ele>
        <time>2015-06-11T15:42:34Z</time>
      </trkpt>
      <trkpt lat="45.18781" lon="5.55965">
        <ele>1120.4</ele>
        <time>2015-06-11T15:42:35Z</time>
      </trkpt>
      <trkpt lat="45.18782" lon="5.55964">
        <ele>1120.8</ele>
        <time>2015-06-11T15:42:36Z</time>
      </trkpt>
      <trkpt lat="45.18783" lon="5.55963">
        <ele>1121.2</ele>
        <time>2015-06-11T15:42:37Z</time>
      </trkpt>
      <trkpt lat="45.18784" lon="5.55962">
        <ele>1121.6</ele>
        <time>2015-06-11T15:42:38Z</time>
      </trkpt>
      <trkpt lat="45.18785" lon="5.55961">
        <ele>1122</ele>
        <time>2015-06-11T15:42:39Z</time>
      </trkpt>
      <trkpt lat="45.18786" lon="5.5596">
        <ele>1122.4</ele>
        <time>2015-06-11T15:42:40Z</time>
      </trkpt>
      <trkpt lat="45.18787" lon="5.55959">
        <ele>1122.8</ele>
        <time>2015-06-11T15:42:41Z</time>
      </trkpt>
      <trkpt lat="45.18788" lon="5.55958">
        <ele>1123.1</ele>
        <time>2015-06-11T15:42:42Z</time>
      </trkpt>
      <trkpt lat="45.18789" lon="5.55957">
        <ele>1123.4</ele>
        <time>2015-06-11T15:42:43Z</time>
      </trkpt>
      <trkpt lat="45.18789" lon="5.55956">
        <ele>1123.6</ele>
        <time>2015-06-11T15:42:44Z</time>
      </trkpt>
      <trkpt lat="45.1879" lon="5.55955">
        <ele>1123.9</ele>
        <time>2015-06-11T15:42:45Z</time>
      </trkpt>
      <trkpt lat="45.1879" lon="5.55954">
        <ele>1124.1</ele>
        <time>2015-06-11T15:42:46Z</time>
      </trkpt>
      <trkpt lat="45.18791" lon="5.55953">
        <ele>1124.5</ele>
        <time>2015-06-11T15:42:47Z</time>
      </trkpt>
      <trkpt lat="45.18791" lon="5.55952">
        <ele>1124.6</ele>
        <time>2015-06-11T15:42:48Z</time>
      </trkpt>
      <trkpt lat="45.18792" lon="5.55951">
        <ele>1125</ele>
        <time>2015-06-11T15:42:49Z</time>
      </trkpt>
      <trkpt lat="45.18793" lon="5.55949">
        <ele>1125.3</ele>
        <time>2015-06-11T15:42:50Z</time>
      </trkpt>
      <trkpt lat="45.18793" lon="5.55948">
        <ele>1125.6</ele>
        <time>2015-06-11T15:42:51Z</time>
      </trkpt>
      <trkpt lat="45.18794" lon="5.55947">
        <ele>1126</ele>
        <time>2015-06-11T15:42:52Z</time>
      </trkpt>
      <trkpt lat="45.18794" lon="5.55945">
        <ele>1126.3</ele>
        <time>2015-06-11T15:42:53Z</time>
      </trkpt>
      <trkpt lat="45.18795" lon="5.55944">
        <ele>1126.5</ele>
        <time>2015-06-11T15:42:54Z</time>
      </trkpt>
      <trkpt lat="45.18795" lon="5.55943">
        <ele>1126.7</ele>
        <time>2015-06-11T15:42:55Z</time>
      </trkpt>
      <trkpt lat="45.18795" lon="5.55941">
        <ele>1127</ele>
        <time>2015-06-11T15:42:56Z</time>
      </trkpt>
      <trkpt lat="45.18796" lon="5.5594">
        <ele>1127.2</ele>
        <time>2015-06-11T15:42:57Z</time>
      </trkpt>
      <trkpt lat="45.18796" lon="5.55939">
        <ele>1127.4</ele>
        <time>2015-06-11T15:42:58Z</time>
      </trkpt>
      <trkpt lat="45.18797" lon="5.55938">
        <ele>1127.8</ele>
        <time>2015-06-11T15:42:59Z</time>
      </trkpt>
      <trkpt lat="45.18798" lon="5.55937">
        <ele>1128.1</ele>
        <time>2015-06-11T15:43:00Z</time>
      </trkpt>
      <trkpt lat="45.18798" lon="5.55935">
        <ele>1128.4</ele>
        <time>2015-06-11T15:43:01Z</time>
      </trkpt>
      <trkpt lat="45.18799" lon="5.55934">
        <ele>1128.8</ele>
        <time>2015-06-11T15:43:02Z</time>
      </trkpt>
      <trkpt lat="45.188" lon="5.55933">
        <ele>1129.2</ele>
        <time>2015-06-11T15:43:03Z</time>
      </trkpt>
      <trkpt lat="45.18801" lon="5.55933">
        <ele>1129.5</ele>
        <time>2015-06-11T15:43:04Z</time>
      </trkpt>
      <trkpt lat="45.18802" lon="5.55932">
        <ele>1129.8</ele>
        <time>2015-06-11T15:43:05Z</time>
      </trkpt>
      <trkpt lat="45.18802" lon="5.55931">
        <ele>1129.9</ele>
        <time>2015-06-11T15:43:06Z</time>
      </trkpt>
      <trkpt lat="45.18803" lon="5.55931">
        <ele>1130.2</ele>
        <time>2015-06-11T15:43:07Z</time>
      </trkpt>
      <trkpt lat="45.18804" lon="5.55931">
        <ele>1130.4</ele>
        <time>2015-06-11T15:43:08Z</time>
      </trkpt>
      <trkpt lat="45.18805" lon="5.55931">
        <ele>1130.6</ele>
        <time>2015-06-11T15:43:09Z</time>
      </trkpt>
      <trkpt lat="45.18805" lon="5.55931">
        <ele>1130.7</ele>
        <time>2015-06-11T15:43:10Z</time>
      </trkpt>
      <trkpt lat="45.18806" lon="5.55931">
        <ele>1130.9</ele>
        <time>2015-06-11T15:43:11Z</time>
      </trkpt>
      <trkpt lat="45.18807" lon="5.55931">
        <ele>1131.1</ele>
        <time>2015-06-11T15:43:12Z</time>
      </trkpt>
      <trkpt lat="45.18808" lon="5.55932">
        <ele>1131.2</ele>
        <time>2015-06-11T15:43:13Z</time>
      </trkpt>
      <trkpt lat="45.18809" lon="5.55932">
        <ele>1131.5</ele>
        <time>2015-06-11T15:43:14Z</time>
      </trkpt>
      <trkpt lat="45.1881" lon="5.55932">
        <ele>1131.8</ele>
        <time>2015-06-11T15:43:15Z</time>
      </trkpt>
      <trkpt lat="45.18811" lon="5.55932">
        <ele>1132</ele>
        <time>2015-06-11T15:43:16Z</time>
      </trkpt>
      <trkpt lat="45.18812" lon="5.55933">
        <ele>1132.2</ele>
        <time>2015-06-11T15:43:17Z</time>
      </trkpt>
      <trkpt lat="45.18813" lon="5.55933">
        <ele>1132.5</ele>
        <time>2015-06-11T15:43:18Z</time>
      </trkpt>
      <trkpt lat="45.18815" lon="5.55933">
        <ele>1132.8</ele>
        <time>2015-06-11T15:43:19Z</time>
      </trkpt>
      <trkpt lat="45.18815" lon="5.55933">
        <ele>1132.9</ele>
        <time>2015-06-11T15:43:20Z</time>
      </trkpt>
      <trkpt lat="45.18816" lon="5.55934">
        <ele>1133.1</ele>
        <time>2015-06-11T15:43:21Z</time>
      </trkpt>
      <trkpt lat="45.18817" lon="5.55934">
        <ele>1133.3</ele>
        <time>2015-06-11T15:43:22Z</time>
      </trkpt>
      <trkpt lat="45.18818" lon="5.55934">
        <ele>1133.5</ele>
        <time>2015-06-11T15:43:23Z</time>
      </trkpt>
      <trkpt lat="45.18819" lon="5.55935">
        <ele>1133.7</ele>
        <time>2015-06-11T15:43:24Z</time>
      </trkpt>
      <trkpt lat="45.18821" lon="5.55935">
        <ele>1134.1</ele>
        <time>2015-06-11T15:43:25Z</time>
      </trkpt>
      <trkpt lat="45.18822" lon="5.55936">
        <ele>1134.3</ele>
        <time>2015-06-11T15:43:26Z</time>
      </trkpt>
      <trkpt lat="45.18823" lon="5.55936">
        <ele>1134.6</ele>
        <time>2015-06-11T15:43:27Z</time>
      </trkpt>
      <trkpt lat="45.18824" lon="5.55936">
        <ele>1134.9</ele>
        <time>2015-06-11T15:43:28Z</time>
      </trkpt>
      <trkpt lat="45.18825" lon="5.55937">
        <ele>1135</ele>
        <time>2015-06-11T15:43:29Z</time>
      </trkpt>
      <trkpt lat="45.18826" lon="5.55937">
        <ele>1135.1</ele>
        <time>2015-06-11T15:43:30Z</time>
      </trkpt>
      <trkpt lat="45.18826" lon="5.55937">
        <ele>1135.1</ele>
        <time>2015-06-11T15:43:31Z</time>
      </trkpt>
      <trkpt lat="45.18826" lon="5.55937">
        <ele>1135.3</ele>
        <time>2015-06-11T15:43:32Z</time>
      </trkpt>
      <trkpt lat="45.18827" lon="5.55938">
        <ele>1135.5</ele>
        <time>2015-06-11T15:43:33Z</time>
      </trkpt>
      <trkpt lat="45.18829" lon="5.55938">
        <ele>1135.8</ele>
        <time>2015-06-11T15:43:34Z</time>
      </trkpt>
      <trkpt lat="45.1883" lon="5.55939">
        <ele>1136</ele>
        <time>2015-06-11T15:43:35Z</time>
      </trkpt>
      <trkpt lat="45.18831" lon="5.5594">
        <ele>1136.2</ele>
        <time>2015-06-11T15:43:36Z</time>
      </trkpt>
      <trkpt lat="45.18832" lon="5.5594">
        <ele>1136.3</ele>
        <time>2015-06-11T15:43:37Z</time>
      </trkpt>
      <trkpt lat="45.18833" lon="5.55941">
        <ele>1136.5</ele>
        <time>2015-06-11T15:43:38Z</time>
      </trkpt>
      <trkpt lat="45.18834" lon="5.55942">
        <ele>1136.7</ele>
        <time>2015-06-11T15:43:39Z</time>
      </trkpt>
      <trkpt lat="45.18835" lon="5.55943">
        <ele>1136.9</ele>
        <time>2015-06-11T15:43:40Z</time>
      </trkpt>
      <trkpt lat="45.18837" lon="5.55943">
        <ele>1137.1</ele>
        <time>2015-06-11T15:43:41Z</time>
      </trkpt>
      <trkpt lat="45.18837" lon="5.55944">
        <ele>1137.3</ele>
        <time>2015-06-11T15:43:42Z</time>
      </trkpt>
      <trkpt lat="45.18839" lon="5.55944">
        <ele>1137.5</ele>
        <time>2015-06-11T15:43:43Z</time>
      </trkpt>
      <trkpt lat="45.18839" lon="5.55945">
        <ele>1137.6</ele>
        <time>2015-06-11T15:43:44Z</time>
      </trkpt>
      <trkpt lat="45.1884" lon="5.55946">
        <ele>1137.8</ele>
        <time>2015-06-11T15:43:45Z</time>
      </trkpt>
      <trkpt lat="45.18842" lon="5.55947">
        <ele>1138</ele>
        <time>2015-06-11T15:43:46Z</time>
      </trkpt>
      <trkpt lat="45.18843" lon="5.55948">
        <ele>1138.2</ele>
        <time>2015-06-11T15:43:47Z</time>
      </trkpt>
      <trkpt lat="45.18844" lon="5.55949">
        <ele>1138.4</ele>
        <time>2015-06-11T15:43:48Z</time>
      </trkpt>
      <trkpt lat="45.18845" lon="5.5595">
        <ele>1138.6</ele>
        <time>2015-06-11T15:43:49Z</time>
      </trkpt>
      <trkpt lat="45.18847" lon="5.5595">
        <ele>1138.8</ele>
        <time>2015-06-11T15:43:50Z</time>
      </trkpt>
      <trkpt lat="45.18847" lon="5.55951">
        <ele>1138.9</ele>
        <time>2015-06-11T15:43:51Z</time>
      </trkpt>
      <trkpt lat="45.18848" lon="5.55952">
        <ele>1139</ele>
        <time>2015-06-11T15:43:52Z</time>
      </trkpt>
      <trkpt lat="45.18849" lon="5.55953">
        <ele>1139.1</ele>
        <time>2015-06-11T15:43:53Z</time>
      </trkpt>
      <trkpt lat="45.1885" lon="5.55953">
        <ele>1139.2</ele>
        <time>2015-06-11T15:43:54Z</time>
      </trkpt>
      <trkpt lat="45.1885" lon="5.55954">
        <ele>1139.3</ele>
        <time>2015-06-11T15:43:55Z</time>
      </trkpt>
      <trkpt lat="45.18851" lon="5.55955">
        <ele>1139.4</ele>
        <time>2015-06-11T15:43:56Z</time>
      </trkpt>
      <trkpt lat="45.18852" lon="5.55956">
        <ele>1139.5</ele>
        <time>2015-06-11T15:43:57Z</time>
      </trkpt>
      <trkpt lat="45.18853" lon="5.55956">
        <ele>1139.6</ele>
        <time>2015-06-11T15:43:58Z</time>
      </trkpt>
      <trkpt lat="45.18854" lon="5.55957">
        <ele>1139.8</ele>
        <time>2015-06-11T15:43:59Z</time>
      </trkpt>
      <trkpt lat="45.18855" lon="5.55958">
        <ele>1139.8</ele>
        <time>2015-06-11T15:44:00Z</time>
      </trkpt>
      <trkpt lat="45.18856" lon="5.55959">
        <ele>1140</ele>
        <time>2015-06-11T15:44:01Z</time>
      </trkpt>
      <trkpt lat="45.18856" lon="5.5596">
        <ele>1140.1</ele>
        <time>2015-06-11T15:44:02Z</time>
      </trkpt>
      <trkpt lat="45.18857" lon="5.55961">
        <ele>1140.2</ele>
        <time>2015-06-11T15:44:03Z</time>
      </trkpt>
      <trkpt lat="45.18858" lon="5.55962">
        <ele>1140.4</ele>
        <time>2015-06-11T15:44:04Z</time>
      </trkpt>
      <trkpt lat="45.18859" lon="5.55962">
        <ele>1140.5</ele>
        <time>2015-06-11T15:44:05Z</time>
      </trkpt>
      <trkpt lat="45.1886" lon="5.55963">
        <ele>1140.7</ele>
        <time>2015-06-11T15:44:06Z</time>
      </trkpt>
      <trkpt lat="45.18861" lon="5.55964">
        <ele>1140.9</ele>
        <time>2015-06-11T15:44:07Z</time>
      </trkpt>
      <trkpt lat="45.18863" lon="5.55966">
        <ele>1141.2</ele>
        <time>2015-06-11T15:44:08Z</time>
      </trkpt>
      <trkpt lat="45.18864" lon="5.55967">
        <ele>1141.3</ele>
        <time>2015-06-11T15:44:09Z</time>
      </trkpt>
      <trkpt lat="45.18866" lon="5.55968">
        <ele>1141.5</ele>
        <time>2015-06-11T15:44:10Z</time>
      </trkpt>
      <trkpt lat="45.18867" lon="5.55969">
        <ele>1141.7</ele>
        <time>2015-06-11T15:44:11Z</time>
      </trkpt>
      <trkpt lat="45.18868" lon="5.5597">
        <ele>1142</ele>
        <time>2015-06-11T15:44:12Z</time>
      </trkpt>
      <trkpt lat="45.18869" lon="5.55971">
        <ele>1142.1</ele>
        <time>2015-06-11T15:44:13Z</time>
      </trkpt>
      <trkpt lat="45.1887" lon="5.55972">
        <ele>1142.2</ele>
        <time>2015-06-11T15:44:14Z</time>
      </trkpt>
      <trkpt lat="45.18871" lon="5.55973">
        <ele>1142.3</ele>
        <time>2015-06-11T15:44:15Z</time>
      </trkpt>
      <trkpt lat="45.18872" lon="5.55974">
        <ele>1142.4</ele>
        <time>2015-06-11T15:44:16Z</time>
      </trkpt>
      <trkpt lat="45.18873" lon="5.55976">
        <ele>1142.6</ele>
        <time>2015-06-11T15:44:17Z</time>
      </trkpt>
      <trkpt lat="45.18874" lon="5.55977">
        <ele>1142.6</ele>
        <time>2015-06-11T15:44:18Z</time>
      </trkpt>
      <trkpt lat="45.18874" lon="5.55978">
        <ele>1142.7</ele>
        <time>2015-06-11T15:44:19Z</time>
      </trkpt>
      <trkpt lat="45.18876" lon="5.5598">
        <ele>1142.8</ele>
        <time>2015-06-11T15:44:20Z</time>
      </trkpt>
      <trkpt lat="45.18876" lon="5.55981">
        <ele>1142.9</ele>
        <time>2015-06-11T15:44:21Z</time>
      </trkpt>
      <trkpt lat="45.18877" lon="5.55983">
        <ele>1143.1</ele>
        <time>2015-06-11T15:44:22Z</time>
      </trkpt>
      <trkpt lat="45.18878" lon="5.55984">
        <ele>1143.2</ele>
        <time>2015-06-11T15:44:23Z</time>
      </trkpt>
      <trkpt lat="45.18879" lon="5.55986">
        <ele>1143.3</ele>
        <time>2015-06-11T15:44:24Z</time>
      </trkpt>
      <trkpt lat="45.1888" lon="5.55987">
        <ele>1143.5</ele>
        <time>2015-06-11T15:44:25Z</time>
      </trkpt>
      <trkpt lat="45.18881" lon="5.55988">
        <ele>1143.7</ele>
        <time>2015-06-11T15:44:26Z</time>
      </trkpt>
      <trkpt lat="45.18882" lon="5.55989">
        <ele>1143.9</ele>
        <time>2015-06-11T15:44:27Z</time>
      </trkpt>
      <trkpt lat="45.18883" lon="5.5599">
        <ele>1144</ele>
        <time>2015-06-11T15:44:28Z</time>
      </trkpt>
      <trkpt lat="45.18884" lon="5.55991">
        <ele>1144.3</ele>
        <time>2015-06-11T15:44:29Z</time>
      </trkpt>
      <trkpt lat="45.18885" lon="5.55993">
        <ele>1144.4</ele>
        <time>2015-06-11T15:44:30Z</time>
      </trkpt>
      <trkpt lat="45.18885" lon="5.55993">
        <ele>1144.5</ele>
        <time>2015-06-11T15:44:31Z</time>
      </trkpt>
      <trkpt lat="45.18887" lon="5.55994">
        <ele>1144.7</ele>
        <time>2015-06-11T15:44:32Z</time>
      </trkpt>
      <trkpt lat="45.18887" lon="5.55995">
        <ele>1144.9</ele>
        <time>2015-06-11T15:44:33Z</time>
      </trkpt>
      <trkpt lat="45.18889" lon="5.55996">
        <ele>1145.1</ele>
        <time>2015-06-11T15:44:34Z</time>
      </trkpt>
      <trkpt lat="45.18889" lon="5.55998">
        <ele>1145.2</ele>
        <time>2015-06-11T15:44:35Z</time>
      </trkpt>
      <trkpt lat="45.1889" lon="5.55999">
        <ele>1145.3</ele>
        <time>2015-06-11T15:44:36Z</time>
      </trkpt>
      <trkpt lat="45.18891" lon="5.56">
        <ele>1145.4</ele>
        <time>2015-06-11T15:44:37Z</time>
      </trkpt>
      <trkpt lat="45.18892" lon="5.56001">
        <ele>1145.5</ele>
        <time>2015-06-11T15:44:38Z</time>
      </trkpt>
      <trkpt lat="45.18893" lon="5.56003">
        <ele>1145.7</ele>
        <time>2015-06-11T15:44:39Z</time>
      </trkpt>
      <trkpt lat="45.18893" lon="5.56004">
        <ele>1145.8</ele>
        <time>2015-06-11T15:44:40Z</time>
      </trkpt>
      <trkpt lat="45.18894" lon="5.56005">
        <ele>1145.9</ele>
        <time>2015-06-11T15:44:41Z</time>
      </trkpt>
      <trkpt lat="45.18895" lon="5.56006">
        <ele>1146.1</ele>
        <time>2015-06-11T15:44:42Z</time>
      </trkpt>
      <trkpt lat="45.18896" lon="5.56007">
        <ele>1146.3</ele>
        <time>2015-06-11T15:44:43Z</time>
      </trkpt>
      <trkpt lat="45.18897" lon="5.56008">
        <ele>1146.5</ele>
        <time>2015-06-11T15:44:44Z</time>
      </trkpt>
      <trkpt lat="45.18898" lon="5.56008">
        <ele>1146.6</ele>
        <time>2015-06-11T15:44:45Z</time>
      </trkpt>
      <trkpt lat="45.18899" lon="5.5601">
        <ele>1146.8</ele>
        <time>2015-06-11T15:44:46Z</time>
      </trkpt>
      <trkpt lat="45.189" lon="5.56011">
        <ele>1147</ele>
        <time>2015-06-11T15:44:47Z</time>
      </trkpt>
      <trkpt lat="45.18901" lon="5.56013">
        <ele>1147.1</ele>
        <time>2015-06-11T15:44:48Z</time>
      </trkpt>
      <trkpt lat="45.18902" lon="5.56014">
        <ele>1147.3</ele>
        <time>2015-06-11T15:44:49Z</time>
      </trkpt>
      <trkpt lat="45.18903" lon="5.56016">
        <ele>1147.4</ele>
        <time>2015-06-11T15:44:50Z</time>
      </trkpt>
      <trkpt lat="45.18904" lon="5.56018">
        <ele>1147.5</ele>
        <time>2015-06-11T15:44:51Z</time>
      </trkpt>
      <trkpt lat="45.18905" lon="5.56019">
        <ele>1147.7</ele>
        <time>2015-06-11T15:44:52Z</time>
      </trkpt>
      <trkpt lat="45.18906" lon="5.5602">
        <ele>1147.8</ele>
        <time>2015-06-11T15:44:53Z</time>
      </trkpt>
      <trkpt lat="45.18907" lon="5.56021">
        <ele>1148</ele>
        <time>2015-06-11T15:44:54Z</time>
      </trkpt>
      <trkpt lat="45.18908" lon="5.56021">
        <ele>1148.3</ele>
        <time>2015-06-11T15:44:55Z</time>
      </trkpt>
      <trkpt lat="45.18909" lon="5.56022">
        <ele>1148.5</ele>
        <time>2015-06-11T15:44:56Z</time>
      </trkpt>
      <trkpt lat="45.1891" lon="5.56022">
        <ele>1148.6</ele>
        <time>2015-06-11T15:44:57Z</time>
      </trkpt>
      <trkpt lat="45.18911" lon="5.56023">
        <ele>1148.9</ele>
        <time>2015-06-11T15:44:58Z</time>
      </trkpt>
      <trkpt lat="45.18912" lon="5.56023">
        <ele>1149.2</ele>
        <time>2015-06-11T15:44:59Z</time>
      </trkpt>
      <trkpt lat="45.18913" lon="5.56024">
        <ele>1149.5</ele>
        <time>2015-06-11T15:45:00Z</time>
      </trkpt>
      <trkpt lat="45.18914" lon="5.56025">
        <ele>1149.7</ele>
        <time>2015-06-11T15:45:01Z</time>
      </trkpt>
      <trkpt lat="45.18915" lon="5.56025">
        <ele>1150</ele>
        <time>2015-06-11T15:45:02Z</time>
      </trkpt>
      <trkpt lat="45.18917" lon="5.56026">
        <ele>1150.4</ele>
        <time>2015-06-11T15:45:03Z</time>
      </trkpt>
      <trkpt lat="45.18918" lon="5.56026">
        <ele>1150.7</ele>
        <time>2015-06-11T15:45:04Z</time>
      </trkpt>
      <trkpt lat="45.18919" lon="5.56027">
        <ele>1151.1</ele>
        <time>2015-06-11T15:45:05Z</time>
      </trkpt>
      <trkpt lat="45.18921" lon="5.56027">
        <ele>1151.4</ele>
        <time>2015-06-11T15:45:06Z</time>
      </trkpt>
      <trkpt lat="45.18922" lon="5.56028">
        <ele>1151.7</ele>
        <time>2015-06-11T15:45:07Z</time>
      </trkpt>
      <trkpt lat="45.18923" lon="5.56028">
        <ele>1152.1</ele>
        <time>2015-06-11T15:45:08Z</time>
      </trkpt>
      <trkpt lat="45.18924" lon="5.56028">
        <ele>1152.5</ele>
        <time>2015-06-11T15:45:09Z</time>
      </trkpt>
      <trkpt lat="45.18926" lon="5.56028">
        <ele>1152.8</ele>
        <time>2015-06-11T15:45:10Z</time>
      </trkpt>
      <trkpt lat="45.18927" lon="5.56028">
        <ele>1153.2</ele>
        <time>2015-06-11T15:45:11Z</time>
      </trkpt>
      <trkpt lat="45.18928" lon="5.56027">
        <ele>1153.7</ele>
        <time>2015-06-11T15:45:12Z</time>
      </trkpt>
      <trkpt lat="45.18929" lon="5.56027">
        <ele>1154.1</ele>
        <time>2015-06-11T15:45:13Z</time>
      </trkpt>
      <trkpt lat="45.1893" lon="5.56027">
        <ele>1154.5</ele>
        <time>2015-06-11T15:45:14Z</time>
      </trkpt>
      <trkpt lat="45.18931" lon="5.56027">
        <ele>1154.7</ele>
        <time>2015-06-11T15:45:15Z</time>
      </trkpt>
      <trkpt lat="45.18931" lon="5.56026">
        <ele>1154.8</ele>
        <time>2015-06-11T15:45:16Z</time>
      </trkpt>
      <trkpt lat="45.18933" lon="5.56027">
        <ele>1155.2</ele>
        <time>2015-06-11T15:45:17Z</time>
      </trkpt>
      <trkpt lat="45.18934" lon="5.56027">
        <ele>1155.6</ele>
        <time>2015-06-11T15:45:18Z</time>
      </trkpt>
      <trkpt lat="45.18935" lon="5.56027">
        <ele>1155.8</ele>
        <time>2015-06-11T15:45:19Z</time>
      </trkpt>
      <trkpt lat="45.18935" lon="5.56027">
        <ele>1156</ele>
        <time>2015-06-11T15:45:20Z</time>
      </trkpt>
      <trkpt lat="45.18937" lon="5.56027">
        <ele>1156.4</ele>
        <time>2015-06-11T15:45:21Z</time>
      </trkpt>
      <trkpt lat="45.18938" lon="5.56026">
        <ele>1156.7</ele>
        <time>2015-06-11T15:45:22Z</time>
      </trkpt>
      <trkpt lat="45.18939" lon="5.56027">
        <ele>1157.2</ele>
        <time>2015-06-11T15:45:23Z</time>
      </trkpt>
      <trkpt lat="45.1894" lon="5.56027">
        <ele>1157.5</ele>
        <time>2015-06-11T15:45:24Z</time>
      </trkpt>
      <trkpt lat="45.18942" lon="5.56027">
        <ele>1157.8</ele>
        <time>2015-06-11T15:45:25Z</time>
      </trkpt>
      <trkpt lat="45.18942" lon="5.56027">
        <ele>1158.1</ele>
        <time>2015-06-11T15:45:26Z</time>
      </trkpt>
      <trkpt lat="45.18943" lon="5.56027">
        <ele>1158.3</ele>
        <time>2015-06-11T15:45:27Z</time>
      </trkpt>
      <trkpt lat="45.18944" lon="5.56027">
        <ele>1158.6</ele>
        <time>2015-06-11T15:45:28Z</time>
      </trkpt>
      <trkpt lat="45.18945" lon="5.56027">
        <ele>1158.9</ele>
        <time>2015-06-11T15:45:29Z</time>
      </trkpt>
      <trkpt lat="45.18947" lon="5.56028">
        <ele>1159.4</ele>
        <time>2015-06-11T15:45:30Z</time>
      </trkpt>
      <trkpt lat="45.18948" lon="5.56029">
        <ele>1159.7</ele>
        <time>2015-06-11T15:45:31Z</time>
      </trkpt>
      <trkpt lat="45.1895" lon="5.56029">
        <ele>1160.2</ele>
        <time>2015-06-11T15:45:32Z</time>
      </trkpt>
      <trkpt lat="45.18951" lon="5.5603">
        <ele>1160.4</ele>
        <time>2015-06-11T15:45:33Z</time>
      </trkpt>
      <trkpt lat="45.18952" lon="5.5603">
        <ele>1160.6</ele>
        <time>2015-06-11T15:45:34Z</time>
      </trkpt>
      <trkpt lat="45.18953" lon="5.5603">
        <ele>1160.7</ele>
        <time>2015-06-11T15:45:35Z</time>
      </trkpt>
      <trkpt lat="45.18953" lon="5.56031">
        <ele>1160.9</ele>
        <time>2015-06-11T15:45:36Z</time>
      </trkpt>
      <trkpt lat="45.18955" lon="5.56032">
        <ele>1161.1</ele>
        <time>2015-06-11T15:45:37Z</time>
      </trkpt>
      <trkpt lat="45.18956" lon="5.56033">
        <ele>1161.4</ele>
        <time>2015-06-11T15:45:38Z</time>
      </trkpt>
      <trkpt lat="45.18957" lon="5.56034">
        <ele>1161.6</ele>
        <time>2015-06-11T15:45:39Z</time>
      </trkpt>
      <trkpt lat="45.18958" lon="5.56035">
        <ele>1161.9</ele>
        <time>2015-06-11T15:45:40Z</time>
      </trkpt>
      <trkpt lat="45.18959" lon="5.56036">
        <ele>1162</ele>
        <time>2015-06-11T15:45:41Z</time>
      </trkpt>
      <trkpt lat="45.1896" lon="5.56036">
        <ele>1162.1</ele>
        <time>2015-06-11T15:45:42Z</time>
      </trkpt>
      <trkpt lat="45.18961" lon="5.56037">
        <ele>1162.3</ele>
        <time>2015-06-11T15:45:43Z</time>
      </trkpt>
      <trkpt lat="45.18962" lon="5.56037">
        <ele>1162.5</ele>
        <time>2015-06-11T15:45:44Z</time>
      </trkpt>
      <trkpt lat="45.18963" lon="5.56038">
        <ele>1162.8</ele>
        <time>2015-06-11T15:45:45Z</time>
      </trkpt>
      <trkpt lat="45.18964" lon="5.56038">
        <ele>1163</ele>
        <time>2015-06-11T15:45:46Z</time>
      </trkpt>
      <trkpt lat="45.18966" lon="5.56038">
        <ele>1163.3</ele>
        <time>2015-06-11T15:45:47Z</time>
      </trkpt>
      <trkpt lat="45.18967" lon="5.56038">
        <ele>1163.6</ele>
        <time>2015-06-11T15:45:48Z</time>
      </trkpt>
      <trkpt lat="45.18969" lon="5.56038">
        <ele>1164</ele>
        <time>2015-06-11T15:45:49Z</time>
      </trkpt>
      <trkpt lat="45.1897" lon="5.56038">
        <ele>1164.4</ele>
        <time>2015-06-11T15:45:50Z</time>
      </trkpt>
      <trkpt lat="45.18972" lon="5.56038">
        <ele>1164.7</ele>
        <time>2015-06-11T15:45:51Z</time>
      </trkpt>
      <trkpt lat="45.18973" lon="5.56038">
        <ele>1165.1</ele>
        <time>2015-06-11T15:45:52Z</time>
      </trkpt>
      <trkpt lat="45.18975" lon="5.56039">
        <ele>1165.5</ele>
        <time>2015-06-11T15:45:53Z</time>
      </trkpt>
      <trkpt lat="45.18976" lon="5.56039">
        <ele>1165.8</ele>
        <time>2015-06-11T15:45:54Z</time>
      </trkpt>
      <trkpt lat="45.18977" lon="5.56039">
        <ele>1166</ele>
        <time>2015-06-11T15:45:55Z</time>
      </trkpt>
      <trkpt lat="45.18978" lon="5.5604">
        <ele>1166.2</ele>
        <time>2015-06-11T15:45:56Z</time>
      </trkpt>
      <trkpt lat="45.18979" lon="5.5604">
        <ele>1166.5</ele>
        <time>2015-06-11T15:45:57Z</time>
      </trkpt>
      <trkpt lat="45.1898" lon="5.5604">
        <ele>1166.6</ele>
        <time>2015-06-11T15:45:58Z</time>
      </trkpt>
      <trkpt lat="45.18981" lon="5.56041">
        <ele>1166.8</ele>
        <time>2015-06-11T15:45:59Z</time>
      </trkpt>
      <trkpt lat="45.18982" lon="5.56041">
        <ele>1167</ele>
        <time>2015-06-11T15:46:00Z</time>
      </trkpt>
      <trkpt lat="45.18983" lon="5.56041">
        <ele>1167.3</ele>
        <time>2015-06-11T15:46:01Z</time>
      </trkpt>
      <trkpt lat="45.18984" lon="5.56041">
        <ele>1167.5</ele>
        <time>2015-06-11T15:46:02Z</time>
      </trkpt>
      <trkpt lat="45.18985" lon="5.56042">
        <ele>1167.8</ele>
        <time>2015-06-11T15:46:03Z</time>
      </trkpt>
      <trkpt lat="45.18987" lon="5.56042">
        <ele>1168.1</ele>
        <time>2015-06-11T15:46:04Z</time>
      </trkpt>
      <trkpt lat="45.18988" lon="5.56042">
        <ele>1168.4</ele>
        <time>2015-06-11T15:46:05Z</time>
      </trkpt>
      <trkpt lat="45.18989" lon="5.56042">
        <ele>1168.7</ele>
        <time>2015-06-11T15:46:06Z</time>
      </trkpt>
      <trkpt lat="45.1899" lon="5.56042">
        <ele>1169</ele>
        <time>2015-06-11T15:46:07Z</time>
      </trkpt>
      <trkpt lat="45.18992" lon="5.56042">
        <ele>1169.5</ele>
        <time>2015-06-11T15:46:08Z</time>
      </trkpt>
      <trkpt lat="45.18993" lon="5.56041">
        <ele>1169.8</ele>
        <time>2015-06-11T15:46:09Z</time>
      </trkpt>
      <trkpt lat="45.18994" lon="5.56041">
        <ele>1170</ele>
        <time>2015-06-11T15:46:10Z</time>
      </trkpt>
      <trkpt lat="45.18995" lon="5.56041">
        <ele>1170.4</ele>
        <time>2015-06-11T15:46:11Z</time>
      </trkpt>
      <trkpt lat="45.18996" lon="5.56041">
        <ele>1170.7</ele>
        <time>2015-06-11T15:46:12Z</time>
      </trkpt>
      <trkpt lat="45.18998" lon="5.5604">
        <ele>1171</ele>
        <time>2015-06-11T15:46:13Z</time>
      </trkpt>
      <trkpt lat="45.18999" lon="5.5604">
        <ele>1171.3</ele>
        <time>2015-06-11T15:46:14Z</time>
      </trkpt>
      <trkpt lat="45.19" lon="5.56041">
        <ele>1171.7</ele>
        <time>2015-06-11T15:46:15Z</time>
      </trkpt>
      <trkpt lat="45.19002" lon="5.56041">
        <ele>1172</ele>
        <time>2015-06-11T15:46:16Z</time>
      </trkpt>
      <trkpt lat="45.19003" lon="5.56041">
        <ele>1172.4</ele>
        <time>2015-06-11T15:46:17Z</time>
      </trkpt>
      <trkpt lat="45.19004" lon="5.5604">
        <ele>1172.8</ele>
        <time>2015-06-11T15:46:18Z</time>
      </trkpt>
      <trkpt lat="45.19006" lon="5.5604">
        <ele>1173.2</ele>
        <time>2015-06-11T15:46:19Z</time>
      </trkpt>
      <trkpt lat="45.19007" lon="5.56039">
        <ele>1173.5</ele>
        <time>2015-06-11T15:46:20Z</time>
      </trkpt>
      <trkpt lat="45.19008" lon="5.56039">
        <ele>1173.8</ele>
        <time>2015-06-11T15:46:21Z</time>
      </trkpt>
      <trkpt lat="45.1901" lon="5.56039">
        <ele>1174.2</ele>
        <time>2015-06-11T15:46:22Z</time>
      </trkpt>
      <trkpt lat="45.19011" lon="5.56039">
        <ele>1174.6</ele>
        <time>2015-06-11T15:46:23Z</time>
      </trkpt>
      <trkpt lat="45.19013" lon="5.5604">
        <ele>1175</ele>
        <time>2015-06-11T15:46:24Z</time>
      </trkpt>
      <trkpt lat="45.19014" lon="5.5604">
        <ele>1175.3</ele>
        <time>2015-06-11T15:46:25Z</time>
      </trkpt>
      <trkpt lat="45.19016" lon="5.56041">
        <ele>1175.6</ele>
        <time>2015-06-11T15:46:26Z</time>
      </trkpt>
      <trkpt lat="45.19017" lon="5.56041">
        <ele>1175.9</ele>
        <time>2015-06-11T15:46:27Z</time>
      </trkpt>
      <trkpt lat="45.19019" lon="5.56042">
        <ele>1176.2</ele>
        <time>2015-06-11T15:46:28Z</time>
      </trkpt>
      <trkpt lat="45.19021" lon="5.56043">
        <ele>1176.5</ele>
        <time>2015-06-11T15:46:29Z</time>
      </trkpt>
      <trkpt lat="45.19022" lon="5.56043">
        <ele>1176.8</ele>
        <time>2015-06-11T15:46:30Z</time>
      </trkpt>
      <trkpt lat="45.19024" lon="5.56043">
        <ele>1177.1</ele>
        <time>2015-06-11T15:46:31Z</time>
      </trkpt>
      <trkpt lat="45.19025" lon="5.56044">
        <ele>1177.4</ele>
        <time>2015-06-11T15:46:32Z</time>
      </trkpt>
      <trkpt lat="45.19026" lon="5.56044">
        <ele>1177.6</ele>
        <time>2015-06-11T15:46:33Z</time>
      </trkpt>
      <trkpt lat="45.19028" lon="5.56044">
        <ele>1178</ele>
        <time>2015-06-11T15:46:34Z</time>
      </trkpt>
      <trkpt lat="45.19029" lon="5.56044">
        <ele>1178.3</ele>
        <time>2015-06-11T15:46:35Z</time>
      </trkpt>
      <trkpt lat="45.1903" lon="5.56044">
        <ele>1178.6</ele>
        <time>2015-06-11T15:46:36Z</time>
      </trkpt>
      <trkpt lat="45.19031" lon="5.56044">
        <ele>1178.8</ele>
        <time>2015-06-11T15:46:37Z</time>
      </trkpt>
      <trkpt lat="45.19033" lon="5.56044">
        <ele>1179.3</ele>
        <time>2015-06-11T15:46:38Z</time>
      </trkpt>
      <trkpt lat="45.19034" lon="5.56044">
        <ele>1179.6</ele>
        <time>2015-06-11T15:46:39Z</time>
      </trkpt>
      <trkpt lat="45.19035" lon="5.56044">
        <ele>1179.8</ele>
        <time>2015-06-11T15:46:40Z</time>
      </trkpt>
      <trkpt lat="45.19036" lon="5.56044">
        <ele>1180</ele>
        <time>2015-06-11T15:46:41Z</time>
      </trkpt>
      <trkpt lat="45.19037" lon="5.56044">
        <ele>1180.3</ele>
        <time>2015-06-11T15:46:42Z</time>
      </trkpt>
      <trkpt lat="45.19038" lon="5.56044">
        <ele>1180.6</ele>
        <time>2015-06-11T15:46:43Z</time>
      </trkpt>
      <trkpt lat="45.1904" lon="5.56044">
        <ele>1180.9</ele>
        <time>2015-06-11T15:46:44Z</time>
      </trkpt>
      <trkpt lat="45.19041" lon="5.56044">
        <ele>1181.3</ele>
        <time>2015-06-11T15:46:45Z</time>
      </trkpt>
      <trkpt lat="45.19042" lon="5.56044">
        <ele>1181.7</ele>
        <time>2015-06-11T15:46:46Z</time>
      </trkpt>
      <trkpt lat="45.19044" lon="5.56043">
        <ele>1182.2</ele>
        <time>2015-06-11T15:46:47Z</time>
      </trkpt>
      <trkpt lat="45.19045" lon="5.56042">
        <ele>1182.7</ele>
        <time>2015-06-11T15:46:48Z</time>
      </trkpt>
      <trkpt lat="45.19047" lon="5.56041">
        <ele>1183.2</ele>
        <time>2015-06-11T15:46:49Z</time>
      </trkpt>
      <trkpt lat="45.19049" lon="5.56041">
        <ele>1183.6</ele>
        <time>2015-06-11T15:46:50Z</time>
      </trkpt>
      <trkpt lat="45.19051" lon="5.5604">
        <ele>1184.2</ele>
        <time>2015-06-11T15:46:51Z</time>
      </trkpt>
      <trkpt lat="45.19053" lon="5.56039">
        <ele>1184.6</ele>
        <time>2015-06-11T15:46:52Z</time>
      </trkpt>
      <trkpt lat="45.19054" lon="5.56038">
        <ele>1184.9</ele>
        <time>2015-06-11T15:46:53Z</time>
      </trkpt>
      <trkpt lat="45.19056" lon="5.56038">
        <ele>1185.2</ele>
        <time>2015-06-11T15:46:54Z</time>
      </trkpt>
      <trkpt lat="45.19057" lon="5.56037">
        <ele>1185.4</ele>
        <time>2015-06-11T15:46:55Z</time>
      </trkpt>
      <trkpt lat="45.19058" lon="5.56037">
        <ele>1185.7</ele>
        <time>2015-06-11T15:46:56Z</time>
      </trkpt>
      <trkpt lat="45.19059" lon="5.56037">
        <ele>1185.9</ele>
        <time>2015-06-11T15:46:57Z</time>
      </trkpt>
      <trkpt lat="45.1906" lon="5.56037">
        <ele>1186.1</ele>
        <time>2015-06-11T15:46:58Z</time>
      </trkpt>
      <trkpt lat="45.19061" lon="5.56037">
        <ele>1186.4</ele>
        <time>2015-06-11T15:46:59Z</time>
      </trkpt>
      <trkpt lat="45.19062" lon="5.56037">
        <ele>1186.6</ele>
        <time>2015-06-11T15:47:00Z</time>
      </trkpt>
      <trkpt lat="45.19064" lon="5.56037">
        <ele>1186.9</ele>
        <time>2015-06-11T15:47:01Z</time>
      </trkpt>
      <trkpt lat="45.19066" lon="5.56038">
        <ele>1187.3</ele>
        <time>2015-06-11T15:47:02Z</time>
      </trkpt>
      <trkpt lat="45.19067" lon="5.56038">
        <ele>1187.6</ele>
        <time>2015-06-11T15:47:03Z</time>
      </trkpt>
      <trkpt lat="45.19069" lon="5.56039">
        <ele>1188</ele>
        <time>2015-06-11T15:47:04Z</time>
      </trkpt>
      <trkpt lat="45.1907" lon="5.56039">
        <ele>1188.2</ele>
        <time>2015-06-11T15:47:05Z</time>
      </trkpt>
      <trkpt lat="45.19072" lon="5.56039">
        <ele>1188.6</ele>
        <time>2015-06-11T15:47:06Z</time>
      </trkpt>
      <trkpt lat="45.19074" lon="5.5604">
        <ele>1188.9</ele>
        <time>2015-06-11T15:47:07Z</time>
      </trkpt>
      <trkpt lat="45.19075" lon="5.5604">
        <ele>1189.1</ele>
        <time>2015-06-11T15:47:08Z</time>
      </trkpt>
      <trkpt lat="45.19076" lon="5.5604">
        <ele>1189.4</ele>
        <time>2015-06-11T15:47:09Z</time>
      </trkpt>
      <trkpt lat="45.19077" lon="5.5604">
        <ele>1189.6</ele>
        <time>2015-06-11T15:47:10Z</time>
      </trkpt>
      <trkpt lat="45.19078" lon="5.56041">
        <ele>1189.8</ele>
        <time>2015-06-11T15:47:11Z</time>
      </trkpt>
      <trkpt lat="45.19078" lon="5.56041">
        <ele>1189.9</ele>
        <time>2015-06-11T15:47:12Z</time>
      </trkpt>
      <trkpt lat="45.1908" lon="5.56041">
        <ele>1190.2</ele>
        <time>2015-06-11T15:47:13Z</time>
      </trkpt>
      <trkpt lat="45.19081" lon="5.56042">
        <ele>1190.4</ele>
        <time>2015-06-11T15:47:14Z</time>
      </trkpt>
      <trkpt lat="45.19082" lon="5.56042">
        <ele>1190.8</ele>
        <time>2015-06-11T15:47:15Z</time>
      </trkpt>
      <trkpt lat="45.19084" lon="5.56042">
        <ele>1191.1</ele>
        <time>2015-06-11T15:47:16Z</time>
      </trkpt>
      <trkpt lat="45.19085" lon="5.56042">
        <ele>1191.3</ele>
        <time>2015-06-11T15:47:17Z</time>
      </trkpt>
      <trkpt lat="45.19087" lon="5.56043">
        <ele>1191.7</ele>
        <time>2015-06-11T15:47:18Z</time>
      </trkpt>
      <trkpt lat="45.19088" lon="5.56043">
        <ele>1191.9</ele>
        <time>2015-06-11T15:47:19Z</time>
      </trkpt>
      <trkpt lat="45.1909" lon="5.56044">
        <ele>1192</ele>
        <time>2015-06-11T15:47:20Z</time>
      </trkpt>
      <trkpt lat="45.19091" lon="5.56044">
        <ele>1192.3</ele>
        <time>2015-06-11T15:47:21Z</time>
      </trkpt>
      <trkpt lat="45.19092" lon="5.56044">
        <ele>1192.5</ele>
        <time>2015-06-11T15:47:22Z</time>
      </trkpt>
      <trkpt lat="45.19093" lon="5.56044">
        <ele>1192.7</ele>
        <time>2015-06-11T15:47:23Z</time>
      </trkpt>
      <trkpt lat="45.19095" lon="5.56044">
        <ele>1193</ele>
        <time>2015-06-11T15:47:24Z</time>
      </trkpt>
      <trkpt lat="45.19096" lon="5.56044">
        <ele>1193.3</ele>
        <time>2015-06-11T15:47:25Z</time>
      </trkpt>
      <trkpt lat="45.19097" lon="5.56044">
        <ele>1193.6</ele>
        <time>2015-06-11T15:47:26Z</time>
      </trkpt>
      <trkpt lat="45.19099" lon="5.56044">
        <ele>1194</ele>
        <time>2015-06-11T15:47:27Z</time>
      </trkpt>
      <trkpt lat="45.191" lon="5.56044">
        <ele>1194.3</ele>
        <time>2015-06-11T15:47:28Z</time>
      </trkpt>
      <trkpt lat="45.19103" lon="5.56044">
        <ele>1194.8</ele>
        <time>2015-06-11T15:47:29Z</time>
      </trkpt>
      <trkpt lat="45.19104" lon="5.56044">
        <ele>1195.2</ele>
        <time>2015-06-11T15:47:30Z</time>
      </trkpt>
      <trkpt lat="45.19106" lon="5.56044">
        <ele>1195.6</ele>
        <time>2015-06-11T15:47:31Z</time>
      </trkpt>
      <trkpt lat="45.19108" lon="5.56044">
        <ele>1196</ele>
        <time>2015-06-11T15:47:32Z</time>
      </trkpt>
      <trkpt lat="45.1911" lon="5.56044">
        <ele>1196.4</ele>
        <time>2015-06-11T15:47:33Z</time>
      </trkpt>
      <trkpt lat="45.19112" lon="5.56044">
        <ele>1196.8</ele>
        <time>2015-06-11T15:47:34Z</time>
      </trkpt>
      <trkpt lat="45.19113" lon="5.56044">
        <ele>1197</ele>
        <time>2015-06-11T15:47:35Z</time>
      </trkpt>
      <trkpt lat="45.19114" lon="5.56044">
        <ele>1197.3</ele>
        <time>2015-06-11T15:47:36Z</time>
      </trkpt>
      <trkpt lat="45.19115" lon="5.56044">
        <ele>1197.4</ele>
        <time>2015-06-11T15:47:37Z</time>
      </trkpt>
      <trkpt lat="45.19116" lon="5.56045">
        <ele>1197.7</ele>
        <time>2015-06-11T15:47:38Z</time>
      </trkpt>
      <trkpt lat="45.19117" lon="5.56045">
        <ele>1197.8</ele>
        <time>2015-06-11T15:47:39Z</time>
      </trkpt>
      <trkpt lat="45.19118" lon="5.56045">
        <ele>1198</ele>
        <time>2015-06-11T15:47:40Z</time>
      </trkpt>
      <trkpt lat="45.1912" lon="5.56045">
        <ele>1198.3</ele>
        <time>2015-06-11T15:47:41Z</time>
      </trkpt>
      <trkpt lat="45.19121" lon="5.56046">
        <ele>1198.6</ele>
        <time>2015-06-11T15:47:42Z</time>
      </trkpt>
      <trkpt lat="45.19123" lon="5.56047">
        <ele>1198.9</ele>
        <time>2015-06-11T15:47:43Z</time>
      </trkpt>
      <trkpt lat="45.19125" lon="5.56047">
        <ele>1199.3</ele>
        <time>2015-06-11T15:47:44Z</time>
      </trkpt>
      <trkpt lat="45.19127" lon="5.56048">
        <ele>1199.3</ele>
        <time>2015-06-11T15:47:45Z</time>
      </trkpt>
      <trkpt lat="45.19129" lon="5.56049">
        <ele>1199.3</ele>
        <time>2015-06-11T15:47:46Z</time>
      </trkpt>
      <trkpt lat="45.1913" lon="5.5605">
        <ele>1199.3</ele>
        <time>2015-06-11T15:47:47Z</time>
      </trkpt>
      <trkpt lat="45.19132" lon="5.56051">
        <ele>1199.4</ele>
        <time>2015-06-11T15:47:48Z</time>
      </trkpt>
      <trkpt lat="45.19133" lon="5.56051">
        <ele>1199.3</ele>
        <time>2015-06-11T15:47:49Z</time>
      </trkpt>
      <trkpt lat="45.19134" lon="5.56052">
        <ele>1199.3</ele>
        <time>2015-06-11T15:47:50Z</time>
      </trkpt>
      <trkpt lat="45.19135" lon="5.56053">
        <ele>1199.4</ele>
        <time>2015-06-11T15:47:51Z</time>
      </trkpt>
      <trkpt lat="45.19136" lon="5.56053">
        <ele>1199.4</ele>
        <time>2015-06-11T15:47:52Z</time>
      </trkpt>
      <trkpt lat="45.19137" lon="5.56053">
        <ele>1199.4</ele>
        <time>2015-06-11T15:47:53Z</time>
      </trkpt>
      <trkpt lat="45.19138" lon="5.56054">
        <ele>1199.5</ele>
        <time>2015-06-11T15:47:54Z</time>
      </trkpt>
      <trkpt lat="45.1914" lon="5.56054">
        <ele>1199.6</ele>
        <time>2015-06-11T15:47:55Z</time>
      </trkpt>
      <trkpt lat="45.19141" lon="5.56054">
        <ele>1199.7</ele>
        <time>2015-06-11T15:47:56Z</time>
      </trkpt>
      <trkpt lat="45.19143" lon="5.56054">
        <ele>1199.9</ele>
        <time>2015-06-11T15:47:57Z</time>
      </trkpt>
      <trkpt lat="45.19144" lon="5.56053">
        <ele>1200</ele>
        <time>2015-06-11T15:47:58Z</time>
      </trkpt>
      <trkpt lat="45.19146" lon="5.56053">
        <ele>1200.1</ele>
        <time>2015-06-11T15:47:59Z</time>
      </trkpt>
      <trkpt lat="45.19147" lon="5.56053">
        <ele>1200.3</ele>
        <time>2015-06-11T15:48:00Z</time>
      </trkpt>
      <trkpt lat="45.19148" lon="5.56053">
        <ele>1200.4</ele>
        <time>2015-06-11T15:48:01Z</time>
      </trkpt>
      <trkpt lat="45.1915" lon="5.56053">
        <ele>1200.6</ele>
        <time>2015-06-11T15:48:02Z</time>
      </trkpt>
      <trkpt lat="45.19151" lon="5.56052">
        <ele>1200.6</ele>
        <time>2015-06-11T15:48:03Z</time>
      </trkpt>
      <trkpt lat="45.19152" lon="5.56052">
        <ele>1200.8</ele>
        <time>2015-06-11T15:48:04Z</time>
      </trkpt>
      <trkpt lat="45.19153" lon="5.56051">
        <ele>1200.9</ele>
        <time>2015-06-11T15:48:05Z</time>
      </trkpt>
      <trkpt lat="45.19154" lon="5.56051">
        <ele>1201.1</ele>
        <time>2015-06-11T15:48:06Z</time>
      </trkpt>
      <trkpt lat="45.19156" lon="5.5605">
        <ele>1201.2</ele>
        <time>2015-06-11T15:48:07Z</time>
      </trkpt>
      <trkpt lat="45.19157" lon="5.56049">
        <ele>1201.4</ele>
        <time>2015-06-11T15:48:08Z</time>
      </trkpt>
      <trkpt lat="45.19159" lon="5.56048">
        <ele>1201.6</ele>
        <time>2015-06-11T15:48:09Z</time>
      </trkpt>
      <trkpt lat="45.19161" lon="5.56047">
        <ele>1201.8</ele>
        <time>2015-06-11T15:48:10Z</time>
      </trkpt>
      <trkpt lat="45.19162" lon="5.56047">
        <ele>1201.9</ele>
        <time>2015-06-11T15:48:11Z</time>
      </trkpt>
      <trkpt lat="45.19162" lon="5.56046">
        <ele>1202</ele>
        <time>2015-06-11T15:48:12Z</time>
      </trkpt>
      <trkpt lat="45.19163" lon="5.56046">
        <ele>1202</ele>
        <time>2015-06-11T15:48:13Z</time>
      </trkpt>
      <trkpt lat="45.19164" lon="5.56046">
        <ele>1202.1</ele>
        <time>2015-06-11T15:48:14Z</time>
      </trkpt>
      <trkpt lat="45.19165" lon="5.56046">
        <ele>1202.2</ele>
        <time>2015-06-11T15:48:15Z</time>
      </trkpt>
      <trkpt lat="45.19166" lon="5.56046">
        <ele>1202.2</ele>
        <time>2015-06-11T15:48:16Z</time>
      </trkpt>
      <trkpt lat="45.19167" lon="5.56047">
        <ele>1202.3</ele>
        <time>2015-06-11T15:48:17Z</time>
      </trkpt>
      <trkpt lat="45.19168" lon="5.56047">
        <ele>1202.3</ele>
        <time>2015-06-11T15:48:18Z</time>
      </trkpt>
      <trkpt lat="45.19169" lon="5.56046">
        <ele>1202.4</ele>
        <time>2015-06-11T15:48:19Z</time>
      </trkpt>
      <trkpt lat="45.1917" lon="5.56046">
        <ele>1202.5</ele>
        <time>2015-06-11T15:48:20Z</time>
      </trkpt>
      <trkpt lat="45.1917" lon="5.56045">
        <ele>1202.6</ele>
        <time>2015-06-11T15:48:21Z</time>
      </trkpt>
      <trkpt lat="45.1917" lon="5.56045">
        <ele>1202.6</ele>
        <time>2015-06-11T15:48:22Z</time>
      </trkpt>
      <trkpt lat="45.1917" lon="5.56045">
        <ele>1202.6</ele>
        <time>2015-06-11T15:48:23Z</time>
      </trkpt>
      <trkpt lat="45.19171" lon="5.56045">
        <ele>1202.6</ele>
        <time>2015-06-11T15:48:24Z</time>
      </trkpt>
      <trkpt lat="45.19171" lon="5.56045">
        <ele>1202.6</ele>
        <time>2015-06-11T15:48:25Z</time>
      </trkpt>
      <trkpt lat="45.19172" lon="5.56044">
        <ele>1202.7</ele>
        <time>2015-06-11T15:48:26Z</time>
      </trkpt>
      <trkpt lat="45.19173" lon="5.56044">
        <ele>1202.8</ele>
        <time>2015-06-11T15:48:27Z</time>
      </trkpt>
      <trkpt lat="45.19173" lon="5.56043">
        <ele>1202.8</ele>
        <time>2015-06-11T15:48:28Z</time>
      </trkpt>
      <trkpt lat="45.19175" lon="5.56043">
        <ele>1202.9</ele>
        <time>2015-06-11T15:48:29Z</time>
      </trkpt>
      <trkpt lat="45.19175" lon="5.56043">
        <ele>1203</ele>
        <time>2015-06-11T15:48:30Z</time>
      </trkpt>
      <trkpt lat="45.19177" lon="5.56043">
        <ele>1203</ele>
        <time>2015-06-11T15:48:31Z</time>
      </trkpt>
      <trkpt lat="45.19177" lon="5.56043">
        <ele>1203.1</ele>
        <time>2015-06-11T15:48:32Z</time>
      </trkpt>
      <trkpt lat="45.19178" lon="5.56043">
        <ele>1203.1</ele>
        <time>2015-06-11T15:48:33Z</time>
      </trkpt>
      <trkpt lat="45.19178" lon="5.56043">
        <ele>1203.2</ele>
        <time>2015-06-11T15:48:34Z</time>
      </trkpt>
      <trkpt lat="45.19178" lon="5.56043">
        <ele>1203.2</ele>
        <time>2015-06-11T15:48:35Z</time>
      </trkpt>
      <trkpt lat="45.19178" lon="5.56043">
        <ele>1203.2</ele>
        <time>2015-06-11T15:48:36Z</time>
      </trkpt>
      <trkpt lat="45.19178" lon="5.56043">
        <ele>1203.2</ele>
        <time>2015-06-11T15:48:37Z</time>
      </trkpt>
      <trkpt lat="45.19178" lon="5.56043">
        <ele>1203.2</ele>
        <time>2015-06-11T15:48:38Z</time>
      </trkpt>
      <trkpt lat="45.19178" lon="5.56043">
        <ele>1203.2</ele>
        <time>2015-06-11T15:48:39Z</time>
      </trkpt>
      <trkpt lat="45.19178" lon="5.56043">
        <ele>1203.2</ele>
        <time>2015-06-11T15:48:40Z</time>
      </trkpt>
      <trkpt lat="45.19178" lon="5.56043">
        <ele>1203.2</ele>
        <time>2015-06-11T15:48:41Z</time>
      </trkpt>
      <trkpt lat="45.19178" lon="5.56043">
        <ele>1203.2</ele>
        <time>2015-06-11T15:48:42Z</time>
      </trkpt>
      <trkpt lat="45.19178" lon="5.56043">
        <ele>1203.2</ele>
        <time>2015-06-11T15:48:43Z</time>
      </trkpt>
      <trkpt lat="45.19178" lon="5.56043">
        <ele>1203.2</ele>
        <time>2015-06-11T15:48:44Z</time>
      </trkpt>
      <trkpt lat="45.19178" lon="5.56044">
        <ele>1203.1</ele>
        <time>2015-06-11T15:48:45Z</time>
      </trkpt>
      <trkpt lat="45.19178" lon="5.56044">
        <ele>1203.1</ele>
        <time>2015-06-11T15:48:46Z</time>
      </trkpt>
      <trkpt lat="45.19178" lon="5.56044">
        <ele>1203.1</ele>
        <time>2015-06-11T15:48:47Z</time>
      </trkpt>
      <trkpt lat="45.19178" lon="5.56044">
        <ele>1203.1</ele>
        <time>2015-06-11T15:48:48Z</time>
      </trkpt>
      <trkpt lat="45.19178" lon="5.56044">
        <ele>1203.1</ele>
        <time>2015-06-11T15:48:49Z</time>
      </trkpt>
      <trkpt lat="45.19178" lon="5.56044">
        <ele>1203.1</ele>
        <time>2015-06-11T15:48:50Z</time>
      </trkpt>
      <trkpt lat="45.19178" lon="5.56044">
        <ele>1203.1</ele>
        <time>2015-06-11T15:48:51Z</time>
      </trkpt>
      <trkpt lat="45.19178" lon="5.56044">
        <ele>1203.1</ele>
        <time>2015-06-11T15:48:52Z</time>
      </trkpt>
      <trkpt lat="45.19178" lon="5.56044">
        <ele>1203.1</ele>
        <time>2015-06-11T15:48:53Z</time>
      </trkpt>
      <trkpt lat="45.19178" lon="5.56044">
        <ele>1203.1</ele>
        <time>2015-06-11T15:48:54Z</time>
      </trkpt>
      <trkpt lat="45.19178" lon="5.56044">
        <ele>1203.1</ele>
        <time>2015-06-11T15:48:55Z</time>
      </trkpt>
      <trkpt lat="45.19178" lon="5.56044">
        <ele>1203.1</ele>
        <time>2015-06-11T15:48:56Z</time>
      </trkpt>
      <trkpt lat="45.19178" lon="5.56045">
        <ele>1203.1</ele>
        <time>2015-06-11T15:48:57Z</time>
      </trkpt>
      <trkpt lat="45.19178" lon="5.56045">
        <ele>1203</ele>
        <time>2015-06-11T15:48:58Z</time>
      </trkpt>
      <trkpt lat="45.19178" lon="5.56045">
        <ele>1203</ele>
        <time>2015-06-11T15:48:59Z</time>
      </trkpt>
      <trkpt lat="45.19178" lon="5.56045">
        <ele>1203</ele>
        <time>2015-06-11T15:49:00Z</time>
      </trkpt>
      <trkpt lat="45.19178" lon="5.56045">
        <ele>1203</ele>
        <time>2015-06-11T15:49:01Z</time>
      </trkpt>
      <trkpt lat="45.19178" lon="5.56045">
        <ele>1203</ele>
        <time>2015-06-11T15:49:02Z</time>
      </trkpt>
      <trkpt lat="45.19178" lon="5.56045">
        <ele>1203</ele>
        <time>2015-06-11T15:49:03Z</time>
      </trkpt>
      <trkpt lat="45.19178" lon="5.56046">
        <ele>1203</ele>
        <time>2015-06-11T15:49:04Z</time>
      </trkpt>
      <trkpt lat="45.19178" lon="5.56046">
        <ele>1203</ele>
        <time>2015-06-11T15:49:05Z</time>
      </trkpt>
      <trkpt lat="45.19178" lon="5.56046">
        <ele>1203</ele>
        <time>2015-06-11T15:49:06Z</time>
      </trkpt>
      <trkpt lat="45.19178" lon="5.56046">
        <ele>1203</ele>
        <time>2015-06-11T15:49:07Z</time>
      </trkpt>
      <trkpt lat="45.19178" lon="5.56046">
        <ele>1203</ele>
        <time>2015-06-11T15:49:08Z</time>
      </trkpt>
      <trkpt lat="45.19177" lon="5.56046">
        <ele>1203</ele>
        <time>2015-06-11T15:49:09Z</time>
      </trkpt>
      <trkpt lat="45.19177" lon="5.56046">
        <ele>1203</ele>
        <time>2015-06-11T15:49:10Z</time>
      </trkpt>
      <trkpt lat="45.19176" lon="5.56045">
        <ele>1202.9</ele>
        <time>2015-06-11T15:49:11Z</time>
      </trkpt>
      <trkpt lat="45.19175" lon="5.56044">
        <ele>1202.9</ele>
        <time>2015-06-11T15:49:12Z</time>
      </trkpt>
      <trkpt lat="45.19174" lon="5.56043">
        <ele>1202.9</ele>
        <time>2015-06-11T15:49:13Z</time>
      </trkpt>
      <trkpt lat="45.19173" lon="5.56043">
        <ele>1202.9</ele>
        <time>2015-06-11T15:49:14Z</time>
      </trkpt>
      <trkpt lat="45.19173" lon="5.56042">
        <ele>1202.9</ele>
        <time>2015-06-11T15:49:15Z</time>
      </trkpt>
      <trkpt lat="45.19172" lon="5.56041">
        <ele>1202.8</ele>
        <time>2015-06-11T15:49:16Z</time>
      </trkpt>
      <trkpt lat="45.19171" lon="5.56041">
        <ele>1202.6</ele>
        <time>2015-06-11T15:49:17Z</time>
      </trkpt>
      <trkpt lat="45.1917" lon="5.5604">
        <ele>1202.5</ele>
        <time>2015-06-11T15:49:18Z</time>
      </trkpt>
      <trkpt lat="45.19169" lon="5.56039">
        <ele>1202.4</ele>
        <time>2015-06-11T15:49:19Z</time>
      </trkpt>
      <trkpt lat="45.19169" lon="5.56039">
        <ele>1202.4</ele>
        <time>2015-06-11T15:49:20Z</time>
      </trkpt>
      <trkpt lat="45.19169" lon="5.56038">
        <ele>1202.3</ele>
        <time>2015-06-11T15:49:21Z</time>
      </trkpt>
      <trkpt lat="45.19168" lon="5.56037">
        <ele>1202.2</ele>
        <time>2015-06-11T15:49:22Z</time>
      </trkpt>
      <trkpt lat="45.19166" lon="5.56037">
        <ele>1202</ele>
        <time>2015-06-11T15:49:23Z</time>
      </trkpt>
      <trkpt lat="45.19165" lon="5.56035">
        <ele>1201.8</ele>
        <time>2015-06-11T15:49:24Z</time>
      </trkpt>
      <trkpt lat="45.19163" lon="5.56034">
        <ele>1201.6</ele>
        <time>2015-06-11T15:49:25Z</time>
      </trkpt>
      <trkpt lat="45.19162" lon="5.56033">
        <ele>1201.4</ele>
        <time>2015-06-11T15:49:26Z</time>
      </trkpt>
      <trkpt lat="45.19161" lon="5.56032">
        <ele>1201.2</ele>
        <time>2015-06-11T15:49:27Z</time>
      </trkpt>
      <trkpt lat="45.19159" lon="5.5603">
        <ele>1201.1</ele>
        <time>2015-06-11T15:49:28Z</time>
      </trkpt>
      <trkpt lat="45.19157" lon="5.5603">
        <ele>1200.9</ele>
        <time>2015-06-11T15:49:29Z</time>
      </trkpt>
      <trkpt lat="45.19156" lon="5.56029">
        <ele>1200.8</ele>
        <time>2015-06-11T15:49:30Z</time>
      </trkpt>
      <trkpt lat="45.19154" lon="5.56028">
        <ele>1200.6</ele>
        <time>2015-06-11T15:49:31Z</time>
      </trkpt>
      <trkpt lat="45.19152" lon="5.56027">
        <ele>1200.4</ele>
        <time>2015-06-11T15:49:32Z</time>
      </trkpt>
      <trkpt lat="45.1915" lon="5.56027">
        <ele>1200.2</ele>
        <time>2015-06-11T15:49:33Z</time>
      </trkpt>
      <trkpt lat="45.19148" lon="5.56026">
        <ele>1200.1</ele>
        <time>2015-06-11T15:49:34Z</time>
      </trkpt>
      <trkpt lat="45.19146" lon="5.56025">
        <ele>1199.8</ele>
        <time>2015-06-11T15:49:35Z</time>
      </trkpt>
      <trkpt lat="45.19143" lon="5.56024">
        <ele>1199.6</ele>
        <time>2015-06-11T15:49:36Z</time>
      </trkpt>
      <trkpt lat="45.1914" lon="5.56023">
        <ele>1199.4</ele>
        <time>2015-06-11T15:49:37Z</time>
      </trkpt>
      <trkpt lat="45.19138" lon="5.56021">
        <ele>1199.2</ele>
        <time>2015-06-11T15:49:38Z</time>
      </trkpt>
      <trkpt lat="45.19135" lon="5.5602">
        <ele>1199</ele>
        <time>2015-06-11T15:49:39Z</time>
      </trkpt>
      <trkpt lat="45.19133" lon="5.56019">
        <ele>1198.8</ele>
        <time>2015-06-11T15:49:40Z</time>
      </trkpt>
      <trkpt lat="45.1913" lon="5.56018">
        <ele>1198.6</ele>
        <time>2015-06-11T15:49:41Z</time>
      </trkpt>
      <trkpt lat="45.19128" lon="5.56017">
        <ele>1198.4</ele>
        <time>2015-06-11T15:49:42Z</time>
      </trkpt>
      <trkpt lat="45.19126" lon="5.56016">
        <ele>1198.2</ele>
        <time>2015-06-11T15:49:43Z</time>
      </trkpt>
      <trkpt lat="45.19124" lon="5.56014">
        <ele>1197.9</ele>
        <time>2015-06-11T15:49:44Z</time>
      </trkpt>
      <trkpt lat="45.19122" lon="5.56013">
        <ele>1197.4</ele>
        <time>2015-06-11T15:49:45Z</time>
      </trkpt>
      <trkpt lat="45.1912" lon="5.56012">
        <ele>1197</ele>
        <time>2015-06-11T15:49:46Z</time>
      </trkpt>
      <trkpt lat="45.19118" lon="5.5601">
        <ele>1196.6</ele>
        <time>2015-06-11T15:49:47Z</time>
      </trkpt>
      <trkpt lat="45.19116" lon="5.56009">
        <ele>1196.2</ele>
        <time>2015-06-11T15:49:48Z</time>
      </trkpt>
      <trkpt lat="45.19115" lon="5.56008">
        <ele>1195.9</ele>
        <time>2015-06-11T15:49:49Z</time>
      </trkpt>
      <trkpt lat="45.19113" lon="5.56007">
        <ele>1195.6</ele>
        <time>2015-06-11T15:49:50Z</time>
      </trkpt>
      <trkpt lat="45.19111" lon="5.56007">
        <ele>1195.2</ele>
        <time>2015-06-11T15:49:51Z</time>
      </trkpt>
      <trkpt lat="45.19109" lon="5.56005">
        <ele>1194.8</ele>
        <time>2015-06-11T15:49:52Z</time>
      </trkpt>
      <trkpt lat="45.19106" lon="5.56004">
        <ele>1194.3</ele>
        <time>2015-06-11T15:49:53Z</time>
      </trkpt>
      <trkpt lat="45.19104" lon="5.56002">
        <ele>1193.9</ele>
        <time>2015-06-11T15:49:54Z</time>
      </trkpt>
      <trkpt lat="45.19103" lon="5.56001">
        <ele>1193.7</ele>
        <time>2015-06-11T15:49:55Z</time>
      </trkpt>
      <trkpt lat="45.19101" lon="5.56">
        <ele>1193.4</ele>
        <time>2015-06-11T15:49:56Z</time>
      </trkpt>
      <trkpt lat="45.191" lon="5.55999">
        <ele>1193.2</ele>
        <time>2015-06-11T15:49:57Z</time>
      </trkpt>
      <trkpt lat="45.19098" lon="5.55998">
        <ele>1192.9</ele>
        <time>2015-06-11T15:49:58Z</time>
      </trkpt>
      <trkpt lat="45.19097" lon="5.55996">
        <ele>1192.7</ele>
        <time>2015-06-11T15:49:59Z</time>
      </trkpt>
      <trkpt lat="45.19095" lon="5.55995">
        <ele>1192.3</ele>
        <time>2015-06-11T15:50:00Z</time>
      </trkpt>
      <trkpt lat="45.19092" lon="5.55993">
        <ele>1191.9</ele>
        <time>2015-06-11T15:50:01Z</time>
      </trkpt>
      <trkpt lat="45.1909" lon="5.55991">
        <ele>1191.6</ele>
        <time>2015-06-11T15:50:02Z</time>
      </trkpt>
      <trkpt lat="45.19088" lon="5.5599">
        <ele>1191.4</ele>
        <time>2015-06-11T15:50:03Z</time>
      </trkpt>
      <trkpt lat="45.19086" lon="5.55988">
        <ele>1191</ele>
        <time>2015-06-11T15:50:04Z</time>
      </trkpt>
      <trkpt lat="45.19083" lon="5.55985">
        <ele>1190.6</ele>
        <time>2015-06-11T15:50:05Z</time>
      </trkpt>
      <trkpt lat="45.1908" lon="5.55982">
        <ele>1190.2</ele>
        <time>2015-06-11T15:50:06Z</time>
      </trkpt>
      <trkpt lat="45.19078" lon="5.55979">
        <ele>1190</ele>
        <time>2015-06-11T15:50:07Z</time>
      </trkpt>
      <trkpt lat="45.19076" lon="5.55977">
        <ele>1189.8</ele>
        <time>2015-06-11T15:50:08Z</time>
      </trkpt>
      <trkpt lat="45.19074" lon="5.55976">
        <ele>1189.6</ele>
        <time>2015-06-11T15:50:09Z</time>
      </trkpt>
      <trkpt lat="45.19072" lon="5.55975">
        <ele>1189.4</ele>
        <time>2015-06-11T15:50:10Z</time>
      </trkpt>
      <trkpt lat="45.1907" lon="5.55973">
        <ele>1189.1</ele>
        <time>2015-06-11T15:50:11Z</time>
      </trkpt>
      <trkpt lat="45.19067" lon="5.55971">
        <ele>1188.9</ele>
        <time>2015-06-11T15:50:12Z</time>
      </trkpt>
      <trkpt lat="45.19066" lon="5.5597">
        <ele>1188.7</ele>
        <time>2015-06-11T15:50:13Z</time>
      </trkpt>
      <trkpt lat="45.19064" lon="5.55968">
        <ele>1188.6</ele>
        <time>2015-06-11T15:50:14Z</time>
      </trkpt>
      <trkpt lat="45.19061" lon="5.55966">
        <ele>1188.4</ele>
        <time>2015-06-11T15:50:15Z</time>
      </trkpt>
      <trkpt lat="45.19059" lon="5.55964">
        <ele>1188.3</ele>
        <time>2015-06-11T15:50:16Z</time>
      </trkpt>
      <trkpt lat="45.19058" lon="5.55963">
        <ele>1188.2</ele>
        <time>2015-06-11T15:50:17Z</time>
      </trkpt>
      <trkpt lat="45.19056" lon="5.55962">
        <ele>1188</ele>
        <time>2015-06-11T15:50:18Z</time>
      </trkpt>
      <trkpt lat="45.19053" lon="5.55961">
        <ele>1187.9</ele>
        <time>2015-06-11T15:50:19Z</time>
      </trkpt>
      <trkpt lat="45.1905" lon="5.55958">
        <ele>1187.7</ele>
        <time>2015-06-11T15:50:20Z</time>
      </trkpt>
      <trkpt lat="45.19047" lon="5.55956">
        <ele>1187.2</ele>
        <time>2015-06-11T15:50:21Z</time>
      </trkpt>
      <trkpt lat="45.19045" lon="5.55953">
        <ele>1186.9</ele>
        <time>2015-06-11T15:50:22Z</time>
      </trkpt>
      <trkpt lat="45.19043" lon="5.55952">
        <ele>1186.6</ele>
        <time>2015-06-11T15:50:23Z</time>
      </trkpt>
      <trkpt lat="45.19041" lon="5.55951">
        <ele>1186.4</ele>
        <time>2015-06-11T15:50:24Z</time>
      </trkpt>
      <trkpt lat="45.1904" lon="5.55949">
        <ele>1186</ele>
        <time>2015-06-11T15:50:25Z</time>
      </trkpt>
      <trkpt lat="45.19037" lon="5.55948">
        <ele>1185.4</ele>
        <time>2015-06-11T15:50:26Z</time>
      </trkpt>
      <trkpt lat="45.19035" lon="5.55946">
        <ele>1184.9</ele>
        <time>2015-06-11T15:50:27Z</time>
      </trkpt>
      <trkpt lat="45.19032" lon="5.55945">
        <ele>1184.3</ele>
        <time>2015-06-11T15:50:28Z</time>
      </trkpt>
      <trkpt lat="45.19029" lon="5.55943">
        <ele>1183.8</ele>
        <time>2015-06-11T15:50:29Z</time>
      </trkpt>
      <trkpt lat="45.19027" lon="5.55941">
        <ele>1183.2</ele>
        <time>2015-06-11T15:50:30Z</time>
      </trkpt>
      <trkpt lat="45.19024" lon="5.55939">
        <ele>1182.6</ele>
        <time>2015-06-11T15:50:31Z</time>
      </trkpt>
      <trkpt lat="45.19021" lon="5.55937">
        <ele>1182</ele>
        <time>2015-06-11T15:50:32Z</time>
      </trkpt>
      <trkpt lat="45.19019" lon="5.55936">
        <ele>1181.5</ele>
        <time>2015-06-11T15:50:33Z</time>
      </trkpt>
      <trkpt lat="45.19016" lon="5.55934">
        <ele>1181</ele>
        <time>2015-06-11T15:50:34Z</time>
      </trkpt>
      <trkpt lat="45.19014" lon="5.55933">
        <ele>1180.5</ele>
        <time>2015-06-11T15:50:35Z</time>
      </trkpt>
      <trkpt lat="45.19011" lon="5.5593">
        <ele>1180</ele>
        <time>2015-06-11T15:50:36Z</time>
      </trkpt>
      <trkpt lat="45.19009" lon="5.55928">
        <ele>1179.6</ele>
        <time>2015-06-11T15:50:37Z</time>
      </trkpt>
      <trkpt lat="45.19007" lon="5.55925">
        <ele>1179</ele>
        <time>2015-06-11T15:50:38Z</time>
      </trkpt>
      <trkpt lat="45.19005" lon="5.55922">
        <ele>1178.6</ele>
        <time>2015-06-11T15:50:39Z</time>
      </trkpt>
      <trkpt lat="45.19003" lon="5.55919">
        <ele>1178.1</ele>
        <time>2015-06-11T15:50:40Z</time>
      </trkpt>
      <trkpt lat="45.19001" lon="5.55916">
        <ele>1177.7</ele>
        <time>2015-06-11T15:50:41Z</time>
      </trkpt>
      <trkpt lat="45.19" lon="5.55913">
        <ele>1177.3</ele>
        <time>2015-06-11T15:50:42Z</time>
      </trkpt>
      <trkpt lat="45.18999" lon="5.5591">
        <ele>1177</ele>
        <time>2015-06-11T15:50:43Z</time>
      </trkpt>
      <trkpt lat="45.18997" lon="5.55908">
        <ele>1176.7</ele>
        <time>2015-06-11T15:50:44Z</time>
      </trkpt>
      <trkpt lat="45.18996" lon="5.55905">
        <ele>1176.3</ele>
        <time>2015-06-11T15:50:45Z</time>
      </trkpt>
      <trkpt lat="45.18993" lon="5.55902">
        <ele>1175.8</ele>
        <time>2015-06-11T15:50:46Z</time>
      </trkpt>
      <trkpt lat="45.18991" lon="5.559">
        <ele>1175.3</ele>
        <time>2015-06-11T15:50:47Z</time>
      </trkpt>
      <trkpt lat="45.18988" lon="5.55897">
        <ele>1174.9</ele>
        <time>2015-06-11T15:50:48Z</time>
      </trkpt>
      <trkpt lat="45.18987" lon="5.55896">
        <ele>1174.7</ele>
        <time>2015-06-11T15:50:49Z</time>
      </trkpt>
      <trkpt lat="45.18986" lon="5.55894">
        <ele>1174.4</ele>
        <time>2015-06-11T15:50:50Z</time>
      </trkpt>
      <trkpt lat="45.18984" lon="5.55894">
        <ele>1174</ele>
        <time>2015-06-11T15:50:51Z</time>
      </trkpt>
      <trkpt lat="45.18982" lon="5.55893">
        <ele>1173.7</ele>
        <time>2015-06-11T15:50:52Z</time>
      </trkpt>
      <trkpt lat="45.1898" lon="5.55892">
        <ele>1173.4</ele>
        <time>2015-06-11T15:50:53Z</time>
      </trkpt>
      <trkpt lat="45.18978" lon="5.5589">
        <ele>1173.1</ele>
        <time>2015-06-11T15:50:54Z</time>
      </trkpt>
      <trkpt lat="45.18976" lon="5.55889">
        <ele>1172.8</ele>
        <time>2015-06-11T15:50:55Z</time>
      </trkpt>
      <trkpt lat="45.18975" lon="5.55887">
        <ele>1172.6</ele>
        <time>2015-06-11T15:50:56Z</time>
      </trkpt>
      <trkpt lat="45.18973" lon="5.55884">
        <ele>1172.2</ele>
        <time>2015-06-11T15:50:57Z</time>
      </trkpt>
      <trkpt lat="45.18971" lon="5.55881">
        <ele>1171.9</ele>
        <time>2015-06-11T15:50:58Z</time>
      </trkpt>
      <trkpt lat="45.18969" lon="5.55879">
        <ele>1171.6</ele>
        <time>2015-06-11T15:50:59Z</time>
      </trkpt>
      <trkpt lat="45.18967" lon="5.55877">
        <ele>1171.2</ele>
        <time>2015-06-11T15:51:00Z</time>
      </trkpt>
      <trkpt lat="45.18965" lon="5.55875">
        <ele>1170.9</ele>
        <time>2015-06-11T15:51:01Z</time>
      </trkpt>
      <trkpt lat="45.18963" lon="5.55873">
        <ele>1170.5</ele>
        <time>2015-06-11T15:51:02Z</time>
      </trkpt>
      <trkpt lat="45.18961" lon="5.55871">
        <ele>1170.1</ele>
        <time>2015-06-11T15:51:03Z</time>
      </trkpt>
      <trkpt lat="45.18959" lon="5.55869">
        <ele>1169.7</ele>
        <time>2015-06-11T15:51:04Z</time>
      </trkpt>
      <trkpt lat="45.18957" lon="5.55867">
        <ele>1169.3</ele>
        <time>2015-06-11T15:51:05Z</time>
      </trkpt>
      <trkpt lat="45.18956" lon="5.55866">
        <ele>1169</ele>
        <time>2015-06-11T15:51:06Z</time>
      </trkpt>
      <trkpt lat="45.18955" lon="5.55865">
        <ele>1168.8</ele>
        <time>2015-06-11T15:51:07Z</time>
      </trkpt>
      <trkpt lat="45.18953" lon="5.55862">
        <ele>1168.3</ele>
        <time>2015-06-11T15:51:08Z</time>
      </trkpt>
      <trkpt lat="45.18951" lon="5.55859">
        <ele>1167.9</ele>
        <time>2015-06-11T15:51:09Z</time>
      </trkpt>
      <trkpt lat="45.18949" lon="5.55856">
        <ele>1167.6</ele>
        <time>2015-06-11T15:51:10Z</time>
      </trkpt>
      <trkpt lat="45.18948" lon="5.55854">
        <ele>1167.4</ele>
        <time>2015-06-11T15:51:11Z</time>
      </trkpt>
      <trkpt lat="45.18948" lon="5.55852">
        <ele>1167.4</ele>
        <time>2015-06-11T15:51:12Z</time>
      </trkpt>
      <trkpt lat="45.18949" lon="5.55849">
        <ele>1167.3</ele>
        <time>2015-06-11T15:51:13Z</time>
      </trkpt>
      <trkpt lat="45.18951" lon="5.55847">
        <ele>1167.4</ele>
        <time>2015-06-11T15:51:14Z</time>
      </trkpt>
      <trkpt lat="45.18952" lon="5.55844">
        <ele>1167.5</ele>
        <time>2015-06-11T15:51:15Z</time>
      </trkpt>
      <trkpt lat="45.18953" lon="5.55843">
        <ele>1167.5</ele>
        <time>2015-06-11T15:51:16Z</time>
      </trkpt>
      <trkpt lat="45.18954" lon="5.55842">
        <ele>1167.5</ele>
        <time>2015-06-11T15:51:17Z</time>
      </trkpt>
      <trkpt lat="45.18954" lon="5.55842">
        <ele>1167.5</ele>
        <time>2015-06-11T15:51:18Z</time>
      </trkpt>
      <trkpt lat="45.18954" lon="5.55841">
        <ele>1167.5</ele>
        <time>2015-06-11T15:51:19Z</time>
      </trkpt>
      <trkpt lat="45.18955" lon="5.5584">
        <ele>1167.5</ele>
        <time>2015-06-11T15:51:20Z</time>
      </trkpt>
      <trkpt lat="45.18956" lon="5.5584">
        <ele>1167.6</ele>
        <time>2015-06-11T15:51:21Z</time>
      </trkpt>
      <trkpt lat="45.18957" lon="5.55839">
        <ele>1167.7</ele>
        <time>2015-06-11T15:51:22Z</time>
      </trkpt>
      <trkpt lat="45.18958" lon="5.55838">
        <ele>1167.8</ele>
        <time>2015-06-11T15:51:23Z</time>
      </trkpt>
      <trkpt lat="45.18959" lon="5.55837">
        <ele>1167.8</ele>
        <time>2015-06-11T15:51:24Z</time>
      </trkpt>
      <trkpt lat="45.18959" lon="5.55837">
        <ele>1167.8</ele>
        <time>2015-06-11T15:51:25Z</time>
      </trkpt>
      <trkpt lat="45.1896" lon="5.55836">
        <ele>1167.8</ele>
        <time>2015-06-11T15:51:26Z</time>
      </trkpt>
      <trkpt lat="45.18961" lon="5.55835">
        <ele>1167.8</ele>
        <time>2015-06-11T15:51:27Z</time>
      </trkpt>
      <trkpt lat="45.18961" lon="5.55833">
        <ele>1167.8</ele>
        <time>2015-06-11T15:51:29Z</time>
      </trkpt>
      <trkpt lat="45.18961" lon="5.55831">
        <ele>1167.7</ele>
        <time>2015-06-11T15:51:30Z</time>
      </trkpt>
      <trkpt lat="45.18962" lon="5.55829">
        <ele>1167.7</ele>
        <time>2015-06-11T15:51:31Z</time>
      </trkpt>
      <trkpt lat="45.18962" lon="5.55829">
        <ele>1167.7</ele>
        <time>2015-06-11T15:51:32Z</time>
      </trkpt>
      <trkpt lat="45.18962" lon="5.55829">
        <ele>1167.6</ele>
        <time>2015-06-11T15:51:33Z</time>
      </trkpt>
      <trkpt lat="45.18962" lon="5.55828">
        <ele>1167.6</ele>
        <time>2015-06-11T15:51:34Z</time>
      </trkpt>
      <trkpt lat="45.18962" lon="5.55827">
        <ele>1167.5</ele>
        <time>2015-06-11T15:51:35Z</time>
      </trkpt>
      <trkpt lat="45.18962" lon="5.55826">
        <ele>1167.4</ele>
        <time>2015-06-11T15:51:36Z</time>
      </trkpt>
      <trkpt lat="45.18962" lon="5.55824">
        <ele>1167.4</ele>
        <time>2015-06-11T15:51:37Z</time>
      </trkpt>
      <trkpt lat="45.18963" lon="5.55822">
        <ele>1167.3</ele>
        <time>2015-06-11T15:51:38Z</time>
      </trkpt>
      <trkpt lat="45.18963" lon="5.5582">
        <ele>1167.2</ele>
        <time>2015-06-11T15:51:39Z</time>
      </trkpt>
      <trkpt lat="45.18964" lon="5.55817">
        <ele>1167.2</ele>
        <time>2015-06-11T15:51:40Z</time>
      </trkpt>
      <trkpt lat="45.18965" lon="5.55815">
        <ele>1167.1</ele>
        <time>2015-06-11T15:51:41Z</time>
      </trkpt>
      <trkpt lat="45.18967" lon="5.55813">
        <ele>1167.2</ele>
        <time>2015-06-11T15:51:42Z</time>
      </trkpt>
      <trkpt lat="45.18968" lon="5.55811">
        <ele>1167.3</ele>
        <time>2015-06-11T15:51:43Z</time>
      </trkpt>
      <trkpt lat="45.1897" lon="5.5581">
        <ele>1167.4</ele>
        <time>2015-06-11T15:51:44Z</time>
      </trkpt>
      <trkpt lat="45.18972" lon="5.55809">
        <ele>1167.6</ele>
        <time>2015-06-11T15:51:45Z</time>
      </trkpt>
      <trkpt lat="45.18974" lon="5.55807">
        <ele>1167.6</ele>
        <time>2015-06-11T15:51:46Z</time>
      </trkpt>
      <trkpt lat="45.18975" lon="5.55805">
        <ele>1167.7</ele>
        <time>2015-06-11T15:51:47Z</time>
      </trkpt>
      <trkpt lat="45.18977" lon="5.55804">
        <ele>1167.8</ele>
        <time>2015-06-11T15:51:48Z</time>
      </trkpt>
      <trkpt lat="45.18979" lon="5.55802">
        <ele>1167.9</ele>
        <time>2015-06-11T15:51:49Z</time>
      </trkpt>
      <trkpt lat="45.18981" lon="5.55801">
        <ele>1168.1</ele>
        <time>2015-06-11T15:51:50Z</time>
      </trkpt>
      <trkpt lat="45.18983" lon="5.558">
        <ele>1168.2</ele>
        <time>2015-06-11T15:51:51Z</time>
      </trkpt>
      <trkpt lat="45.18985" lon="5.55799">
        <ele>1168.3</ele>
        <time>2015-06-11T15:51:52Z</time>
      </trkpt>
      <trkpt lat="45.18987" lon="5.55798">
        <ele>1168.4</ele>
        <time>2015-06-11T15:51:53Z</time>
      </trkpt>
      <trkpt lat="45.18988" lon="5.55797">
        <ele>1168.6</ele>
        <time>2015-06-11T15:51:54Z</time>
      </trkpt>
      <trkpt lat="45.1899" lon="5.55795">
        <ele>1168.7</ele>
        <time>2015-06-11T15:51:55Z</time>
      </trkpt>
      <trkpt lat="45.18993" lon="5.55794">
        <ele>1168.9</ele>
        <time>2015-06-11T15:51:56Z</time>
      </trkpt>
      <trkpt lat="45.18995" lon="5.55793">
        <ele>1169</ele>
        <time>2015-06-11T15:51:57Z</time>
      </trkpt>
      <trkpt lat="45.18997" lon="5.55792">
        <ele>1169.2</ele>
        <time>2015-06-11T15:51:58Z</time>
      </trkpt>
      <trkpt lat="45.18999" lon="5.55791">
        <ele>1169.4</ele>
        <time>2015-06-11T15:51:59Z</time>
      </trkpt>
      <trkpt lat="45.19001" lon="5.5579">
        <ele>1169.6</ele>
        <time>2015-06-11T15:52:00Z</time>
      </trkpt>
      <trkpt lat="45.19003" lon="5.55788">
        <ele>1169.8</ele>
        <time>2015-06-11T15:52:01Z</time>
      </trkpt>
      <trkpt lat="45.19005" lon="5.55787">
        <ele>1169.9</ele>
        <time>2015-06-11T15:52:02Z</time>
      </trkpt>
      <trkpt lat="45.19007" lon="5.55786">
        <ele>1170.1</ele>
        <time>2015-06-11T15:52:03Z</time>
      </trkpt>
      <trkpt lat="45.1901" lon="5.55786">
        <ele>1170.4</ele>
        <time>2015-06-11T15:52:04Z</time>
      </trkpt>
      <trkpt lat="45.19012" lon="5.55786">
        <ele>1170.6</ele>
        <time>2015-06-11T15:52:05Z</time>
      </trkpt>
      <trkpt lat="45.19014" lon="5.55785">
        <ele>1170.8</ele>
        <time>2015-06-11T15:52:06Z</time>
      </trkpt>
      <trkpt lat="45.19017" lon="5.55784">
        <ele>1171</ele>
        <time>2015-06-11T15:52:07Z</time>
      </trkpt>
      <trkpt lat="45.19019" lon="5.55783">
        <ele>1171.2</ele>
        <time>2015-06-11T15:52:08Z</time>
      </trkpt>
      <trkpt lat="45.19021" lon="5.55782">
        <ele>1171.3</ele>
        <time>2015-06-11T15:52:09Z</time>
      </trkpt>
      <trkpt lat="45.19023" lon="5.55781">
        <ele>1171.5</ele>
        <time>2015-06-11T15:52:10Z</time>
      </trkpt>
      <trkpt lat="45.19025" lon="5.5578">
        <ele>1171.7</ele>
        <time>2015-06-11T15:52:11Z</time>
      </trkpt>
      <trkpt lat="45.19028" lon="5.55779">
        <ele>1171.8</ele>
        <time>2015-06-11T15:52:12Z</time>
      </trkpt>
      <trkpt lat="45.1903" lon="5.55778">
        <ele>1171.9</ele>
        <time>2015-06-11T15:52:13Z</time>
      </trkpt>
      <trkpt lat="45.19031" lon="5.55777">
        <ele>1172</ele>
        <time>2015-06-11T15:52:14Z</time>
      </trkpt>
      <trkpt lat="45.19033" lon="5.55776">
        <ele>1172.1</ele>
        <time>2015-06-11T15:52:15Z</time>
      </trkpt>
      <trkpt lat="45.19035" lon="5.55775">
        <ele>1172.2</ele>
        <time>2015-06-11T15:52:16Z</time>
      </trkpt>
      <trkpt lat="45.19037" lon="5.55773">
        <ele>1172.3</ele>
        <time>2015-06-11T15:52:17Z</time>
      </trkpt>
      <trkpt lat="45.19039" lon="5.55772">
        <ele>1172.3</ele>
        <time>2015-06-11T15:52:18Z</time>
      </trkpt>
      <trkpt lat="45.19042" lon="5.5577">
        <ele>1172.5</ele>
        <time>2015-06-11T15:52:19Z</time>
      </trkpt>
      <trkpt lat="45.19044" lon="5.55768">
        <ele>1172.4</ele>
        <time>2015-06-11T15:52:20Z</time>
      </trkpt>
      <trkpt lat="45.19046" lon="5.55766">
        <ele>1172.3</ele>
        <time>2015-06-11T15:52:21Z</time>
      </trkpt>
      <trkpt lat="45.19048" lon="5.55764">
        <ele>1172.2</ele>
        <time>2015-06-11T15:52:22Z</time>
      </trkpt>
      <trkpt lat="45.1905" lon="5.55763">
        <ele>1172.1</ele>
        <time>2015-06-11T15:52:23Z</time>
      </trkpt>
      <trkpt lat="45.19052" lon="5.55762">
        <ele>1172.1</ele>
        <time>2015-06-11T15:52:24Z</time>
      </trkpt>
      <trkpt lat="45.19054" lon="5.55761">
        <ele>1172.1</ele>
        <time>2015-06-11T15:52:25Z</time>
      </trkpt>
      <trkpt lat="45.19057" lon="5.5576">
        <ele>1172.1</ele>
        <time>2015-06-11T15:52:26Z</time>
      </trkpt>
      <trkpt lat="45.1906" lon="5.55759">
        <ele>1172</ele>
        <time>2015-06-11T15:52:27Z</time>
      </trkpt>
      <trkpt lat="45.19063" lon="5.55756">
        <ele>1171.9</ele>
        <time>2015-06-11T15:52:28Z</time>
      </trkpt>
      <trkpt lat="45.19065" lon="5.55754">
        <ele>1171.8</ele>
        <time>2015-06-11T15:52:29Z</time>
      </trkpt>
      <trkpt lat="45.19067" lon="5.55753">
        <ele>1171.7</ele>
        <time>2015-06-11T15:52:30Z</time>
      </trkpt>
      <trkpt lat="45.19069" lon="5.55751">
        <ele>1171.6</ele>
        <time>2015-06-11T15:52:31Z</time>
      </trkpt>
      <trkpt lat="45.1907" lon="5.5575">
        <ele>1171.5</ele>
        <time>2015-06-11T15:52:32Z</time>
      </trkpt>
      <trkpt lat="45.19072" lon="5.55749">
        <ele>1171.4</ele>
        <time>2015-06-11T15:52:33Z</time>
      </trkpt>
      <trkpt lat="45.19074" lon="5.55748">
        <ele>1171.4</ele>
        <time>2015-06-11T15:52:34Z</time>
      </trkpt>
      <trkpt lat="45.19077" lon="5.55747">
        <ele>1171.4</ele>
        <time>2015-06-11T15:52:35Z</time>
      </trkpt>
      <trkpt lat="45.19078" lon="5.55746">
        <ele>1171.3</ele>
        <time>2015-06-11T15:52:36Z</time>
      </trkpt>
      <trkpt lat="45.1908" lon="5.55744">
        <ele>1171.2</ele>
        <time>2015-06-11T15:52:37Z</time>
      </trkpt>
      <trkpt lat="45.19082" lon="5.55742">
        <ele>1171</ele>
        <time>2015-06-11T15:52:38Z</time>
      </trkpt>
      <trkpt lat="45.19084" lon="5.5574">
        <ele>1170.8</ele>
        <time>2015-06-11T15:52:39Z</time>
      </trkpt>
      <trkpt lat="45.19087" lon="5.55738">
        <ele>1170.7</ele>
        <time>2015-06-11T15:52:40Z</time>
      </trkpt>
      <trkpt lat="45.19088" lon="5.55737">
        <ele>1170.6</ele>
        <time>2015-06-11T15:52:41Z</time>
      </trkpt>
      <trkpt lat="45.1909" lon="5.55735">
        <ele>1170.5</ele>
        <time>2015-06-11T15:52:42Z</time>
      </trkpt>
      <trkpt lat="45.19093" lon="5.55733">
        <ele>1170.3</ele>
        <time>2015-06-11T15:52:43Z</time>
      </trkpt>
      <trkpt lat="45.19095" lon="5.55732">
        <ele>1170.2</ele>
        <time>2015-06-11T15:52:44Z</time>
      </trkpt>
      <trkpt lat="45.19096" lon="5.55731">
        <ele>1170.2</ele>
        <time>2015-06-11T15:52:45Z</time>
      </trkpt>
      <trkpt lat="45.19098" lon="5.5573">
        <ele>1170.1</ele>
        <time>2015-06-11T15:52:46Z</time>
      </trkpt>
      <trkpt lat="45.191" lon="5.55729">
        <ele>1170</ele>
        <time>2015-06-11T15:52:47Z</time>
      </trkpt>
      <trkpt lat="45.19103" lon="5.55727">
        <ele>1169.8</ele>
        <time>2015-06-11T15:52:48Z</time>
      </trkpt>
      <trkpt lat="45.19105" lon="5.55725">
        <ele>1169.6</ele>
        <time>2015-06-11T15:52:49Z</time>
      </trkpt>
      <trkpt lat="45.19107" lon="5.55723">
        <ele>1169.5</ele>
        <time>2015-06-11T15:52:50Z</time>
      </trkpt>
      <trkpt lat="45.19109" lon="5.55721">
        <ele>1169.3</ele>
        <time>2015-06-11T15:52:51Z</time>
      </trkpt>
      <trkpt lat="45.19111" lon="5.55719">
        <ele>1169.1</ele>
        <time>2015-06-11T15:52:52Z</time>
      </trkpt>
      <trkpt lat="45.19113" lon="5.55717">
        <ele>1168.9</ele>
        <time>2015-06-11T15:52:53Z</time>
      </trkpt>
      <trkpt lat="45.19115" lon="5.55715">
        <ele>1168.7</ele>
        <time>2015-06-11T15:52:54Z</time>
      </trkpt>
      <trkpt lat="45.19118" lon="5.55713">
        <ele>1168.5</ele>
        <time>2015-06-11T15:52:55Z</time>
      </trkpt>
      <trkpt lat="45.1912" lon="5.55712">
        <ele>1168.4</ele>
        <time>2015-06-11T15:52:56Z</time>
      </trkpt>
      <trkpt lat="45.19122" lon="5.55712">
        <ele>1168.3</ele>
        <time>2015-06-11T15:52:57Z</time>
      </trkpt>
      <trkpt lat="45.19125" lon="5.55711">
        <ele>1168.2</ele>
        <time>2015-06-11T15:52:58Z</time>
      </trkpt>
      <trkpt lat="45.19127" lon="5.55709">
        <ele>1168.3</ele>
        <time>2015-06-11T15:52:59Z</time>
      </trkpt>
      <trkpt lat="45.19129" lon="5.55707">
        <ele>1168.4</ele>
        <time>2015-06-11T15:53:00Z</time>
      </trkpt>
      <trkpt lat="45.19132" lon="5.55706">
        <ele>1168.6</ele>
        <time>2015-06-11T15:53:01Z</time>
      </trkpt>
      <trkpt lat="45.19135" lon="5.55705">
        <ele>1168.9</ele>
        <time>2015-06-11T15:53:02Z</time>
      </trkpt>
      <trkpt lat="45.19138" lon="5.55704">
        <ele>1169.1</ele>
        <time>2015-06-11T15:53:03Z</time>
      </trkpt>
      <trkpt lat="45.1914" lon="5.55703">
        <ele>1169.3</ele>
        <time>2015-06-11T15:53:04Z</time>
      </trkpt>
      <trkpt lat="45.19143" lon="5.55702">
        <ele>1169.5</ele>
        <time>2015-06-11T15:53:05Z</time>
      </trkpt>
      <trkpt lat="45.19145" lon="5.557">
        <ele>1169.7</ele>
        <time>2015-06-11T15:53:06Z</time>
      </trkpt>
      <trkpt lat="45.19148" lon="5.557">
        <ele>1170</ele>
        <time>2015-06-11T15:53:07Z</time>
      </trkpt>
      <trkpt lat="45.19151" lon="5.55699">
        <ele>1170.3</ele>
        <time>2015-06-11T15:53:08Z</time>
      </trkpt>
      <trkpt lat="45.19153" lon="5.55699">
        <ele>1170.5</ele>
        <time>2015-06-11T15:53:09Z</time>
      </trkpt>
      <trkpt lat="45.19156" lon="5.55699">
        <ele>1170.8</ele>
        <time>2015-06-11T15:53:10Z</time>
      </trkpt>
      <trkpt lat="45.19158" lon="5.55699">
        <ele>1171</ele>
        <time>2015-06-11T15:53:11Z</time>
      </trkpt>
      <trkpt lat="45.1916" lon="5.55698">
        <ele>1171.2</ele>
        <time>2015-06-11T15:53:12Z</time>
      </trkpt>
      <trkpt lat="45.19162" lon="5.55698">
        <ele>1171.4</ele>
        <time>2015-06-11T15:53:13Z</time>
      </trkpt>
      <trkpt lat="45.19164" lon="5.55698">
        <ele>1171.6</ele>
        <time>2015-06-11T15:53:14Z</time>
      </trkpt>
      <trkpt lat="45.19167" lon="5.55697">
        <ele>1171.9</ele>
        <time>2015-06-11T15:53:15Z</time>
      </trkpt>
      <trkpt lat="45.19169" lon="5.55696">
        <ele>1172</ele>
        <time>2015-06-11T15:53:16Z</time>
      </trkpt>
      <trkpt lat="45.19171" lon="5.55695">
        <ele>1172.3</ele>
        <time>2015-06-11T15:53:17Z</time>
      </trkpt>
      <trkpt lat="45.19173" lon="5.55694">
        <ele>1172.5</ele>
        <time>2015-06-11T15:53:18Z</time>
      </trkpt>
      <trkpt lat="45.19176" lon="5.55693">
        <ele>1172.8</ele>
        <time>2015-06-11T15:53:19Z</time>
      </trkpt>
      <trkpt lat="45.19178" lon="5.55693">
        <ele>1173</ele>
        <time>2015-06-11T15:53:20Z</time>
      </trkpt>
      <trkpt lat="45.19181" lon="5.55692">
        <ele>1173.4</ele>
        <time>2015-06-11T15:53:21Z</time>
      </trkpt>
      <trkpt lat="45.19184" lon="5.55691">
        <ele>1173.6</ele>
        <time>2015-06-11T15:53:22Z</time>
      </trkpt>
      <trkpt lat="45.19187" lon="5.55691">
        <ele>1173.9</ele>
        <time>2015-06-11T15:53:23Z</time>
      </trkpt>
      <trkpt lat="45.1919" lon="5.5569">
        <ele>1174.3</ele>
        <time>2015-06-11T15:53:24Z</time>
      </trkpt>
      <trkpt lat="45.19192" lon="5.55689">
        <ele>1174.5</ele>
        <time>2015-06-11T15:53:25Z</time>
      </trkpt>
      <trkpt lat="45.19195" lon="5.55689">
        <ele>1174.8</ele>
        <time>2015-06-11T15:53:26Z</time>
      </trkpt>
      <trkpt lat="45.19197" lon="5.55688">
        <ele>1175</ele>
        <time>2015-06-11T15:53:27Z</time>
      </trkpt>
      <trkpt lat="45.192" lon="5.55688">
        <ele>1175.3</ele>
        <time>2015-06-11T15:53:28Z</time>
      </trkpt>
      <trkpt lat="45.19203" lon="5.55688">
        <ele>1175.6</ele>
        <time>2015-06-11T15:53:29Z</time>
      </trkpt>
      <trkpt lat="45.19205" lon="5.55687">
        <ele>1175.9</ele>
        <time>2015-06-11T15:53:30Z</time>
      </trkpt>
      <trkpt lat="45.19207" lon="5.55687">
        <ele>1176.1</ele>
        <time>2015-06-11T15:53:31Z</time>
      </trkpt>
      <trkpt lat="45.19209" lon="5.55687">
        <ele>1176.3</ele>
        <time>2015-06-11T15:53:32Z</time>
      </trkpt>
      <trkpt lat="45.19211" lon="5.55687">
        <ele>1176.5</ele>
        <time>2015-06-11T15:53:33Z</time>
      </trkpt>
      <trkpt lat="45.19214" lon="5.55686">
        <ele>1176.7</ele>
        <time>2015-06-11T15:53:34Z</time>
      </trkpt>
      <trkpt lat="45.19216" lon="5.55686">
        <ele>1176.9</ele>
        <time>2015-06-11T15:53:35Z</time>
      </trkpt>
      <trkpt lat="45.19218" lon="5.55686">
        <ele>1177.1</ele>
        <time>2015-06-11T15:53:36Z</time>
      </trkpt>
      <trkpt lat="45.1922" lon="5.55685">
        <ele>1177.3</ele>
        <time>2015-06-11T15:53:37Z</time>
      </trkpt>
      <trkpt lat="45.19222" lon="5.55685">
        <ele>1177.5</ele>
        <time>2015-06-11T15:53:38Z</time>
      </trkpt>
      <trkpt lat="45.19224" lon="5.55684">
        <ele>1177.7</ele>
        <time>2015-06-11T15:53:39Z</time>
      </trkpt>
      <trkpt lat="45.19227" lon="5.55684">
        <ele>1178</ele>
        <time>2015-06-11T15:53:40Z</time>
      </trkpt>
      <trkpt lat="45.1923" lon="5.55683">
        <ele>1178.2</ele>
        <time>2015-06-11T15:53:41Z</time>
      </trkpt>
      <trkpt lat="45.19232" lon="5.55682">
        <ele>1178.5</ele>
        <time>2015-06-11T15:53:42Z</time>
      </trkpt>
      <trkpt lat="45.19234" lon="5.55681">
        <ele>1178.7</ele>
        <time>2015-06-11T15:53:43Z</time>
      </trkpt>
      <trkpt lat="45.19236" lon="5.55681">
        <ele>1178.9</ele>
        <time>2015-06-11T15:53:44Z</time>
      </trkpt>
      <trkpt lat="45.19239" lon="5.55681">
        <ele>1179.1</ele>
        <time>2015-06-11T15:53:45Z</time>
      </trkpt>
      <trkpt lat="45.19241" lon="5.5568">
        <ele>1179.3</ele>
        <time>2015-06-11T15:53:46Z</time>
      </trkpt>
      <trkpt lat="45.19243" lon="5.5568">
        <ele>1179.5</ele>
        <time>2015-06-11T15:53:47Z</time>
      </trkpt>
      <trkpt lat="45.19245" lon="5.55681">
        <ele>1179.7</ele>
        <time>2015-06-11T15:53:48Z</time>
      </trkpt>
      <trkpt lat="45.19247" lon="5.5568">
        <ele>1179.9</ele>
        <time>2015-06-11T15:53:49Z</time>
      </trkpt>
      <trkpt lat="45.19249" lon="5.55679">
        <ele>1180.1</ele>
        <time>2015-06-11T15:53:50Z</time>
      </trkpt>
      <trkpt lat="45.19252" lon="5.55678">
        <ele>1180.4</ele>
        <time>2015-06-11T15:53:51Z</time>
      </trkpt>
      <trkpt lat="45.19254" lon="5.55678">
        <ele>1180.6</ele>
        <time>2015-06-11T15:53:52Z</time>
      </trkpt>
      <trkpt lat="45.19255" lon="5.55678">
        <ele>1180.7</ele>
        <time>2015-06-11T15:53:53Z</time>
      </trkpt>
      <trkpt lat="45.19258" lon="5.55678">
        <ele>1181</ele>
        <time>2015-06-11T15:53:54Z</time>
      </trkpt>
      <trkpt lat="45.1926" lon="5.55677">
        <ele>1181.2</ele>
        <time>2015-06-11T15:53:55Z</time>
      </trkpt>
      <trkpt lat="45.19262" lon="5.55677">
        <ele>1181.4</ele>
        <time>2015-06-11T15:53:56Z</time>
      </trkpt>
      <trkpt lat="45.19265" lon="5.55676">
        <ele>1181.6</ele>
        <time>2015-06-11T15:53:57Z</time>
      </trkpt>
      <trkpt lat="45.19267" lon="5.55675">
        <ele>1181.9</ele>
        <time>2015-06-11T15:53:58Z</time>
      </trkpt>
      <trkpt lat="45.19269" lon="5.55675">
        <ele>1182.1</ele>
        <time>2015-06-11T15:53:59Z</time>
      </trkpt>
      <trkpt lat="45.19271" lon="5.55674">
        <ele>1182.3</ele>
        <time>2015-06-11T15:54:00Z</time>
      </trkpt>
      <trkpt lat="45.19273" lon="5.55673">
        <ele>1182.5</ele>
        <time>2015-06-11T15:54:01Z</time>
      </trkpt>
      <trkpt lat="45.19274" lon="5.55673">
        <ele>1182.6</ele>
        <time>2015-06-11T15:54:02Z</time>
      </trkpt>
      <trkpt lat="45.19276" lon="5.55672">
        <ele>1182.8</ele>
        <time>2015-06-11T15:54:03Z</time>
      </trkpt>
      <trkpt lat="45.19278" lon="5.55672">
        <ele>1183</ele>
        <time>2015-06-11T15:54:04Z</time>
      </trkpt>
      <trkpt lat="45.1928" lon="5.55671">
        <ele>1183.2</ele>
        <time>2015-06-11T15:54:05Z</time>
      </trkpt>
      <trkpt lat="45.19282" lon="5.55671">
        <ele>1183.4</ele>
        <time>2015-06-11T15:54:06Z</time>
      </trkpt>
      <trkpt lat="45.19284" lon="5.55671">
        <ele>1183.7</ele>
        <time>2015-06-11T15:54:07Z</time>
      </trkpt>
      <trkpt lat="45.19287" lon="5.55671">
        <ele>1183.9</ele>
        <time>2015-06-11T15:54:08Z</time>
      </trkpt>
      <trkpt lat="45.19289" lon="5.55671">
        <ele>1184.1</ele>
        <time>2015-06-11T15:54:09Z</time>
      </trkpt>
      <trkpt lat="45.19291" lon="5.5567">
        <ele>1184.3</ele>
        <time>2015-06-11T15:54:10Z</time>
      </trkpt>
      <trkpt lat="45.19293" lon="5.5567">
        <ele>1184.5</ele>
        <time>2015-06-11T15:54:11Z</time>
      </trkpt>
      <trkpt lat="45.19295" lon="5.5567">
        <ele>1184.6</ele>
        <time>2015-06-11T15:54:12Z</time>
      </trkpt>
      <trkpt lat="45.19297" lon="5.5567">
        <ele>1184.7</ele>
        <time>2015-06-11T15:54:13Z</time>
      </trkpt>
      <trkpt lat="45.19299" lon="5.55669">
        <ele>1184.8</ele>
        <time>2015-06-11T15:54:14Z</time>
      </trkpt>
      <trkpt lat="45.19301" lon="5.55669">
        <ele>1184.9</ele>
        <time>2015-06-11T15:54:15Z</time>
      </trkpt>
      <trkpt lat="45.19303" lon="5.5567">
        <ele>1185</ele>
        <time>2015-06-11T15:54:16Z</time>
      </trkpt>
      <trkpt lat="45.19305" lon="5.5567">
        <ele>1185.1</ele>
        <time>2015-06-11T15:54:17Z</time>
      </trkpt>
      <trkpt lat="45.19308" lon="5.5567">
        <ele>1185.3</ele>
        <time>2015-06-11T15:54:18Z</time>
      </trkpt>
      <trkpt lat="45.1931" lon="5.55669">
        <ele>1185.4</ele>
        <time>2015-06-11T15:54:19Z</time>
      </trkpt>
      <trkpt lat="45.19313" lon="5.55668">
        <ele>1185.6</ele>
        <time>2015-06-11T15:54:20Z</time>
      </trkpt>
      <trkpt lat="45.19315" lon="5.55668">
        <ele>1185.7</ele>
        <time>2015-06-11T15:54:21Z</time>
      </trkpt>
      <trkpt lat="45.19318" lon="5.55667">
        <ele>1185.9</ele>
        <time>2015-06-11T15:54:22Z</time>
      </trkpt>
      <trkpt lat="45.1932" lon="5.55667">
        <ele>1186</ele>
        <time>2015-06-11T15:54:23Z</time>
      </trkpt>
      <trkpt lat="45.19323" lon="5.55667">
        <ele>1186.2</ele>
        <time>2015-06-11T15:54:24Z</time>
      </trkpt>
      <trkpt lat="45.19325" lon="5.55667">
        <ele>1186.3</ele>
        <time>2015-06-11T15:54:25Z</time>
      </trkpt>
      <trkpt lat="45.19327" lon="5.55667">
        <ele>1186.4</ele>
        <time>2015-06-11T15:54:26Z</time>
      </trkpt>
      <trkpt lat="45.1933" lon="5.55667">
        <ele>1186.5</ele>
        <time>2015-06-11T15:54:27Z</time>
      </trkpt>
      <trkpt lat="45.19332" lon="5.55667">
        <ele>1186.6</ele>
        <time>2015-06-11T15:54:28Z</time>
      </trkpt>
      <trkpt lat="45.19334" lon="5.55667">
        <ele>1186.7</ele>
        <time>2015-06-11T15:54:29Z</time>
      </trkpt>
      <trkpt lat="45.19336" lon="5.55667">
        <ele>1186.9</ele>
        <time>2015-06-11T15:54:30Z</time>
      </trkpt>
      <trkpt lat="45.19338" lon="5.55668">
        <ele>1186.9</ele>
        <time>2015-06-11T15:54:31Z</time>
      </trkpt>
      <trkpt lat="45.1934" lon="5.55668">
        <ele>1187</ele>
        <time>2015-06-11T15:54:32Z</time>
      </trkpt>
      <trkpt lat="45.19342" lon="5.55668">
        <ele>1187.1</ele>
        <time>2015-06-11T15:54:33Z</time>
      </trkpt>
      <trkpt lat="45.19344" lon="5.55669">
        <ele>1187.2</ele>
        <time>2015-06-11T15:54:34Z</time>
      </trkpt>
      <trkpt lat="45.19346" lon="5.5567">
        <ele>1187.2</ele>
        <time>2015-06-11T15:54:35Z</time>
      </trkpt>
      <trkpt lat="45.19348" lon="5.5567">
        <ele>1187.3</ele>
        <time>2015-06-11T15:54:36Z</time>
      </trkpt>
      <trkpt lat="45.1935" lon="5.55672">
        <ele>1187.4</ele>
        <time>2015-06-11T15:54:37Z</time>
      </trkpt>
      <trkpt lat="45.19353" lon="5.55673">
        <ele>1187.4</ele>
        <time>2015-06-11T15:54:38Z</time>
      </trkpt>
      <trkpt lat="45.19355" lon="5.55674">
        <ele>1187.4</ele>
        <time>2015-06-11T15:54:39Z</time>
      </trkpt>
      <trkpt lat="45.19358" lon="5.55676">
        <ele>1187.5</ele>
        <time>2015-06-11T15:54:40Z</time>
      </trkpt>
      <trkpt lat="45.1936" lon="5.55677">
        <ele>1187.5</ele>
        <time>2015-06-11T15:54:41Z</time>
      </trkpt>
      <trkpt lat="45.19363" lon="5.55678">
        <ele>1187.6</ele>
        <time>2015-06-11T15:54:42Z</time>
      </trkpt>
      <trkpt lat="45.19365" lon="5.55679">
        <ele>1187.6</ele>
        <time>2015-06-11T15:54:43Z</time>
      </trkpt>
      <trkpt lat="45.19368" lon="5.5568">
        <ele>1187.7</ele>
        <time>2015-06-11T15:54:44Z</time>
      </trkpt>
      <trkpt lat="45.1937" lon="5.55681">
        <ele>1187.7</ele>
        <time>2015-06-11T15:54:45Z</time>
      </trkpt>
      <trkpt lat="45.19372" lon="5.55682">
        <ele>1187.8</ele>
        <time>2015-06-11T15:54:46Z</time>
      </trkpt>
      <trkpt lat="45.19374" lon="5.55683">
        <ele>1187.8</ele>
        <time>2015-06-11T15:54:47Z</time>
      </trkpt>
      <trkpt lat="45.19376" lon="5.55684">
        <ele>1187.8</ele>
        <time>2015-06-11T15:54:48Z</time>
      </trkpt>
      <trkpt lat="45.19378" lon="5.55685">
        <ele>1187.9</ele>
        <time>2015-06-11T15:54:49Z</time>
      </trkpt>
      <trkpt lat="45.19379" lon="5.55686">
        <ele>1187.9</ele>
        <time>2015-06-11T15:54:50Z</time>
      </trkpt>
      <trkpt lat="45.19381" lon="5.55687">
        <ele>1188</ele>
        <time>2015-06-11T15:54:51Z</time>
      </trkpt>
      <trkpt lat="45.19384" lon="5.55688">
        <ele>1188.1</ele>
        <time>2015-06-11T15:54:52Z</time>
      </trkpt>
      <trkpt lat="45.19385" lon="5.55689">
        <ele>1188.1</ele>
        <time>2015-06-11T15:54:53Z</time>
      </trkpt>
      <trkpt lat="45.19387" lon="5.5569">
        <ele>1188.2</ele>
        <time>2015-06-11T15:54:54Z</time>
      </trkpt>
      <trkpt lat="45.19388" lon="5.55691">
        <ele>1188.2</ele>
        <time>2015-06-11T15:54:55Z</time>
      </trkpt>
      <trkpt lat="45.19389" lon="5.55692">
        <ele>1188.2</ele>
        <time>2015-06-11T15:54:56Z</time>
      </trkpt>
      <trkpt lat="45.19391" lon="5.55693">
        <ele>1188.3</ele>
        <time>2015-06-11T15:54:57Z</time>
      </trkpt>
      <trkpt lat="45.19392" lon="5.55693">
        <ele>1188.4</ele>
        <time>2015-06-11T15:54:58Z</time>
      </trkpt>
      <trkpt lat="45.19394" lon="5.55694">
        <ele>1188.5</ele>
        <time>2015-06-11T15:54:59Z</time>
      </trkpt>
      <trkpt lat="45.19395" lon="5.55695">
        <ele>1188.5</ele>
        <time>2015-06-11T15:55:00Z</time>
      </trkpt>
      <trkpt lat="45.19397" lon="5.55697">
        <ele>1188.6</ele>
        <time>2015-06-11T15:55:01Z</time>
      </trkpt>
      <trkpt lat="45.19399" lon="5.55698">
        <ele>1188.6</ele>
        <time>2015-06-11T15:55:02Z</time>
      </trkpt>
      <trkpt lat="45.19401" lon="5.55699">
        <ele>1188.7</ele>
        <time>2015-06-11T15:55:03Z</time>
      </trkpt>
      <trkpt lat="45.19403" lon="5.557">
        <ele>1188.8</ele>
        <time>2015-06-11T15:55:04Z</time>
      </trkpt>
      <trkpt lat="45.19405" lon="5.55701">
        <ele>1188.9</ele>
        <time>2015-06-11T15:55:05Z</time>
      </trkpt>
      <trkpt lat="45.19407" lon="5.55702">
        <ele>1189</ele>
        <time>2015-06-11T15:55:06Z</time>
      </trkpt>
      <trkpt lat="45.19409" lon="5.55703">
        <ele>1189.1</ele>
        <time>2015-06-11T15:55:07Z</time>
      </trkpt>
      <trkpt lat="45.19411" lon="5.55704">
        <ele>1189.2</ele>
        <time>2015-06-11T15:55:08Z</time>
      </trkpt>
      <trkpt lat="45.19413" lon="5.55705">
        <ele>1189.3</ele>
        <time>2015-06-11T15:55:09Z</time>
      </trkpt>
      <trkpt lat="45.19415" lon="5.55706">
        <ele>1189.5</ele>
        <time>2015-06-11T15:55:10Z</time>
      </trkpt>
      <trkpt lat="45.19416" lon="5.55706">
        <ele>1189.6</ele>
        <time>2015-06-11T15:55:11Z</time>
      </trkpt>
      <trkpt lat="45.19418" lon="5.55707">
        <ele>1189.7</ele>
        <time>2015-06-11T15:55:12Z</time>
      </trkpt>
      <trkpt lat="45.1942" lon="5.55708">
        <ele>1189.8</ele>
        <time>2015-06-11T15:55:13Z</time>
      </trkpt>
      <trkpt lat="45.19422" lon="5.55708">
        <ele>1189.9</ele>
        <time>2015-06-11T15:55:14Z</time>
      </trkpt>
      <trkpt lat="45.19423" lon="5.55709">
        <ele>1190.1</ele>
        <time>2015-06-11T15:55:15Z</time>
      </trkpt>
      <trkpt lat="45.19425" lon="5.55709">
        <ele>1190.3</ele>
        <time>2015-06-11T15:55:16Z</time>
      </trkpt>
      <trkpt lat="45.19426" lon="5.5571">
        <ele>1190.4</ele>
        <time>2015-06-11T15:55:17Z</time>
      </trkpt>
      <trkpt lat="45.19428" lon="5.5571">
        <ele>1190.6</ele>
        <time>2015-06-11T15:55:18Z</time>
      </trkpt>
      <trkpt lat="45.1943" lon="5.5571">
        <ele>1190.7</ele>
        <time>2015-06-11T15:55:19Z</time>
      </trkpt>
      <trkpt lat="45.19432" lon="5.5571">
        <ele>1190.9</ele>
        <time>2015-06-11T15:55:20Z</time>
      </trkpt>
      <trkpt lat="45.19433" lon="5.5571">
        <ele>1191</ele>
        <time>2015-06-11T15:55:21Z</time>
      </trkpt>
      <trkpt lat="45.19435" lon="5.55711">
        <ele>1191.2</ele>
        <time>2015-06-11T15:55:22Z</time>
      </trkpt>
      <trkpt lat="45.19437" lon="5.55711">
        <ele>1191.4</ele>
        <time>2015-06-11T15:55:23Z</time>
      </trkpt>
      <trkpt lat="45.19439" lon="5.55711">
        <ele>1191.6</ele>
        <time>2015-06-11T15:55:24Z</time>
      </trkpt>
      <trkpt lat="45.19441" lon="5.55712">
        <ele>1191.8</ele>
        <time>2015-06-11T15:55:25Z</time>
      </trkpt>
      <trkpt lat="45.19442" lon="5.55712">
        <ele>1191.9</ele>
        <time>2015-06-11T15:55:26Z</time>
      </trkpt>
      <trkpt lat="45.19444" lon="5.55713">
        <ele>1192.1</ele>
        <time>2015-06-11T15:55:27Z</time>
      </trkpt>
      <trkpt lat="45.19446" lon="5.55713">
        <ele>1192.3</ele>
        <time>2015-06-11T15:55:28Z</time>
      </trkpt>
      <trkpt lat="45.19449" lon="5.55712">
        <ele>1192.4</ele>
        <time>2015-06-11T15:55:29Z</time>
      </trkpt>
      <trkpt lat="45.19451" lon="5.55712">
        <ele>1192.6</ele>
        <time>2015-06-11T15:55:30Z</time>
      </trkpt>
      <trkpt lat="45.19453" lon="5.55712">
        <ele>1192.7</ele>
        <time>2015-06-11T15:55:31Z</time>
      </trkpt>
      <trkpt lat="45.19455" lon="5.55711">
        <ele>1192.9</ele>
        <time>2015-06-11T15:55:32Z</time>
      </trkpt>
      <trkpt lat="45.19457" lon="5.55711">
        <ele>1193.1</ele>
        <time>2015-06-11T15:55:33Z</time>
      </trkpt>
      <trkpt lat="45.19459" lon="5.55711">
        <ele>1193.2</ele>
        <time>2015-06-11T15:55:34Z</time>
      </trkpt>
      <trkpt lat="45.19461" lon="5.55712">
        <ele>1193.5</ele>
        <time>2015-06-11T15:55:35Z</time>
      </trkpt>
      <trkpt lat="45.19463" lon="5.55712">
        <ele>1193.8</ele>
        <time>2015-06-11T15:55:36Z</time>
      </trkpt>
      <trkpt lat="45.19464" lon="5.55713">
        <ele>1194</ele>
        <time>2015-06-11T15:55:37Z</time>
      </trkpt>
      <trkpt lat="45.19466" lon="5.55714">
        <ele>1194.3</ele>
        <time>2015-06-11T15:55:38Z</time>
      </trkpt>
      <trkpt lat="45.19468" lon="5.55714">
        <ele>1194.6</ele>
        <time>2015-06-11T15:55:39Z</time>
      </trkpt>
      <trkpt lat="45.1947" lon="5.55715">
        <ele>1194.9</ele>
        <time>2015-06-11T15:55:40Z</time>
      </trkpt>
      <trkpt lat="45.19473" lon="5.55715">
        <ele>1195.2</ele>
        <time>2015-06-11T15:55:41Z</time>
      </trkpt>
      <trkpt lat="45.19475" lon="5.55716">
        <ele>1195.5</ele>
        <time>2015-06-11T15:55:42Z</time>
      </trkpt>
      <trkpt lat="45.19477" lon="5.55717">
        <ele>1195.8</ele>
        <time>2015-06-11T15:55:43Z</time>
      </trkpt>
      <trkpt lat="45.19479" lon="5.55717">
        <ele>1196.2</ele>
        <time>2015-06-11T15:55:44Z</time>
      </trkpt>
      <trkpt lat="45.19481" lon="5.55718">
        <ele>1196.4</ele>
        <time>2015-06-11T15:55:45Z</time>
      </trkpt>
      <trkpt lat="45.19484" lon="5.55719">
        <ele>1196.8</ele>
        <time>2015-06-11T15:55:46Z</time>
      </trkpt>
      <trkpt lat="45.19486" lon="5.5572">
        <ele>1197</ele>
        <time>2015-06-11T15:55:47Z</time>
      </trkpt>
      <trkpt lat="45.19487" lon="5.5572">
        <ele>1197.3</ele>
        <time>2015-06-11T15:55:48Z</time>
      </trkpt>
      <trkpt lat="45.19489" lon="5.55721">
        <ele>1197.6</ele>
        <time>2015-06-11T15:55:49Z</time>
      </trkpt>
      <trkpt lat="45.19491" lon="5.55722">
        <ele>1197.8</ele>
        <time>2015-06-11T15:55:50Z</time>
      </trkpt>
      <trkpt lat="45.19493" lon="5.55723">
        <ele>1198.1</ele>
        <time>2015-06-11T15:55:51Z</time>
      </trkpt>
      <trkpt lat="45.19494" lon="5.55724">
        <ele>1198.3</ele>
        <time>2015-06-11T15:55:52Z</time>
      </trkpt>
      <trkpt lat="45.19496" lon="5.55724">
        <ele>1198.5</ele>
        <time>2015-06-11T15:55:53Z</time>
      </trkpt>
      <trkpt lat="45.19498" lon="5.55725">
        <ele>1198.7</ele>
        <time>2015-06-11T15:55:54Z</time>
      </trkpt>
      <trkpt lat="45.19499" lon="5.55726">
        <ele>1198.9</ele>
        <time>2015-06-11T15:55:55Z</time>
      </trkpt>
      <trkpt lat="45.19501" lon="5.55727">
        <ele>1199.2</ele>
        <time>2015-06-11T15:55:56Z</time>
      </trkpt>
      <trkpt lat="45.19503" lon="5.55728">
        <ele>1199.4</ele>
        <time>2015-06-11T15:55:57Z</time>
      </trkpt>
      <trkpt lat="45.19505" lon="5.55729">
        <ele>1199.6</ele>
        <time>2015-06-11T15:55:58Z</time>
      </trkpt>
      <trkpt lat="45.19506" lon="5.55729">
        <ele>1199.8</ele>
        <time>2015-06-11T15:55:59Z</time>
      </trkpt>
      <trkpt lat="45.19507" lon="5.55729">
        <ele>1200</ele>
        <time>2015-06-11T15:56:00Z</time>
      </trkpt>
      <trkpt lat="45.19508" lon="5.55729">
        <ele>1200.1</ele>
        <time>2015-06-11T15:56:01Z</time>
      </trkpt>
      <trkpt lat="45.19509" lon="5.5573">
        <ele>1200.2</ele>
        <time>2015-06-11T15:56:02Z</time>
      </trkpt>
      <trkpt lat="45.1951" lon="5.55731">
        <ele>1200.4</ele>
        <time>2015-06-11T15:56:03Z</time>
      </trkpt>
      <trkpt lat="45.19512" lon="5.55732">
        <ele>1200.6</ele>
        <time>2015-06-11T15:56:04Z</time>
      </trkpt>
      <trkpt lat="45.19514" lon="5.55732">
        <ele>1200.8</ele>
        <time>2015-06-11T15:56:05Z</time>
      </trkpt>
      <trkpt lat="45.19516" lon="5.55732">
        <ele>1201.1</ele>
        <time>2015-06-11T15:56:06Z</time>
      </trkpt>
      <trkpt lat="45.19519" lon="5.55732">
        <ele>1201.4</ele>
        <time>2015-06-11T15:56:07Z</time>
      </trkpt>
      <trkpt lat="45.19521" lon="5.55731">
        <ele>1201.6</ele>
        <time>2015-06-11T15:56:08Z</time>
      </trkpt>
      <trkpt lat="45.19523" lon="5.55731">
        <ele>1201.8</ele>
        <time>2015-06-11T15:56:09Z</time>
      </trkpt>
      <trkpt lat="45.19525" lon="5.55731">
        <ele>1202</ele>
        <time>2015-06-11T15:56:10Z</time>
      </trkpt>
      <trkpt lat="45.19527" lon="5.5573">
        <ele>1202.3</ele>
        <time>2015-06-11T15:56:11Z</time>
      </trkpt>
      <trkpt lat="45.19528" lon="5.55729">
        <ele>1202.4</ele>
        <time>2015-06-11T15:56:12Z</time>
      </trkpt>
      <trkpt lat="45.1953" lon="5.55728">
        <ele>1202.6</ele>
        <time>2015-06-11T15:56:13Z</time>
      </trkpt>
      <trkpt lat="45.19531" lon="5.55727">
        <ele>1202.8</ele>
        <time>2015-06-11T15:56:14Z</time>
      </trkpt>
      <trkpt lat="45.19532" lon="5.55727">
        <ele>1202.9</ele>
        <time>2015-06-11T15:56:15Z</time>
      </trkpt>
      <trkpt lat="45.19532" lon="5.55726">
        <ele>1202.9</ele>
        <time>2015-06-11T15:56:16Z</time>
      </trkpt>
      <trkpt lat="45.19533" lon="5.55725">
        <ele>1202.9</ele>
        <time>2015-06-11T15:56:17Z</time>
      </trkpt>
      <trkpt lat="45.19534" lon="5.55724">
        <ele>1203</ele>
        <time>2015-06-11T15:56:18Z</time>
      </trkpt>
      <trkpt lat="45.19534" lon="5.55722">
        <ele>1203</ele>
        <time>2015-06-11T15:56:19Z</time>
      </trkpt>
      <trkpt lat="45.19532" lon="5.5572">
        <ele>1202.9</ele>
        <time>2015-06-11T15:56:20Z</time>
      </trkpt>
      <trkpt lat="45.19531" lon="5.55718">
        <ele>1202.6</ele>
        <time>2015-06-11T15:56:21Z</time>
      </trkpt>
      <trkpt lat="45.19529" lon="5.55717">
        <ele>1202.4</ele>
        <time>2015-06-11T15:56:22Z</time>
      </trkpt>
      <trkpt lat="45.19527" lon="5.55715">
        <ele>1202.2</ele>
        <time>2015-06-11T15:56:23Z</time>
      </trkpt>
      <trkpt lat="45.19526" lon="5.55713">
        <ele>1202</ele>
        <time>2015-06-11T15:56:24Z</time>
      </trkpt>
      <trkpt lat="45.19524" lon="5.55711">
        <ele>1201.8</ele>
        <time>2015-06-11T15:56:25Z</time>
      </trkpt>
      <trkpt lat="45.19523" lon="5.5571">
        <ele>1201.5</ele>
        <time>2015-06-11T15:56:26Z</time>
      </trkpt>
      <trkpt lat="45.19521" lon="5.55708">
        <ele>1201.2</ele>
        <time>2015-06-11T15:56:27Z</time>
      </trkpt>
      <trkpt lat="45.19519" lon="5.55707">
        <ele>1201.1</ele>
        <time>2015-06-11T15:56:28Z</time>
      </trkpt>
      <trkpt lat="45.19517" lon="5.55706">
        <ele>1200.8</ele>
        <time>2015-06-11T15:56:29Z</time>
      </trkpt>
      <trkpt lat="45.19515" lon="5.55705">
        <ele>1200.6</ele>
        <time>2015-06-11T15:56:30Z</time>
      </trkpt>
      <trkpt lat="45.19513" lon="5.55704">
        <ele>1200.4</ele>
        <time>2015-06-11T15:56:31Z</time>
      </trkpt>
      <trkpt lat="45.19511" lon="5.55704">
        <ele>1200.1</ele>
        <time>2015-06-11T15:56:32Z</time>
      </trkpt>
      <trkpt lat="45.19509" lon="5.55703">
        <ele>1199.9</ele>
        <time>2015-06-11T15:56:33Z</time>
      </trkpt>
      <trkpt lat="45.19507" lon="5.55702">
        <ele>1199.7</ele>
        <time>2015-06-11T15:56:34Z</time>
      </trkpt>
      <trkpt lat="45.19505" lon="5.55701">
        <ele>1199.5</ele>
        <time>2015-06-11T15:56:35Z</time>
      </trkpt>
      <trkpt lat="45.19503" lon="5.557">
        <ele>1199.3</ele>
        <time>2015-06-11T15:56:36Z</time>
      </trkpt>
      <trkpt lat="45.19502" lon="5.55698">
        <ele>1199.1</ele>
        <time>2015-06-11T15:56:37Z</time>
      </trkpt>
      <trkpt lat="45.195" lon="5.55697">
        <ele>1198.9</ele>
        <time>2015-06-11T15:56:38Z</time>
      </trkpt>
      <trkpt lat="45.19498" lon="5.55695">
        <ele>1198.7</ele>
        <time>2015-06-11T15:56:39Z</time>
      </trkpt>
      <trkpt lat="45.19496" lon="5.55694">
        <ele>1198.5</ele>
        <time>2015-06-11T15:56:40Z</time>
      </trkpt>
      <trkpt lat="45.19494" lon="5.55692">
        <ele>1198.3</ele>
        <time>2015-06-11T15:56:41Z</time>
      </trkpt>
      <trkpt lat="45.19492" lon="5.55691">
        <ele>1198.1</ele>
        <time>2015-06-11T15:56:42Z</time>
      </trkpt>
      <trkpt lat="45.1949" lon="5.55689">
        <ele>1197.9</ele>
        <time>2015-06-11T15:56:43Z</time>
      </trkpt>
      <trkpt lat="45.19489" lon="5.55688">
        <ele>1197.7</ele>
        <time>2015-06-11T15:56:44Z</time>
      </trkpt>
      <trkpt lat="45.19487" lon="5.55687">
        <ele>1197.5</ele>
        <time>2015-06-11T15:56:45Z</time>
      </trkpt>
      <trkpt lat="45.19485" lon="5.55686">
        <ele>1197.2</ele>
        <time>2015-06-11T15:56:46Z</time>
      </trkpt>
      <trkpt lat="45.19483" lon="5.55684">
        <ele>1197</ele>
        <time>2015-06-11T15:56:47Z</time>
      </trkpt>
      <trkpt lat="45.19481" lon="5.55683">
        <ele>1196.8</ele>
        <time>2015-06-11T15:56:48Z</time>
      </trkpt>
      <trkpt lat="45.19479" lon="5.55681">
        <ele>1196.5</ele>
        <time>2015-06-11T15:56:49Z</time>
      </trkpt>
      <trkpt lat="45.19477" lon="5.55679">
        <ele>1196.3</ele>
        <time>2015-06-11T15:56:50Z</time>
      </trkpt>
      <trkpt lat="45.19475" lon="5.55678">
        <ele>1196.1</ele>
        <time>2015-06-11T15:56:51Z</time>
      </trkpt>
      <trkpt lat="45.19474" lon="5.55676">
        <ele>1195.9</ele>
        <time>2015-06-11T15:56:52Z</time>
      </trkpt>
      <trkpt lat="45.19472" lon="5.55675">
        <ele>1195.7</ele>
        <time>2015-06-11T15:56:53Z</time>
      </trkpt>
      <trkpt lat="45.1947" lon="5.55673">
        <ele>1195.5</ele>
        <time>2015-06-11T15:56:54Z</time>
      </trkpt>
      <trkpt lat="45.19468" lon="5.55671">
        <ele>1195.3</ele>
        <time>2015-06-11T15:56:55Z</time>
      </trkpt>
      <trkpt lat="45.19466" lon="5.55669">
        <ele>1195</ele>
        <time>2015-06-11T15:56:56Z</time>
      </trkpt>
      <trkpt lat="45.19464" lon="5.55667">
        <ele>1194.8</ele>
        <time>2015-06-11T15:56:57Z</time>
      </trkpt>
      <trkpt lat="45.19462" lon="5.55665">
        <ele>1194.6</ele>
        <time>2015-06-11T15:56:58Z</time>
      </trkpt>
      <trkpt lat="45.1946" lon="5.55663">
        <ele>1194.3</ele>
        <time>2015-06-11T15:56:59Z</time>
      </trkpt>
      <trkpt lat="45.19458" lon="5.55661">
        <ele>1194.2</ele>
        <time>2015-06-11T15:57:00Z</time>
      </trkpt>
      <trkpt lat="45.19457" lon="5.55658">
        <ele>1194.1</ele>
        <time>2015-06-11T15:57:01Z</time>
      </trkpt>
      <trkpt lat="45.19455" lon="5.55656">
        <ele>1194.1</ele>
        <time>2015-06-11T15:57:02Z</time>
      </trkpt>
      <trkpt lat="45.19454" lon="5.55653">
        <ele>1194.1</ele>
        <time>2015-06-11T15:57:03Z</time>
      </trkpt>
      <trkpt lat="45.19453" lon="5.5565">
        <ele>1194.1</ele>
        <time>2015-06-11T15:57:04Z</time>
      </trkpt>
      <trkpt lat="45.19451" lon="5.55648">
        <ele>1194.1</ele>
        <time>2015-06-11T15:57:05Z</time>
      </trkpt>
      <trkpt lat="45.1945" lon="5.55646">
        <ele>1194.1</ele>
        <time>2015-06-11T15:57:06Z</time>
      </trkpt>
      <trkpt lat="45.19448" lon="5.55643">
        <ele>1194.1</ele>
        <time>2015-06-11T15:57:07Z</time>
      </trkpt>
      <trkpt lat="45.19446" lon="5.55641">
        <ele>1194.1</ele>
        <time>2015-06-11T15:57:08Z</time>
      </trkpt>
      <trkpt lat="45.19444" lon="5.55639">
        <ele>1194.1</ele>
        <time>2015-06-11T15:57:09Z</time>
      </trkpt>
      <trkpt lat="45.19442" lon="5.55637">
        <ele>1194</ele>
        <time>2015-06-11T15:57:10Z</time>
      </trkpt>
      <trkpt lat="45.19441" lon="5.55634">
        <ele>1194.1</ele>
        <time>2015-06-11T15:57:11Z</time>
      </trkpt>
      <trkpt lat="45.19439" lon="5.55632">
        <ele>1194.1</ele>
        <time>2015-06-11T15:57:12Z</time>
      </trkpt>
      <trkpt lat="45.19438" lon="5.5563">
        <ele>1194.1</ele>
        <time>2015-06-11T15:57:13Z</time>
      </trkpt>
      <trkpt lat="45.19436" lon="5.55627">
        <ele>1194.1</ele>
        <time>2015-06-11T15:57:14Z</time>
      </trkpt>
      <trkpt lat="45.19435" lon="5.55624">
        <ele>1194.2</ele>
        <time>2015-06-11T15:57:15Z</time>
      </trkpt>
      <trkpt lat="45.19433" lon="5.55622">
        <ele>1194.2</ele>
        <time>2015-06-11T15:57:16Z</time>
      </trkpt>
      <trkpt lat="45.19432" lon="5.55619">
        <ele>1194.2</ele>
        <time>2015-06-11T15:57:17Z</time>
      </trkpt>
      <trkpt lat="45.19431" lon="5.55617">
        <ele>1194.2</ele>
        <time>2015-06-11T15:57:18Z</time>
      </trkpt>
      <trkpt lat="45.19429" lon="5.55614">
        <ele>1194.2</ele>
        <time>2015-06-11T15:57:19Z</time>
      </trkpt>
      <trkpt lat="45.19427" lon="5.55612">
        <ele>1194.2</ele>
        <time>2015-06-11T15:57:20Z</time>
      </trkpt>
      <trkpt lat="45.19426" lon="5.55609">
        <ele>1194.2</ele>
        <time>2015-06-11T15:57:21Z</time>
      </trkpt>
      <trkpt lat="45.19424" lon="5.55606">
        <ele>1194.2</ele>
        <time>2015-06-11T15:57:22Z</time>
      </trkpt>
      <trkpt lat="45.19423" lon="5.55604">
        <ele>1194.1</ele>
        <time>2015-06-11T15:57:23Z</time>
      </trkpt>
      <trkpt lat="45.19421" lon="5.55602">
        <ele>1194.1</ele>
        <time>2015-06-11T15:57:24Z</time>
      </trkpt>
      <trkpt lat="45.1942" lon="5.55599">
        <ele>1194.1</ele>
        <time>2015-06-11T15:57:25Z</time>
      </trkpt>
      <trkpt lat="45.19419" lon="5.55597">
        <ele>1194.1</ele>
        <time>2015-06-11T15:57:26Z</time>
      </trkpt>
      <trkpt lat="45.19418" lon="5.55594">
        <ele>1194.1</ele>
        <time>2015-06-11T15:57:27Z</time>
      </trkpt>
      <trkpt lat="45.19418" lon="5.55592">
        <ele>1194.1</ele>
        <time>2015-06-11T15:57:28Z</time>
      </trkpt>
      <trkpt lat="45.19417" lon="5.5559">
        <ele>1194.2</ele>
        <time>2015-06-11T15:57:29Z</time>
      </trkpt>
      <trkpt lat="45.19417" lon="5.55588">
        <ele>1194.2</ele>
        <time>2015-06-11T15:57:30Z</time>
      </trkpt>
      <trkpt lat="45.19417" lon="5.55586">
        <ele>1194.2</ele>
        <time>2015-06-11T15:57:31Z</time>
      </trkpt>
      <trkpt lat="45.19416" lon="5.55584">
        <ele>1194.2</ele>
        <time>2015-06-11T15:57:32Z</time>
      </trkpt>
      <trkpt lat="45.19416" lon="5.55581">
        <ele>1194.3</ele>
        <time>2015-06-11T15:57:33Z</time>
      </trkpt>
      <trkpt lat="45.19416" lon="5.55579">
        <ele>1194.3</ele>
        <time>2015-06-11T15:57:34Z</time>
      </trkpt>
      <trkpt lat="45.19417" lon="5.55576">
        <ele>1194.4</ele>
        <time>2015-06-11T15:57:35Z</time>
      </trkpt>
      <trkpt lat="45.19417" lon="5.55574">
        <ele>1194.4</ele>
        <time>2015-06-11T15:57:36Z</time>
      </trkpt>
      <trkpt lat="45.19418" lon="5.55571">
        <ele>1194.6</ele>
        <time>2015-06-11T15:57:37Z</time>
      </trkpt>
      <trkpt lat="45.19418" lon="5.55568">
        <ele>1194.6</ele>
        <time>2015-06-11T15:57:38Z</time>
      </trkpt>
      <trkpt lat="45.19419" lon="5.55565">
        <ele>1194.7</ele>
        <time>2015-06-11T15:57:39Z</time>
      </trkpt>
      <trkpt lat="45.19419" lon="5.55562">
        <ele>1194.8</ele>
        <time>2015-06-11T15:57:40Z</time>
      </trkpt>
      <trkpt lat="45.1942" lon="5.55559">
        <ele>1194.9</ele>
        <time>2015-06-11T15:57:41Z</time>
      </trkpt>
      <trkpt lat="45.1942" lon="5.55557">
        <ele>1195</ele>
        <time>2015-06-11T15:57:42Z</time>
      </trkpt>
      <trkpt lat="45.1942" lon="5.55554">
        <ele>1195</ele>
        <time>2015-06-11T15:57:43Z</time>
      </trkpt>
      <trkpt lat="45.1942" lon="5.55551">
        <ele>1195.1</ele>
        <time>2015-06-11T15:57:44Z</time>
      </trkpt>
      <trkpt lat="45.19421" lon="5.55549">
        <ele>1195.1</ele>
        <time>2015-06-11T15:57:45Z</time>
      </trkpt>
      <trkpt lat="45.19422" lon="5.55547">
        <ele>1195.3</ele>
        <time>2015-06-11T15:57:46Z</time>
      </trkpt>
      <trkpt lat="45.19423" lon="5.55545">
        <ele>1195.4</ele>
        <time>2015-06-11T15:57:47Z</time>
      </trkpt>
      <trkpt lat="45.19424" lon="5.55544">
        <ele>1195.5</ele>
        <time>2015-06-11T15:57:48Z</time>
      </trkpt>
      <trkpt lat="45.19426" lon="5.55542">
        <ele>1195.6</ele>
        <time>2015-06-11T15:57:49Z</time>
      </trkpt>
      <trkpt lat="45.19427" lon="5.55541">
        <ele>1195.8</ele>
        <time>2015-06-11T15:57:50Z</time>
      </trkpt>
      <trkpt lat="45.19428" lon="5.5554">
        <ele>1196</ele>
        <time>2015-06-11T15:57:51Z</time>
      </trkpt>
      <trkpt lat="45.19429" lon="5.55539">
        <ele>1196.1</ele>
        <time>2015-06-11T15:57:52Z</time>
      </trkpt>
      <trkpt lat="45.1943" lon="5.55538">
        <ele>1196.3</ele>
        <time>2015-06-11T15:57:53Z</time>
      </trkpt>
      <trkpt lat="45.19431" lon="5.55537">
        <ele>1196.5</ele>
        <time>2015-06-11T15:57:54Z</time>
      </trkpt>
      <trkpt lat="45.19432" lon="5.55536">
        <ele>1196.7</ele>
        <time>2015-06-11T15:57:55Z</time>
      </trkpt>
      <trkpt lat="45.19434" lon="5.55535">
        <ele>1196.9</ele>
        <time>2015-06-11T15:57:56Z</time>
      </trkpt>
      <trkpt lat="45.19436" lon="5.55534">
        <ele>1197.1</ele>
        <time>2015-06-11T15:57:57Z</time>
      </trkpt>
      <trkpt lat="45.19437" lon="5.55534">
        <ele>1197.2</ele>
        <time>2015-06-11T15:57:58Z</time>
      </trkpt>
      <trkpt lat="45.19438" lon="5.55533">
        <ele>1197.4</ele>
        <time>2015-06-11T15:57:59Z</time>
      </trkpt>
      <trkpt lat="45.1944" lon="5.55533">
        <ele>1197.6</ele>
        <time>2015-06-11T15:58:00Z</time>
      </trkpt>
      <trkpt lat="45.19441" lon="5.55532">
        <ele>1197.8</ele>
        <time>2015-06-11T15:58:01Z</time>
      </trkpt>
      <trkpt lat="45.19442" lon="5.55532">
        <ele>1197.9</ele>
        <time>2015-06-11T15:58:02Z</time>
      </trkpt>
      <trkpt lat="45.19444" lon="5.55532">
        <ele>1198.1</ele>
        <time>2015-06-11T15:58:03Z</time>
      </trkpt>
      <trkpt lat="45.19445" lon="5.55532">
        <ele>1198.2</ele>
        <time>2015-06-11T15:58:04Z</time>
      </trkpt>
      <trkpt lat="45.19447" lon="5.55533">
        <ele>1198.2</ele>
        <time>2015-06-11T15:58:05Z</time>
      </trkpt>
      <trkpt lat="45.19449" lon="5.55533">
        <ele>1198.3</ele>
        <time>2015-06-11T15:58:06Z</time>
      </trkpt>
      <trkpt lat="45.1945" lon="5.55534">
        <ele>1198.3</ele>
        <time>2015-06-11T15:58:07Z</time>
      </trkpt>
      <trkpt lat="45.19452" lon="5.55535">
        <ele>1198.3</ele>
        <time>2015-06-11T15:58:08Z</time>
      </trkpt>
      <trkpt lat="45.19453" lon="5.55537">
        <ele>1198.2</ele>
        <time>2015-06-11T15:58:09Z</time>
      </trkpt>
      <trkpt lat="45.19455" lon="5.55538">
        <ele>1198.2</ele>
        <time>2015-06-11T15:58:10Z</time>
      </trkpt>
      <trkpt lat="45.19457" lon="5.55539">
        <ele>1198.2</ele>
        <time>2015-06-11T15:58:11Z</time>
      </trkpt>
      <trkpt lat="45.19458" lon="5.5554">
        <ele>1198.1</ele>
        <time>2015-06-11T15:58:12Z</time>
      </trkpt>
      <trkpt lat="45.19459" lon="5.55542">
        <ele>1198.2</ele>
        <time>2015-06-11T15:58:13Z</time>
      </trkpt>
      <trkpt lat="45.19461" lon="5.55543">
        <ele>1198.5</ele>
        <time>2015-06-11T15:58:14Z</time>
      </trkpt>
      <trkpt lat="45.19462" lon="5.55544">
        <ele>1198.7</ele>
        <time>2015-06-11T15:58:15Z</time>
      </trkpt>
      <trkpt lat="45.19463" lon="5.55545">
        <ele>1198.9</ele>
        <time>2015-06-11T15:58:16Z</time>
      </trkpt>
      <trkpt lat="45.19465" lon="5.55546">
        <ele>1199.3</ele>
        <time>2015-06-11T15:58:17Z</time>
      </trkpt>
      <trkpt lat="45.19466" lon="5.55547">
        <ele>1199.5</ele>
        <time>2015-06-11T15:58:18Z</time>
      </trkpt>
      <trkpt lat="45.19468" lon="5.55548">
        <ele>1199.8</ele>
        <time>2015-06-11T15:58:19Z</time>
      </trkpt>
      <trkpt lat="45.1947" lon="5.55548">
        <ele>1200.1</ele>
        <time>2015-06-11T15:58:20Z</time>
      </trkpt>
      <trkpt lat="45.19471" lon="5.55549">
        <ele>1200.4</ele>
        <time>2015-06-11T15:58:21Z</time>
      </trkpt>
      <trkpt lat="45.19473" lon="5.55549">
        <ele>1200.7</ele>
        <time>2015-06-11T15:58:22Z</time>
      </trkpt>
      <trkpt lat="45.19474" lon="5.5555">
        <ele>1201</ele>
        <time>2015-06-11T15:58:23Z</time>
      </trkpt>
      <trkpt lat="45.19476" lon="5.5555">
        <ele>1201.4</ele>
        <time>2015-06-11T15:58:24Z</time>
      </trkpt>
      <trkpt lat="45.19478" lon="5.55551">
        <ele>1201.7</ele>
        <time>2015-06-11T15:58:25Z</time>
      </trkpt>
      <trkpt lat="45.19479" lon="5.55551">
        <ele>1202</ele>
        <time>2015-06-11T15:58:26Z</time>
      </trkpt>
      <trkpt lat="45.1948" lon="5.55552">
        <ele>1202.1</ele>
        <time>2015-06-11T15:58:27Z</time>
      </trkpt>
      <trkpt lat="45.19481" lon="5.55552">
        <ele>1202.4</ele>
        <time>2015-06-11T15:58:28Z</time>
      </trkpt>
      <trkpt lat="45.19482" lon="5.55552">
        <ele>1202.5</ele>
        <time>2015-06-11T15:58:29Z</time>
      </trkpt>
      <trkpt lat="45.19483" lon="5.55552">
        <ele>1202.8</ele>
        <time>2015-06-11T15:58:30Z</time>
      </trkpt>
      <trkpt lat="45.19485" lon="5.55552">
        <ele>1203.1</ele>
        <time>2015-06-11T15:58:31Z</time>
      </trkpt>
      <trkpt lat="45.19487" lon="5.55551">
        <ele>1203.6</ele>
        <time>2015-06-11T15:58:32Z</time>
      </trkpt>
      <trkpt lat="45.19489" lon="5.5555">
        <ele>1204</ele>
        <time>2015-06-11T15:58:33Z</time>
      </trkpt>
      <trkpt lat="45.1949" lon="5.5555">
        <ele>1204.4</ele>
        <time>2015-06-11T15:58:34Z</time>
      </trkpt>
      <trkpt lat="45.19492" lon="5.55549">
        <ele>1204.8</ele>
        <time>2015-06-11T15:58:35Z</time>
      </trkpt>
      <trkpt lat="45.19494" lon="5.55548">
        <ele>1205.3</ele>
        <time>2015-06-11T15:58:36Z</time>
      </trkpt>
      <trkpt lat="45.19495" lon="5.55548">
        <ele>1205.6</ele>
        <time>2015-06-11T15:58:37Z</time>
      </trkpt>
      <trkpt lat="45.19497" lon="5.55547">
        <ele>1206</ele>
        <time>2015-06-11T15:58:38Z</time>
      </trkpt>
      <trkpt lat="45.19498" lon="5.55547">
        <ele>1206.3</ele>
        <time>2015-06-11T15:58:39Z</time>
      </trkpt>
      <trkpt lat="45.195" lon="5.55546">
        <ele>1206.6</ele>
        <time>2015-06-11T15:58:40Z</time>
      </trkpt>
      <trkpt lat="45.19501" lon="5.55546">
        <ele>1206.9</ele>
        <time>2015-06-11T15:58:41Z</time>
      </trkpt>
      <trkpt lat="45.19502" lon="5.55546">
        <ele>1207.2</ele>
        <time>2015-06-11T15:58:42Z</time>
      </trkpt>
      <trkpt lat="45.19503" lon="5.55545">
        <ele>1207.4</ele>
        <time>2015-06-11T15:58:43Z</time>
      </trkpt>
      <trkpt lat="45.19504" lon="5.55545">
        <ele>1207.6</ele>
        <time>2015-06-11T15:58:44Z</time>
      </trkpt>
      <trkpt lat="45.19505" lon="5.55545">
        <ele>1207.9</ele>
        <time>2015-06-11T15:58:45Z</time>
      </trkpt>
      <trkpt lat="45.19507" lon="5.55545">
        <ele>1208.3</ele>
        <time>2015-06-11T15:58:46Z</time>
      </trkpt>
      <trkpt lat="45.19508" lon="5.55544">
        <ele>1208.6</ele>
        <time>2015-06-11T15:58:47Z</time>
      </trkpt>
      <trkpt lat="45.1951" lon="5.55544">
        <ele>1209.1</ele>
        <time>2015-06-11T15:58:48Z</time>
      </trkpt>
      <trkpt lat="45.19512" lon="5.55544">
        <ele>1209.5</ele>
        <time>2015-06-11T15:58:49Z</time>
      </trkpt>
      <trkpt lat="45.19515" lon="5.55543">
        <ele>1210.1</ele>
        <time>2015-06-11T15:58:50Z</time>
      </trkpt>
      <trkpt lat="45.19517" lon="5.55543">
        <ele>1210.6</ele>
        <time>2015-06-11T15:58:51Z</time>
      </trkpt>
      <trkpt lat="45.19519" lon="5.55542">
        <ele>1211.2</ele>
        <time>2015-06-11T15:58:52Z</time>
      </trkpt>
      <trkpt lat="45.19521" lon="5.55541">
        <ele>1211.6</ele>
        <time>2015-06-11T15:58:53Z</time>
      </trkpt>
      <trkpt lat="45.19523" lon="5.55541">
        <ele>1212</ele>
        <time>2015-06-11T15:58:54Z</time>
      </trkpt>
      <trkpt lat="45.19524" lon="5.55541">
        <ele>1212.3</ele>
        <time>2015-06-11T15:58:55Z</time>
      </trkpt>
      <trkpt lat="45.19525" lon="5.55541">
        <ele>1212.5</ele>
        <time>2015-06-11T15:58:56Z</time>
      </trkpt>
      <trkpt lat="45.19526" lon="5.55541">
        <ele>1212.8</ele>
        <time>2015-06-11T15:58:57Z</time>
      </trkpt>
      <trkpt lat="45.19528" lon="5.55541">
        <ele>1213.2</ele>
        <time>2015-06-11T15:58:58Z</time>
      </trkpt>
      <trkpt lat="45.1953" lon="5.55541">
        <ele>1213.6</ele>
        <time>2015-06-11T15:58:59Z</time>
      </trkpt>
      <trkpt lat="45.19531" lon="5.5554">
        <ele>1214</ele>
        <time>2015-06-11T15:59:00Z</time>
      </trkpt>
      <trkpt lat="45.19533" lon="5.5554">
        <ele>1214.3</ele>
        <time>2015-06-11T15:59:01Z</time>
      </trkpt>
      <trkpt lat="45.19534" lon="5.5554">
        <ele>1214.6</ele>
        <time>2015-06-11T15:59:02Z</time>
      </trkpt>
      <trkpt lat="45.19535" lon="5.55541">
        <ele>1214.8</ele>
        <time>2015-06-11T15:59:03Z</time>
      </trkpt>
      <trkpt lat="45.19537" lon="5.55541">
        <ele>1215.1</ele>
        <time>2015-06-11T15:59:04Z</time>
      </trkpt>
      <trkpt lat="45.19538" lon="5.55541">
        <ele>1215.3</ele>
        <time>2015-06-11T15:59:05Z</time>
      </trkpt>
      <trkpt lat="45.19539" lon="5.55541">
        <ele>1215.7</ele>
        <time>2015-06-11T15:59:06Z</time>
      </trkpt>
      <trkpt lat="45.1954" lon="5.55541">
        <ele>1215.9</ele>
        <time>2015-06-11T15:59:07Z</time>
      </trkpt>
      <trkpt lat="45.19542" lon="5.5554">
        <ele>1216.3</ele>
        <time>2015-06-11T15:59:08Z</time>
      </trkpt>
      <trkpt lat="45.19544" lon="5.5554">
        <ele>1216.6</ele>
        <time>2015-06-11T15:59:09Z</time>
      </trkpt>
      <trkpt lat="45.19545" lon="5.5554">
        <ele>1216.9</ele>
        <time>2015-06-11T15:59:10Z</time>
      </trkpt>
      <trkpt lat="45.19547" lon="5.55539">
        <ele>1217.3</ele>
        <time>2015-06-11T15:59:11Z</time>
      </trkpt>
      <trkpt lat="45.19548" lon="5.55539">
        <ele>1217.7</ele>
        <time>2015-06-11T15:59:12Z</time>
      </trkpt>
      <trkpt lat="45.1955" lon="5.55538">
        <ele>1218.1</ele>
        <time>2015-06-11T15:59:13Z</time>
      </trkpt>
      <trkpt lat="45.19552" lon="5.55537">
        <ele>1218.5</ele>
        <time>2015-06-11T15:59:14Z</time>
      </trkpt>
      <trkpt lat="45.19553" lon="5.55537">
        <ele>1218.9</ele>
        <time>2015-06-11T15:59:15Z</time>
      </trkpt>
      <trkpt lat="45.19555" lon="5.55536">
        <ele>1219.3</ele>
        <time>2015-06-11T15:59:16Z</time>
      </trkpt>
      <trkpt lat="45.19556" lon="5.55535">
        <ele>1219.7</ele>
        <time>2015-06-11T15:59:17Z</time>
      </trkpt>
      <trkpt lat="45.19557" lon="5.55534">
        <ele>1220</ele>
        <time>2015-06-11T15:59:18Z</time>
      </trkpt>
      <trkpt lat="45.19558" lon="5.55533">
        <ele>1220.4</ele>
        <time>2015-06-11T15:59:19Z</time>
      </trkpt>
      <trkpt lat="45.1956" lon="5.55532">
        <ele>1220.8</ele>
        <time>2015-06-11T15:59:20Z</time>
      </trkpt>
      <trkpt lat="45.19562" lon="5.55532">
        <ele>1221.3</ele>
        <time>2015-06-11T15:59:21Z</time>
      </trkpt>
      <trkpt lat="45.19564" lon="5.55531">
        <ele>1221.7</ele>
        <time>2015-06-11T15:59:22Z</time>
      </trkpt>
      <trkpt lat="45.19565" lon="5.55531">
        <ele>1222</ele>
        <time>2015-06-11T15:59:23Z</time>
      </trkpt>
      <trkpt lat="45.19566" lon="5.5553">
        <ele>1222.3</ele>
        <time>2015-06-11T15:59:24Z</time>
      </trkpt>
      <trkpt lat="45.19566" lon="5.55528">
        <ele>1222.6</ele>
        <time>2015-06-11T15:59:25Z</time>
      </trkpt>
      <trkpt lat="45.19567" lon="5.55527">
        <ele>1222.9</ele>
        <time>2015-06-11T15:59:26Z</time>
      </trkpt>
      <trkpt lat="45.19568" lon="5.55525">
        <ele>1223.5</ele>
        <time>2015-06-11T15:59:27Z</time>
      </trkpt>
      <trkpt lat="45.19569" lon="5.55522">
        <ele>1224.1</ele>
        <time>2015-06-11T15:59:28Z</time>
      </trkpt>
      <trkpt lat="45.19571" lon="5.55519">
        <ele>1224.7</ele>
        <time>2015-06-11T15:59:29Z</time>
      </trkpt>
      <trkpt lat="45.19572" lon="5.55517">
        <ele>1225.4</ele>
        <time>2015-06-11T15:59:30Z</time>
      </trkpt>
      <trkpt lat="45.19573" lon="5.55515">
        <ele>1225.9</ele>
        <time>2015-06-11T15:59:31Z</time>
      </trkpt>
      <trkpt lat="45.19574" lon="5.55513">
        <ele>1226.4</ele>
        <time>2015-06-11T15:59:32Z</time>
      </trkpt>
      <trkpt lat="45.19575" lon="5.55511">
        <ele>1226.8</ele>
        <time>2015-06-11T15:59:33Z</time>
      </trkpt>
      <trkpt lat="45.19576" lon="5.55509">
        <ele>1227.3</ele>
        <time>2015-06-11T15:59:34Z</time>
      </trkpt>
      <trkpt lat="45.19577" lon="5.55507">
        <ele>1227.7</ele>
        <time>2015-06-11T15:59:35Z</time>
      </trkpt>
      <trkpt lat="45.19578" lon="5.55505">
        <ele>1228.2</ele>
        <time>2015-06-11T15:59:36Z</time>
      </trkpt>
      <trkpt lat="45.19579" lon="5.55504">
        <ele>1228.6</ele>
        <time>2015-06-11T15:59:37Z</time>
      </trkpt>
      <trkpt lat="45.19579" lon="5.55503">
        <ele>1228.9</ele>
        <time>2015-06-11T15:59:38Z</time>
      </trkpt>
      <trkpt lat="45.19581" lon="5.55502">
        <ele>1229.3</ele>
        <time>2015-06-11T15:59:39Z</time>
      </trkpt>
      <trkpt lat="45.19581" lon="5.55501">
        <ele>1229.6</ele>
        <time>2015-06-11T15:59:40Z</time>
      </trkpt>
      <trkpt lat="45.19582" lon="5.55499">
        <ele>1230</ele>
        <time>2015-06-11T15:59:41Z</time>
      </trkpt>
      <trkpt lat="45.19584" lon="5.55498">
        <ele>1230.3</ele>
        <time>2015-06-11T15:59:42Z</time>
      </trkpt>
      <trkpt lat="45.19585" lon="5.55497">
        <ele>1230.7</ele>
        <time>2015-06-11T15:59:43Z</time>
      </trkpt>
      <trkpt lat="45.19585" lon="5.55496">
        <ele>1231</ele>
        <time>2015-06-11T15:59:44Z</time>
      </trkpt>
      <trkpt lat="45.19587" lon="5.55495">
        <ele>1231.4</ele>
        <time>2015-06-11T15:59:45Z</time>
      </trkpt>
      <trkpt lat="45.19587" lon="5.55493">
        <ele>1231.7</ele>
        <time>2015-06-11T15:59:46Z</time>
      </trkpt>
      <trkpt lat="45.19588" lon="5.55492">
        <ele>1232</ele>
        <time>2015-06-11T15:59:47Z</time>
      </trkpt>
      <trkpt lat="45.19589" lon="5.55491">
        <ele>1232.3</ele>
        <time>2015-06-11T15:59:48Z</time>
      </trkpt>
      <trkpt lat="45.19589" lon="5.5549">
        <ele>1232.5</ele>
        <time>2015-06-11T15:59:49Z</time>
      </trkpt>
      <trkpt lat="45.1959" lon="5.55489">
        <ele>1232.8</ele>
        <time>2015-06-11T15:59:50Z</time>
      </trkpt>
      <trkpt lat="45.1959" lon="5.55488">
        <ele>1233.1</ele>
        <time>2015-06-11T15:59:51Z</time>
      </trkpt>
      <trkpt lat="45.1959" lon="5.55486">
        <ele>1233.3</ele>
        <time>2015-06-11T15:59:52Z</time>
      </trkpt>
      <trkpt lat="45.1959" lon="5.55485">
        <ele>1233.3</ele>
        <time>2015-06-11T15:59:53Z</time>
      </trkpt>
      <trkpt lat="45.19589" lon="5.55484">
        <ele>1233.4</ele>
        <time>2015-06-11T15:59:54Z</time>
      </trkpt>
      <trkpt lat="45.19588" lon="5.55482">
        <ele>1233.5</ele>
        <time>2015-06-11T15:59:55Z</time>
      </trkpt>
      <trkpt lat="45.19587" lon="5.55481">
        <ele>1233.6</ele>
        <time>2015-06-11T15:59:56Z</time>
      </trkpt>
      <trkpt lat="45.19585" lon="5.55479">
        <ele>1233.6</ele>
        <time>2015-06-11T15:59:57Z</time>
      </trkpt>
      <trkpt lat="45.19584" lon="5.55477">
        <ele>1233.7</ele>
        <time>2015-06-11T15:59:58Z</time>
      </trkpt>
      <trkpt lat="45.19583" lon="5.55475">
        <ele>1233.8</ele>
        <time>2015-06-11T15:59:59Z</time>
      </trkpt>
      <trkpt lat="45.19582" lon="5.55474">
        <ele>1233.9</ele>
        <time>2015-06-11T16:00:00Z</time>
      </trkpt>
      <trkpt lat="45.19581" lon="5.55472">
        <ele>1234</ele>
        <time>2015-06-11T16:00:01Z</time>
      </trkpt>
      <trkpt lat="45.1958" lon="5.55471">
        <ele>1234</ele>
        <time>2015-06-11T16:00:02Z</time>
      </trkpt>
      <trkpt lat="45.19579" lon="5.5547">
        <ele>1233.9</ele>
        <time>2015-06-11T16:00:03Z</time>
      </trkpt>
      <trkpt lat="45.19577" lon="5.55469">
        <ele>1234</ele>
        <time>2015-06-11T16:00:04Z</time>
      </trkpt>
      <trkpt lat="45.19576" lon="5.55467">
        <ele>1234.1</ele>
        <time>2015-06-11T16:00:05Z</time>
      </trkpt>
      <trkpt lat="45.19575" lon="5.55465">
        <ele>1234.1</ele>
        <time>2015-06-11T16:00:06Z</time>
      </trkpt>
      <trkpt lat="45.19574" lon="5.55464">
        <ele>1234.1</ele>
        <time>2015-06-11T16:00:07Z</time>
      </trkpt>
      <trkpt lat="45.19572" lon="5.55463">
        <ele>1234.1</ele>
        <time>2015-06-11T16:00:08Z</time>
      </trkpt>
      <trkpt lat="45.19571" lon="5.55461">
        <ele>1234.1</ele>
        <time>2015-06-11T16:00:09Z</time>
      </trkpt>
      <trkpt lat="45.19569" lon="5.5546">
        <ele>1234.1</ele>
        <time>2015-06-11T16:00:10Z</time>
      </trkpt>
      <trkpt lat="45.19568" lon="5.55458">
        <ele>1234.2</ele>
        <time>2015-06-11T16:00:11Z</time>
      </trkpt>
      <trkpt lat="45.19567" lon="5.55457">
        <ele>1234.1</ele>
        <time>2015-06-11T16:00:12Z</time>
      </trkpt>
      <trkpt lat="45.19565" lon="5.55455">
        <ele>1233.9</ele>
        <time>2015-06-11T16:00:13Z</time>
      </trkpt>
      <trkpt lat="45.19564" lon="5.55454">
        <ele>1233.8</ele>
        <time>2015-06-11T16:00:14Z</time>
      </trkpt>
      <trkpt lat="45.19563" lon="5.55452">
        <ele>1233.7</ele>
        <time>2015-06-11T16:00:15Z</time>
      </trkpt>
      <trkpt lat="45.19561" lon="5.55451">
        <ele>1233.7</ele>
        <time>2015-06-11T16:00:16Z</time>
      </trkpt>
      <trkpt lat="45.19561" lon="5.5545">
        <ele>1233.6</ele>
        <time>2015-06-11T16:00:17Z</time>
      </trkpt>
      <trkpt lat="45.1956" lon="5.55448">
        <ele>1233.6</ele>
        <time>2015-06-11T16:00:18Z</time>
      </trkpt>
      <trkpt lat="45.19558" lon="5.55447">
        <ele>1233.5</ele>
        <time>2015-06-11T16:00:19Z</time>
      </trkpt>
      <trkpt lat="45.19558" lon="5.55445">
        <ele>1233.5</ele>
        <time>2015-06-11T16:00:20Z</time>
      </trkpt>
      <trkpt lat="45.19556" lon="5.55444">
        <ele>1233.3</ele>
        <time>2015-06-11T16:00:21Z</time>
      </trkpt>
      <trkpt lat="45.19555" lon="5.55443">
        <ele>1233.3</ele>
        <time>2015-06-11T16:00:22Z</time>
      </trkpt>
      <trkpt lat="45.19553" lon="5.55441">
        <ele>1233</ele>
        <time>2015-06-11T16:00:23Z</time>
      </trkpt>
      <trkpt lat="45.1955" lon="5.55439">
        <ele>1232.8</ele>
        <time>2015-06-11T16:00:24Z</time>
      </trkpt>
      <trkpt lat="45.19548" lon="5.55437">
        <ele>1232.6</ele>
        <time>2015-06-11T16:00:25Z</time>
      </trkpt>
      <trkpt lat="45.19547" lon="5.55435">
        <ele>1232.5</ele>
        <time>2015-06-11T16:00:26Z</time>
      </trkpt>
      <trkpt lat="45.19545" lon="5.55433">
        <ele>1232.4</ele>
        <time>2015-06-11T16:00:27Z</time>
      </trkpt>
      <trkpt lat="45.19544" lon="5.55432">
        <ele>1232.3</ele>
        <time>2015-06-11T16:00:28Z</time>
      </trkpt>
      <trkpt lat="45.19543" lon="5.55432">
        <ele>1232.1</ele>
        <time>2015-06-11T16:00:29Z</time>
      </trkpt>
      <trkpt lat="45.19541" lon="5.55431">
        <ele>1231.8</ele>
        <time>2015-06-11T16:00:30Z</time>
      </trkpt>
      <trkpt lat="45.19539" lon="5.5543">
        <ele>1231.4</ele>
        <time>2015-06-11T16:00:31Z</time>
      </trkpt>
      <trkpt lat="45.19537" lon="5.55429">
        <ele>1230.8</ele>
        <time>2015-06-11T16:00:32Z</time>
      </trkpt>
      <trkpt lat="45.19535" lon="5.55428">
        <ele>1230.4</ele>
        <time>2015-06-11T16:00:33Z</time>
      </trkpt>
      <trkpt lat="45.19533" lon="5.55428">
        <ele>1230</ele>
        <time>2015-06-11T16:00:34Z</time>
      </trkpt>
      <trkpt lat="45.19532" lon="5.55427">
        <ele>1229.7</ele>
        <time>2015-06-11T16:00:35Z</time>
      </trkpt>
      <trkpt lat="45.19531" lon="5.55427">
        <ele>1229.5</ele>
        <time>2015-06-11T16:00:36Z</time>
      </trkpt>
      <trkpt lat="45.19529" lon="5.55425">
        <ele>1229.2</ele>
        <time>2015-06-11T16:00:37Z</time>
      </trkpt>
      <trkpt lat="45.19527" lon="5.55422">
        <ele>1228.9</ele>
        <time>2015-06-11T16:00:38Z</time>
      </trkpt>
      <trkpt lat="45.19525" lon="5.5542">
        <ele>1228.6</ele>
        <time>2015-06-11T16:00:39Z</time>
      </trkpt>
      <trkpt lat="45.19524" lon="5.55418">
        <ele>1228.4</ele>
        <time>2015-06-11T16:00:40Z</time>
      </trkpt>
      <trkpt lat="45.19523" lon="5.55416">
        <ele>1228.3</ele>
        <time>2015-06-11T16:00:41Z</time>
      </trkpt>
      <trkpt lat="45.19522" lon="5.55414">
        <ele>1228.2</ele>
        <time>2015-06-11T16:00:42Z</time>
      </trkpt>
      <trkpt lat="45.19522" lon="5.55412">
        <ele>1228.3</ele>
        <time>2015-06-11T16:00:43Z</time>
      </trkpt>
      <trkpt lat="45.19521" lon="5.55411">
        <ele>1228.2</ele>
        <time>2015-06-11T16:00:44Z</time>
      </trkpt>
      <trkpt lat="45.19521" lon="5.55409">
        <ele>1228.3</ele>
        <time>2015-06-11T16:00:45Z</time>
      </trkpt>
      <trkpt lat="45.1952" lon="5.55407">
        <ele>1228.2</ele>
        <time>2015-06-11T16:00:46Z</time>
      </trkpt>
      <trkpt lat="45.19519" lon="5.55405">
        <ele>1228.2</ele>
        <time>2015-06-11T16:00:47Z</time>
      </trkpt>
      <trkpt lat="45.19519" lon="5.55404">
        <ele>1228.3</ele>
        <time>2015-06-11T16:00:48Z</time>
      </trkpt>
      <trkpt lat="45.19519" lon="5.55402">
        <ele>1228.5</ele>
        <time>2015-06-11T16:00:49Z</time>
      </trkpt>
      <trkpt lat="45.1952" lon="5.554">
        <ele>1228.7</ele>
        <time>2015-06-11T16:00:50Z</time>
      </trkpt>
      <trkpt lat="45.1952" lon="5.55398">
        <ele>1228.9</ele>
        <time>2015-06-11T16:00:51Z</time>
      </trkpt>
      <trkpt lat="45.19521" lon="5.55396">
        <ele>1229.3</ele>
        <time>2015-06-11T16:00:52Z</time>
      </trkpt>
      <trkpt lat="45.19521" lon="5.55394">
        <ele>1229.5</ele>
        <time>2015-06-11T16:00:53Z</time>
      </trkpt>
      <trkpt lat="45.19523" lon="5.55393">
        <ele>1229.9</ele>
        <time>2015-06-11T16:00:54Z</time>
      </trkpt>
      <trkpt lat="45.19523" lon="5.55393">
        <ele>1230.1</ele>
        <time>2015-06-11T16:00:55Z</time>
      </trkpt>
      <trkpt lat="45.19524" lon="5.55392">
        <ele>1230.5</ele>
        <time>2015-06-11T16:00:56Z</time>
      </trkpt>
      <trkpt lat="45.19526" lon="5.5539">
        <ele>1231</ele>
        <time>2015-06-11T16:00:57Z</time>
      </trkpt>
      <trkpt lat="45.19527" lon="5.5539">
        <ele>1231.2</ele>
        <time>2015-06-11T16:00:58Z</time>
      </trkpt>
      <trkpt lat="45.19528" lon="5.5539">
        <ele>1231.5</ele>
        <time>2015-06-11T16:00:59Z</time>
      </trkpt>
      <trkpt lat="45.19529" lon="5.5539">
        <ele>1231.8</ele>
        <time>2015-06-11T16:01:00Z</time>
      </trkpt>
      <trkpt lat="45.1953" lon="5.5539">
        <ele>1232</ele>
        <time>2015-06-11T16:01:01Z</time>
      </trkpt>
      <trkpt lat="45.19531" lon="5.55391">
        <ele>1232.2</ele>
        <time>2015-06-11T16:01:02Z</time>
      </trkpt>
      <trkpt lat="45.19532" lon="5.55392">
        <ele>1232.4</ele>
        <time>2015-06-11T16:01:03Z</time>
      </trkpt>
      <trkpt lat="45.19534" lon="5.55393">
        <ele>1232.7</ele>
        <time>2015-06-11T16:01:04Z</time>
      </trkpt>
      <trkpt lat="45.19535" lon="5.55394">
        <ele>1232.9</ele>
        <time>2015-06-11T16:01:05Z</time>
      </trkpt>
      <trkpt lat="45.19536" lon="5.55395">
        <ele>1233.2</ele>
        <time>2015-06-11T16:01:06Z</time>
      </trkpt>
      <trkpt lat="45.19539" lon="5.55396">
        <ele>1233.7</ele>
        <time>2015-06-11T16:01:07Z</time>
      </trkpt>
      <trkpt lat="45.19542" lon="5.55397">
        <ele>1234.4</ele>
        <time>2015-06-11T16:01:08Z</time>
      </trkpt>
      <trkpt lat="45.19544" lon="5.55399">
        <ele>1234.6</ele>
        <time>2015-06-11T16:01:09Z</time>
      </trkpt>
      <trkpt lat="45.19545" lon="5.554">
        <ele>1234.8</ele>
        <time>2015-06-11T16:01:10Z</time>
      </trkpt>
      <trkpt lat="45.19547" lon="5.554">
        <ele>1235.1</ele>
        <time>2015-06-11T16:01:11Z</time>
      </trkpt>
      <trkpt lat="45.19549" lon="5.55401">
        <ele>1235.4</ele>
        <time>2015-06-11T16:01:12Z</time>
      </trkpt>
      <trkpt lat="45.19551" lon="5.55401">
        <ele>1235.7</ele>
        <time>2015-06-11T16:01:13Z</time>
      </trkpt>
      <trkpt lat="45.19553" lon="5.55401">
        <ele>1236.1</ele>
        <time>2015-06-11T16:01:14Z</time>
      </trkpt>
      <trkpt lat="45.19555" lon="5.55402">
        <ele>1236.4</ele>
        <time>2015-06-11T16:01:15Z</time>
      </trkpt>
      <trkpt lat="45.19557" lon="5.55402">
        <ele>1236.7</ele>
        <time>2015-06-11T16:01:16Z</time>
      </trkpt>
      <trkpt lat="45.19558" lon="5.55402">
        <ele>1236.9</ele>
        <time>2015-06-11T16:01:17Z</time>
      </trkpt>
      <trkpt lat="45.1956" lon="5.55402">
        <ele>1237.1</ele>
        <time>2015-06-11T16:01:18Z</time>
      </trkpt>
      <trkpt lat="45.19561" lon="5.55401">
        <ele>1237.4</ele>
        <time>2015-06-11T16:01:19Z</time>
      </trkpt>
      <trkpt lat="45.19562" lon="5.554">
        <ele>1237.7</ele>
        <time>2015-06-11T16:01:20Z</time>
      </trkpt>
      <trkpt lat="45.19563" lon="5.55399">
        <ele>1238</ele>
        <time>2015-06-11T16:01:21Z</time>
      </trkpt>
      <trkpt lat="45.19564" lon="5.55397">
        <ele>1238.3</ele>
        <time>2015-06-11T16:01:22Z</time>
      </trkpt>
      <trkpt lat="45.19565" lon="5.55396">
        <ele>1238.6</ele>
        <time>2015-06-11T16:01:23Z</time>
      </trkpt>
      <trkpt lat="45.19565" lon="5.55394">
        <ele>1238.7</ele>
        <time>2015-06-11T16:01:24Z</time>
      </trkpt>
      <trkpt lat="45.19564" lon="5.55393">
        <ele>1238.7</ele>
        <time>2015-06-11T16:01:25Z</time>
      </trkpt>
      <trkpt lat="45.19564" lon="5.55391">
        <ele>1238.7</ele>
        <time>2015-06-11T16:01:26Z</time>
      </trkpt>
      <trkpt lat="45.19563" lon="5.55389">
        <ele>1238.7</ele>
        <time>2015-06-11T16:01:27Z</time>
      </trkpt>
      <trkpt lat="45.19562" lon="5.55387">
        <ele>1238.7</ele>
        <time>2015-06-11T16:01:28Z</time>
      </trkpt>
      <trkpt lat="45.19562" lon="5.55385">
        <ele>1238.8</ele>
        <time>2015-06-11T16:01:29Z</time>
      </trkpt>
      <trkpt lat="45.19561" lon="5.55384">
        <ele>1238.9</ele>
        <time>2015-06-11T16:01:30Z</time>
      </trkpt>
      <trkpt lat="45.19561" lon="5.55382">
        <ele>1238.9</ele>
        <time>2015-06-11T16:01:31Z</time>
      </trkpt>
      <trkpt lat="45.1956" lon="5.5538">
        <ele>1238.9</ele>
        <time>2015-06-11T16:01:32Z</time>
      </trkpt>
      <trkpt lat="45.19559" lon="5.55379">
        <ele>1238.8</ele>
        <time>2015-06-11T16:01:33Z</time>
      </trkpt>
      <trkpt lat="45.19558" lon="5.55377">
        <ele>1238.8</ele>
        <time>2015-06-11T16:01:34Z</time>
      </trkpt>
      <trkpt lat="45.19557" lon="5.55376">
        <ele>1238.7</ele>
        <time>2015-06-11T16:01:35Z</time>
      </trkpt>
      <trkpt lat="45.19556" lon="5.55374">
        <ele>1238.6</ele>
        <time>2015-06-11T16:01:36Z</time>
      </trkpt>
      <trkpt lat="45.19555" lon="5.55373">
        <ele>1238.4</ele>
        <time>2015-06-11T16:01:37Z</time>
      </trkpt>
      <trkpt lat="45.19554" lon="5.55371">
        <ele>1238.1</ele>
        <time>2015-06-11T16:01:38Z</time>
      </trkpt>
      <trkpt lat="45.19553" lon="5.55369">
        <ele>1237.9</ele>
        <time>2015-06-11T16:01:39Z</time>
      </trkpt>
      <trkpt lat="45.19552" lon="5.55367">
        <ele>1237.6</ele>
        <time>2015-06-11T16:01:40Z</time>
      </trkpt>
      <trkpt lat="45.19551" lon="5.55365">
        <ele>1237.4</ele>
        <time>2015-06-11T16:01:41Z</time>
      </trkpt>
      <trkpt lat="45.1955" lon="5.55364">
        <ele>1237.2</ele>
        <time>2015-06-11T16:01:42Z</time>
      </trkpt>
      <trkpt lat="45.1955" lon="5.55362">
        <ele>1237</ele>
        <time>2015-06-11T16:01:43Z</time>
      </trkpt>
      <trkpt lat="45.19548" lon="5.5536">
        <ele>1236.7</ele>
        <time>2015-06-11T16:01:44Z</time>
      </trkpt>
      <trkpt lat="45.19548" lon="5.55357">
        <ele>1236.5</ele>
        <time>2015-06-11T16:01:45Z</time>
      </trkpt>
      <trkpt lat="45.19547" lon="5.55354">
        <ele>1236.2</ele>
        <time>2015-06-11T16:01:46Z</time>
      </trkpt>
      <trkpt lat="45.19547" lon="5.55352">
        <ele>1236.1</ele>
        <time>2015-06-11T16:01:47Z</time>
      </trkpt>
      <trkpt lat="45.19546" lon="5.5535">
        <ele>1235.9</ele>
        <time>2015-06-11T16:01:48Z</time>
      </trkpt>
      <trkpt lat="45.19546" lon="5.55347">
        <ele>1235.8</ele>
        <time>2015-06-11T16:01:49Z</time>
      </trkpt>
      <trkpt lat="45.19546" lon="5.55344">
        <ele>1235.7</ele>
        <time>2015-06-11T16:01:50Z</time>
      </trkpt>
      <trkpt lat="45.19547" lon="5.55342">
        <ele>1235.9</ele>
        <time>2015-06-11T16:01:51Z</time>
      </trkpt>
      <trkpt lat="45.19548" lon="5.5534">
        <ele>1236.1</ele>
        <time>2015-06-11T16:01:52Z</time>
      </trkpt>
      <trkpt lat="45.1955" lon="5.55339">
        <ele>1236.4</ele>
        <time>2015-06-11T16:01:53Z</time>
      </trkpt>
      <trkpt lat="45.19552" lon="5.55337">
        <ele>1236.7</ele>
        <time>2015-06-11T16:01:54Z</time>
      </trkpt>
      <trkpt lat="45.19553" lon="5.55335">
        <ele>1236.9</ele>
        <time>2015-06-11T16:01:55Z</time>
      </trkpt>
      <trkpt lat="45.19555" lon="5.55334">
        <ele>1237.1</ele>
        <time>2015-06-11T16:01:56Z</time>
      </trkpt>
      <trkpt lat="45.19556" lon="5.55332">
        <ele>1237.3</ele>
        <time>2015-06-11T16:01:57Z</time>
      </trkpt>
      <trkpt lat="45.19557" lon="5.55331">
        <ele>1237.6</ele>
        <time>2015-06-11T16:01:58Z</time>
      </trkpt>
      <trkpt lat="45.19559" lon="5.5533">
        <ele>1237.9</ele>
        <time>2015-06-11T16:01:59Z</time>
      </trkpt>
      <trkpt lat="45.19561" lon="5.55328">
        <ele>1238.2</ele>
        <time>2015-06-11T16:02:00Z</time>
      </trkpt>
      <trkpt lat="45.19562" lon="5.55327">
        <ele>1238.5</ele>
        <time>2015-06-11T16:02:01Z</time>
      </trkpt>
      <trkpt lat="45.19564" lon="5.55326">
        <ele>1238.8</ele>
        <time>2015-06-11T16:02:02Z</time>
      </trkpt>
      <trkpt lat="45.19565" lon="5.55325">
        <ele>1239.1</ele>
        <time>2015-06-11T16:02:03Z</time>
      </trkpt>
      <trkpt lat="45.19567" lon="5.55324">
        <ele>1239.4</ele>
        <time>2015-06-11T16:02:04Z</time>
      </trkpt>
      <trkpt lat="45.19568" lon="5.55323">
        <ele>1239.7</ele>
        <time>2015-06-11T16:02:05Z</time>
      </trkpt>
      <trkpt lat="45.19569" lon="5.55322">
        <ele>1239.9</ele>
        <time>2015-06-11T16:02:06Z</time>
      </trkpt>
      <trkpt lat="45.19571" lon="5.55321">
        <ele>1240.1</ele>
        <time>2015-06-11T16:02:07Z</time>
      </trkpt>
      <trkpt lat="45.19572" lon="5.55319">
        <ele>1240.4</ele>
        <time>2015-06-11T16:02:08Z</time>
      </trkpt>
      <trkpt lat="45.19573" lon="5.55318">
        <ele>1240.7</ele>
        <time>2015-06-11T16:02:09Z</time>
      </trkpt>
      <trkpt lat="45.19575" lon="5.55317">
        <ele>1241</ele>
        <time>2015-06-11T16:02:10Z</time>
      </trkpt>
      <trkpt lat="45.19576" lon="5.55316">
        <ele>1241.3</ele>
        <time>2015-06-11T16:02:11Z</time>
      </trkpt>
      <trkpt lat="45.19578" lon="5.55315">
        <ele>1241.6</ele>
        <time>2015-06-11T16:02:12Z</time>
      </trkpt>
      <trkpt lat="45.1958" lon="5.55314">
        <ele>1242</ele>
        <time>2015-06-11T16:02:13Z</time>
      </trkpt>
      <trkpt lat="45.19581" lon="5.55312">
        <ele>1242.3</ele>
        <time>2015-06-11T16:02:14Z</time>
      </trkpt>
      <trkpt lat="45.19584" lon="5.55311">
        <ele>1242.8</ele>
        <time>2015-06-11T16:02:15Z</time>
      </trkpt>
      <trkpt lat="45.19586" lon="5.55309">
        <ele>1243.2</ele>
        <time>2015-06-11T16:02:16Z</time>
      </trkpt>
      <trkpt lat="45.19588" lon="5.55307">
        <ele>1243.6</ele>
        <time>2015-06-11T16:02:17Z</time>
      </trkpt>
      <trkpt lat="45.19589" lon="5.55305">
        <ele>1243.9</ele>
        <time>2015-06-11T16:02:18Z</time>
      </trkpt>
      <trkpt lat="45.19591" lon="5.55303">
        <ele>1244.3</ele>
        <time>2015-06-11T16:02:19Z</time>
      </trkpt>
      <trkpt lat="45.19593" lon="5.55301">
        <ele>1244.8</ele>
        <time>2015-06-11T16:02:20Z</time>
      </trkpt>
      <trkpt lat="45.19595" lon="5.553">
        <ele>1245.2</ele>
        <time>2015-06-11T16:02:21Z</time>
      </trkpt>
      <trkpt lat="45.19597" lon="5.55299">
        <ele>1245.6</ele>
        <time>2015-06-11T16:02:22Z</time>
      </trkpt>
      <trkpt lat="45.19599" lon="5.55298">
        <ele>1246</ele>
        <time>2015-06-11T16:02:23Z</time>
      </trkpt>
      <trkpt lat="45.196" lon="5.55296">
        <ele>1246.4</ele>
        <time>2015-06-11T16:02:24Z</time>
      </trkpt>
      <trkpt lat="45.19602" lon="5.55294">
        <ele>1246.8</ele>
        <time>2015-06-11T16:02:25Z</time>
      </trkpt>
      <trkpt lat="45.19605" lon="5.55293">
        <ele>1247.3</ele>
        <time>2015-06-11T16:02:26Z</time>
      </trkpt>
      <trkpt lat="45.19607" lon="5.55291">
        <ele>1247.9</ele>
        <time>2015-06-11T16:02:27Z</time>
      </trkpt>
      <trkpt lat="45.1961" lon="5.5529">
        <ele>1248.6</ele>
        <time>2015-06-11T16:02:28Z</time>
      </trkpt>
      <trkpt lat="45.19612" lon="5.55289">
        <ele>1249.2</ele>
        <time>2015-06-11T16:02:29Z</time>
      </trkpt>
      <trkpt lat="45.19614" lon="5.55288">
        <ele>1249.8</ele>
        <time>2015-06-11T16:02:30Z</time>
      </trkpt>
      <trkpt lat="45.19615" lon="5.55287">
        <ele>1250.2</ele>
        <time>2015-06-11T16:02:31Z</time>
      </trkpt>
      <trkpt lat="45.19616" lon="5.55286">
        <ele>1250.7</ele>
        <time>2015-06-11T16:02:32Z</time>
      </trkpt>
      <trkpt lat="45.19618" lon="5.55284">
        <ele>1251.2</ele>
        <time>2015-06-11T16:02:33Z</time>
      </trkpt>
      <trkpt lat="45.1962" lon="5.55283">
        <ele>1251.7</ele>
        <time>2015-06-11T16:02:34Z</time>
      </trkpt>
      <trkpt lat="45.19622" lon="5.55282">
        <ele>1252.3</ele>
        <time>2015-06-11T16:02:35Z</time>
      </trkpt>
      <trkpt lat="45.19624" lon="5.55282">
        <ele>1252.9</ele>
        <time>2015-06-11T16:02:36Z</time>
      </trkpt>
      <trkpt lat="45.19626" lon="5.55281">
        <ele>1253.4</ele>
        <time>2015-06-11T16:02:37Z</time>
      </trkpt>
      <trkpt lat="45.19628" lon="5.5528">
        <ele>1253.7</ele>
        <time>2015-06-11T16:02:38Z</time>
      </trkpt>
      <trkpt lat="45.1963" lon="5.55279">
        <ele>1254</ele>
        <time>2015-06-11T16:02:39Z</time>
      </trkpt>
      <trkpt lat="45.19632" lon="5.55278">
        <ele>1254.4</ele>
        <time>2015-06-11T16:02:40Z</time>
      </trkpt>
      <trkpt lat="45.19633" lon="5.55277">
        <ele>1254.7</ele>
        <time>2015-06-11T16:02:41Z</time>
      </trkpt>
      <trkpt lat="45.19635" lon="5.55275">
        <ele>1255.2</ele>
        <time>2015-06-11T16:02:42Z</time>
      </trkpt>
      <trkpt lat="45.19637" lon="5.55274">
        <ele>1255.7</ele>
        <time>2015-06-11T16:02:43Z</time>
      </trkpt>
      <trkpt lat="45.1964" lon="5.55272">
        <ele>1256.2</ele>
        <time>2015-06-11T16:02:44Z</time>
      </trkpt>
      <trkpt lat="45.19642" lon="5.55271">
        <ele>1256.6</ele>
        <time>2015-06-11T16:02:45Z</time>
      </trkpt>
      <trkpt lat="45.19644" lon="5.55269">
        <ele>1257</ele>
        <time>2015-06-11T16:02:46Z</time>
      </trkpt>
      <trkpt lat="45.19647" lon="5.55269">
        <ele>1257.4</ele>
        <time>2015-06-11T16:02:47Z</time>
      </trkpt>
      <trkpt lat="45.19649" lon="5.55268">
        <ele>1257.8</ele>
        <time>2015-06-11T16:02:48Z</time>
      </trkpt>
      <trkpt lat="45.19651" lon="5.55267">
        <ele>1258.3</ele>
        <time>2015-06-11T16:02:49Z</time>
      </trkpt>
      <trkpt lat="45.19653" lon="5.55266">
        <ele>1258.7</ele>
        <time>2015-06-11T16:02:50Z</time>
      </trkpt>
      <trkpt lat="45.19655" lon="5.55264">
        <ele>1259.1</ele>
        <time>2015-06-11T16:02:51Z</time>
      </trkpt>
      <trkpt lat="45.19657" lon="5.55263">
        <ele>1259.4</ele>
        <time>2015-06-11T16:02:52Z</time>
      </trkpt>
      <trkpt lat="45.19659" lon="5.55261">
        <ele>1259.9</ele>
        <time>2015-06-11T16:02:53Z</time>
      </trkpt>
      <trkpt lat="45.19661" lon="5.5526">
        <ele>1260.3</ele>
        <time>2015-06-11T16:02:54Z</time>
      </trkpt>
      <trkpt lat="45.19663" lon="5.55258">
        <ele>1260.7</ele>
        <time>2015-06-11T16:02:55Z</time>
      </trkpt>
      <trkpt lat="45.19664" lon="5.55256">
        <ele>1261.1</ele>
        <time>2015-06-11T16:02:56Z</time>
      </trkpt>
      <trkpt lat="45.19666" lon="5.55255">
        <ele>1261.5</ele>
        <time>2015-06-11T16:02:57Z</time>
      </trkpt>
      <trkpt lat="45.19669" lon="5.55254">
        <ele>1261.9</ele>
        <time>2015-06-11T16:02:58Z</time>
      </trkpt>
      <trkpt lat="45.19671" lon="5.55252">
        <ele>1262.3</ele>
        <time>2015-06-11T16:02:59Z</time>
      </trkpt>
      <trkpt lat="45.19673" lon="5.5525">
        <ele>1262.8</ele>
        <time>2015-06-11T16:03:00Z</time>
      </trkpt>
      <trkpt lat="45.19675" lon="5.55249">
        <ele>1263.2</ele>
        <time>2015-06-11T16:03:01Z</time>
      </trkpt>
      <trkpt lat="45.19677" lon="5.55247">
        <ele>1263.6</ele>
        <time>2015-06-11T16:03:02Z</time>
      </trkpt>
      <trkpt lat="45.19679" lon="5.55246">
        <ele>1264</ele>
        <time>2015-06-11T16:03:03Z</time>
      </trkpt>
      <trkpt lat="45.1968" lon="5.55244">
        <ele>1264.3</ele>
        <time>2015-06-11T16:03:04Z</time>
      </trkpt>
      <trkpt lat="45.19682" lon="5.55242">
        <ele>1264.7</ele>
        <time>2015-06-11T16:03:05Z</time>
      </trkpt>
      <trkpt lat="45.19683" lon="5.5524">
        <ele>1265.1</ele>
        <time>2015-06-11T16:03:06Z</time>
      </trkpt>
      <trkpt lat="45.19684" lon="5.55237">
        <ele>1265.5</ele>
        <time>2015-06-11T16:03:07Z</time>
      </trkpt>
      <trkpt lat="45.19685" lon="5.55234">
        <ele>1265.9</ele>
        <time>2015-06-11T16:03:08Z</time>
      </trkpt>
      <trkpt lat="45.19686" lon="5.55232">
        <ele>1266.2</ele>
        <time>2015-06-11T16:03:09Z</time>
      </trkpt>
      <trkpt lat="45.19687" lon="5.55231">
        <ele>1266.4</ele>
        <time>2015-06-11T16:03:10Z</time>
      </trkpt>
      <trkpt lat="45.19686" lon="5.5523">
        <ele>1266.3</ele>
        <time>2015-06-11T16:03:11Z</time>
      </trkpt>
      <trkpt lat="45.19684" lon="5.55229">
        <ele>1266.2</ele>
        <time>2015-06-11T16:03:12Z</time>
      </trkpt>
      <trkpt lat="45.19682" lon="5.55227">
        <ele>1266.1</ele>
        <time>2015-06-11T16:03:13Z</time>
      </trkpt>
      <trkpt lat="45.1968" lon="5.55225">
        <ele>1266.1</ele>
        <time>2015-06-11T16:03:14Z</time>
      </trkpt>
      <trkpt lat="45.19678" lon="5.55224">
        <ele>1265.9</ele>
        <time>2015-06-11T16:03:15Z</time>
      </trkpt>
      <trkpt lat="45.19677" lon="5.55224">
        <ele>1265.8</ele>
        <time>2015-06-11T16:03:16Z</time>
      </trkpt>
      <trkpt lat="45.19675" lon="5.55224">
        <ele>1265.5</ele>
        <time>2015-06-11T16:03:17Z</time>
      </trkpt>
      <trkpt lat="45.19673" lon="5.55225">
        <ele>1265.2</ele>
        <time>2015-06-11T16:03:18Z</time>
      </trkpt>
      <trkpt lat="45.19671" lon="5.55226">
        <ele>1264.8</ele>
        <time>2015-06-11T16:03:19Z</time>
      </trkpt>
      <trkpt lat="45.19669" lon="5.55228">
        <ele>1264.4</ele>
        <time>2015-06-11T16:03:20Z</time>
      </trkpt>
      <trkpt lat="45.19667" lon="5.55229">
        <ele>1264</ele>
        <time>2015-06-11T16:03:21Z</time>
      </trkpt>
      <trkpt lat="45.19666" lon="5.55231">
        <ele>1263.7</ele>
        <time>2015-06-11T16:03:22Z</time>
      </trkpt>
      <trkpt lat="45.19664" lon="5.55232">
        <ele>1263.3</ele>
        <time>2015-06-11T16:03:23Z</time>
      </trkpt>
      <trkpt lat="45.19662" lon="5.55234">
        <ele>1262.9</ele>
        <time>2015-06-11T16:03:24Z</time>
      </trkpt>
      <trkpt lat="45.1966" lon="5.55236">
        <ele>1262.5</ele>
        <time>2015-06-11T16:03:25Z</time>
      </trkpt>
      <trkpt lat="45.19658" lon="5.55237">
        <ele>1262</ele>
        <time>2015-06-11T16:03:26Z</time>
      </trkpt>
      <trkpt lat="45.19655" lon="5.55239">
        <ele>1261.6</ele>
        <time>2015-06-11T16:03:27Z</time>
      </trkpt>
      <trkpt lat="45.19653" lon="5.55241">
        <ele>1261.1</ele>
        <time>2015-06-11T16:03:28Z</time>
      </trkpt>
      <trkpt lat="45.19651" lon="5.55242">
        <ele>1260.8</ele>
        <time>2015-06-11T16:03:29Z</time>
      </trkpt>
      <trkpt lat="45.19649" lon="5.55243">
        <ele>1260.4</ele>
        <time>2015-06-11T16:03:30Z</time>
      </trkpt>
      <trkpt lat="45.19647" lon="5.55244">
        <ele>1260</ele>
        <time>2015-06-11T16:03:31Z</time>
      </trkpt>
      <trkpt lat="45.19645" lon="5.55246">
        <ele>1259.5</ele>
        <time>2015-06-11T16:03:32Z</time>
      </trkpt>
      <trkpt lat="45.19643" lon="5.55247">
        <ele>1259.2</ele>
        <time>2015-06-11T16:03:33Z</time>
      </trkpt>
      <trkpt lat="45.19641" lon="5.55247">
        <ele>1258.9</ele>
        <time>2015-06-11T16:03:34Z</time>
      </trkpt>
      <trkpt lat="45.19639" lon="5.55248">
        <ele>1258.6</ele>
        <time>2015-06-11T16:03:35Z</time>
      </trkpt>
      <trkpt lat="45.19637" lon="5.55249">
        <ele>1258.2</ele>
        <time>2015-06-11T16:03:36Z</time>
      </trkpt>
      <trkpt lat="45.19635" lon="5.55252">
        <ele>1257.6</ele>
        <time>2015-06-11T16:03:37Z</time>
      </trkpt>
      <trkpt lat="45.19632" lon="5.55254">
        <ele>1257</ele>
        <time>2015-06-11T16:03:38Z</time>
      </trkpt>
      <trkpt lat="45.1963" lon="5.55256">
        <ele>1256.5</ele>
        <time>2015-06-11T16:03:39Z</time>
      </trkpt>
      <trkpt lat="45.19628" lon="5.55258">
        <ele>1256.1</ele>
        <time>2015-06-11T16:03:40Z</time>
      </trkpt>
      <trkpt lat="45.19627" lon="5.5526">
        <ele>1255.7</ele>
        <time>2015-06-11T16:03:41Z</time>
      </trkpt>
      <trkpt lat="45.19625" lon="5.55261">
        <ele>1255.3</ele>
        <time>2015-06-11T16:03:42Z</time>
      </trkpt>
      <trkpt lat="45.19623" lon="5.55261">
        <ele>1254.8</ele>
        <time>2015-06-11T16:03:43Z</time>
      </trkpt>
      <trkpt lat="45.19621" lon="5.55262">
        <ele>1254.3</ele>
        <time>2015-06-11T16:03:44Z</time>
      </trkpt>
      <trkpt lat="45.19618" lon="5.55262">
        <ele>1253.8</ele>
        <time>2015-06-11T16:03:45Z</time>
      </trkpt>
      <trkpt lat="45.19616" lon="5.55262">
        <ele>1253.2</ele>
        <time>2015-06-11T16:03:46Z</time>
      </trkpt>
      <trkpt lat="45.19613" lon="5.55263">
        <ele>1252.6</ele>
        <time>2015-06-11T16:03:47Z</time>
      </trkpt>
      <trkpt lat="45.19611" lon="5.55263">
        <ele>1252.1</ele>
        <time>2015-06-11T16:03:48Z</time>
      </trkpt>
      <trkpt lat="45.19609" lon="5.55264">
        <ele>1251.6</ele>
        <time>2015-06-11T16:03:49Z</time>
      </trkpt>
      <trkpt lat="45.19607" lon="5.55264">
        <ele>1251</ele>
        <time>2015-06-11T16:03:50Z</time>
      </trkpt>
      <trkpt lat="45.19604" lon="5.55265">
        <ele>1250.3</ele>
        <time>2015-06-11T16:03:51Z</time>
      </trkpt>
      <trkpt lat="45.19602" lon="5.55266">
        <ele>1249.8</ele>
        <time>2015-06-11T16:03:52Z</time>
      </trkpt>
      <trkpt lat="45.19599" lon="5.55267">
        <ele>1249</ele>
        <time>2015-06-11T16:03:53Z</time>
      </trkpt>
      <trkpt lat="45.19597" lon="5.55268">
        <ele>1248.4</ele>
        <time>2015-06-11T16:03:54Z</time>
      </trkpt>
      <trkpt lat="45.19593" lon="5.55268">
        <ele>1247.7</ele>
        <time>2015-06-11T16:03:55Z</time>
      </trkpt>
      <trkpt lat="45.19591" lon="5.55269">
        <ele>1247.1</ele>
        <time>2015-06-11T16:03:56Z</time>
      </trkpt>
      <trkpt lat="45.19589" lon="5.5527">
        <ele>1246.5</ele>
        <time>2015-06-11T16:03:57Z</time>
      </trkpt>
      <trkpt lat="45.19587" lon="5.55271">
        <ele>1245.8</ele>
        <time>2015-06-11T16:03:58Z</time>
      </trkpt>
      <trkpt lat="45.19584" lon="5.55273">
        <ele>1245.1</ele>
        <time>2015-06-11T16:03:59Z</time>
      </trkpt>
      <trkpt lat="45.19582" lon="5.55274">
        <ele>1244.5</ele>
        <time>2015-06-11T16:04:00Z</time>
      </trkpt>
      <trkpt lat="45.1958" lon="5.55275">
        <ele>1243.9</ele>
        <time>2015-06-11T16:04:01Z</time>
      </trkpt>
      <trkpt lat="45.19578" lon="5.55275">
        <ele>1243.5</ele>
        <time>2015-06-11T16:04:02Z</time>
      </trkpt>
      <trkpt lat="45.19576" lon="5.55275">
        <ele>1243</ele>
        <time>2015-06-11T16:04:03Z</time>
      </trkpt>
      <trkpt lat="45.19574" lon="5.55276">
        <ele>1242.3</ele>
        <time>2015-06-11T16:04:04Z</time>
      </trkpt>
      <trkpt lat="45.19572" lon="5.55277">
        <ele>1241.8</ele>
        <time>2015-06-11T16:04:05Z</time>
      </trkpt>
      <trkpt lat="45.19569" lon="5.55277">
        <ele>1241.3</ele>
        <time>2015-06-11T16:04:06Z</time>
      </trkpt>
      <trkpt lat="45.19568" lon="5.55277">
        <ele>1241</ele>
        <time>2015-06-11T16:04:07Z</time>
      </trkpt>
      <trkpt lat="45.19566" lon="5.55277">
        <ele>1240.4</ele>
        <time>2015-06-11T16:04:08Z</time>
      </trkpt>
      <trkpt lat="45.19563" lon="5.55277">
        <ele>1239.9</ele>
        <time>2015-06-11T16:04:09Z</time>
      </trkpt>
      <trkpt lat="45.19562" lon="5.55277">
        <ele>1239.5</ele>
        <time>2015-06-11T16:04:10Z</time>
      </trkpt>
      <trkpt lat="45.1956" lon="5.55277">
        <ele>1239.2</ele>
        <time>2015-06-11T16:04:11Z</time>
      </trkpt>
      <trkpt lat="45.19558" lon="5.55277">
        <ele>1238.7</ele>
        <time>2015-06-11T16:04:12Z</time>
      </trkpt>
      <trkpt lat="45.19555" lon="5.55276">
        <ele>1238.2</ele>
        <time>2015-06-11T16:04:13Z</time>
      </trkpt>
      <trkpt lat="45.19552" lon="5.55275">
        <ele>1237.8</ele>
        <time>2015-06-11T16:04:14Z</time>
      </trkpt>
      <trkpt lat="45.1955" lon="5.55273">
        <ele>1237.6</ele>
        <time>2015-06-11T16:04:15Z</time>
      </trkpt>
      <trkpt lat="45.19547" lon="5.55271">
        <ele>1237.2</ele>
        <time>2015-06-11T16:04:16Z</time>
      </trkpt>
      <trkpt lat="45.19544" lon="5.55269">
        <ele>1236.8</ele>
        <time>2015-06-11T16:04:17Z</time>
      </trkpt>
      <trkpt lat="45.19541" lon="5.55267">
        <ele>1236.3</ele>
        <time>2015-06-11T16:04:18Z</time>
      </trkpt>
      <trkpt lat="45.19537" lon="5.55265">
        <ele>1235.9</ele>
        <time>2015-06-11T16:04:19Z</time>
      </trkpt>
      <trkpt lat="45.19535" lon="5.55263">
        <ele>1235.6</ele>
        <time>2015-06-11T16:04:20Z</time>
      </trkpt>
      <trkpt lat="45.19532" lon="5.5526">
        <ele>1235.5</ele>
        <time>2015-06-11T16:04:21Z</time>
      </trkpt>
      <trkpt lat="45.19531" lon="5.55258">
        <ele>1235.5</ele>
        <time>2015-06-11T16:04:22Z</time>
      </trkpt>
      <trkpt lat="45.19529" lon="5.55255">
        <ele>1235.5</ele>
        <time>2015-06-11T16:04:23Z</time>
      </trkpt>
      <trkpt lat="45.19528" lon="5.55253">
        <ele>1235.6</ele>
        <time>2015-06-11T16:04:24Z</time>
      </trkpt>
      <trkpt lat="45.19527" lon="5.55251">
        <ele>1235.7</ele>
        <time>2015-06-11T16:04:25Z</time>
      </trkpt>
      <trkpt lat="45.19527" lon="5.55248">
        <ele>1235.9</ele>
        <time>2015-06-11T16:04:26Z</time>
      </trkpt>
      <trkpt lat="45.19526" lon="5.55246">
        <ele>1236.1</ele>
        <time>2015-06-11T16:04:27Z</time>
      </trkpt>
      <trkpt lat="45.19525" lon="5.55243">
        <ele>1236.4</ele>
        <time>2015-06-11T16:04:28Z</time>
      </trkpt>
      <trkpt lat="45.19524" lon="5.55239">
        <ele>1236.6</ele>
        <time>2015-06-11T16:04:29Z</time>
      </trkpt>
      <trkpt lat="45.19522" lon="5.55236">
        <ele>1236.6</ele>
        <time>2015-06-11T16:04:30Z</time>
      </trkpt>
      <trkpt lat="45.1952" lon="5.55233">
        <ele>1236.5</ele>
        <time>2015-06-11T16:04:31Z</time>
      </trkpt>
      <trkpt lat="45.19518" lon="5.55231">
        <ele>1236.4</ele>
        <time>2015-06-11T16:04:32Z</time>
      </trkpt>
      <trkpt lat="45.19516" lon="5.55229">
        <ele>1236.1</ele>
        <time>2015-06-11T16:04:33Z</time>
      </trkpt>
      <trkpt lat="45.19513" lon="5.55228">
        <ele>1235.8</ele>
        <time>2015-06-11T16:04:34Z</time>
      </trkpt>
      <trkpt lat="45.19511" lon="5.55226">
        <ele>1235.6</ele>
        <time>2015-06-11T16:04:35Z</time>
      </trkpt>
      <trkpt lat="45.1951" lon="5.55225">
        <ele>1235.4</ele>
        <time>2015-06-11T16:04:36Z</time>
      </trkpt>
      <trkpt lat="45.19509" lon="5.55224">
        <ele>1235.4</ele>
        <time>2015-06-11T16:04:37Z</time>
      </trkpt>
      <trkpt lat="45.19508" lon="5.55222">
        <ele>1235.4</ele>
        <time>2015-06-11T16:04:38Z</time>
      </trkpt>
      <trkpt lat="45.19506" lon="5.5522">
        <ele>1235.3</ele>
        <time>2015-06-11T16:04:39Z</time>
      </trkpt>
      <trkpt lat="45.19504" lon="5.55218">
        <ele>1235.1</ele>
        <time>2015-06-11T16:04:40Z</time>
      </trkpt>
      <trkpt lat="45.19501" lon="5.55215">
        <ele>1234.7</ele>
        <time>2015-06-11T16:04:41Z</time>
      </trkpt>
      <trkpt lat="45.19498" lon="5.55213">
        <ele>1234.3</ele>
        <time>2015-06-11T16:04:42Z</time>
      </trkpt>
      <trkpt lat="45.19495" lon="5.5521">
        <ele>1234</ele>
        <time>2015-06-11T16:04:43Z</time>
      </trkpt>
      <trkpt lat="45.19493" lon="5.55208">
        <ele>1233.9</ele>
        <time>2015-06-11T16:04:44Z</time>
      </trkpt>
      <trkpt lat="45.19491" lon="5.55206">
        <ele>1234</ele>
        <time>2015-06-11T16:04:45Z</time>
      </trkpt>
      <trkpt lat="45.19489" lon="5.55204">
        <ele>1233.9</ele>
        <time>2015-06-11T16:04:46Z</time>
      </trkpt>
      <trkpt lat="45.19487" lon="5.55202">
        <ele>1233.9</ele>
        <time>2015-06-11T16:04:47Z</time>
      </trkpt>
      <trkpt lat="45.19486" lon="5.552">
        <ele>1233.9</ele>
        <time>2015-06-11T16:04:48Z</time>
      </trkpt>
      <trkpt lat="45.19484" lon="5.55199">
        <ele>1233.8</ele>
        <time>2015-06-11T16:04:49Z</time>
      </trkpt>
      <trkpt lat="45.19482" lon="5.55197">
        <ele>1233.7</ele>
        <time>2015-06-11T16:04:50Z</time>
      </trkpt>
      <trkpt lat="45.19481" lon="5.55195">
        <ele>1233.8</ele>
        <time>2015-06-11T16:04:51Z</time>
      </trkpt>
      <trkpt lat="45.19479" lon="5.55193">
        <ele>1234</ele>
        <time>2015-06-11T16:04:52Z</time>
      </trkpt>
      <trkpt lat="45.19478" lon="5.55191">
        <ele>1234.3</ele>
        <time>2015-06-11T16:04:53Z</time>
      </trkpt>
      <trkpt lat="45.19477" lon="5.55188">
        <ele>1234.7</ele>
        <time>2015-06-11T16:04:54Z</time>
      </trkpt>
      <trkpt lat="45.19476" lon="5.55185">
        <ele>1234.9</ele>
        <time>2015-06-11T16:04:55Z</time>
      </trkpt>
      <trkpt lat="45.19474" lon="5.55183">
        <ele>1235.1</ele>
        <time>2015-06-11T16:04:56Z</time>
      </trkpt>
      <trkpt lat="45.19472" lon="5.5518">
        <ele>1235.2</ele>
        <time>2015-06-11T16:04:57Z</time>
      </trkpt>
      <trkpt lat="45.19471" lon="5.55177">
        <ele>1235.4</ele>
        <time>2015-06-11T16:04:58Z</time>
      </trkpt>
      <trkpt lat="45.19469" lon="5.55175">
        <ele>1235.7</ele>
        <time>2015-06-11T16:04:59Z</time>
      </trkpt>
      <trkpt lat="45.19468" lon="5.55172">
        <ele>1236</ele>
        <time>2015-06-11T16:05:00Z</time>
      </trkpt>
      <trkpt lat="45.19466" lon="5.55169">
        <ele>1236.3</ele>
        <time>2015-06-11T16:05:01Z</time>
      </trkpt>
      <trkpt lat="45.19465" lon="5.55166">
        <ele>1236.6</ele>
        <time>2015-06-11T16:05:02Z</time>
      </trkpt>
      <trkpt lat="45.19463" lon="5.55163">
        <ele>1237</ele>
        <time>2015-06-11T16:05:03Z</time>
      </trkpt>
      <trkpt lat="45.19462" lon="5.5516">
        <ele>1237.3</ele>
        <time>2015-06-11T16:05:04Z</time>
      </trkpt>
      <trkpt lat="45.19461" lon="5.55158">
        <ele>1237.7</ele>
        <time>2015-06-11T16:05:05Z</time>
      </trkpt>
      <trkpt lat="45.1946" lon="5.55155">
        <ele>1237.9</ele>
        <time>2015-06-11T16:05:06Z</time>
      </trkpt>
      <trkpt lat="45.19459" lon="5.55152">
        <ele>1238.2</ele>
        <time>2015-06-11T16:05:07Z</time>
      </trkpt>
      <trkpt lat="45.19457" lon="5.55149">
        <ele>1238.7</ele>
        <time>2015-06-11T16:05:08Z</time>
      </trkpt>
      <trkpt lat="45.19455" lon="5.55147">
        <ele>1239.2</ele>
        <time>2015-06-11T16:05:09Z</time>
      </trkpt>
      <trkpt lat="45.19453" lon="5.55144">
        <ele>1239.5</ele>
        <time>2015-06-11T16:05:10Z</time>
      </trkpt>
      <trkpt lat="45.19452" lon="5.55143">
        <ele>1239.9</ele>
        <time>2015-06-11T16:05:11Z</time>
      </trkpt>
      <trkpt lat="45.19452" lon="5.55141">
        <ele>1240.3</ele>
        <time>2015-06-11T16:05:12Z</time>
      </trkpt>
      <trkpt lat="45.1945" lon="5.55138">
        <ele>1240.8</ele>
        <time>2015-06-11T16:05:13Z</time>
      </trkpt>
      <trkpt lat="45.19449" lon="5.55136">
        <ele>1241.3</ele>
        <time>2015-06-11T16:05:14Z</time>
      </trkpt>
      <trkpt lat="45.19448" lon="5.55133">
        <ele>1241.8</ele>
        <time>2015-06-11T16:05:15Z</time>
      </trkpt>
      <trkpt lat="45.19446" lon="5.5513">
        <ele>1242.4</ele>
        <time>2015-06-11T16:05:16Z</time>
      </trkpt>
      <trkpt lat="45.19444" lon="5.55127">
        <ele>1243</ele>
        <time>2015-06-11T16:05:17Z</time>
      </trkpt>
      <trkpt lat="45.19442" lon="5.55124">
        <ele>1243.6</ele>
        <time>2015-06-11T16:05:18Z</time>
      </trkpt>
      <trkpt lat="45.19441" lon="5.55122">
        <ele>1244.3</ele>
        <time>2015-06-11T16:05:19Z</time>
      </trkpt>
      <trkpt lat="45.19439" lon="5.55119">
        <ele>1244.9</ele>
        <time>2015-06-11T16:05:20Z</time>
      </trkpt>
      <trkpt lat="45.19437" lon="5.55117">
        <ele>1245.4</ele>
        <time>2015-06-11T16:05:21Z</time>
      </trkpt>
      <trkpt lat="45.19436" lon="5.55115">
        <ele>1246</ele>
        <time>2015-06-11T16:05:22Z</time>
      </trkpt>
      <trkpt lat="45.19434" lon="5.55113">
        <ele>1246.6</ele>
        <time>2015-06-11T16:05:23Z</time>
      </trkpt>
      <trkpt lat="45.19432" lon="5.55111">
        <ele>1247.2</ele>
        <time>2015-06-11T16:05:24Z</time>
      </trkpt>
      <trkpt lat="45.1943" lon="5.55108">
        <ele>1247.8</ele>
        <time>2015-06-11T16:05:25Z</time>
      </trkpt>
      <trkpt lat="45.19428" lon="5.55106">
        <ele>1248.5</ele>
        <time>2015-06-11T16:05:26Z</time>
      </trkpt>
      <trkpt lat="45.19428" lon="5.55104">
        <ele>1249</ele>
        <time>2015-06-11T16:05:27Z</time>
      </trkpt>
      <trkpt lat="45.19426" lon="5.55102">
        <ele>1249.6</ele>
        <time>2015-06-11T16:05:28Z</time>
      </trkpt>
      <trkpt lat="45.19424" lon="5.551">
        <ele>1250</ele>
        <time>2015-06-11T16:05:29Z</time>
      </trkpt>
      <trkpt lat="45.19423" lon="5.55099">
        <ele>1250.4</ele>
        <time>2015-06-11T16:05:30Z</time>
      </trkpt>
      <trkpt lat="45.19421" lon="5.55097">
        <ele>1250.8</ele>
        <time>2015-06-11T16:05:31Z</time>
      </trkpt>
      <trkpt lat="45.1942" lon="5.55097">
        <ele>1251.1</ele>
        <time>2015-06-11T16:05:32Z</time>
      </trkpt>
      <trkpt lat="45.1942" lon="5.55096">
        <ele>1251.2</ele>
        <time>2015-06-11T16:05:33Z</time>
      </trkpt>
      <trkpt lat="45.19419" lon="5.55096">
        <ele>1251.2</ele>
        <time>2015-06-11T16:05:34Z</time>
      </trkpt>
      <trkpt lat="45.19418" lon="5.55096">
        <ele>1251.3</ele>
        <time>2015-06-11T16:05:35Z</time>
      </trkpt>
      <trkpt lat="45.19417" lon="5.55095">
        <ele>1251.6</ele>
        <time>2015-06-11T16:05:36Z</time>
      </trkpt>
      <trkpt lat="45.19415" lon="5.55094">
        <ele>1251.8</ele>
        <time>2015-06-11T16:05:37Z</time>
      </trkpt>
      <trkpt lat="45.19414" lon="5.55093">
        <ele>1252.1</ele>
        <time>2015-06-11T16:05:38Z</time>
      </trkpt>
      <trkpt lat="45.19412" lon="5.55093">
        <ele>1252.2</ele>
        <time>2015-06-11T16:05:39Z</time>
      </trkpt>
      <trkpt lat="45.19411" lon="5.55092">
        <ele>1252.2</ele>
        <time>2015-06-11T16:05:40Z</time>
      </trkpt>
      <trkpt lat="45.1941" lon="5.55092">
        <ele>1252.2</ele>
        <time>2015-06-11T16:05:41Z</time>
      </trkpt>
      <trkpt lat="45.19408" lon="5.55093">
        <ele>1252.2</ele>
        <time>2015-06-11T16:05:42Z</time>
      </trkpt>
      <trkpt lat="45.19407" lon="5.55093">
        <ele>1252.1</ele>
        <time>2015-06-11T16:05:43Z</time>
      </trkpt>
      <trkpt lat="45.19406" lon="5.55093">
        <ele>1252.1</ele>
        <time>2015-06-11T16:05:44Z</time>
      </trkpt>
      <trkpt lat="45.19405" lon="5.55093">
        <ele>1252</ele>
        <time>2015-06-11T16:05:45Z</time>
      </trkpt>
      <trkpt lat="45.19404" lon="5.55093">
        <ele>1251.9</ele>
        <time>2015-06-11T16:05:46Z</time>
      </trkpt>
      <trkpt lat="45.19402" lon="5.55094">
        <ele>1251.7</ele>
        <time>2015-06-11T16:05:47Z</time>
      </trkpt>
      <trkpt lat="45.19401" lon="5.55094">
        <ele>1251.5</ele>
        <time>2015-06-11T16:05:48Z</time>
      </trkpt>
      <trkpt lat="45.194" lon="5.55095">
        <ele>1251.4</ele>
        <time>2015-06-11T16:05:49Z</time>
      </trkpt>
      <trkpt lat="45.19398" lon="5.55095">
        <ele>1251.2</ele>
        <time>2015-06-11T16:05:50Z</time>
      </trkpt>
      <trkpt lat="45.19396" lon="5.55096">
        <ele>1250.8</ele>
        <time>2015-06-11T16:05:51Z</time>
      </trkpt>
      <trkpt lat="45.19394" lon="5.55097">
        <ele>1250.6</ele>
        <time>2015-06-11T16:05:52Z</time>
      </trkpt>
      <trkpt lat="45.19392" lon="5.55097">
        <ele>1250.5</ele>
        <time>2015-06-11T16:05:53Z</time>
      </trkpt>
      <trkpt lat="45.19389" lon="5.55098">
        <ele>1250.4</ele>
        <time>2015-06-11T16:05:54Z</time>
      </trkpt>
      <trkpt lat="45.19387" lon="5.55098">
        <ele>1250.3</ele>
        <time>2015-06-11T16:05:55Z</time>
      </trkpt>
      <trkpt lat="45.19385" lon="5.55098">
        <ele>1250.2</ele>
        <time>2015-06-11T16:05:56Z</time>
      </trkpt>
      <trkpt lat="45.19383" lon="5.55098">
        <ele>1250.1</ele>
        <time>2015-06-11T16:05:57Z</time>
      </trkpt>
      <trkpt lat="45.19381" lon="5.55099">
        <ele>1250</ele>
        <time>2015-06-11T16:05:58Z</time>
      </trkpt>
      <trkpt lat="45.1938" lon="5.55099">
        <ele>1249.8</ele>
        <time>2015-06-11T16:05:59Z</time>
      </trkpt>
      <trkpt lat="45.19378" lon="5.55099">
        <ele>1249.7</ele>
        <time>2015-06-11T16:06:00Z</time>
      </trkpt>
      <trkpt lat="45.19376" lon="5.55099">
        <ele>1249.7</ele>
        <time>2015-06-11T16:06:01Z</time>
      </trkpt>
      <trkpt lat="45.19374" lon="5.55099">
        <ele>1249.3</ele>
        <time>2015-06-11T16:06:02Z</time>
      </trkpt>
      <trkpt lat="45.19371" lon="5.55099">
        <ele>1248.9</ele>
        <time>2015-06-11T16:06:03Z</time>
      </trkpt>
      <trkpt lat="45.19369" lon="5.55098">
        <ele>1248.7</ele>
        <time>2015-06-11T16:06:04Z</time>
      </trkpt>
      <trkpt lat="45.19367" lon="5.55097">
        <ele>1248.5</ele>
        <time>2015-06-11T16:06:05Z</time>
      </trkpt>
      <trkpt lat="45.19364" lon="5.55097">
        <ele>1248.2</ele>
        <time>2015-06-11T16:06:06Z</time>
      </trkpt>
      <trkpt lat="45.19362" lon="5.55096">
        <ele>1248</ele>
        <time>2015-06-11T16:06:07Z</time>
      </trkpt>
      <trkpt lat="45.19359" lon="5.55094">
        <ele>1247.9</ele>
        <time>2015-06-11T16:06:08Z</time>
      </trkpt>
      <trkpt lat="45.19356" lon="5.55093">
        <ele>1247.7</ele>
        <time>2015-06-11T16:06:09Z</time>
      </trkpt>
      <trkpt lat="45.19353" lon="5.55091">
        <ele>1247.6</ele>
        <time>2015-06-11T16:06:10Z</time>
      </trkpt>
      <trkpt lat="45.1935" lon="5.5509">
        <ele>1247.7</ele>
        <time>2015-06-11T16:06:11Z</time>
      </trkpt>
      <trkpt lat="45.19348" lon="5.55089">
        <ele>1247.6</ele>
        <time>2015-06-11T16:06:12Z</time>
      </trkpt>
      <trkpt lat="45.19346" lon="5.55087">
        <ele>1247.5</ele>
        <time>2015-06-11T16:06:13Z</time>
      </trkpt>
      <trkpt lat="45.19344" lon="5.55086">
        <ele>1247.6</ele>
        <time>2015-06-11T16:06:14Z</time>
      </trkpt>
      <trkpt lat="45.19342" lon="5.55085">
        <ele>1247.8</ele>
        <time>2015-06-11T16:06:15Z</time>
      </trkpt>
      <trkpt lat="45.19341" lon="5.55084">
        <ele>1247.9</ele>
        <time>2015-06-11T16:06:16Z</time>
      </trkpt>
      <trkpt lat="45.19339" lon="5.55083">
        <ele>1247.9</ele>
        <time>2015-06-11T16:06:17Z</time>
      </trkpt>
      <trkpt lat="45.19337" lon="5.55083">
        <ele>1247.5</ele>
        <time>2015-06-11T16:06:18Z</time>
      </trkpt>
      <trkpt lat="45.19334" lon="5.55082">
        <ele>1247.1</ele>
        <time>2015-06-11T16:06:19Z</time>
      </trkpt>
      <trkpt lat="45.19333" lon="5.55082">
        <ele>1246.8</ele>
        <time>2015-06-11T16:06:20Z</time>
      </trkpt>
      <trkpt lat="45.19331" lon="5.55081">
        <ele>1246.7</ele>
        <time>2015-06-11T16:06:21Z</time>
      </trkpt>
      <trkpt lat="45.19328" lon="5.55081">
        <ele>1246.5</ele>
        <time>2015-06-11T16:06:22Z</time>
      </trkpt>
      <trkpt lat="45.19326" lon="5.5508">
        <ele>1246.1</ele>
        <time>2015-06-11T16:06:23Z</time>
      </trkpt>
      <trkpt lat="45.19323" lon="5.5508">
        <ele>1245.8</ele>
        <time>2015-06-11T16:06:24Z</time>
      </trkpt>
      <trkpt lat="45.19322" lon="5.5508">
        <ele>1245.7</ele>
        <time>2015-06-11T16:06:25Z</time>
      </trkpt>
      <trkpt lat="45.1932" lon="5.55079">
        <ele>1245.7</ele>
        <time>2015-06-11T16:06:26Z</time>
      </trkpt>
      <trkpt lat="45.19318" lon="5.55077">
        <ele>1245.8</ele>
        <time>2015-06-11T16:06:27Z</time>
      </trkpt>
      <trkpt lat="45.19316" lon="5.55076">
        <ele>1245.9</ele>
        <time>2015-06-11T16:06:28Z</time>
      </trkpt>
      <trkpt lat="45.19313" lon="5.55074">
        <ele>1245.9</ele>
        <time>2015-06-11T16:06:29Z</time>
      </trkpt>
      <trkpt lat="45.19311" lon="5.55073">
        <ele>1246.1</ele>
        <time>2015-06-11T16:06:30Z</time>
      </trkpt>
      <trkpt lat="45.19308" lon="5.55071">
        <ele>1246.3</ele>
        <time>2015-06-11T16:06:31Z</time>
      </trkpt>
      <trkpt lat="45.19305" lon="5.55069">
        <ele>1246.5</ele>
        <time>2015-06-11T16:06:32Z</time>
      </trkpt>
      <trkpt lat="45.19302" lon="5.55067">
        <ele>1246.7</ele>
        <time>2015-06-11T16:06:33Z</time>
      </trkpt>
      <trkpt lat="45.19299" lon="5.55064">
        <ele>1247.1</ele>
        <time>2015-06-11T16:06:34Z</time>
      </trkpt>
      <trkpt lat="45.19297" lon="5.55062">
        <ele>1247.6</ele>
        <time>2015-06-11T16:06:35Z</time>
      </trkpt>
      <trkpt lat="45.19294" lon="5.5506">
        <ele>1248</ele>
        <time>2015-06-11T16:06:36Z</time>
      </trkpt>
      <trkpt lat="45.19293" lon="5.55058">
        <ele>1248.6</ele>
        <time>2015-06-11T16:06:37Z</time>
      </trkpt>
      <trkpt lat="45.19291" lon="5.55056">
        <ele>1249.1</ele>
        <time>2015-06-11T16:06:38Z</time>
      </trkpt>
      <trkpt lat="45.1929" lon="5.55054">
        <ele>1249.5</ele>
        <time>2015-06-11T16:06:39Z</time>
      </trkpt>
      <trkpt lat="45.19289" lon="5.55052">
        <ele>1249.9</ele>
        <time>2015-06-11T16:06:40Z</time>
      </trkpt>
      <trkpt lat="45.19287" lon="5.55051">
        <ele>1250.2</ele>
        <time>2015-06-11T16:06:41Z</time>
      </trkpt>
      <trkpt lat="45.19286" lon="5.55049">
        <ele>1250.6</ele>
        <time>2015-06-11T16:06:42Z</time>
      </trkpt>
      <trkpt lat="45.19284" lon="5.55048">
        <ele>1250.6</ele>
        <time>2015-06-11T16:06:43Z</time>
      </trkpt>
      <trkpt lat="45.19283" lon="5.55047">
        <ele>1250.7</ele>
        <time>2015-06-11T16:06:44Z</time>
      </trkpt>
      <trkpt lat="45.19281" lon="5.55046">
        <ele>1250.8</ele>
        <time>2015-06-11T16:06:45Z</time>
      </trkpt>
      <trkpt lat="45.1928" lon="5.55044">
        <ele>1250.9</ele>
        <time>2015-06-11T16:06:46Z</time>
      </trkpt>
      <trkpt lat="45.19278" lon="5.55043">
        <ele>1251</ele>
        <time>2015-06-11T16:06:47Z</time>
      </trkpt>
      <trkpt lat="45.19275" lon="5.55041">
        <ele>1251.1</ele>
        <time>2015-06-11T16:06:48Z</time>
      </trkpt>
      <trkpt lat="45.19273" lon="5.55039">
        <ele>1251.2</ele>
        <time>2015-06-11T16:06:49Z</time>
      </trkpt>
      <trkpt lat="45.19272" lon="5.55038">
        <ele>1251.4</ele>
        <time>2015-06-11T16:06:50Z</time>
      </trkpt>
      <trkpt lat="45.1927" lon="5.55036">
        <ele>1251.5</ele>
        <time>2015-06-11T16:06:51Z</time>
      </trkpt>
      <trkpt lat="45.19268" lon="5.55035">
        <ele>1251.6</ele>
        <time>2015-06-11T16:06:52Z</time>
      </trkpt>
      <trkpt lat="45.19266" lon="5.55033">
        <ele>1251.8</ele>
        <time>2015-06-11T16:06:53Z</time>
      </trkpt>
      <trkpt lat="45.19264" lon="5.55031">
        <ele>1252</ele>
        <time>2015-06-11T16:06:54Z</time>
      </trkpt>
      <trkpt lat="45.19262" lon="5.55029">
        <ele>1252.1</ele>
        <time>2015-06-11T16:06:55Z</time>
      </trkpt>
      <trkpt lat="45.19259" lon="5.55028">
        <ele>1252</ele>
        <time>2015-06-11T16:06:56Z</time>
      </trkpt>
      <trkpt lat="45.19257" lon="5.55027">
        <ele>1251.9</ele>
        <time>2015-06-11T16:06:57Z</time>
      </trkpt>
      <trkpt lat="45.19254" lon="5.55025">
        <ele>1251.9</ele>
        <time>2015-06-11T16:06:58Z</time>
      </trkpt>
      <trkpt lat="45.19252" lon="5.55023">
        <ele>1251.8</ele>
        <time>2015-06-11T16:06:59Z</time>
      </trkpt>
      <trkpt lat="45.19249" lon="5.55023">
        <ele>1251.5</ele>
        <time>2015-06-11T16:07:00Z</time>
      </trkpt>
      <trkpt lat="45.19247" lon="5.55022">
        <ele>1251</ele>
        <time>2015-06-11T16:07:01Z</time>
      </trkpt>
      <trkpt lat="45.19245" lon="5.55022">
        <ele>1250.8</ele>
        <time>2015-06-11T16:07:02Z</time>
      </trkpt>
      <trkpt lat="45.19243" lon="5.55021">
        <ele>1250.7</ele>
        <time>2015-06-11T16:07:03Z</time>
      </trkpt>
      <trkpt lat="45.1924" lon="5.55019">
        <ele>1250.6</ele>
        <time>2015-06-11T16:07:04Z</time>
      </trkpt>
      <trkpt lat="45.19238" lon="5.55017">
        <ele>1250.7</ele>
        <time>2015-06-11T16:07:05Z</time>
      </trkpt>
      <trkpt lat="45.19236" lon="5.55016">
        <ele>1250.6</ele>
        <time>2015-06-11T16:07:06Z</time>
      </trkpt>
      <trkpt lat="45.19234" lon="5.55015">
        <ele>1250.5</ele>
        <time>2015-06-11T16:07:07Z</time>
      </trkpt>
      <trkpt lat="45.19233" lon="5.55014">
        <ele>1250.7</ele>
        <time>2015-06-11T16:07:08Z</time>
      </trkpt>
      <trkpt lat="45.19231" lon="5.55013">
        <ele>1250.7</ele>
        <time>2015-06-11T16:07:09Z</time>
      </trkpt>
      <trkpt lat="45.19229" lon="5.55012">
        <ele>1250.6</ele>
        <time>2015-06-11T16:07:10Z</time>
      </trkpt>
      <trkpt lat="45.19227" lon="5.5501">
        <ele>1250.5</ele>
        <time>2015-06-11T16:07:11Z</time>
      </trkpt>
      <trkpt lat="45.19225" lon="5.55009">
        <ele>1250.7</ele>
        <time>2015-06-11T16:07:12Z</time>
      </trkpt>
      <trkpt lat="45.19223" lon="5.55007">
        <ele>1250.8</ele>
        <time>2015-06-11T16:07:13Z</time>
      </trkpt>
      <trkpt lat="45.19221" lon="5.55005">
        <ele>1251</ele>
        <time>2015-06-11T16:07:14Z</time>
      </trkpt>
      <trkpt lat="45.19219" lon="5.55004">
        <ele>1251.2</ele>
        <time>2015-06-11T16:07:15Z</time>
      </trkpt>
      <trkpt lat="45.19217" lon="5.55002">
        <ele>1251.2</ele>
        <time>2015-06-11T16:07:16Z</time>
      </trkpt>
      <trkpt lat="45.19215" lon="5.55001">
        <ele>1251.3</ele>
        <time>2015-06-11T16:07:17Z</time>
      </trkpt>
      <trkpt lat="45.19213" lon="5.54999">
        <ele>1251.3</ele>
        <time>2015-06-11T16:07:18Z</time>
      </trkpt>
      <trkpt lat="45.1921" lon="5.54998">
        <ele>1251.3</ele>
        <time>2015-06-11T16:07:19Z</time>
      </trkpt>
      <trkpt lat="45.19209" lon="5.54997">
        <ele>1251.3</ele>
        <time>2015-06-11T16:07:20Z</time>
      </trkpt>
      <trkpt lat="45.19206" lon="5.54996">
        <ele>1250.9</ele>
        <time>2015-06-11T16:07:21Z</time>
      </trkpt>
      <trkpt lat="45.19204" lon="5.54995">
        <ele>1250.6</ele>
        <time>2015-06-11T16:07:22Z</time>
      </trkpt>
      <trkpt lat="45.19202" lon="5.54994">
        <ele>1250.5</ele>
        <time>2015-06-11T16:07:23Z</time>
      </trkpt>
      <trkpt lat="45.19201" lon="5.54993">
        <ele>1250.2</ele>
        <time>2015-06-11T16:07:24Z</time>
      </trkpt>
      <trkpt lat="45.19199" lon="5.54992">
        <ele>1250.1</ele>
        <time>2015-06-11T16:07:25Z</time>
      </trkpt>
      <trkpt lat="45.19197" lon="5.54991">
        <ele>1249.7</ele>
        <time>2015-06-11T16:07:26Z</time>
      </trkpt>
      <trkpt lat="45.19194" lon="5.5499">
        <ele>1249.3</ele>
        <time>2015-06-11T16:07:27Z</time>
      </trkpt>
      <trkpt lat="45.19192" lon="5.5499">
        <ele>1248.8</ele>
        <time>2015-06-11T16:07:28Z</time>
      </trkpt>
      <trkpt lat="45.1919" lon="5.54989">
        <ele>1248.6</ele>
        <time>2015-06-11T16:07:29Z</time>
      </trkpt>
      <trkpt lat="45.19188" lon="5.54988">
        <ele>1248.3</ele>
        <time>2015-06-11T16:07:30Z</time>
      </trkpt>
      <trkpt lat="45.19187" lon="5.54987">
        <ele>1248.2</ele>
        <time>2015-06-11T16:07:31Z</time>
      </trkpt>
      <trkpt lat="45.19185" lon="5.54985">
        <ele>1248.2</ele>
        <time>2015-06-11T16:07:32Z</time>
      </trkpt>
      <trkpt lat="45.19183" lon="5.54984">
        <ele>1248.2</ele>
        <time>2015-06-11T16:07:33Z</time>
      </trkpt>
      <trkpt lat="45.19182" lon="5.54983">
        <ele>1248.4</ele>
        <time>2015-06-11T16:07:34Z</time>
      </trkpt>
      <trkpt lat="45.19181" lon="5.54981">
        <ele>1248.9</ele>
        <time>2015-06-11T16:07:35Z</time>
      </trkpt>
      <trkpt lat="45.19178" lon="5.54978">
        <ele>1249</ele>
        <time>2015-06-11T16:07:36Z</time>
      </trkpt>
      <trkpt lat="45.19176" lon="5.54976">
        <ele>1249.1</ele>
        <time>2015-06-11T16:07:37Z</time>
      </trkpt>
      <trkpt lat="45.19173" lon="5.54973">
        <ele>1249.1</ele>
        <time>2015-06-11T16:07:38Z</time>
      </trkpt>
      <trkpt lat="45.1917" lon="5.54971">
        <ele>1249.1</ele>
        <time>2015-06-11T16:07:39Z</time>
      </trkpt>
      <trkpt lat="45.19167" lon="5.54969">
        <ele>1249.1</ele>
        <time>2015-06-11T16:07:40Z</time>
      </trkpt>
      <trkpt lat="45.19165" lon="5.54966">
        <ele>1249.3</ele>
        <time>2015-06-11T16:07:41Z</time>
      </trkpt>
      <trkpt lat="45.19163" lon="5.54964">
        <ele>1249.5</ele>
        <time>2015-06-11T16:07:42Z</time>
      </trkpt>
      <trkpt lat="45.19161" lon="5.54962">
        <ele>1249.6</ele>
        <time>2015-06-11T16:07:43Z</time>
      </trkpt>
      <trkpt lat="45.19159" lon="5.54961">
        <ele>1249.6</ele>
        <time>2015-06-11T16:07:44Z</time>
      </trkpt>
      <trkpt lat="45.19156" lon="5.54959">
        <ele>1249.6</ele>
        <time>2015-06-11T16:07:45Z</time>
      </trkpt>
      <trkpt lat="45.19154" lon="5.54957">
        <ele>1249.4</ele>
        <time>2015-06-11T16:07:46Z</time>
      </trkpt>
      <trkpt lat="45.19152" lon="5.54956">
        <ele>1248.8</ele>
        <time>2015-06-11T16:07:47Z</time>
      </trkpt>
      <trkpt lat="45.19149" lon="5.54955">
        <ele>1248.2</ele>
        <time>2015-06-11T16:07:48Z</time>
      </trkpt>
      <trkpt lat="45.19146" lon="5.54953">
        <ele>1247.7</ele>
        <time>2015-06-11T16:07:49Z</time>
      </trkpt>
      <trkpt lat="45.19144" lon="5.54952">
        <ele>1247.5</ele>
        <time>2015-06-11T16:07:50Z</time>
      </trkpt>
      <trkpt lat="45.19143" lon="5.5495">
        <ele>1247.3</ele>
        <time>2015-06-11T16:07:51Z</time>
      </trkpt>
      <trkpt lat="45.19141" lon="5.54949">
        <ele>1247</ele>
        <time>2015-06-11T16:07:52Z</time>
      </trkpt>
      <trkpt lat="45.19139" lon="5.54948">
        <ele>1246.5</ele>
        <time>2015-06-11T16:07:53Z</time>
      </trkpt>
      <trkpt lat="45.19137" lon="5.54946">
        <ele>1246.4</ele>
        <time>2015-06-11T16:07:54Z</time>
      </trkpt>
      <trkpt lat="45.19135" lon="5.54945">
        <ele>1246</ele>
        <time>2015-06-11T16:07:55Z</time>
      </trkpt>
      <trkpt lat="45.19132" lon="5.54943">
        <ele>1245.7</ele>
        <time>2015-06-11T16:07:56Z</time>
      </trkpt>
      <trkpt lat="45.1913" lon="5.5494">
        <ele>1245.7</ele>
        <time>2015-06-11T16:07:57Z</time>
      </trkpt>
      <trkpt lat="45.19128" lon="5.54938">
        <ele>1245.6</ele>
        <time>2015-06-11T16:07:58Z</time>
      </trkpt>
      <trkpt lat="45.19125" lon="5.54936">
        <ele>1245.2</ele>
        <time>2015-06-11T16:07:59Z</time>
      </trkpt>
      <trkpt lat="45.19123" lon="5.54934">
        <ele>1244.8</ele>
        <time>2015-06-11T16:08:00Z</time>
      </trkpt>
      <trkpt lat="45.19121" lon="5.54932">
        <ele>1244.5</ele>
        <time>2015-06-11T16:08:01Z</time>
      </trkpt>
      <trkpt lat="45.1912" lon="5.5493">
        <ele>1244.4</ele>
        <time>2015-06-11T16:08:02Z</time>
      </trkpt>
      <trkpt lat="45.19118" lon="5.54928">
        <ele>1244.2</ele>
        <time>2015-06-11T16:08:03Z</time>
      </trkpt>
      <trkpt lat="45.19116" lon="5.54926">
        <ele>1244</ele>
        <time>2015-06-11T16:08:04Z</time>
      </trkpt>
      <trkpt lat="45.19115" lon="5.54924">
        <ele>1243.9</ele>
        <time>2015-06-11T16:08:05Z</time>
      </trkpt>
      <trkpt lat="45.19114" lon="5.54923">
        <ele>1243.8</ele>
        <time>2015-06-11T16:08:06Z</time>
      </trkpt>
      <trkpt lat="45.19112" lon="5.54921">
        <ele>1243.7</ele>
        <time>2015-06-11T16:08:07Z</time>
      </trkpt>
      <trkpt lat="45.19111" lon="5.54919">
        <ele>1243.5</ele>
        <time>2015-06-11T16:08:08Z</time>
      </trkpt>
      <trkpt lat="45.19109" lon="5.54918">
        <ele>1243.3</ele>
        <time>2015-06-11T16:08:09Z</time>
      </trkpt>
      <trkpt lat="45.19107" lon="5.54916">
        <ele>1242.9</ele>
        <time>2015-06-11T16:08:10Z</time>
      </trkpt>
      <trkpt lat="45.19106" lon="5.54914">
        <ele>1242.8</ele>
        <time>2015-06-11T16:08:11Z</time>
      </trkpt>
      <trkpt lat="45.19104" lon="5.54913">
        <ele>1242.5</ele>
        <time>2015-06-11T16:08:12Z</time>
      </trkpt>
      <trkpt lat="45.19102" lon="5.54911">
        <ele>1242.3</ele>
        <time>2015-06-11T16:08:13Z</time>
      </trkpt>
      <trkpt lat="45.191" lon="5.54908">
        <ele>1242.1</ele>
        <time>2015-06-11T16:08:14Z</time>
      </trkpt>
      <trkpt lat="45.19099" lon="5.54906">
        <ele>1242.1</ele>
        <time>2015-06-11T16:08:15Z</time>
      </trkpt>
      <trkpt lat="45.19097" lon="5.54904">
        <ele>1242.1</ele>
        <time>2015-06-11T16:08:16Z</time>
      </trkpt>
      <trkpt lat="45.19096" lon="5.54901">
        <ele>1242.1</ele>
        <time>2015-06-11T16:08:17Z</time>
      </trkpt>
      <trkpt lat="45.19094" lon="5.54898">
        <ele>1242.2</ele>
        <time>2015-06-11T16:08:18Z</time>
      </trkpt>
      <trkpt lat="45.19093" lon="5.54896">
        <ele>1242.4</ele>
        <time>2015-06-11T16:08:19Z</time>
      </trkpt>
      <trkpt lat="45.19091" lon="5.54893">
        <ele>1242.3</ele>
        <time>2015-06-11T16:08:20Z</time>
      </trkpt>
      <trkpt lat="45.1909" lon="5.54891">
        <ele>1242.3</ele>
        <time>2015-06-11T16:08:21Z</time>
      </trkpt>
      <trkpt lat="45.19088" lon="5.5489">
        <ele>1242.1</ele>
        <time>2015-06-11T16:08:22Z</time>
      </trkpt>
      <trkpt lat="45.19087" lon="5.54888">
        <ele>1241.9</ele>
        <time>2015-06-11T16:08:23Z</time>
      </trkpt>
      <trkpt lat="45.19085" lon="5.54886">
        <ele>1241.7</ele>
        <time>2015-06-11T16:08:24Z</time>
      </trkpt>
      <trkpt lat="45.19083" lon="5.54884">
        <ele>1241.3</ele>
        <time>2015-06-11T16:08:25Z</time>
      </trkpt>
      <trkpt lat="45.1908" lon="5.54882">
        <ele>1240.9</ele>
        <time>2015-06-11T16:08:26Z</time>
      </trkpt>
      <trkpt lat="45.19078" lon="5.5488">
        <ele>1240.5</ele>
        <time>2015-06-11T16:08:27Z</time>
      </trkpt>
      <trkpt lat="45.19077" lon="5.54877">
        <ele>1240.4</ele>
        <time>2015-06-11T16:08:28Z</time>
      </trkpt>
      <trkpt lat="45.19075" lon="5.54875">
        <ele>1240.4</ele>
        <time>2015-06-11T16:08:29Z</time>
      </trkpt>
      <trkpt lat="45.19074" lon="5.54873">
        <ele>1240.3</ele>
        <time>2015-06-11T16:08:30Z</time>
      </trkpt>
      <trkpt lat="45.19072" lon="5.5487">
        <ele>1239.9</ele>
        <time>2015-06-11T16:08:31Z</time>
      </trkpt>
      <trkpt lat="45.19071" lon="5.54868">
        <ele>1239.6</ele>
        <time>2015-06-11T16:08:32Z</time>
      </trkpt>
      <trkpt lat="45.1907" lon="5.54866">
        <ele>1239.4</ele>
        <time>2015-06-11T16:08:33Z</time>
      </trkpt>
      <trkpt lat="45.19069" lon="5.54863">
        <ele>1239.2</ele>
        <time>2015-06-11T16:08:34Z</time>
      </trkpt>
      <trkpt lat="45.19067" lon="5.54861">
        <ele>1239</ele>
        <time>2015-06-11T16:08:35Z</time>
      </trkpt>
      <trkpt lat="45.19066" lon="5.54858">
        <ele>1238.9</ele>
        <time>2015-06-11T16:08:36Z</time>
      </trkpt>
      <trkpt lat="45.19065" lon="5.54855">
        <ele>1238.7</ele>
        <time>2015-06-11T16:08:37Z</time>
      </trkpt>
      <trkpt lat="45.19064" lon="5.54853">
        <ele>1238.7</ele>
        <time>2015-06-11T16:08:38Z</time>
      </trkpt>
      <trkpt lat="45.19064" lon="5.54851">
        <ele>1238.7</ele>
        <time>2015-06-11T16:08:39Z</time>
      </trkpt>
      <trkpt lat="45.19063" lon="5.54848">
        <ele>1238.7</ele>
        <time>2015-06-11T16:08:40Z</time>
      </trkpt>
      <trkpt lat="45.19062" lon="5.54846">
        <ele>1238.7</ele>
        <time>2015-06-11T16:08:41Z</time>
      </trkpt>
      <trkpt lat="45.19062" lon="5.54844">
        <ele>1238.7</ele>
        <time>2015-06-11T16:08:42Z</time>
      </trkpt>
      <trkpt lat="45.19061" lon="5.54841">
        <ele>1238.8</ele>
        <time>2015-06-11T16:08:43Z</time>
      </trkpt>
      <trkpt lat="45.1906" lon="5.54839">
        <ele>1238.7</ele>
        <time>2015-06-11T16:08:44Z</time>
      </trkpt>
      <trkpt lat="45.1906" lon="5.54835">
        <ele>1239</ele>
        <time>2015-06-11T16:08:45Z</time>
      </trkpt>
      <trkpt lat="45.19059" lon="5.54833">
        <ele>1239.1</ele>
        <time>2015-06-11T16:08:46Z</time>
      </trkpt>
      <trkpt lat="45.19059" lon="5.54831">
        <ele>1239.2</ele>
        <time>2015-06-11T16:08:47Z</time>
      </trkpt>
      <trkpt lat="45.19058" lon="5.54828">
        <ele>1239.2</ele>
        <time>2015-06-11T16:08:48Z</time>
      </trkpt>
      <trkpt lat="45.19058" lon="5.54825">
        <ele>1239.3</ele>
        <time>2015-06-11T16:08:49Z</time>
      </trkpt>
      <trkpt lat="45.19057" lon="5.54822">
        <ele>1239.4</ele>
        <time>2015-06-11T16:08:50Z</time>
      </trkpt>
      <trkpt lat="45.19056" lon="5.54819">
        <ele>1239.5</ele>
        <time>2015-06-11T16:08:51Z</time>
      </trkpt>
      <trkpt lat="45.19055" lon="5.54816">
        <ele>1239.5</ele>
        <time>2015-06-11T16:08:52Z</time>
      </trkpt>
      <trkpt lat="45.19054" lon="5.54813">
        <ele>1239.6</ele>
        <time>2015-06-11T16:08:53Z</time>
      </trkpt>
      <trkpt lat="45.19054" lon="5.5481">
        <ele>1239.8</ele>
        <time>2015-06-11T16:08:54Z</time>
      </trkpt>
      <trkpt lat="45.19054" lon="5.54807">
        <ele>1240</ele>
        <time>2015-06-11T16:08:55Z</time>
      </trkpt>
      <trkpt lat="45.19053" lon="5.54804">
        <ele>1240.2</ele>
        <time>2015-06-11T16:08:56Z</time>
      </trkpt>
      <trkpt lat="45.19053" lon="5.54801">
        <ele>1240.6</ele>
        <time>2015-06-11T16:08:57Z</time>
      </trkpt>
      <trkpt lat="45.19053" lon="5.54798">
        <ele>1240.8</ele>
        <time>2015-06-11T16:08:58Z</time>
      </trkpt>
      <trkpt lat="45.19053" lon="5.54795">
        <ele>1241.2</ele>
        <time>2015-06-11T16:08:59Z</time>
      </trkpt>
      <trkpt lat="45.19053" lon="5.54791">
        <ele>1241.6</ele>
        <time>2015-06-11T16:09:00Z</time>
      </trkpt>
      <trkpt lat="45.19053" lon="5.54787">
        <ele>1242</ele>
        <time>2015-06-11T16:09:01Z</time>
      </trkpt>
      <trkpt lat="45.19054" lon="5.54782">
        <ele>1242.5</ele>
        <time>2015-06-11T16:09:02Z</time>
      </trkpt>
      <trkpt lat="45.19054" lon="5.5478">
        <ele>1242.8</ele>
        <time>2015-06-11T16:09:03Z</time>
      </trkpt>
      <trkpt lat="45.19055" lon="5.54778">
        <ele>1243</ele>
        <time>2015-06-11T16:09:04Z</time>
      </trkpt>
      <trkpt lat="45.19055" lon="5.54776">
        <ele>1243.2</ele>
        <time>2015-06-11T16:09:05Z</time>
      </trkpt>
      <trkpt lat="45.19056" lon="5.54774">
        <ele>1243.7</ele>
        <time>2015-06-11T16:09:06Z</time>
      </trkpt>
      <trkpt lat="45.19057" lon="5.54771">
        <ele>1244.1</ele>
        <time>2015-06-11T16:09:07Z</time>
      </trkpt>
      <trkpt lat="45.19059" lon="5.54768">
        <ele>1244.8</ele>
        <time>2015-06-11T16:09:08Z</time>
      </trkpt>
      <trkpt lat="45.19061" lon="5.54766">
        <ele>1245.5</ele>
        <time>2015-06-11T16:09:09Z</time>
      </trkpt>
      <trkpt lat="45.19063" lon="5.54764">
        <ele>1246.3</ele>
        <time>2015-06-11T16:09:10Z</time>
      </trkpt>
      <trkpt lat="45.19065" lon="5.54762">
        <ele>1247</ele>
        <time>2015-06-11T16:09:11Z</time>
      </trkpt>
      <trkpt lat="45.19066" lon="5.54759">
        <ele>1247.6</ele>
        <time>2015-06-11T16:09:12Z</time>
      </trkpt>
      <trkpt lat="45.19067" lon="5.54757">
        <ele>1247.9</ele>
        <time>2015-06-11T16:09:13Z</time>
      </trkpt>
      <trkpt lat="45.19068" lon="5.54755">
        <ele>1248.4</ele>
        <time>2015-06-11T16:09:14Z</time>
      </trkpt>
      <trkpt lat="45.19069" lon="5.54752">
        <ele>1248.9</ele>
        <time>2015-06-11T16:09:15Z</time>
      </trkpt>
      <trkpt lat="45.1907" lon="5.5475">
        <ele>1249.4</ele>
        <time>2015-06-11T16:09:16Z</time>
      </trkpt>
      <trkpt lat="45.19071" lon="5.54747">
        <ele>1249.8</ele>
        <time>2015-06-11T16:09:17Z</time>
      </trkpt>
      <trkpt lat="45.19072" lon="5.54746">
        <ele>1250</ele>
        <time>2015-06-11T16:09:18Z</time>
      </trkpt>
      <trkpt lat="45.19072" lon="5.54745">
        <ele>1250.2</ele>
        <time>2015-06-11T16:09:19Z</time>
      </trkpt>
      <trkpt lat="45.19072" lon="5.54743">
        <ele>1250.3</ele>
        <time>2015-06-11T16:09:20Z</time>
      </trkpt>
      <trkpt lat="45.19072" lon="5.54741">
        <ele>1250.4</ele>
        <time>2015-06-11T16:09:21Z</time>
      </trkpt>
      <trkpt lat="45.19071" lon="5.54739">
        <ele>1250.4</ele>
        <time>2015-06-11T16:09:22Z</time>
      </trkpt>
      <trkpt lat="45.1907" lon="5.54735">
        <ele>1250.2</ele>
        <time>2015-06-11T16:09:23Z</time>
      </trkpt>
      <trkpt lat="45.19069" lon="5.54731">
        <ele>1250</ele>
        <time>2015-06-11T16:09:24Z</time>
      </trkpt>
      <trkpt lat="45.19067" lon="5.54727">
        <ele>1250</ele>
        <time>2015-06-11T16:09:25Z</time>
      </trkpt>
      <trkpt lat="45.19067" lon="5.54723">
        <ele>1250</ele>
        <time>2015-06-11T16:09:26Z</time>
      </trkpt>
      <trkpt lat="45.19066" lon="5.54719">
        <ele>1249.9</ele>
        <time>2015-06-11T16:09:27Z</time>
      </trkpt>
      <trkpt lat="45.19064" lon="5.54716">
        <ele>1249.8</ele>
        <time>2015-06-11T16:09:28Z</time>
      </trkpt>
      <trkpt lat="45.19064" lon="5.54714">
        <ele>1249.7</ele>
        <time>2015-06-11T16:09:29Z</time>
      </trkpt>
      <trkpt lat="45.19063" lon="5.54712">
        <ele>1249.6</ele>
        <time>2015-06-11T16:09:30Z</time>
      </trkpt>
      <trkpt lat="45.19062" lon="5.5471">
        <ele>1249.5</ele>
        <time>2015-06-11T16:09:31Z</time>
      </trkpt>
      <trkpt lat="45.19061" lon="5.54708">
        <ele>1249.3</ele>
        <time>2015-06-11T16:09:32Z</time>
      </trkpt>
      <trkpt lat="45.1906" lon="5.54705">
        <ele>1249</ele>
        <time>2015-06-11T16:09:33Z</time>
      </trkpt>
      <trkpt lat="45.19059" lon="5.54703">
        <ele>1248.7</ele>
        <time>2015-06-11T16:09:34Z</time>
      </trkpt>
      <trkpt lat="45.19058" lon="5.54701">
        <ele>1248.5</ele>
        <time>2015-06-11T16:09:35Z</time>
      </trkpt>
      <trkpt lat="45.19057" lon="5.54699">
        <ele>1248.3</ele>
        <time>2015-06-11T16:09:36Z</time>
      </trkpt>
      <trkpt lat="45.19056" lon="5.54697">
        <ele>1248.1</ele>
        <time>2015-06-11T16:09:37Z</time>
      </trkpt>
      <trkpt lat="45.19056" lon="5.54695">
        <ele>1247.9</ele>
        <time>2015-06-11T16:09:38Z</time>
      </trkpt>
      <trkpt lat="45.19055" lon="5.54693">
        <ele>1247.7</ele>
        <time>2015-06-11T16:09:39Z</time>
      </trkpt>
      <trkpt lat="45.19054" lon="5.54692">
        <ele>1247.6</ele>
        <time>2015-06-11T16:09:40Z</time>
      </trkpt>
      <trkpt lat="45.19054" lon="5.5469">
        <ele>1247.6</ele>
        <time>2015-06-11T16:09:41Z</time>
      </trkpt>
      <trkpt lat="45.19054" lon="5.54688">
        <ele>1247.5</ele>
        <time>2015-06-11T16:09:42Z</time>
      </trkpt>
      <trkpt lat="45.19053" lon="5.54687">
        <ele>1247.3</ele>
        <time>2015-06-11T16:09:43Z</time>
      </trkpt>
      <trkpt lat="45.19051" lon="5.54686">
        <ele>1246.9</ele>
        <time>2015-06-11T16:09:44Z</time>
      </trkpt>
      <trkpt lat="45.19051" lon="5.54686">
        <ele>1246.7</ele>
        <time>2015-06-11T16:09:45Z</time>
      </trkpt>
      <trkpt lat="45.1905" lon="5.54687">
        <ele>1246.6</ele>
        <time>2015-06-11T16:09:46Z</time>
      </trkpt>
      <trkpt lat="45.1905" lon="5.54688">
        <ele>1246.4</ele>
        <time>2015-06-11T16:09:47Z</time>
      </trkpt>
      <trkpt lat="45.19049" lon="5.54689">
        <ele>1246.2</ele>
        <time>2015-06-11T16:09:48Z</time>
      </trkpt>
      <trkpt lat="45.19048" lon="5.54691">
        <ele>1246.1</ele>
        <time>2015-06-11T16:09:49Z</time>
      </trkpt>
      <trkpt lat="45.19048" lon="5.54692">
        <ele>1246</ele>
        <time>2015-06-11T16:09:50Z</time>
      </trkpt>
      <trkpt lat="45.19048" lon="5.54694">
        <ele>1245.8</ele>
        <time>2015-06-11T16:09:51Z</time>
      </trkpt>
      <trkpt lat="45.19047" lon="5.54696">
        <ele>1245.7</ele>
        <time>2015-06-11T16:09:52Z</time>
      </trkpt>
      <trkpt lat="45.19047" lon="5.54699">
        <ele>1245.6</ele>
        <time>2015-06-11T16:09:53Z</time>
      </trkpt>
      <trkpt lat="45.19047" lon="5.54701">
        <ele>1245.6</ele>
        <time>2015-06-11T16:09:54Z</time>
      </trkpt>
      <trkpt lat="45.19048" lon="5.54704">
        <ele>1245.7</ele>
        <time>2015-06-11T16:09:55Z</time>
      </trkpt>
      <trkpt lat="45.19048" lon="5.54706">
        <ele>1245.6</ele>
        <time>2015-06-11T16:09:56Z</time>
      </trkpt>
      <trkpt lat="45.19047" lon="5.54708">
        <ele>1245.5</ele>
        <time>2015-06-11T16:09:57Z</time>
      </trkpt>
      <trkpt lat="45.19047" lon="5.5471">
        <ele>1245.3</ele>
        <time>2015-06-11T16:09:58Z</time>
      </trkpt>
      <trkpt lat="45.19047" lon="5.54712">
        <ele>1245.2</ele>
        <time>2015-06-11T16:09:59Z</time>
      </trkpt>
      <trkpt lat="45.19047" lon="5.54714">
        <ele>1245</ele>
        <time>2015-06-11T16:10:00Z</time>
      </trkpt>
      <trkpt lat="45.19047" lon="5.54717">
        <ele>1244.9</ele>
        <time>2015-06-11T16:10:01Z</time>
      </trkpt>
      <trkpt lat="45.19047" lon="5.5472">
        <ele>1244.7</ele>
        <time>2015-06-11T16:10:02Z</time>
      </trkpt>
      <trkpt lat="45.19047" lon="5.54722">
        <ele>1244.5</ele>
        <time>2015-06-11T16:10:03Z</time>
      </trkpt>
      <trkpt lat="45.19047" lon="5.54725">
        <ele>1244.3</ele>
        <time>2015-06-11T16:10:04Z</time>
      </trkpt>
      <trkpt lat="45.19047" lon="5.54727">
        <ele>1244.1</ele>
        <time>2015-06-11T16:10:05Z</time>
      </trkpt>
      <trkpt lat="45.19047" lon="5.54728">
        <ele>1244</ele>
        <time>2015-06-11T16:10:06Z</time>
      </trkpt>
      <trkpt lat="45.19047" lon="5.54729">
        <ele>1244</ele>
        <time>2015-06-11T16:10:07Z</time>
      </trkpt>
      <trkpt lat="45.19046" lon="5.5473">
        <ele>1243.8</ele>
        <time>2015-06-11T16:10:08Z</time>
      </trkpt>
      <trkpt lat="45.19046" lon="5.54731">
        <ele>1243.5</ele>
        <time>2015-06-11T16:10:09Z</time>
      </trkpt>
      <trkpt lat="45.19045" lon="5.54733">
        <ele>1243.2</ele>
        <time>2015-06-11T16:10:10Z</time>
      </trkpt>
      <trkpt lat="45.19044" lon="5.54735">
        <ele>1242.6</ele>
        <time>2015-06-11T16:10:11Z</time>
      </trkpt>
      <trkpt lat="45.19043" lon="5.54738">
        <ele>1242.3</ele>
        <time>2015-06-11T16:10:12Z</time>
      </trkpt>
      <trkpt lat="45.19042" lon="5.5474">
        <ele>1241.9</ele>
        <time>2015-06-11T16:10:13Z</time>
      </trkpt>
      <trkpt lat="45.19041" lon="5.54742">
        <ele>1241.5</ele>
        <time>2015-06-11T16:10:14Z</time>
      </trkpt>
      <trkpt lat="45.1904" lon="5.54744">
        <ele>1241</ele>
        <time>2015-06-11T16:10:15Z</time>
      </trkpt>
      <trkpt lat="45.19039" lon="5.54746">
        <ele>1240.4</ele>
        <time>2015-06-11T16:10:16Z</time>
      </trkpt>
      <trkpt lat="45.19037" lon="5.54748">
        <ele>1239.7</ele>
        <time>2015-06-11T16:10:17Z</time>
      </trkpt>
      <trkpt lat="45.19035" lon="5.5475">
        <ele>1239</ele>
        <time>2015-06-11T16:10:18Z</time>
      </trkpt>
      <trkpt lat="45.19034" lon="5.5475">
        <ele>1238.5</ele>
        <time>2015-06-11T16:10:19Z</time>
      </trkpt>
      <trkpt lat="45.19032" lon="5.54751">
        <ele>1237.9</ele>
        <time>2015-06-11T16:10:20Z</time>
      </trkpt>
      <trkpt lat="45.1903" lon="5.5475">
        <ele>1237.2</ele>
        <time>2015-06-11T16:10:21Z</time>
      </trkpt>
      <trkpt lat="45.19027" lon="5.54749">
        <ele>1236.4</ele>
        <time>2015-06-11T16:10:22Z</time>
      </trkpt>
      <trkpt lat="45.19025" lon="5.54748">
        <ele>1235.9</ele>
        <time>2015-06-11T16:10:23Z</time>
      </trkpt>
      <trkpt lat="45.19024" lon="5.54747">
        <ele>1235.4</ele>
        <time>2015-06-11T16:10:24Z</time>
      </trkpt>
      <trkpt lat="45.19022" lon="5.54746">
        <ele>1235</ele>
        <time>2015-06-11T16:10:25Z</time>
      </trkpt>
      <trkpt lat="45.1902" lon="5.54746">
        <ele>1234.4</ele>
        <time>2015-06-11T16:10:26Z</time>
      </trkpt>
      <trkpt lat="45.19017" lon="5.54745">
        <ele>1233.7</ele>
        <time>2015-06-11T16:10:27Z</time>
      </trkpt>
      <trkpt lat="45.19015" lon="5.54743">
        <ele>1233</ele>
        <time>2015-06-11T16:10:28Z</time>
      </trkpt>
      <trkpt lat="45.19012" lon="5.54741">
        <ele>1232.3</ele>
        <time>2015-06-11T16:10:29Z</time>
      </trkpt>
      <trkpt lat="45.19009" lon="5.54739">
        <ele>1231.7</ele>
        <time>2015-06-11T16:10:30Z</time>
      </trkpt>
      <trkpt lat="45.19006" lon="5.54737">
        <ele>1231.1</ele>
        <time>2015-06-11T16:10:31Z</time>
      </trkpt>
      <trkpt lat="45.19005" lon="5.54735">
        <ele>1230.9</ele>
        <time>2015-06-11T16:10:32Z</time>
      </trkpt>
      <trkpt lat="45.19003" lon="5.54733">
        <ele>1230.6</ele>
        <time>2015-06-11T16:10:33Z</time>
      </trkpt>
      <trkpt lat="45.19002" lon="5.5473">
        <ele>1230.4</ele>
        <time>2015-06-11T16:10:34Z</time>
      </trkpt>
      <trkpt lat="45.19" lon="5.54728">
        <ele>1230.2</ele>
        <time>2015-06-11T16:10:35Z</time>
      </trkpt>
      <trkpt lat="45.18998" lon="5.54725">
        <ele>1229.9</ele>
        <time>2015-06-11T16:10:36Z</time>
      </trkpt>
      <trkpt lat="45.18996" lon="5.54723">
        <ele>1229.6</ele>
        <time>2015-06-11T16:10:37Z</time>
      </trkpt>
      <trkpt lat="45.18995" lon="5.54721">
        <ele>1229.4</ele>
        <time>2015-06-11T16:10:38Z</time>
      </trkpt>
      <trkpt lat="45.18993" lon="5.5472">
        <ele>1229.1</ele>
        <time>2015-06-11T16:10:39Z</time>
      </trkpt>
      <trkpt lat="45.18992" lon="5.54718">
        <ele>1229</ele>
        <time>2015-06-11T16:10:40Z</time>
      </trkpt>
      <trkpt lat="45.1899" lon="5.54717">
        <ele>1228.8</ele>
        <time>2015-06-11T16:10:41Z</time>
      </trkpt>
      <trkpt lat="45.1899" lon="5.54715">
        <ele>1228.8</ele>
        <time>2015-06-11T16:10:42Z</time>
      </trkpt>
      <trkpt lat="45.18988" lon="5.54713">
        <ele>1228.7</ele>
        <time>2015-06-11T16:10:43Z</time>
      </trkpt>
      <trkpt lat="45.18987" lon="5.54711">
        <ele>1228.6</ele>
        <time>2015-06-11T16:10:44Z</time>
      </trkpt>
      <trkpt lat="45.18986" lon="5.54709">
        <ele>1228.6</ele>
        <time>2015-06-11T16:10:45Z</time>
      </trkpt>
      <trkpt lat="45.18985" lon="5.54706">
        <ele>1228.4</ele>
        <time>2015-06-11T16:10:46Z</time>
      </trkpt>
      <trkpt lat="45.18984" lon="5.54704">
        <ele>1228.4</ele>
        <time>2015-06-11T16:10:47Z</time>
      </trkpt>
      <trkpt lat="45.18983" lon="5.54701">
        <ele>1228.3</ele>
        <time>2015-06-11T16:10:48Z</time>
      </trkpt>
      <trkpt lat="45.18981" lon="5.54697">
        <ele>1228.2</ele>
        <time>2015-06-11T16:10:49Z</time>
      </trkpt>
      <trkpt lat="45.1898" lon="5.54692">
        <ele>1228.2</ele>
        <time>2015-06-11T16:10:50Z</time>
      </trkpt>
      <trkpt lat="45.18979" lon="5.54687">
        <ele>1228.4</ele>
        <time>2015-06-11T16:10:51Z</time>
      </trkpt>
      <trkpt lat="45.18978" lon="5.54685">
        <ele>1228.3</ele>
        <time>2015-06-11T16:10:52Z</time>
      </trkpt>
      <trkpt lat="45.18978" lon="5.54682">
        <ele>1228.4</ele>
        <time>2015-06-11T16:10:53Z</time>
      </trkpt>
      <trkpt lat="45.18977" lon="5.5468">
        <ele>1228.5</ele>
        <time>2015-06-11T16:10:54Z</time>
      </trkpt>
      <trkpt lat="45.18977" lon="5.54678">
        <ele>1228.7</ele>
        <time>2015-06-11T16:10:55Z</time>
      </trkpt>
      <trkpt lat="45.18977" lon="5.54675">
        <ele>1228.8</ele>
        <time>2015-06-11T16:10:56Z</time>
      </trkpt>
      <trkpt lat="45.18976" lon="5.54672">
        <ele>1228.9</ele>
        <time>2015-06-11T16:10:57Z</time>
      </trkpt>
      <trkpt lat="45.18975" lon="5.54668">
        <ele>1229</ele>
        <time>2015-06-11T16:10:58Z</time>
      </trkpt>
      <trkpt lat="45.18975" lon="5.54665">
        <ele>1229.1</ele>
        <time>2015-06-11T16:10:59Z</time>
      </trkpt>
      <trkpt lat="45.18974" lon="5.54662">
        <ele>1229.2</ele>
        <time>2015-06-11T16:11:00Z</time>
      </trkpt>
      <trkpt lat="45.18974" lon="5.54659">
        <ele>1229.3</ele>
        <time>2015-06-11T16:11:01Z</time>
      </trkpt>
      <trkpt lat="45.18973" lon="5.54656">
        <ele>1229.4</ele>
        <time>2015-06-11T16:11:02Z</time>
      </trkpt>
      <trkpt lat="45.18972" lon="5.54653">
        <ele>1229.6</ele>
        <time>2015-06-11T16:11:03Z</time>
      </trkpt>
      <trkpt lat="45.18972" lon="5.54649">
        <ele>1229.6</ele>
        <time>2015-06-11T16:11:04Z</time>
      </trkpt>
      <trkpt lat="45.18971" lon="5.54646">
        <ele>1229.7</ele>
        <time>2015-06-11T16:11:05Z</time>
      </trkpt>
      <trkpt lat="45.18969" lon="5.54642">
        <ele>1229.8</ele>
        <time>2015-06-11T16:11:06Z</time>
      </trkpt>
      <trkpt lat="45.18968" lon="5.54638">
        <ele>1229.9</ele>
        <time>2015-06-11T16:11:07Z</time>
      </trkpt>
      <trkpt lat="45.18966" lon="5.54634">
        <ele>1229.8</ele>
        <time>2015-06-11T16:11:08Z</time>
      </trkpt>
      <trkpt lat="45.18965" lon="5.54631">
        <ele>1229.8</ele>
        <time>2015-06-11T16:11:09Z</time>
      </trkpt>
      <trkpt lat="45.18964" lon="5.54628">
        <ele>1229.9</ele>
        <time>2015-06-11T16:11:10Z</time>
      </trkpt>
      <trkpt lat="45.18963" lon="5.54626">
        <ele>1229.9</ele>
        <time>2015-06-11T16:11:11Z</time>
      </trkpt>
      <trkpt lat="45.18962" lon="5.54623">
        <ele>1229.7</ele>
        <time>2015-06-11T16:11:12Z</time>
      </trkpt>
      <trkpt lat="45.1896" lon="5.5462">
        <ele>1229.3</ele>
        <time>2015-06-11T16:11:13Z</time>
      </trkpt>
      <trkpt lat="45.18958" lon="5.54616">
        <ele>1228.9</ele>
        <time>2015-06-11T16:11:14Z</time>
      </trkpt>
      <trkpt lat="45.18956" lon="5.54613">
        <ele>1227.9</ele>
        <time>2015-06-11T16:11:15Z</time>
      </trkpt>
      <trkpt lat="45.18953" lon="5.5461">
        <ele>1227</ele>
        <time>2015-06-11T16:11:16Z</time>
      </trkpt>
      <trkpt lat="45.18951" lon="5.54608">
        <ele>1226.3</ele>
        <time>2015-06-11T16:11:17Z</time>
      </trkpt>
      <trkpt lat="45.1895" lon="5.54606">
        <ele>1225.7</ele>
        <time>2015-06-11T16:11:18Z</time>
      </trkpt>
      <trkpt lat="45.18948" lon="5.54603">
        <ele>1225</ele>
        <time>2015-06-11T16:11:19Z</time>
      </trkpt>
      <trkpt lat="45.18947" lon="5.54601">
        <ele>1224.6</ele>
        <time>2015-06-11T16:11:20Z</time>
      </trkpt>
      <trkpt lat="45.18945" lon="5.54599">
        <ele>1223.9</ele>
        <time>2015-06-11T16:11:21Z</time>
      </trkpt>
      <trkpt lat="45.18944" lon="5.54597">
        <ele>1223.4</ele>
        <time>2015-06-11T16:11:22Z</time>
      </trkpt>
      <trkpt lat="45.18943" lon="5.54594">
        <ele>1223.1</ele>
        <time>2015-06-11T16:11:23Z</time>
      </trkpt>
      <trkpt lat="45.18942" lon="5.54592">
        <ele>1222.7</ele>
        <time>2015-06-11T16:11:24Z</time>
      </trkpt>
      <trkpt lat="45.18941" lon="5.54589">
        <ele>1222.2</ele>
        <time>2015-06-11T16:11:25Z</time>
      </trkpt>
      <trkpt lat="45.1894" lon="5.54587">
        <ele>1221.8</ele>
        <time>2015-06-11T16:11:26Z</time>
      </trkpt>
      <trkpt lat="45.18938" lon="5.54584">
        <ele>1221.3</ele>
        <time>2015-06-11T16:11:27Z</time>
      </trkpt>
      <trkpt lat="45.18937" lon="5.54582">
        <ele>1220.9</ele>
        <time>2015-06-11T16:11:28Z</time>
      </trkpt>
      <trkpt lat="45.18937" lon="5.54581">
        <ele>1220.6</ele>
        <time>2015-06-11T16:11:29Z</time>
      </trkpt>
      <trkpt lat="45.18936" lon="5.54579">
        <ele>1220.5</ele>
        <time>2015-06-11T16:11:30Z</time>
      </trkpt>
      <trkpt lat="45.18936" lon="5.54577">
        <ele>1220.4</ele>
        <time>2015-06-11T16:11:31Z</time>
      </trkpt>
      <trkpt lat="45.18935" lon="5.54574">
        <ele>1220.3</ele>
        <time>2015-06-11T16:11:32Z</time>
      </trkpt>
      <trkpt lat="45.18935" lon="5.54572">
        <ele>1220</ele>
        <time>2015-06-11T16:11:33Z</time>
      </trkpt>
      <trkpt lat="45.18934" lon="5.54568">
        <ele>1219.8</ele>
        <time>2015-06-11T16:11:34Z</time>
      </trkpt>
      <trkpt lat="45.18933" lon="5.54565">
        <ele>1219.4</ele>
        <time>2015-06-11T16:11:35Z</time>
      </trkpt>
      <trkpt lat="45.18932" lon="5.54561">
        <ele>1219.2</ele>
        <time>2015-06-11T16:11:36Z</time>
      </trkpt>
      <trkpt lat="45.18932" lon="5.54559">
        <ele>1218.9</ele>
        <time>2015-06-11T16:11:37Z</time>
      </trkpt>
      <trkpt lat="45.18931" lon="5.54556">
        <ele>1218.8</ele>
        <time>2015-06-11T16:11:38Z</time>
      </trkpt>
      <trkpt lat="45.18931" lon="5.54552">
        <ele>1218.7</ele>
        <time>2015-06-11T16:11:39Z</time>
      </trkpt>
      <trkpt lat="45.1893" lon="5.54549">
        <ele>1218.5</ele>
        <time>2015-06-11T16:11:40Z</time>
      </trkpt>
      <trkpt lat="45.1893" lon="5.54546">
        <ele>1218.3</ele>
        <time>2015-06-11T16:11:41Z</time>
      </trkpt>
      <trkpt lat="45.18929" lon="5.54544">
        <ele>1218.2</ele>
        <time>2015-06-11T16:11:42Z</time>
      </trkpt>
      <trkpt lat="45.18929" lon="5.54543">
        <ele>1217.9</ele>
        <time>2015-06-11T16:11:43Z</time>
      </trkpt>
      <trkpt lat="45.18928" lon="5.5454">
        <ele>1217.6</ele>
        <time>2015-06-11T16:11:44Z</time>
      </trkpt>
      <trkpt lat="45.18928" lon="5.54538">
        <ele>1217.2</ele>
        <time>2015-06-11T16:11:45Z</time>
      </trkpt>
      <trkpt lat="45.18927" lon="5.54535">
        <ele>1216.8</ele>
        <time>2015-06-11T16:11:46Z</time>
      </trkpt>
      <trkpt lat="45.18927" lon="5.54533">
        <ele>1216.5</ele>
        <time>2015-06-11T16:11:47Z</time>
      </trkpt>
      <trkpt lat="45.18927" lon="5.5453">
        <ele>1215.9</ele>
        <time>2015-06-11T16:11:48Z</time>
      </trkpt>
      <trkpt lat="45.18926" lon="5.54527">
        <ele>1215.2</ele>
        <time>2015-06-11T16:11:49Z</time>
      </trkpt>
      <trkpt lat="45.18926" lon="5.54522">
        <ele>1214.7</ele>
        <time>2015-06-11T16:11:50Z</time>
      </trkpt>
      <trkpt lat="45.18925" lon="5.54518">
        <ele>1214.1</ele>
        <time>2015-06-11T16:11:51Z</time>
      </trkpt>
      <trkpt lat="45.18925" lon="5.54515">
        <ele>1213.8</ele>
        <time>2015-06-11T16:11:52Z</time>
      </trkpt>
      <trkpt lat="45.18925" lon="5.54513">
        <ele>1213.5</ele>
        <time>2015-06-11T16:11:53Z</time>
      </trkpt>
      <trkpt lat="45.18924" lon="5.54512">
        <ele>1213.2</ele>
        <time>2015-06-11T16:11:54Z</time>
      </trkpt>
      <trkpt lat="45.18924" lon="5.54509">
        <ele>1212.7</ele>
        <time>2015-06-11T16:11:55Z</time>
      </trkpt>
      <trkpt lat="45.18923" lon="5.54507">
        <ele>1212.2</ele>
        <time>2015-06-11T16:11:56Z</time>
      </trkpt>
      <trkpt lat="45.18922" lon="5.54504">
        <ele>1211.6</ele>
        <time>2015-06-11T16:11:57Z</time>
      </trkpt>
      <trkpt lat="45.18921" lon="5.545">
        <ele>1210.9</ele>
        <time>2015-06-11T16:11:58Z</time>
      </trkpt>
      <trkpt lat="45.18919" lon="5.54497">
        <ele>1210.3</ele>
        <time>2015-06-11T16:11:59Z</time>
      </trkpt>
      <trkpt lat="45.18918" lon="5.54494">
        <ele>1209.7</ele>
        <time>2015-06-11T16:12:00Z</time>
      </trkpt>
      <trkpt lat="45.18918" lon="5.54491">
        <ele>1209.2</ele>
        <time>2015-06-11T16:12:01Z</time>
      </trkpt>
      <trkpt lat="45.18917" lon="5.54489">
        <ele>1208.7</ele>
        <time>2015-06-11T16:12:02Z</time>
      </trkpt>
      <trkpt lat="45.18916" lon="5.54485">
        <ele>1208.3</ele>
        <time>2015-06-11T16:12:03Z</time>
      </trkpt>
      <trkpt lat="45.18917" lon="5.54482">
        <ele>1208.2</ele>
        <time>2015-06-11T16:12:04Z</time>
      </trkpt>
      <trkpt lat="45.18917" lon="5.54478">
        <ele>1207.9</ele>
        <time>2015-06-11T16:12:05Z</time>
      </trkpt>
      <trkpt lat="45.18917" lon="5.54475">
        <ele>1207.5</ele>
        <time>2015-06-11T16:12:06Z</time>
      </trkpt>
      <trkpt lat="45.18916" lon="5.54472">
        <ele>1207</ele>
        <time>2015-06-11T16:12:07Z</time>
      </trkpt>
      <trkpt lat="45.18915" lon="5.54469">
        <ele>1206.5</ele>
        <time>2015-06-11T16:12:08Z</time>
      </trkpt>
      <trkpt lat="45.18914" lon="5.54467">
        <ele>1206</ele>
        <time>2015-06-11T16:12:09Z</time>
      </trkpt>
      <trkpt lat="45.18912" lon="5.54463">
        <ele>1205.3</ele>
        <time>2015-06-11T16:12:10Z</time>
      </trkpt>
      <trkpt lat="45.18912" lon="5.54459">
        <ele>1205</ele>
        <time>2015-06-11T16:12:11Z</time>
      </trkpt>
      <trkpt lat="45.18912" lon="5.54457">
        <ele>1204.7</ele>
        <time>2015-06-11T16:12:12Z</time>
      </trkpt>
      <trkpt lat="45.18911" lon="5.54454">
        <ele>1204.3</ele>
        <time>2015-06-11T16:12:13Z</time>
      </trkpt>
      <trkpt lat="45.1891" lon="5.54451">
        <ele>1203.7</ele>
        <time>2015-06-11T16:12:14Z</time>
      </trkpt>
      <trkpt lat="45.18908" lon="5.54448">
        <ele>1203</ele>
        <time>2015-06-11T16:12:15Z</time>
      </trkpt>
      <trkpt lat="45.18907" lon="5.54445">
        <ele>1202.5</ele>
        <time>2015-06-11T16:12:16Z</time>
      </trkpt>
      <trkpt lat="45.18906" lon="5.54443">
        <ele>1201.9</ele>
        <time>2015-06-11T16:12:17Z</time>
      </trkpt>
      <trkpt lat="45.18904" lon="5.5444">
        <ele>1201.2</ele>
        <time>2015-06-11T16:12:18Z</time>
      </trkpt>
      <trkpt lat="45.18902" lon="5.54437">
        <ele>1200.6</ele>
        <time>2015-06-11T16:12:19Z</time>
      </trkpt>
      <trkpt lat="45.189" lon="5.54433">
        <ele>1200</ele>
        <time>2015-06-11T16:12:20Z</time>
      </trkpt>
      <trkpt lat="45.18898" lon="5.54431">
        <ele>1199.5</ele>
        <time>2015-06-11T16:12:21Z</time>
      </trkpt>
      <trkpt lat="45.18897" lon="5.54429">
        <ele>1199</ele>
        <time>2015-06-11T16:12:22Z</time>
      </trkpt>
      <trkpt lat="45.18895" lon="5.54426">
        <ele>1198.5</ele>
        <time>2015-06-11T16:12:23Z</time>
      </trkpt>
      <trkpt lat="45.18893" lon="5.54423">
        <ele>1198</ele>
        <time>2015-06-11T16:12:24Z</time>
      </trkpt>
      <trkpt lat="45.18892" lon="5.54421">
        <ele>1197.5</ele>
        <time>2015-06-11T16:12:25Z</time>
      </trkpt>
      <trkpt lat="45.1889" lon="5.54418">
        <ele>1197.1</ele>
        <time>2015-06-11T16:12:26Z</time>
      </trkpt>
      <trkpt lat="45.18889" lon="5.54416">
        <ele>1196.7</ele>
        <time>2015-06-11T16:12:27Z</time>
      </trkpt>
      <trkpt lat="45.18887" lon="5.54413">
        <ele>1196.3</ele>
        <time>2015-06-11T16:12:28Z</time>
      </trkpt>
      <trkpt lat="45.18885" lon="5.54411">
        <ele>1195.9</ele>
        <time>2015-06-11T16:12:29Z</time>
      </trkpt>
      <trkpt lat="45.18883" lon="5.54409">
        <ele>1195.5</ele>
        <time>2015-06-11T16:12:30Z</time>
      </trkpt>
      <trkpt lat="45.18881" lon="5.54406">
        <ele>1195.2</ele>
        <time>2015-06-11T16:12:31Z</time>
      </trkpt>
      <trkpt lat="45.1888" lon="5.54403">
        <ele>1194.9</ele>
        <time>2015-06-11T16:12:32Z</time>
      </trkpt>
      <trkpt lat="45.18879" lon="5.544">
        <ele>1194.6</ele>
        <time>2015-06-11T16:12:33Z</time>
      </trkpt>
      <trkpt lat="45.18878" lon="5.54397">
        <ele>1194.3</ele>
        <time>2015-06-11T16:12:34Z</time>
      </trkpt>
      <trkpt lat="45.18878" lon="5.54394">
        <ele>1194.2</ele>
        <time>2015-06-11T16:12:35Z</time>
      </trkpt>
      <trkpt lat="45.18877" lon="5.5439">
        <ele>1193.9</ele>
        <time>2015-06-11T16:12:36Z</time>
      </trkpt>
      <trkpt lat="45.18877" lon="5.54385">
        <ele>1193.6</ele>
        <time>2015-06-11T16:12:37Z</time>
      </trkpt>
      <trkpt lat="45.18877" lon="5.5438">
        <ele>1193.4</ele>
        <time>2015-06-11T16:12:38Z</time>
      </trkpt>
      <trkpt lat="45.18877" lon="5.54375">
        <ele>1193.1</ele>
        <time>2015-06-11T16:12:39Z</time>
      </trkpt>
      <trkpt lat="45.18878" lon="5.5437">
        <ele>1192.4</ele>
        <time>2015-06-11T16:12:40Z</time>
      </trkpt>
      <trkpt lat="45.18879" lon="5.54367">
        <ele>1192</ele>
        <time>2015-06-11T16:12:41Z</time>
      </trkpt>
      <trkpt lat="45.18879" lon="5.54364">
        <ele>1191.6</ele>
        <time>2015-06-11T16:12:42Z</time>
      </trkpt>
      <trkpt lat="45.18879" lon="5.54361">
        <ele>1191.2</ele>
        <time>2015-06-11T16:12:43Z</time>
      </trkpt>
      <trkpt lat="45.1888" lon="5.54359">
        <ele>1190.9</ele>
        <time>2015-06-11T16:12:44Z</time>
      </trkpt>
      <trkpt lat="45.18882" lon="5.54356">
        <ele>1190.6</ele>
        <time>2015-06-11T16:12:45Z</time>
      </trkpt>
      <trkpt lat="45.18883" lon="5.54353">
        <ele>1190.2</ele>
        <time>2015-06-11T16:12:46Z</time>
      </trkpt>
      <trkpt lat="45.18884" lon="5.5435">
        <ele>1189.7</ele>
        <time>2015-06-11T16:12:47Z</time>
      </trkpt>
      <trkpt lat="45.18885" lon="5.54346">
        <ele>1189.1</ele>
        <time>2015-06-11T16:12:48Z</time>
      </trkpt>
      <trkpt lat="45.18886" lon="5.54342">
        <ele>1188.5</ele>
        <time>2015-06-11T16:12:49Z</time>
      </trkpt>
      <trkpt lat="45.18888" lon="5.54336">
        <ele>1187.6</ele>
        <time>2015-06-11T16:12:50Z</time>
      </trkpt>
      <trkpt lat="45.18889" lon="5.54332">
        <ele>1186.9</ele>
        <time>2015-06-11T16:12:51Z</time>
      </trkpt>
      <trkpt lat="45.18891" lon="5.54329">
        <ele>1186.3</ele>
        <time>2015-06-11T16:12:52Z</time>
      </trkpt>
      <trkpt lat="45.18893" lon="5.54325">
        <ele>1185.6</ele>
        <time>2015-06-11T16:12:53Z</time>
      </trkpt>
      <trkpt lat="45.18895" lon="5.54322">
        <ele>1185.1</ele>
        <time>2015-06-11T16:12:54Z</time>
      </trkpt>
      <trkpt lat="45.18897" lon="5.54321">
        <ele>1184.6</ele>
        <time>2015-06-11T16:12:55Z</time>
      </trkpt>
      <trkpt lat="45.189" lon="5.54319">
        <ele>1184.2</ele>
        <time>2015-06-11T16:12:56Z</time>
      </trkpt>
      <trkpt lat="45.18903" lon="5.54318">
        <ele>1183.8</ele>
        <time>2015-06-11T16:12:57Z</time>
      </trkpt>
      <trkpt lat="45.18906" lon="5.54317">
        <ele>1183.5</ele>
        <time>2015-06-11T16:12:58Z</time>
      </trkpt>
      <trkpt lat="45.18909" lon="5.54317">
        <ele>1183.2</ele>
        <time>2015-06-11T16:12:59Z</time>
      </trkpt>
      <trkpt lat="45.18912" lon="5.54317">
        <ele>1183.1</ele>
        <time>2015-06-11T16:13:00Z</time>
      </trkpt>
      <trkpt lat="45.18914" lon="5.54317">
        <ele>1183</ele>
        <time>2015-06-11T16:13:01Z</time>
      </trkpt>
      <trkpt lat="45.18916" lon="5.54317">
        <ele>1182.9</ele>
        <time>2015-06-11T16:13:02Z</time>
      </trkpt>
      <trkpt lat="45.18919" lon="5.54318">
        <ele>1182.8</ele>
        <time>2015-06-11T16:13:03Z</time>
      </trkpt>
      <trkpt lat="45.18921" lon="5.54318">
        <ele>1182.8</ele>
        <time>2015-06-11T16:13:04Z</time>
      </trkpt>
      <trkpt lat="45.18924" lon="5.54319">
        <ele>1182.9</ele>
        <time>2015-06-11T16:13:05Z</time>
      </trkpt>
      <trkpt lat="45.18926" lon="5.5432">
        <ele>1182.9</ele>
        <time>2015-06-11T16:13:06Z</time>
      </trkpt>
      <trkpt lat="45.18928" lon="5.5432">
        <ele>1182.9</ele>
        <time>2015-06-11T16:13:07Z</time>
      </trkpt>
      <trkpt lat="45.18931" lon="5.54321">
        <ele>1182.9</ele>
        <time>2015-06-11T16:13:08Z</time>
      </trkpt>
      <trkpt lat="45.18934" lon="5.54322">
        <ele>1183.1</ele>
        <time>2015-06-11T16:13:09Z</time>
      </trkpt>
      <trkpt lat="45.18937" lon="5.54324">
        <ele>1183.2</ele>
        <time>2015-06-11T16:13:10Z</time>
      </trkpt>
      <trkpt lat="45.18939" lon="5.54325">
        <ele>1183.5</ele>
        <time>2015-06-11T16:13:11Z</time>
      </trkpt>
      <trkpt lat="45.18942" lon="5.54327">
        <ele>1183.8</ele>
        <time>2015-06-11T16:13:12Z</time>
      </trkpt>
      <trkpt lat="45.18944" lon="5.54328">
        <ele>1184</ele>
        <time>2015-06-11T16:13:13Z</time>
      </trkpt>
      <trkpt lat="45.18946" lon="5.54329">
        <ele>1184.1</ele>
        <time>2015-06-11T16:13:14Z</time>
      </trkpt>
      <trkpt lat="45.18948" lon="5.5433">
        <ele>1184.3</ele>
        <time>2015-06-11T16:13:15Z</time>
      </trkpt>
      <trkpt lat="45.18951" lon="5.54331">
        <ele>1184.6</ele>
        <time>2015-06-11T16:13:16Z</time>
      </trkpt>
      <trkpt lat="45.18953" lon="5.54332">
        <ele>1184.8</ele>
        <time>2015-06-11T16:13:17Z</time>
      </trkpt>
      <trkpt lat="45.18955" lon="5.54333">
        <ele>1185.1</ele>
        <time>2015-06-11T16:13:18Z</time>
      </trkpt>
      <trkpt lat="45.18957" lon="5.54334">
        <ele>1185.2</ele>
        <time>2015-06-11T16:13:19Z</time>
      </trkpt>
      <trkpt lat="45.18959" lon="5.54335">
        <ele>1185.3</ele>
        <time>2015-06-11T16:13:20Z</time>
      </trkpt>
      <trkpt lat="45.18961" lon="5.54335">
        <ele>1185.4</ele>
        <time>2015-06-11T16:13:21Z</time>
      </trkpt>
      <trkpt lat="45.18963" lon="5.54336">
        <ele>1185.6</ele>
        <time>2015-06-11T16:13:22Z</time>
      </trkpt>
      <trkpt lat="45.18966" lon="5.54337">
        <ele>1185.8</ele>
        <time>2015-06-11T16:13:23Z</time>
      </trkpt>
      <trkpt lat="45.18968" lon="5.54339">
        <ele>1186.1</ele>
        <time>2015-06-11T16:13:24Z</time>
      </trkpt>
      <trkpt lat="45.1897" lon="5.5434">
        <ele>1186.5</ele>
        <time>2015-06-11T16:13:25Z</time>
      </trkpt>
      <trkpt lat="45.18972" lon="5.54342">
        <ele>1186.9</ele>
        <time>2015-06-11T16:13:26Z</time>
      </trkpt>
      <trkpt lat="45.18974" lon="5.54343">
        <ele>1187.3</ele>
        <time>2015-06-11T16:13:27Z</time>
      </trkpt>
      <trkpt lat="45.18976" lon="5.54344">
        <ele>1187.6</ele>
        <time>2015-06-11T16:13:28Z</time>
      </trkpt>
      <trkpt lat="45.18978" lon="5.54346">
        <ele>1187.9</ele>
        <time>2015-06-11T16:13:29Z</time>
      </trkpt>
      <trkpt lat="45.18979" lon="5.54347">
        <ele>1188.1</ele>
        <time>2015-06-11T16:13:30Z</time>
      </trkpt>
      <trkpt lat="45.18981" lon="5.54347">
        <ele>1188.3</ele>
        <time>2015-06-11T16:13:31Z</time>
      </trkpt>
      <trkpt lat="45.18982" lon="5.54348">
        <ele>1188.4</ele>
        <time>2015-06-11T16:13:32Z</time>
      </trkpt>
      <trkpt lat="45.18984" lon="5.54348">
        <ele>1188.5</ele>
        <time>2015-06-11T16:13:33Z</time>
      </trkpt>
      <trkpt lat="45.18986" lon="5.54349">
        <ele>1188.7</ele>
        <time>2015-06-11T16:13:34Z</time>
      </trkpt>
      <trkpt lat="45.18988" lon="5.5435">
        <ele>1188.9</ele>
        <time>2015-06-11T16:13:35Z</time>
      </trkpt>
      <trkpt lat="45.1899" lon="5.54351">
        <ele>1189</ele>
        <time>2015-06-11T16:13:36Z</time>
      </trkpt>
      <trkpt lat="45.18992" lon="5.5435">
        <ele>1188.9</ele>
        <time>2015-06-11T16:13:37Z</time>
      </trkpt>
      <trkpt lat="45.18994" lon="5.54351">
        <ele>1189</ele>
        <time>2015-06-11T16:13:38Z</time>
      </trkpt>
      <trkpt lat="45.18996" lon="5.54351">
        <ele>1189.1</ele>
        <time>2015-06-11T16:13:39Z</time>
      </trkpt>
      <trkpt lat="45.18998" lon="5.54352">
        <ele>1189.2</ele>
        <time>2015-06-11T16:13:40Z</time>
      </trkpt>
      <trkpt lat="45.19001" lon="5.54353">
        <ele>1189.3</ele>
        <time>2015-06-11T16:13:41Z</time>
      </trkpt>
      <trkpt lat="45.19003" lon="5.54353">
        <ele>1189.4</ele>
        <time>2015-06-11T16:13:42Z</time>
      </trkpt>
      <trkpt lat="45.19005" lon="5.54353">
        <ele>1189.5</ele>
        <time>2015-06-11T16:13:43Z</time>
      </trkpt>
      <trkpt lat="45.19007" lon="5.54353">
        <ele>1189.4</ele>
        <time>2015-06-11T16:13:44Z</time>
      </trkpt>
      <trkpt lat="45.19009" lon="5.54353">
        <ele>1189.3</ele>
        <time>2015-06-11T16:13:45Z</time>
      </trkpt>
      <trkpt lat="45.19011" lon="5.54353">
        <ele>1189.3</ele>
        <time>2015-06-11T16:13:46Z</time>
      </trkpt>
      <trkpt lat="45.19013" lon="5.54353">
        <ele>1189.3</ele>
        <time>2015-06-11T16:13:47Z</time>
      </trkpt>
      <trkpt lat="45.19016" lon="5.54354">
        <ele>1189.4</ele>
        <time>2015-06-11T16:13:48Z</time>
      </trkpt>
      <trkpt lat="45.19019" lon="5.54355">
        <ele>1189.6</ele>
        <time>2015-06-11T16:13:49Z</time>
      </trkpt>
      <trkpt lat="45.19021" lon="5.54356">
        <ele>1189.8</ele>
        <time>2015-06-11T16:13:50Z</time>
      </trkpt>
      <trkpt lat="45.19024" lon="5.54357">
        <ele>1190</ele>
        <time>2015-06-11T16:13:51Z</time>
      </trkpt>
      <trkpt lat="45.19027" lon="5.54358">
        <ele>1190.3</ele>
        <time>2015-06-11T16:13:52Z</time>
      </trkpt>
      <trkpt lat="45.1903" lon="5.54359">
        <ele>1190.7</ele>
        <time>2015-06-11T16:13:53Z</time>
      </trkpt>
      <trkpt lat="45.19032" lon="5.5436">
        <ele>1191.1</ele>
        <time>2015-06-11T16:13:54Z</time>
      </trkpt>
      <trkpt lat="45.19033" lon="5.54361">
        <ele>1191.4</ele>
        <time>2015-06-11T16:13:55Z</time>
      </trkpt>
      <trkpt lat="45.19035" lon="5.54362">
        <ele>1191.7</ele>
        <time>2015-06-11T16:13:56Z</time>
      </trkpt>
      <trkpt lat="45.19038" lon="5.54363">
        <ele>1192</ele>
        <time>2015-06-11T16:13:57Z</time>
      </trkpt>
      <trkpt lat="45.19039" lon="5.54364">
        <ele>1192.3</ele>
        <time>2015-06-11T16:13:58Z</time>
      </trkpt>
      <trkpt lat="45.19041" lon="5.54365">
        <ele>1192.6</ele>
        <time>2015-06-11T16:13:59Z</time>
      </trkpt>
      <trkpt lat="45.19043" lon="5.54366">
        <ele>1192.7</ele>
        <time>2015-06-11T16:14:00Z</time>
      </trkpt>
      <trkpt lat="45.19045" lon="5.54367">
        <ele>1193</ele>
        <time>2015-06-11T16:14:01Z</time>
      </trkpt>
      <trkpt lat="45.19047" lon="5.54368">
        <ele>1193.1</ele>
        <time>2015-06-11T16:14:02Z</time>
      </trkpt>
      <trkpt lat="45.19049" lon="5.54368">
        <ele>1193.2</ele>
        <time>2015-06-11T16:14:03Z</time>
      </trkpt>
      <trkpt lat="45.19051" lon="5.54369">
        <ele>1193.4</ele>
        <time>2015-06-11T16:14:04Z</time>
      </trkpt>
      <trkpt lat="45.19052" lon="5.5437">
        <ele>1193.7</ele>
        <time>2015-06-11T16:14:05Z</time>
      </trkpt>
      <trkpt lat="45.19053" lon="5.54372">
        <ele>1194.1</ele>
        <time>2015-06-11T16:14:06Z</time>
      </trkpt>
      <trkpt lat="45.19056" lon="5.54373">
        <ele>1194.5</ele>
        <time>2015-06-11T16:14:07Z</time>
      </trkpt>
      <trkpt lat="45.19058" lon="5.54374">
        <ele>1194.7</ele>
        <time>2015-06-11T16:14:08Z</time>
      </trkpt>
      <trkpt lat="45.1906" lon="5.54375">
        <ele>1194.8</ele>
        <time>2015-06-11T16:14:09Z</time>
      </trkpt>
      <trkpt lat="45.19062" lon="5.54375">
        <ele>1194.9</ele>
        <time>2015-06-11T16:14:10Z</time>
      </trkpt>
      <trkpt lat="45.19063" lon="5.54376">
        <ele>1194.9</ele>
        <time>2015-06-11T16:14:11Z</time>
      </trkpt>
      <trkpt lat="45.19065" lon="5.54376">
        <ele>1194.9</ele>
        <time>2015-06-11T16:14:12Z</time>
      </trkpt>
      <trkpt lat="45.19067" lon="5.54377">
        <ele>1195</ele>
        <time>2015-06-11T16:14:13Z</time>
      </trkpt>
      <trkpt lat="45.19069" lon="5.54377">
        <ele>1195</ele>
        <time>2015-06-11T16:14:14Z</time>
      </trkpt>
      <trkpt lat="45.19072" lon="5.54378">
        <ele>1195</ele>
        <time>2015-06-11T16:14:15Z</time>
      </trkpt>
      <trkpt lat="45.19074" lon="5.54377">
        <ele>1194.8</ele>
        <time>2015-06-11T16:14:16Z</time>
      </trkpt>
      <trkpt lat="45.19077" lon="5.54378">
        <ele>1194.7</ele>
        <time>2015-06-11T16:14:17Z</time>
      </trkpt>
      <trkpt lat="45.19079" lon="5.54378">
        <ele>1194.8</ele>
        <time>2015-06-11T16:14:18Z</time>
      </trkpt>
      <trkpt lat="45.19082" lon="5.54379">
        <ele>1194.9</ele>
        <time>2015-06-11T16:14:19Z</time>
      </trkpt>
      <trkpt lat="45.19084" lon="5.5438">
        <ele>1195.1</ele>
        <time>2015-06-11T16:14:20Z</time>
      </trkpt>
      <trkpt lat="45.19087" lon="5.54381">
        <ele>1195.3</ele>
        <time>2015-06-11T16:14:21Z</time>
      </trkpt>
      <trkpt lat="45.19089" lon="5.54383">
        <ele>1195.6</ele>
        <time>2015-06-11T16:14:22Z</time>
      </trkpt>
      <trkpt lat="45.19091" lon="5.54384">
        <ele>1196</ele>
        <time>2015-06-11T16:14:23Z</time>
      </trkpt>
      <trkpt lat="45.19094" lon="5.54385">
        <ele>1196.3</ele>
        <time>2015-06-11T16:14:24Z</time>
      </trkpt>
      <trkpt lat="45.19096" lon="5.54386">
        <ele>1196.5</ele>
        <time>2015-06-11T16:14:25Z</time>
      </trkpt>
      <trkpt lat="45.19098" lon="5.54388">
        <ele>1196.8</ele>
        <time>2015-06-11T16:14:26Z</time>
      </trkpt>
      <trkpt lat="45.191" lon="5.54389">
        <ele>1197.1</ele>
        <time>2015-06-11T16:14:27Z</time>
      </trkpt>
      <trkpt lat="45.19102" lon="5.5439">
        <ele>1197.3</ele>
        <time>2015-06-11T16:14:28Z</time>
      </trkpt>
      <trkpt lat="45.19104" lon="5.54391">
        <ele>1197.5</ele>
        <time>2015-06-11T16:14:29Z</time>
      </trkpt>
      <trkpt lat="45.19107" lon="5.54392">
        <ele>1197.8</ele>
        <time>2015-06-11T16:14:30Z</time>
      </trkpt>
      <trkpt lat="45.1911" lon="5.54393">
        <ele>1197.9</ele>
        <time>2015-06-11T16:14:31Z</time>
      </trkpt>
      <trkpt lat="45.19112" lon="5.54393">
        <ele>1198</ele>
        <time>2015-06-11T16:14:32Z</time>
      </trkpt>
      <trkpt lat="45.19115" lon="5.54393">
        <ele>1198</ele>
        <time>2015-06-11T16:14:33Z</time>
      </trkpt>
      <trkpt lat="45.19117" lon="5.54394">
        <ele>1198.3</ele>
        <time>2015-06-11T16:14:34Z</time>
      </trkpt>
      <trkpt lat="45.19119" lon="5.54396">
        <ele>1198.6</ele>
        <time>2015-06-11T16:14:35Z</time>
      </trkpt>
      <trkpt lat="45.19122" lon="5.54396">
        <ele>1198.8</ele>
        <time>2015-06-11T16:14:36Z</time>
      </trkpt>
      <trkpt lat="45.19124" lon="5.54396">
        <ele>1198.7</ele>
        <time>2015-06-11T16:14:37Z</time>
      </trkpt>
      <trkpt lat="45.19127" lon="5.54397">
        <ele>1199</ele>
        <time>2015-06-11T16:14:38Z</time>
      </trkpt>
      <trkpt lat="45.19129" lon="5.54399">
        <ele>1199.3</ele>
        <time>2015-06-11T16:14:39Z</time>
      </trkpt>
      <trkpt lat="45.19132" lon="5.54399">
        <ele>1199.4</ele>
        <time>2015-06-11T16:14:40Z</time>
      </trkpt>
      <trkpt lat="45.19135" lon="5.544">
        <ele>1199.4</ele>
        <time>2015-06-11T16:14:41Z</time>
      </trkpt>
      <trkpt lat="45.19137" lon="5.544">
        <ele>1199.4</ele>
        <time>2015-06-11T16:14:42Z</time>
      </trkpt>
      <trkpt lat="45.1914" lon="5.544">
        <ele>1199.5</ele>
        <time>2015-06-11T16:14:43Z</time>
      </trkpt>
      <trkpt lat="45.19141" lon="5.54401">
        <ele>1199.6</ele>
        <time>2015-06-11T16:14:44Z</time>
      </trkpt>
      <trkpt lat="45.19143" lon="5.54401">
        <ele>1199.4</ele>
        <time>2015-06-11T16:14:45Z</time>
      </trkpt>
      <trkpt lat="45.19145" lon="5.54401">
        <ele>1199.4</ele>
        <time>2015-06-11T16:14:46Z</time>
      </trkpt>
      <trkpt lat="45.19148" lon="5.54402">
        <ele>1199.7</ele>
        <time>2015-06-11T16:14:47Z</time>
      </trkpt>
      <trkpt lat="45.19151" lon="5.54403">
        <ele>1200</ele>
        <time>2015-06-11T16:14:48Z</time>
      </trkpt>
      <trkpt lat="45.19154" lon="5.54404">
        <ele>1200.1</ele>
        <time>2015-06-11T16:14:49Z</time>
      </trkpt>
      <trkpt lat="45.19156" lon="5.54405">
        <ele>1200.2</ele>
        <time>2015-06-11T16:14:50Z</time>
      </trkpt>
      <trkpt lat="45.19158" lon="5.54405">
        <ele>1200.2</ele>
        <time>2015-06-11T16:14:51Z</time>
      </trkpt>
      <trkpt lat="45.1916" lon="5.54406">
        <ele>1200.3</ele>
        <time>2015-06-11T16:14:52Z</time>
      </trkpt>
      <trkpt lat="45.19162" lon="5.54406">
        <ele>1200.4</ele>
        <time>2015-06-11T16:14:53Z</time>
      </trkpt>
      <trkpt lat="45.19164" lon="5.54407">
        <ele>1200.5</ele>
        <time>2015-06-11T16:14:54Z</time>
      </trkpt>
      <trkpt lat="45.19167" lon="5.54407">
        <ele>1200.5</ele>
        <time>2015-06-11T16:14:55Z</time>
      </trkpt>
      <trkpt lat="45.19169" lon="5.54408">
        <ele>1200.8</ele>
        <time>2015-06-11T16:14:56Z</time>
      </trkpt>
      <trkpt lat="45.19172" lon="5.5441">
        <ele>1201.3</ele>
        <time>2015-06-11T16:14:57Z</time>
      </trkpt>
      <trkpt lat="45.19175" lon="5.54411">
        <ele>1201.5</ele>
        <time>2015-06-11T16:14:58Z</time>
      </trkpt>
      <trkpt lat="45.19177" lon="5.54412">
        <ele>1201.7</ele>
        <time>2015-06-11T16:14:59Z</time>
      </trkpt>
      <trkpt lat="45.19179" lon="5.54413">
        <ele>1201.8</ele>
        <time>2015-06-11T16:15:00Z</time>
      </trkpt>
      <trkpt lat="45.19181" lon="5.54414">
        <ele>1202.2</ele>
        <time>2015-06-11T16:15:01Z</time>
      </trkpt>
      <trkpt lat="45.19184" lon="5.54416">
        <ele>1202.7</ele>
        <time>2015-06-11T16:15:02Z</time>
      </trkpt>
      <trkpt lat="45.19186" lon="5.54419">
        <ele>1203.4</ele>
        <time>2015-06-11T16:15:03Z</time>
      </trkpt>
      <trkpt lat="45.19189" lon="5.54421">
        <ele>1203.9</ele>
        <time>2015-06-11T16:15:04Z</time>
      </trkpt>
      <trkpt lat="45.19191" lon="5.54423">
        <ele>1204.3</ele>
        <time>2015-06-11T16:15:05Z</time>
      </trkpt>
      <trkpt lat="45.19194" lon="5.54424">
        <ele>1204.7</ele>
        <time>2015-06-11T16:15:06Z</time>
      </trkpt>
      <trkpt lat="45.19196" lon="5.54425">
        <ele>1205</ele>
        <time>2015-06-11T16:15:07Z</time>
      </trkpt>
      <trkpt lat="45.19199" lon="5.54426">
        <ele>1205.2</ele>
        <time>2015-06-11T16:15:08Z</time>
      </trkpt>
      <trkpt lat="45.19201" lon="5.54427">
        <ele>1205.4</ele>
        <time>2015-06-11T16:15:09Z</time>
      </trkpt>
      <trkpt lat="45.19204" lon="5.54428">
        <ele>1205.5</ele>
        <time>2015-06-11T16:15:10Z</time>
      </trkpt>
      <trkpt lat="45.19206" lon="5.54429">
        <ele>1205.5</ele>
        <time>2015-06-11T16:15:11Z</time>
      </trkpt>
      <trkpt lat="45.19208" lon="5.54429">
        <ele>1205.5</ele>
        <time>2015-06-11T16:15:12Z</time>
      </trkpt>
      <trkpt lat="45.1921" lon="5.54429">
        <ele>1205.4</ele>
        <time>2015-06-11T16:15:13Z</time>
      </trkpt>
      <trkpt lat="45.19213" lon="5.54429">
        <ele>1205.3</ele>
        <time>2015-06-11T16:15:14Z</time>
      </trkpt>
      <trkpt lat="45.19216" lon="5.54429">
        <ele>1205.3</ele>
        <time>2015-06-11T16:15:15Z</time>
      </trkpt>
      <trkpt lat="45.19219" lon="5.54429">
        <ele>1205.4</ele>
        <time>2015-06-11T16:15:16Z</time>
      </trkpt>
      <trkpt lat="45.19222" lon="5.54429">
        <ele>1205.3</ele>
        <time>2015-06-11T16:15:17Z</time>
      </trkpt>
      <trkpt lat="45.19225" lon="5.54428">
        <ele>1205</ele>
        <time>2015-06-11T16:15:18Z</time>
      </trkpt>
      <trkpt lat="45.19228" lon="5.54427">
        <ele>1204.7</ele>
        <time>2015-06-11T16:15:19Z</time>
      </trkpt>
      <trkpt lat="45.1923" lon="5.54427">
        <ele>1204.6</ele>
        <time>2015-06-11T16:15:20Z</time>
      </trkpt>
      <trkpt lat="45.19232" lon="5.54426">
        <ele>1204.4</ele>
        <time>2015-06-11T16:15:21Z</time>
      </trkpt>
      <trkpt lat="45.19233" lon="5.54426">
        <ele>1204.1</ele>
        <time>2015-06-11T16:15:22Z</time>
      </trkpt>
      <trkpt lat="45.19235" lon="5.54424">
        <ele>1203.7</ele>
        <time>2015-06-11T16:15:23Z</time>
      </trkpt>
      <trkpt lat="45.19236" lon="5.54422">
        <ele>1203</ele>
        <time>2015-06-11T16:15:24Z</time>
      </trkpt>
      <trkpt lat="45.19237" lon="5.54419">
        <ele>1202.2</ele>
        <time>2015-06-11T16:15:25Z</time>
      </trkpt>
      <trkpt lat="45.19238" lon="5.54416">
        <ele>1201.2</ele>
        <time>2015-06-11T16:15:26Z</time>
      </trkpt>
      <trkpt lat="45.19238" lon="5.54412">
        <ele>1200.2</ele>
        <time>2015-06-11T16:15:27Z</time>
      </trkpt>
      <trkpt lat="45.19238" lon="5.54409">
        <ele>1199.3</ele>
        <time>2015-06-11T16:15:28Z</time>
      </trkpt>
      <trkpt lat="45.19237" lon="5.54406">
        <ele>1198.3</ele>
        <time>2015-06-11T16:15:29Z</time>
      </trkpt>
      <trkpt lat="45.19236" lon="5.54402">
        <ele>1197.3</ele>
        <time>2015-06-11T16:15:30Z</time>
      </trkpt>
      <trkpt lat="45.19236" lon="5.54399">
        <ele>1196.4</ele>
        <time>2015-06-11T16:15:31Z</time>
      </trkpt>
      <trkpt lat="45.19235" lon="5.54396">
        <ele>1195.5</ele>
        <time>2015-06-11T16:15:32Z</time>
      </trkpt>
      <trkpt lat="45.19235" lon="5.54393">
        <ele>1194.7</ele>
        <time>2015-06-11T16:15:33Z</time>
      </trkpt>
      <trkpt lat="45.19235" lon="5.54391">
        <ele>1193.9</ele>
        <time>2015-06-11T16:15:34Z</time>
      </trkpt>
      <trkpt lat="45.19235" lon="5.54388">
        <ele>1193</ele>
        <time>2015-06-11T16:15:35Z</time>
      </trkpt>
      <trkpt lat="45.19235" lon="5.54385">
        <ele>1192</ele>
        <time>2015-06-11T16:15:36Z</time>
      </trkpt>
      <trkpt lat="45.19234" lon="5.54381">
        <ele>1191.1</ele>
        <time>2015-06-11T16:15:37Z</time>
      </trkpt>
      <trkpt lat="45.19234" lon="5.54378">
        <ele>1190.2</ele>
        <time>2015-06-11T16:15:38Z</time>
      </trkpt>
      <trkpt lat="45.19233" lon="5.54375">
        <ele>1189.2</ele>
        <time>2015-06-11T16:15:39Z</time>
      </trkpt>
      <trkpt lat="45.19232" lon="5.54373">
        <ele>1188.7</ele>
        <time>2015-06-11T16:15:40Z</time>
      </trkpt>
      <trkpt lat="45.19232" lon="5.54371">
        <ele>1188.3</ele>
        <time>2015-06-11T16:15:41Z</time>
      </trkpt>
      <trkpt lat="45.19231" lon="5.54369">
        <ele>1188</ele>
        <time>2015-06-11T16:15:42Z</time>
      </trkpt>
      <trkpt lat="45.19231" lon="5.54369">
        <ele>1187.8</ele>
        <time>2015-06-11T16:15:43Z</time>
      </trkpt>
      <trkpt lat="45.19231" lon="5.54368">
        <ele>1187.7</ele>
        <time>2015-06-11T16:15:44Z</time>
      </trkpt>
      <trkpt lat="45.19231" lon="5.54368">
        <ele>1187.7</ele>
        <time>2015-06-11T16:15:45Z</time>
      </trkpt>
      <trkpt lat="45.19231" lon="5.54368">
        <ele>1187.6</ele>
        <time>2015-06-11T16:15:46Z</time>
      </trkpt>
      <trkpt lat="45.19231" lon="5.54368">
        <ele>1187.7</ele>
        <time>2015-06-11T16:15:47Z</time>
      </trkpt>
      <trkpt lat="45.19231" lon="5.54368">
        <ele>1187.7</ele>
        <time>2015-06-11T16:15:48Z</time>
      </trkpt>
      <trkpt lat="45.19231" lon="5.54368">
        <ele>1187.7</ele>
        <time>2015-06-11T16:15:49Z</time>
      </trkpt>
      <trkpt lat="45.1923" lon="5.54368">
        <ele>1187.6</ele>
        <time>2015-06-11T16:15:50Z</time>
      </trkpt>
      <trkpt lat="45.1923" lon="5.54367">
        <ele>1187.5</ele>
        <time>2015-06-11T16:15:51Z</time>
      </trkpt>
      <trkpt lat="45.1923" lon="5.54366">
        <ele>1187.3</ele>
        <time>2015-06-11T16:15:52Z</time>
      </trkpt>
      <trkpt lat="45.19229" lon="5.54365">
        <ele>1187</ele>
        <time>2015-06-11T16:15:53Z</time>
      </trkpt>
      <trkpt lat="45.19229" lon="5.54364">
        <ele>1186.7</ele>
        <time>2015-06-11T16:15:54Z</time>
      </trkpt>
      <trkpt lat="45.19229" lon="5.54362">
        <ele>1186.4</ele>
        <time>2015-06-11T16:15:55Z</time>
      </trkpt>
      <trkpt lat="45.19228" lon="5.5436">
        <ele>1186</ele>
        <time>2015-06-11T16:15:56Z</time>
      </trkpt>
      <trkpt lat="45.19228" lon="5.54359">
        <ele>1185.6</ele>
        <time>2015-06-11T16:15:57Z</time>
      </trkpt>
      <trkpt lat="45.19227" lon="5.54356">
        <ele>1185.1</ele>
        <time>2015-06-11T16:15:58Z</time>
      </trkpt>
      <trkpt lat="45.19225" lon="5.54354">
        <ele>1184.5</ele>
        <time>2015-06-11T16:15:59Z</time>
      </trkpt>
      <trkpt lat="45.19225" lon="5.54352">
        <ele>1184</ele>
        <time>2015-06-11T16:16:00Z</time>
      </trkpt>
      <trkpt lat="45.19223" lon="5.54351">
        <ele>1183.6</ele>
        <time>2015-06-11T16:16:01Z</time>
      </trkpt>
      <trkpt lat="45.19222" lon="5.54349">
        <ele>1183</ele>
        <time>2015-06-11T16:16:02Z</time>
      </trkpt>
      <trkpt lat="45.1922" lon="5.54346">
        <ele>1182.3</ele>
        <time>2015-06-11T16:16:03Z</time>
      </trkpt>
      <trkpt lat="45.19218" lon="5.54343">
        <ele>1181.5</ele>
        <time>2015-06-11T16:16:04Z</time>
      </trkpt>
      <trkpt lat="45.19218" lon="5.5434">
        <ele>1180.9</ele>
        <time>2015-06-11T16:16:05Z</time>
      </trkpt>
      <trkpt lat="45.19219" lon="5.54338">
        <ele>1180.4</ele>
        <time>2015-06-11T16:16:06Z</time>
      </trkpt>
      <trkpt lat="45.1922" lon="5.54336">
        <ele>1180.1</ele>
        <time>2015-06-11T16:16:07Z</time>
      </trkpt>
      <trkpt lat="45.1922" lon="5.54334">
        <ele>1179.7</ele>
        <time>2015-06-11T16:16:08Z</time>
      </trkpt>
      <trkpt lat="45.1922" lon="5.54332">
        <ele>1179.3</ele>
        <time>2015-06-11T16:16:09Z</time>
      </trkpt>
      <trkpt lat="45.1922" lon="5.5433">
        <ele>1178.8</ele>
        <time>2015-06-11T16:16:10Z</time>
      </trkpt>
      <trkpt lat="45.1922" lon="5.54327">
        <ele>1178.2</ele>
        <time>2015-06-11T16:16:11Z</time>
      </trkpt>
      <trkpt lat="45.19219" lon="5.54324">
        <ele>1177.5</ele>
        <time>2015-06-11T16:16:12Z</time>
      </trkpt>
      <trkpt lat="45.19218" lon="5.54321">
        <ele>1176.6</ele>
        <time>2015-06-11T16:16:13Z</time>
      </trkpt>
      <trkpt lat="45.19218" lon="5.54317">
        <ele>1175.7</ele>
        <time>2015-06-11T16:16:14Z</time>
      </trkpt>
      <trkpt lat="45.19217" lon="5.54314">
        <ele>1174.9</ele>
        <time>2015-06-11T16:16:15Z</time>
      </trkpt>
      <trkpt lat="45.19217" lon="5.54312">
        <ele>1174.3</ele>
        <time>2015-06-11T16:16:16Z</time>
      </trkpt>
      <trkpt lat="45.19217" lon="5.54309">
        <ele>1173.6</ele>
        <time>2015-06-11T16:16:17Z</time>
      </trkpt>
      <trkpt lat="45.19216" lon="5.54305">
        <ele>1172.5</ele>
        <time>2015-06-11T16:16:18Z</time>
      </trkpt>
      <trkpt lat="45.19216" lon="5.54301">
        <ele>1171.7</ele>
        <time>2015-06-11T16:16:19Z</time>
      </trkpt>
      <trkpt lat="45.19216" lon="5.54297">
        <ele>1170.9</ele>
        <time>2015-06-11T16:16:20Z</time>
      </trkpt>
      <trkpt lat="45.19216" lon="5.54293">
        <ele>1169.9</ele>
        <time>2015-06-11T16:16:21Z</time>
      </trkpt>
      <trkpt lat="45.19216" lon="5.54289">
        <ele>1169.6</ele>
        <time>2015-06-11T16:16:22Z</time>
      </trkpt>
      <trkpt lat="45.19216" lon="5.54286">
        <ele>1169.6</ele>
        <time>2015-06-11T16:16:23Z</time>
      </trkpt>
      <trkpt lat="45.19217" lon="5.54285">
        <ele>1169.9</ele>
        <time>2015-06-11T16:16:24Z</time>
      </trkpt>
      <trkpt lat="45.19219" lon="5.54285">
        <ele>1170.3</ele>
        <time>2015-06-11T16:16:25Z</time>
      </trkpt>
      <trkpt lat="45.19221" lon="5.54283">
        <ele>1170.7</ele>
        <time>2015-06-11T16:16:26Z</time>
      </trkpt>
      <trkpt lat="45.19224" lon="5.54282">
        <ele>1171.4</ele>
        <time>2015-06-11T16:16:27Z</time>
      </trkpt>
      <trkpt lat="45.19226" lon="5.5428">
        <ele>1171.8</ele>
        <time>2015-06-11T16:16:28Z</time>
      </trkpt>
      <trkpt lat="45.19228" lon="5.54279">
        <ele>1172.3</ele>
        <time>2015-06-11T16:16:29Z</time>
      </trkpt>
      <trkpt lat="45.1923" lon="5.54278">
        <ele>1172.9</ele>
        <time>2015-06-11T16:16:30Z</time>
      </trkpt>
      <trkpt lat="45.19232" lon="5.54277">
        <ele>1173.3</ele>
        <time>2015-06-11T16:16:31Z</time>
      </trkpt>
      <trkpt lat="45.19233" lon="5.54277">
        <ele>1173.6</ele>
        <time>2015-06-11T16:16:32Z</time>
      </trkpt>
      <trkpt lat="45.19235" lon="5.54277">
        <ele>1173.9</ele>
        <time>2015-06-11T16:16:33Z</time>
      </trkpt>
      <trkpt lat="45.19236" lon="5.54276">
        <ele>1174.1</ele>
        <time>2015-06-11T16:16:34Z</time>
      </trkpt>
      <trkpt lat="45.19237" lon="5.54275">
        <ele>1174.4</ele>
        <time>2015-06-11T16:16:35Z</time>
      </trkpt>
      <trkpt lat="45.19238" lon="5.54274">
        <ele>1174.6</ele>
        <time>2015-06-11T16:16:36Z</time>
      </trkpt>
      <trkpt lat="45.19239" lon="5.54273">
        <ele>1174.9</ele>
        <time>2015-06-11T16:16:37Z</time>
      </trkpt>
      <trkpt lat="45.19239" lon="5.54272">
        <ele>1175.1</ele>
        <time>2015-06-11T16:16:38Z</time>
      </trkpt>
      <trkpt lat="45.1924" lon="5.54272">
        <ele>1175.2</ele>
        <time>2015-06-11T16:16:39Z</time>
      </trkpt>
      <trkpt lat="45.1924" lon="5.54271">
        <ele>1175.2</ele>
        <time>2015-06-11T16:16:40Z</time>
      </trkpt>
      <trkpt lat="45.19239" lon="5.54271">
        <ele>1175</ele>
        <time>2015-06-11T16:16:41Z</time>
      </trkpt>
      <trkpt lat="45.19238" lon="5.5427">
        <ele>1174.9</ele>
        <time>2015-06-11T16:16:42Z</time>
      </trkpt>
      <trkpt lat="45.19237" lon="5.54268">
        <ele>1174.6</ele>
        <time>2015-06-11T16:16:43Z</time>
      </trkpt>
      <trkpt lat="45.19237" lon="5.54267">
        <ele>1174.6</ele>
        <time>2015-06-11T16:16:44Z</time>
      </trkpt>
      <trkpt lat="45.19236" lon="5.54265">
        <ele>1174.4</ele>
        <time>2015-06-11T16:16:45Z</time>
      </trkpt>
      <trkpt lat="45.19235" lon="5.54264">
        <ele>1174.2</ele>
        <time>2015-06-11T16:16:46Z</time>
      </trkpt>
      <trkpt lat="45.19234" lon="5.54263">
        <ele>1173.9</ele>
        <time>2015-06-11T16:16:47Z</time>
      </trkpt>
      <trkpt lat="45.19233" lon="5.54263">
        <ele>1173.6</ele>
        <time>2015-06-11T16:16:48Z</time>
      </trkpt>
      <trkpt lat="45.19231" lon="5.54262">
        <ele>1173.1</ele>
        <time>2015-06-11T16:16:49Z</time>
      </trkpt>
      <trkpt lat="45.19228" lon="5.5426">
        <ele>1172.6</ele>
        <time>2015-06-11T16:16:50Z</time>
      </trkpt>
      <trkpt lat="45.19226" lon="5.54258">
        <ele>1171.9</ele>
        <time>2015-06-11T16:16:51Z</time>
      </trkpt>
      <trkpt lat="45.19223" lon="5.54255">
        <ele>1171.4</ele>
        <time>2015-06-11T16:16:52Z</time>
      </trkpt>
      <trkpt lat="45.19221" lon="5.54255">
        <ele>1170.8</ele>
        <time>2015-06-11T16:16:53Z</time>
      </trkpt>
      <trkpt lat="45.19219" lon="5.54254">
        <ele>1170.3</ele>
        <time>2015-06-11T16:16:54Z</time>
      </trkpt>
      <trkpt lat="45.19217" lon="5.54253">
        <ele>1169.8</ele>
        <time>2015-06-11T16:16:55Z</time>
      </trkpt>
      <trkpt lat="45.19215" lon="5.54252">
        <ele>1169.3</ele>
        <time>2015-06-11T16:16:56Z</time>
      </trkpt>
      <trkpt lat="45.19214" lon="5.54251">
        <ele>1168.8</ele>
        <time>2015-06-11T16:16:57Z</time>
      </trkpt>
      <trkpt lat="45.19212" lon="5.54249">
        <ele>1168.4</ele>
        <time>2015-06-11T16:16:58Z</time>
      </trkpt>
      <trkpt lat="45.1921" lon="5.54247">
        <ele>1168</ele>
        <time>2015-06-11T16:16:59Z</time>
      </trkpt>
      <trkpt lat="45.19209" lon="5.54245">
        <ele>1167.5</ele>
        <time>2015-06-11T16:17:00Z</time>
      </trkpt>
      <trkpt lat="45.19207" lon="5.54244">
        <ele>1167.2</ele>
        <time>2015-06-11T16:17:01Z</time>
      </trkpt>
      <trkpt lat="45.19204" lon="5.54242">
        <ele>1166.9</ele>
        <time>2015-06-11T16:17:02Z</time>
      </trkpt>
      <trkpt lat="45.19202" lon="5.54241">
        <ele>1166.7</ele>
        <time>2015-06-11T16:17:03Z</time>
      </trkpt>
      <trkpt lat="45.19201" lon="5.5424">
        <ele>1166.5</ele>
        <time>2015-06-11T16:17:04Z</time>
      </trkpt>
      <trkpt lat="45.19199" lon="5.54239">
        <ele>1166.3</ele>
        <time>2015-06-11T16:17:05Z</time>
      </trkpt>
      <trkpt lat="45.19199" lon="5.54238">
        <ele>1166.2</ele>
        <time>2015-06-11T16:17:06Z</time>
      </trkpt>
      <trkpt lat="45.19198" lon="5.54238">
        <ele>1166</ele>
        <time>2015-06-11T16:17:07Z</time>
      </trkpt>
      <trkpt lat="45.19196" lon="5.54236">
        <ele>1165.8</ele>
        <time>2015-06-11T16:17:08Z</time>
      </trkpt>
      <trkpt lat="45.19194" lon="5.54235">
        <ele>1165.4</ele>
        <time>2015-06-11T16:17:09Z</time>
      </trkpt>
      <trkpt lat="45.19191" lon="5.54233">
        <ele>1165</ele>
        <time>2015-06-11T16:17:10Z</time>
      </trkpt>
      <trkpt lat="45.19189" lon="5.54232">
        <ele>1164.6</ele>
        <time>2015-06-11T16:17:11Z</time>
      </trkpt>
      <trkpt lat="45.19186" lon="5.54231">
        <ele>1164.2</ele>
        <time>2015-06-11T16:17:12Z</time>
      </trkpt>
      <trkpt lat="45.19183" lon="5.5423">
        <ele>1163.8</ele>
        <time>2015-06-11T16:17:13Z</time>
      </trkpt>
      <trkpt lat="45.19181" lon="5.5423">
        <ele>1163.4</ele>
        <time>2015-06-11T16:17:14Z</time>
      </trkpt>
      <trkpt lat="45.19178" lon="5.54228">
        <ele>1163</ele>
        <time>2015-06-11T16:17:15Z</time>
      </trkpt>
      <trkpt lat="45.19175" lon="5.54227">
        <ele>1162.4</ele>
        <time>2015-06-11T16:17:16Z</time>
      </trkpt>
      <trkpt lat="45.19173" lon="5.54224">
        <ele>1161.8</ele>
        <time>2015-06-11T16:17:17Z</time>
      </trkpt>
      <trkpt lat="45.1917" lon="5.5422">
        <ele>1161</ele>
        <time>2015-06-11T16:17:18Z</time>
      </trkpt>
      <trkpt lat="45.19169" lon="5.54217">
        <ele>1160.6</ele>
        <time>2015-06-11T16:17:19Z</time>
      </trkpt>
      <trkpt lat="45.19167" lon="5.54215">
        <ele>1160.2</ele>
        <time>2015-06-11T16:17:20Z</time>
      </trkpt>
      <trkpt lat="45.19165" lon="5.54213">
        <ele>1159.5</ele>
        <time>2015-06-11T16:17:21Z</time>
      </trkpt>
      <trkpt lat="45.19162" lon="5.5421">
        <ele>1158.9</ele>
        <time>2015-06-11T16:17:22Z</time>
      </trkpt>
      <trkpt lat="45.1916" lon="5.54208">
        <ele>1158.3</ele>
        <time>2015-06-11T16:17:23Z</time>
      </trkpt>
      <trkpt lat="45.19157" lon="5.54206">
        <ele>1157.8</ele>
        <time>2015-06-11T16:17:24Z</time>
      </trkpt>
      <trkpt lat="45.19155" lon="5.54204">
        <ele>1157.4</ele>
        <time>2015-06-11T16:17:25Z</time>
      </trkpt>
      <trkpt lat="45.19153" lon="5.54201">
        <ele>1157.1</ele>
        <time>2015-06-11T16:17:26Z</time>
      </trkpt>
      <trkpt lat="45.19151" lon="5.54198">
        <ele>1156.9</ele>
        <time>2015-06-11T16:17:27Z</time>
      </trkpt>
      <trkpt lat="45.19149" lon="5.54195">
        <ele>1156.6</ele>
        <time>2015-06-11T16:17:28Z</time>
      </trkpt>
      <trkpt lat="45.19148" lon="5.54192">
        <ele>1156.4</ele>
        <time>2015-06-11T16:17:29Z</time>
      </trkpt>
      <trkpt lat="45.19146" lon="5.5419">
        <ele>1156.2</ele>
        <time>2015-06-11T16:17:30Z</time>
      </trkpt>
      <trkpt lat="45.19145" lon="5.54187">
        <ele>1156</ele>
        <time>2015-06-11T16:17:31Z</time>
      </trkpt>
      <trkpt lat="45.19144" lon="5.54185">
        <ele>1155.8</ele>
        <time>2015-06-11T16:17:32Z</time>
      </trkpt>
      <trkpt lat="45.19142" lon="5.54182">
        <ele>1155.5</ele>
        <time>2015-06-11T16:17:33Z</time>
      </trkpt>
      <trkpt lat="45.19141" lon="5.5418">
        <ele>1155.3</ele>
        <time>2015-06-11T16:17:34Z</time>
      </trkpt>
      <trkpt lat="45.1914" lon="5.54177">
        <ele>1155.1</ele>
        <time>2015-06-11T16:17:35Z</time>
      </trkpt>
      <trkpt lat="45.19138" lon="5.54175">
        <ele>1154.9</ele>
        <time>2015-06-11T16:17:36Z</time>
      </trkpt>
      <trkpt lat="45.19136" lon="5.54172">
        <ele>1154.6</ele>
        <time>2015-06-11T16:17:37Z</time>
      </trkpt>
      <trkpt lat="45.19135" lon="5.54169">
        <ele>1154.4</ele>
        <time>2015-06-11T16:17:38Z</time>
      </trkpt>
      <trkpt lat="45.19133" lon="5.54167">
        <ele>1154.1</ele>
        <time>2015-06-11T16:17:39Z</time>
      </trkpt>
      <trkpt lat="45.19132" lon="5.54164">
        <ele>1153.9</ele>
        <time>2015-06-11T16:17:40Z</time>
      </trkpt>
      <trkpt lat="45.19131" lon="5.54161">
        <ele>1153.7</ele>
        <time>2015-06-11T16:17:41Z</time>
      </trkpt>
      <trkpt lat="45.19129" lon="5.54158">
        <ele>1153.4</ele>
        <time>2015-06-11T16:17:42Z</time>
      </trkpt>
      <trkpt lat="45.19127" lon="5.54154">
        <ele>1153.1</ele>
        <time>2015-06-11T16:17:43Z</time>
      </trkpt>
      <trkpt lat="45.19125" lon="5.54152">
        <ele>1152.8</ele>
        <time>2015-06-11T16:17:44Z</time>
      </trkpt>
      <trkpt lat="45.19124" lon="5.5415">
        <ele>1152.5</ele>
        <time>2015-06-11T16:17:45Z</time>
      </trkpt>
      <trkpt lat="45.19122" lon="5.54147">
        <ele>1152.3</ele>
        <time>2015-06-11T16:17:46Z</time>
      </trkpt>
      <trkpt lat="45.1912" lon="5.54145">
        <ele>1152.1</ele>
        <time>2015-06-11T16:17:47Z</time>
      </trkpt>
      <trkpt lat="45.19119" lon="5.54142">
        <ele>1151.9</ele>
        <time>2015-06-11T16:17:48Z</time>
      </trkpt>
      <trkpt lat="45.19117" lon="5.5414">
        <ele>1151.7</ele>
        <time>2015-06-11T16:17:49Z</time>
      </trkpt>
      <trkpt lat="45.19115" lon="5.54138">
        <ele>1151.4</ele>
        <time>2015-06-11T16:17:50Z</time>
      </trkpt>
      <trkpt lat="45.19112" lon="5.54135">
        <ele>1151</ele>
        <time>2015-06-11T16:17:51Z</time>
      </trkpt>
      <trkpt lat="45.19111" lon="5.54132">
        <ele>1150.7</ele>
        <time>2015-06-11T16:17:52Z</time>
      </trkpt>
      <trkpt lat="45.19109" lon="5.54129">
        <ele>1150.5</ele>
        <time>2015-06-11T16:17:53Z</time>
      </trkpt>
      <trkpt lat="45.19107" lon="5.54127">
        <ele>1150.3</ele>
        <time>2015-06-11T16:17:54Z</time>
      </trkpt>
      <trkpt lat="45.19106" lon="5.54125">
        <ele>1150</ele>
        <time>2015-06-11T16:17:55Z</time>
      </trkpt>
      <trkpt lat="45.19104" lon="5.54123">
        <ele>1149.7</ele>
        <time>2015-06-11T16:17:56Z</time>
      </trkpt>
      <trkpt lat="45.19103" lon="5.54121">
        <ele>1149.5</ele>
        <time>2015-06-11T16:17:57Z</time>
      </trkpt>
      <trkpt lat="45.19102" lon="5.54118">
        <ele>1149.3</ele>
        <time>2015-06-11T16:17:58Z</time>
      </trkpt>
      <trkpt lat="45.19101" lon="5.54116">
        <ele>1149.1</ele>
        <time>2015-06-11T16:17:59Z</time>
      </trkpt>
      <trkpt lat="45.19101" lon="5.54114">
        <ele>1148.9</ele>
        <time>2015-06-11T16:18:00Z</time>
      </trkpt>
      <trkpt lat="45.191" lon="5.54112">
        <ele>1148.7</ele>
        <time>2015-06-11T16:18:01Z</time>
      </trkpt>
      <trkpt lat="45.19099" lon="5.5411">
        <ele>1148.5</ele>
        <time>2015-06-11T16:18:02Z</time>
      </trkpt>
      <trkpt lat="45.19099" lon="5.54108">
        <ele>1148.5</ele>
        <time>2015-06-11T16:18:03Z</time>
      </trkpt>
      <trkpt lat="45.19098" lon="5.54107">
        <ele>1148.4</ele>
        <time>2015-06-11T16:18:04Z</time>
      </trkpt>
      <trkpt lat="45.19098" lon="5.54107">
        <ele>1148.3</ele>
        <time>2015-06-11T16:18:05Z</time>
      </trkpt>
      <trkpt lat="45.19098" lon="5.54106">
        <ele>1148.3</ele>
        <time>2015-06-11T16:18:06Z</time>
      </trkpt>
      <trkpt lat="45.19098" lon="5.54105">
        <ele>1148.2</ele>
        <time>2015-06-11T16:18:07Z</time>
      </trkpt>
      <trkpt lat="45.19097" lon="5.54104">
        <ele>1148</ele>
        <time>2015-06-11T16:18:08Z</time>
      </trkpt>
      <trkpt lat="45.19097" lon="5.54104">
        <ele>1148</ele>
        <time>2015-06-11T16:18:09Z</time>
      </trkpt>
      <trkpt lat="45.19097" lon="5.54104">
        <ele>1148</ele>
        <time>2015-06-11T16:18:10Z</time>
      </trkpt>
      <trkpt lat="45.19097" lon="5.54104">
        <ele>1148</ele>
        <time>2015-06-11T16:18:11Z</time>
      </trkpt>
      <trkpt lat="45.19096" lon="5.54103">
        <ele>1147.9</ele>
        <time>2015-06-11T16:18:12Z</time>
      </trkpt>
      <trkpt lat="45.19096" lon="5.54103">
        <ele>1147.7</ele>
        <time>2015-06-11T16:18:13Z</time>
      </trkpt>
      <trkpt lat="45.19095" lon="5.54102">
        <ele>1147.7</ele>
        <time>2015-06-11T16:18:14Z</time>
      </trkpt>
      <trkpt lat="45.19094" lon="5.54101">
        <ele>1147.4</ele>
        <time>2015-06-11T16:18:15Z</time>
      </trkpt>
      <trkpt lat="45.19093" lon="5.541">
        <ele>1147.2</ele>
        <time>2015-06-11T16:18:16Z</time>
      </trkpt>
      <trkpt lat="45.19092" lon="5.54098">
        <ele>1147</ele>
        <time>2015-06-11T16:18:17Z</time>
      </trkpt>
      <trkpt lat="45.19091" lon="5.54097">
        <ele>1146.7</ele>
        <time>2015-06-11T16:18:18Z</time>
      </trkpt>
      <trkpt lat="45.1909" lon="5.54096">
        <ele>1146.6</ele>
        <time>2015-06-11T16:18:19Z</time>
      </trkpt>
      <trkpt lat="45.19089" lon="5.54095">
        <ele>1146.3</ele>
        <time>2015-06-11T16:18:20Z</time>
      </trkpt>
      <trkpt lat="45.19088" lon="5.54094">
        <ele>1146.1</ele>
        <time>2015-06-11T16:18:21Z</time>
      </trkpt>
      <trkpt lat="45.19087" lon="5.54093">
        <ele>1145.9</ele>
        <time>2015-06-11T16:18:22Z</time>
      </trkpt>
      <trkpt lat="45.19086" lon="5.54092">
        <ele>1145.5</ele>
        <time>2015-06-11T16:18:23Z</time>
      </trkpt>
      <trkpt lat="45.19084" lon="5.54091">
        <ele>1145.2</ele>
        <time>2015-06-11T16:18:24Z</time>
      </trkpt>
      <trkpt lat="45.19083" lon="5.5409">
        <ele>1144.9</ele>
        <time>2015-06-11T16:18:25Z</time>
      </trkpt>
      <trkpt lat="45.19082" lon="5.54089">
        <ele>1144.6</ele>
        <time>2015-06-11T16:18:26Z</time>
      </trkpt>
      <trkpt lat="45.19081" lon="5.54087">
        <ele>1144.4</ele>
        <time>2015-06-11T16:18:27Z</time>
      </trkpt>
      <trkpt lat="45.1908" lon="5.54087">
        <ele>1144.2</ele>
        <time>2015-06-11T16:18:28Z</time>
      </trkpt>
      <trkpt lat="45.19079" lon="5.54086">
        <ele>1144</ele>
        <time>2015-06-11T16:18:29Z</time>
      </trkpt>
      <trkpt lat="45.19078" lon="5.54085">
        <ele>1143.8</ele>
        <time>2015-06-11T16:18:30Z</time>
      </trkpt>
      <trkpt lat="45.19076" lon="5.54085">
        <ele>1143.4</ele>
        <time>2015-06-11T16:18:31Z</time>
      </trkpt>
      <trkpt lat="45.19074" lon="5.54084">
        <ele>1142.9</ele>
        <time>2015-06-11T16:18:32Z</time>
      </trkpt>
      <trkpt lat="45.19072" lon="5.54083">
        <ele>1142.4</ele>
        <time>2015-06-11T16:18:33Z</time>
      </trkpt>
      <trkpt lat="45.1907" lon="5.54083">
        <ele>1142</ele>
        <time>2015-06-11T16:18:34Z</time>
      </trkpt>
      <trkpt lat="45.19067" lon="5.54081">
        <ele>1141.5</ele>
        <time>2015-06-11T16:18:35Z</time>
      </trkpt>
      <trkpt lat="45.19066" lon="5.5408">
        <ele>1141</ele>
        <time>2015-06-11T16:18:36Z</time>
      </trkpt>
      <trkpt lat="45.19064" lon="5.54079">
        <ele>1140.5</ele>
        <time>2015-06-11T16:18:37Z</time>
      </trkpt>
      <trkpt lat="45.19062" lon="5.54077">
        <ele>1140.1</ele>
        <time>2015-06-11T16:18:38Z</time>
      </trkpt>
      <trkpt lat="45.19061" lon="5.54076">
        <ele>1139.8</ele>
        <time>2015-06-11T16:18:39Z</time>
      </trkpt>
      <trkpt lat="45.1906" lon="5.54074">
        <ele>1139.5</ele>
        <time>2015-06-11T16:18:40Z</time>
      </trkpt>
      <trkpt lat="45.19059" lon="5.54073">
        <ele>1139.1</ele>
        <time>2015-06-11T16:18:41Z</time>
      </trkpt>
      <trkpt lat="45.19057" lon="5.54071">
        <ele>1138.7</ele>
        <time>2015-06-11T16:18:42Z</time>
      </trkpt>
      <trkpt lat="45.19056" lon="5.54068">
        <ele>1138.3</ele>
        <time>2015-06-11T16:18:43Z</time>
      </trkpt>
      <trkpt lat="45.19055" lon="5.54066">
        <ele>1137.9</ele>
        <time>2015-06-11T16:18:44Z</time>
      </trkpt>
      <trkpt lat="45.19054" lon="5.54063">
        <ele>1137.5</ele>
        <time>2015-06-11T16:18:45Z</time>
      </trkpt>
      <trkpt lat="45.19053" lon="5.5406">
        <ele>1137.1</ele>
        <time>2015-06-11T16:18:46Z</time>
      </trkpt>
      <trkpt lat="45.19052" lon="5.54057">
        <ele>1136.6</ele>
        <time>2015-06-11T16:18:47Z</time>
      </trkpt>
      <trkpt lat="45.1905" lon="5.54054">
        <ele>1136</ele>
        <time>2015-06-11T16:18:48Z</time>
      </trkpt>
      <trkpt lat="45.19049" lon="5.54051">
        <ele>1135.5</ele>
        <time>2015-06-11T16:18:49Z</time>
      </trkpt>
      <trkpt lat="45.19048" lon="5.54049">
        <ele>1135.1</ele>
        <time>2015-06-11T16:18:50Z</time>
      </trkpt>
      <trkpt lat="45.19047" lon="5.54046">
        <ele>1134.6</ele>
        <time>2015-06-11T16:18:51Z</time>
      </trkpt>
      <trkpt lat="45.19046" lon="5.54044">
        <ele>1134.1</ele>
        <time>2015-06-11T16:18:52Z</time>
      </trkpt>
      <trkpt lat="45.19045" lon="5.5404">
        <ele>1133.8</ele>
        <time>2015-06-11T16:18:53Z</time>
      </trkpt>
      <trkpt lat="45.19044" lon="5.54037">
        <ele>1133.6</ele>
        <time>2015-06-11T16:18:54Z</time>
      </trkpt>
      <trkpt lat="45.19043" lon="5.54034">
        <ele>1133.5</ele>
        <time>2015-06-11T16:18:55Z</time>
      </trkpt>
      <trkpt lat="45.19042" lon="5.54031">
        <ele>1133.3</ele>
        <time>2015-06-11T16:18:56Z</time>
      </trkpt>
      <trkpt lat="45.19041" lon="5.54028">
        <ele>1133.1</ele>
        <time>2015-06-11T16:18:57Z</time>
      </trkpt>
      <trkpt lat="45.1904" lon="5.54025">
        <ele>1133</ele>
        <time>2015-06-11T16:18:58Z</time>
      </trkpt>
      <trkpt lat="45.19039" lon="5.54022">
        <ele>1132.8</ele>
        <time>2015-06-11T16:18:59Z</time>
      </trkpt>
      <trkpt lat="45.19038" lon="5.5402">
        <ele>1132.6</ele>
        <time>2015-06-11T16:19:00Z</time>
      </trkpt>
      <trkpt lat="45.19036" lon="5.54017">
        <ele>1132.3</ele>
        <time>2015-06-11T16:19:01Z</time>
      </trkpt>
      <trkpt lat="45.19035" lon="5.54014">
        <ele>1132.1</ele>
        <time>2015-06-11T16:19:02Z</time>
      </trkpt>
      <trkpt lat="45.19033" lon="5.54012">
        <ele>1131.9</ele>
        <time>2015-06-11T16:19:03Z</time>
      </trkpt>
      <trkpt lat="45.19032" lon="5.5401">
        <ele>1131.6</ele>
        <time>2015-06-11T16:19:04Z</time>
      </trkpt>
      <trkpt lat="45.1903" lon="5.54008">
        <ele>1131.4</ele>
        <time>2015-06-11T16:19:05Z</time>
      </trkpt>
      <trkpt lat="45.19029" lon="5.54006">
        <ele>1131.2</ele>
        <time>2015-06-11T16:19:06Z</time>
      </trkpt>
      <trkpt lat="45.19029" lon="5.54003">
        <ele>1131.1</ele>
        <time>2015-06-11T16:19:07Z</time>
      </trkpt>
      <trkpt lat="45.19027" lon="5.54002">
        <ele>1130.9</ele>
        <time>2015-06-11T16:19:08Z</time>
      </trkpt>
      <trkpt lat="45.19025" lon="5.54">
        <ele>1130.5</ele>
        <time>2015-06-11T16:19:09Z</time>
      </trkpt>
      <trkpt lat="45.19024" lon="5.53999">
        <ele>1130.2</ele>
        <time>2015-06-11T16:19:10Z</time>
      </trkpt>
      <trkpt lat="45.19022" lon="5.53997">
        <ele>1130</ele>
        <time>2015-06-11T16:19:11Z</time>
      </trkpt>
      <trkpt lat="45.19021" lon="5.53995">
        <ele>1129.8</ele>
        <time>2015-06-11T16:19:12Z</time>
      </trkpt>
      <trkpt lat="45.1902" lon="5.53992">
        <ele>1129.6</ele>
        <time>2015-06-11T16:19:13Z</time>
      </trkpt>
      <trkpt lat="45.19019" lon="5.53991">
        <ele>1129.4</ele>
        <time>2015-06-11T16:19:14Z</time>
      </trkpt>
      <trkpt lat="45.19017" lon="5.53989">
        <ele>1129.1</ele>
        <time>2015-06-11T16:19:15Z</time>
      </trkpt>
      <trkpt lat="45.19016" lon="5.53987">
        <ele>1128.8</ele>
        <time>2015-06-11T16:19:16Z</time>
      </trkpt>
      <trkpt lat="45.19014" lon="5.53984">
        <ele>1128.5</ele>
        <time>2015-06-11T16:19:17Z</time>
      </trkpt>
      <trkpt lat="45.19013" lon="5.53982">
        <ele>1128.2</ele>
        <time>2015-06-11T16:19:18Z</time>
      </trkpt>
      <trkpt lat="45.19011" lon="5.5398">
        <ele>1127.9</ele>
        <time>2015-06-11T16:19:19Z</time>
      </trkpt>
      <trkpt lat="45.19009" lon="5.53977">
        <ele>1127.5</ele>
        <time>2015-06-11T16:19:20Z</time>
      </trkpt>
      <trkpt lat="45.19007" lon="5.53974">
        <ele>1127.1</ele>
        <time>2015-06-11T16:19:21Z</time>
      </trkpt>
      <trkpt lat="45.19006" lon="5.53972">
        <ele>1126.8</ele>
        <time>2015-06-11T16:19:22Z</time>
      </trkpt>
      <trkpt lat="45.19004" lon="5.53969">
        <ele>1126.5</ele>
        <time>2015-06-11T16:19:23Z</time>
      </trkpt>
      <trkpt lat="45.19003" lon="5.53966">
        <ele>1126.2</ele>
        <time>2015-06-11T16:19:24Z</time>
      </trkpt>
      <trkpt lat="45.19002" lon="5.53964">
        <ele>1125.9</ele>
        <time>2015-06-11T16:19:25Z</time>
      </trkpt>
      <trkpt lat="45.19001" lon="5.53961">
        <ele>1125.7</ele>
        <time>2015-06-11T16:19:26Z</time>
      </trkpt>
      <trkpt lat="45.19" lon="5.53958">
        <ele>1125.4</ele>
        <time>2015-06-11T16:19:27Z</time>
      </trkpt>
      <trkpt lat="45.18998" lon="5.53955">
        <ele>1125.4</ele>
        <time>2015-06-11T16:19:28Z</time>
      </trkpt>
      <trkpt lat="45.18997" lon="5.53952">
        <ele>1125.3</ele>
        <time>2015-06-11T16:19:29Z</time>
      </trkpt>
      <trkpt lat="45.18996" lon="5.53949">
        <ele>1125.2</ele>
        <time>2015-06-11T16:19:30Z</time>
      </trkpt>
      <trkpt lat="45.18995" lon="5.53946">
        <ele>1125.2</ele>
        <time>2015-06-11T16:19:31Z</time>
      </trkpt>
      <trkpt lat="45.18993" lon="5.53943">
        <ele>1125.1</ele>
        <time>2015-06-11T16:19:32Z</time>
      </trkpt>
      <trkpt lat="45.18991" lon="5.5394">
        <ele>1124.9</ele>
        <time>2015-06-11T16:19:33Z</time>
      </trkpt>
      <trkpt lat="45.1899" lon="5.53937">
        <ele>1124.9</ele>
        <time>2015-06-11T16:19:34Z</time>
      </trkpt>
      <trkpt lat="45.18988" lon="5.53935">
        <ele>1124.7</ele>
        <time>2015-06-11T16:19:35Z</time>
      </trkpt>
      <trkpt lat="45.18987" lon="5.53932">
        <ele>1124.6</ele>
        <time>2015-06-11T16:19:36Z</time>
      </trkpt>
      <trkpt lat="45.18985" lon="5.5393">
        <ele>1124.6</ele>
        <time>2015-06-11T16:19:37Z</time>
      </trkpt>
      <trkpt lat="45.18984" lon="5.53927">
        <ele>1124.6</ele>
        <time>2015-06-11T16:19:38Z</time>
      </trkpt>
      <trkpt lat="45.18983" lon="5.53925">
        <ele>1124.5</ele>
        <time>2015-06-11T16:19:39Z</time>
      </trkpt>
      <trkpt lat="45.18981" lon="5.53923">
        <ele>1124.3</ele>
        <time>2015-06-11T16:19:40Z</time>
      </trkpt>
      <trkpt lat="45.1898" lon="5.53921">
        <ele>1124.3</ele>
        <time>2015-06-11T16:19:41Z</time>
      </trkpt>
      <trkpt lat="45.18978" lon="5.53918">
        <ele>1124.2</ele>
        <time>2015-06-11T16:19:42Z</time>
      </trkpt>
      <trkpt lat="45.18977" lon="5.53916">
        <ele>1124.1</ele>
        <time>2015-06-11T16:19:43Z</time>
      </trkpt>
      <trkpt lat="45.18975" lon="5.53914">
        <ele>1123.9</ele>
        <time>2015-06-11T16:19:44Z</time>
      </trkpt>
      <trkpt lat="45.18973" lon="5.53912">
        <ele>1123.8</ele>
        <time>2015-06-11T16:19:45Z</time>
      </trkpt>
      <trkpt lat="45.18971" lon="5.5391">
        <ele>1123.8</ele>
        <time>2015-06-11T16:19:46Z</time>
      </trkpt>
      <trkpt lat="45.1897" lon="5.53907">
        <ele>1123.7</ele>
        <time>2015-06-11T16:19:47Z</time>
      </trkpt>
      <trkpt lat="45.18967" lon="5.53905">
        <ele>1123.6</ele>
        <time>2015-06-11T16:19:48Z</time>
      </trkpt>
      <trkpt lat="45.18966" lon="5.53903">
        <ele>1123.5</ele>
        <time>2015-06-11T16:19:49Z</time>
      </trkpt>
      <trkpt lat="45.18964" lon="5.53899">
        <ele>1123.5</ele>
        <time>2015-06-11T16:19:50Z</time>
      </trkpt>
      <trkpt lat="45.18962" lon="5.53896">
        <ele>1123.5</ele>
        <time>2015-06-11T16:19:51Z</time>
      </trkpt>
      <trkpt lat="45.18961" lon="5.53893">
        <ele>1123.7</ele>
        <time>2015-06-11T16:19:52Z</time>
      </trkpt>
      <trkpt lat="45.1896" lon="5.5389">
        <ele>1123.8</ele>
        <time>2015-06-11T16:19:53Z</time>
      </trkpt>
      <trkpt lat="45.18959" lon="5.53887">
        <ele>1123.9</ele>
        <time>2015-06-11T16:19:54Z</time>
      </trkpt>
      <trkpt lat="45.18958" lon="5.53884">
        <ele>1124.1</ele>
        <time>2015-06-11T16:19:55Z</time>
      </trkpt>
      <trkpt lat="45.18958" lon="5.5388">
        <ele>1124.4</ele>
        <time>2015-06-11T16:19:56Z</time>
      </trkpt>
      <trkpt lat="45.18957" lon="5.53876">
        <ele>1124.6</ele>
        <time>2015-06-11T16:19:57Z</time>
      </trkpt>
      <trkpt lat="45.18957" lon="5.53873">
        <ele>1124.9</ele>
        <time>2015-06-11T16:19:58Z</time>
      </trkpt>
      <trkpt lat="45.18957" lon="5.53869">
        <ele>1125.2</ele>
        <time>2015-06-11T16:19:59Z</time>
      </trkpt>
      <trkpt lat="45.18956" lon="5.53865">
        <ele>1125.4</ele>
        <time>2015-06-11T16:20:00Z</time>
      </trkpt>
      <trkpt lat="45.18956" lon="5.53862">
        <ele>1125.5</ele>
        <time>2015-06-11T16:20:01Z</time>
      </trkpt>
      <trkpt lat="45.18956" lon="5.53858">
        <ele>1125.7</ele>
        <time>2015-06-11T16:20:02Z</time>
      </trkpt>
      <trkpt lat="45.18956" lon="5.53854">
        <ele>1126</ele>
        <time>2015-06-11T16:20:03Z</time>
      </trkpt>
      <trkpt lat="45.18956" lon="5.5385">
        <ele>1126.3</ele>
        <time>2015-06-11T16:20:04Z</time>
      </trkpt>
      <trkpt lat="45.18956" lon="5.53846">
        <ele>1126.6</ele>
        <time>2015-06-11T16:20:05Z</time>
      </trkpt>
      <trkpt lat="45.18956" lon="5.53843">
        <ele>1126.9</ele>
        <time>2015-06-11T16:20:06Z</time>
      </trkpt>
      <trkpt lat="45.18957" lon="5.5384">
        <ele>1127.3</ele>
        <time>2015-06-11T16:20:07Z</time>
      </trkpt>
      <trkpt lat="45.18957" lon="5.53836">
        <ele>1127.5</ele>
        <time>2015-06-11T16:20:08Z</time>
      </trkpt>
      <trkpt lat="45.18956" lon="5.53833">
        <ele>1127.7</ele>
        <time>2015-06-11T16:20:09Z</time>
      </trkpt>
      <trkpt lat="45.18956" lon="5.53829">
        <ele>1127.8</ele>
        <time>2015-06-11T16:20:10Z</time>
      </trkpt>
      <trkpt lat="45.18955" lon="5.53826">
        <ele>1127.9</ele>
        <time>2015-06-11T16:20:11Z</time>
      </trkpt>
      <trkpt lat="45.18955" lon="5.53822">
        <ele>1128.2</ele>
        <time>2015-06-11T16:20:12Z</time>
      </trkpt>
      <trkpt lat="45.18955" lon="5.53819">
        <ele>1128.4</ele>
        <time>2015-06-11T16:20:13Z</time>
      </trkpt>
      <trkpt lat="45.18955" lon="5.53815">
        <ele>1128.6</ele>
        <time>2015-06-11T16:20:14Z</time>
      </trkpt>
      <trkpt lat="45.18954" lon="5.53811">
        <ele>1128.7</ele>
        <time>2015-06-11T16:20:15Z</time>
      </trkpt>
      <trkpt lat="45.18953" lon="5.53807">
        <ele>1128.9</ele>
        <time>2015-06-11T16:20:16Z</time>
      </trkpt>
      <trkpt lat="45.18952" lon="5.53803">
        <ele>1128.9</ele>
        <time>2015-06-11T16:20:17Z</time>
      </trkpt>
      <trkpt lat="45.18952" lon="5.538">
        <ele>1129.1</ele>
        <time>2015-06-11T16:20:18Z</time>
      </trkpt>
      <trkpt lat="45.18951" lon="5.53796">
        <ele>1129.2</ele>
        <time>2015-06-11T16:20:19Z</time>
      </trkpt>
      <trkpt lat="45.18951" lon="5.53793">
        <ele>1129.4</ele>
        <time>2015-06-11T16:20:20Z</time>
      </trkpt>
      <trkpt lat="45.1895" lon="5.5379">
        <ele>1129.5</ele>
        <time>2015-06-11T16:20:21Z</time>
      </trkpt>
      <trkpt lat="45.1895" lon="5.53787">
        <ele>1129.8</ele>
        <time>2015-06-11T16:20:22Z</time>
      </trkpt>
      <trkpt lat="45.18951" lon="5.53784">
        <ele>1130.1</ele>
        <time>2015-06-11T16:20:23Z</time>
      </trkpt>
      <trkpt lat="45.1895" lon="5.53781">
        <ele>1130.3</ele>
        <time>2015-06-11T16:20:24Z</time>
      </trkpt>
      <trkpt lat="45.1895" lon="5.53777">
        <ele>1130.4</ele>
        <time>2015-06-11T16:20:25Z</time>
      </trkpt>
      <trkpt lat="45.18949" lon="5.53774">
        <ele>1130.5</ele>
        <time>2015-06-11T16:20:26Z</time>
      </trkpt>
      <trkpt lat="45.18949" lon="5.53771">
        <ele>1130.8</ele>
        <time>2015-06-11T16:20:27Z</time>
      </trkpt>
      <trkpt lat="45.18949" lon="5.53767">
        <ele>1131.1</ele>
        <time>2015-06-11T16:20:28Z</time>
      </trkpt>
      <trkpt lat="45.1895" lon="5.53764">
        <ele>1131.5</ele>
        <time>2015-06-11T16:20:29Z</time>
      </trkpt>
      <trkpt lat="45.1895" lon="5.53761">
        <ele>1131.9</ele>
        <time>2015-06-11T16:20:30Z</time>
      </trkpt>
      <trkpt lat="45.1895" lon="5.53758">
        <ele>1132.2</ele>
        <time>2015-06-11T16:20:31Z</time>
      </trkpt>
      <trkpt lat="45.1895" lon="5.53755">
        <ele>1132.5</ele>
        <time>2015-06-11T16:20:32Z</time>
      </trkpt>
      <trkpt lat="45.1895" lon="5.53752">
        <ele>1132.7</ele>
        <time>2015-06-11T16:20:33Z</time>
      </trkpt>
      <trkpt lat="45.1895" lon="5.5375">
        <ele>1132.8</ele>
        <time>2015-06-11T16:20:34Z</time>
      </trkpt>
      <trkpt lat="45.18949" lon="5.53748">
        <ele>1132.7</ele>
        <time>2015-06-11T16:20:35Z</time>
      </trkpt>
      <trkpt lat="45.18949" lon="5.53746">
        <ele>1132.9</ele>
        <time>2015-06-11T16:20:36Z</time>
      </trkpt>
      <trkpt lat="45.18948" lon="5.53743">
        <ele>1133</ele>
        <time>2015-06-11T16:20:37Z</time>
      </trkpt>
      <trkpt lat="45.18948" lon="5.53741">
        <ele>1133.2</ele>
        <time>2015-06-11T16:20:38Z</time>
      </trkpt>
      <trkpt lat="45.18948" lon="5.53739">
        <ele>1133.3</ele>
        <time>2015-06-11T16:20:39Z</time>
      </trkpt>
      <trkpt lat="45.18948" lon="5.53737">
        <ele>1133.5</ele>
        <time>2015-06-11T16:20:40Z</time>
      </trkpt>
      <trkpt lat="45.18948" lon="5.53736">
        <ele>1133.5</ele>
        <time>2015-06-11T16:20:41Z</time>
      </trkpt>
      <trkpt lat="45.18947" lon="5.53734">
        <ele>1133.6</ele>
        <time>2015-06-11T16:20:42Z</time>
      </trkpt>
      <trkpt lat="45.18947" lon="5.53732">
        <ele>1133.6</ele>
        <time>2015-06-11T16:20:43Z</time>
      </trkpt>
      <trkpt lat="45.18946" lon="5.5373">
        <ele>1133.6</ele>
        <time>2015-06-11T16:20:44Z</time>
      </trkpt>
      <trkpt lat="45.18945" lon="5.53727">
        <ele>1133.7</ele>
        <time>2015-06-11T16:20:45Z</time>
      </trkpt>
      <trkpt lat="45.18945" lon="5.53725">
        <ele>1133.8</ele>
        <time>2015-06-11T16:20:46Z</time>
      </trkpt>
      <trkpt lat="45.18944" lon="5.53722">
        <ele>1133.9</ele>
        <time>2015-06-11T16:20:47Z</time>
      </trkpt>
      <trkpt lat="45.18943" lon="5.53718">
        <ele>1134.1</ele>
        <time>2015-06-11T16:20:48Z</time>
      </trkpt>
      <trkpt lat="45.18943" lon="5.53716">
        <ele>1134.2</ele>
        <time>2015-06-11T16:20:49Z</time>
      </trkpt>
      <trkpt lat="45.18942" lon="5.53713">
        <ele>1134.3</ele>
        <time>2015-06-11T16:20:50Z</time>
      </trkpt>
      <trkpt lat="45.18942" lon="5.5371">
        <ele>1134.5</ele>
        <time>2015-06-11T16:20:51Z</time>
      </trkpt>
      <trkpt lat="45.18942" lon="5.53707">
        <ele>1134.8</ele>
        <time>2015-06-11T16:20:52Z</time>
      </trkpt>
      <trkpt lat="45.18942" lon="5.53703">
        <ele>1135.4</ele>
        <time>2015-06-11T16:20:53Z</time>
      </trkpt>
      <trkpt lat="45.18941" lon="5.53699">
        <ele>1135.8</ele>
        <time>2015-06-11T16:20:54Z</time>
      </trkpt>
      <trkpt lat="45.18941" lon="5.53696">
        <ele>1136.1</ele>
        <time>2015-06-11T16:20:55Z</time>
      </trkpt>
      <trkpt lat="45.1894" lon="5.53694">
        <ele>1136.4</ele>
        <time>2015-06-11T16:20:56Z</time>
      </trkpt>
      <trkpt lat="45.1894" lon="5.53691">
        <ele>1136.7</ele>
        <time>2015-06-11T16:20:57Z</time>
      </trkpt>
      <trkpt lat="45.18939" lon="5.53689">
        <ele>1136.9</ele>
        <time>2015-06-11T16:20:58Z</time>
      </trkpt>
      <trkpt lat="45.18939" lon="5.53686">
        <ele>1137.2</ele>
        <time>2015-06-11T16:20:59Z</time>
      </trkpt>
      <trkpt lat="45.18938" lon="5.53684">
        <ele>1137.4</ele>
        <time>2015-06-11T16:21:00Z</time>
      </trkpt>
      <trkpt lat="45.18937" lon="5.53681">
        <ele>1137.5</ele>
        <time>2015-06-11T16:21:01Z</time>
      </trkpt>
      <trkpt lat="45.18936" lon="5.53678">
        <ele>1137.7</ele>
        <time>2015-06-11T16:21:02Z</time>
      </trkpt>
      <trkpt lat="45.18935" lon="5.53675">
        <ele>1137.9</ele>
        <time>2015-06-11T16:21:03Z</time>
      </trkpt>
      <trkpt lat="45.18934" lon="5.53672">
        <ele>1138.1</ele>
        <time>2015-06-11T16:21:04Z</time>
      </trkpt>
      <trkpt lat="45.18932" lon="5.53669">
        <ele>1138.3</ele>
        <time>2015-06-11T16:21:05Z</time>
      </trkpt>
      <trkpt lat="45.18931" lon="5.53666">
        <ele>1138.5</ele>
        <time>2015-06-11T16:21:06Z</time>
      </trkpt>
      <trkpt lat="45.1893" lon="5.53663">
        <ele>1138.6</ele>
        <time>2015-06-11T16:21:07Z</time>
      </trkpt>
      <trkpt lat="45.18928" lon="5.53661">
        <ele>1138.6</ele>
        <time>2015-06-11T16:21:08Z</time>
      </trkpt>
      <trkpt lat="45.18926" lon="5.53658">
        <ele>1138.6</ele>
        <time>2015-06-11T16:21:09Z</time>
      </trkpt>
      <trkpt lat="45.18924" lon="5.53656">
        <ele>1138.6</ele>
        <time>2015-06-11T16:21:10Z</time>
      </trkpt>
      <trkpt lat="45.18922" lon="5.53653">
        <ele>1138.6</ele>
        <time>2015-06-11T16:21:11Z</time>
      </trkpt>
      <trkpt lat="45.18921" lon="5.53651">
        <ele>1138.5</ele>
        <time>2015-06-11T16:21:12Z</time>
      </trkpt>
      <trkpt lat="45.18918" lon="5.53649">
        <ele>1138.3</ele>
        <time>2015-06-11T16:21:13Z</time>
      </trkpt>
      <trkpt lat="45.18916" lon="5.53647">
        <ele>1138.2</ele>
        <time>2015-06-11T16:21:14Z</time>
      </trkpt>
      <trkpt lat="45.18914" lon="5.53646">
        <ele>1137.9</ele>
        <time>2015-06-11T16:21:15Z</time>
      </trkpt>
      <trkpt lat="45.18911" lon="5.53644">
        <ele>1137.7</ele>
        <time>2015-06-11T16:21:16Z</time>
      </trkpt>
      <trkpt lat="45.18909" lon="5.53643">
        <ele>1137.3</ele>
        <time>2015-06-11T16:21:17Z</time>
      </trkpt>
      <trkpt lat="45.18907" lon="5.53642">
        <ele>1137</ele>
        <time>2015-06-11T16:21:18Z</time>
      </trkpt>
      <trkpt lat="45.18904" lon="5.53641">
        <ele>1136.6</ele>
        <time>2015-06-11T16:21:19Z</time>
      </trkpt>
      <trkpt lat="45.18902" lon="5.53639">
        <ele>1136.4</ele>
        <time>2015-06-11T16:21:20Z</time>
      </trkpt>
      <trkpt lat="45.189" lon="5.53638">
        <ele>1136.1</ele>
        <time>2015-06-11T16:21:21Z</time>
      </trkpt>
      <trkpt lat="45.18897" lon="5.53637">
        <ele>1135.8</ele>
        <time>2015-06-11T16:21:22Z</time>
      </trkpt>
      <trkpt lat="45.18895" lon="5.53636">
        <ele>1135.5</ele>
        <time>2015-06-11T16:21:23Z</time>
      </trkpt>
      <trkpt lat="45.18893" lon="5.53635">
        <ele>1135.2</ele>
        <time>2015-06-11T16:21:24Z</time>
      </trkpt>
      <trkpt lat="45.18891" lon="5.53634">
        <ele>1134.9</ele>
        <time>2015-06-11T16:21:25Z</time>
      </trkpt>
      <trkpt lat="45.18889" lon="5.53634">
        <ele>1134.5</ele>
        <time>2015-06-11T16:21:26Z</time>
      </trkpt>
      <trkpt lat="45.18886" lon="5.53633">
        <ele>1134.1</ele>
        <time>2015-06-11T16:21:27Z</time>
      </trkpt>
      <trkpt lat="45.18884" lon="5.53632">
        <ele>1133.9</ele>
        <time>2015-06-11T16:21:28Z</time>
      </trkpt>
      <trkpt lat="45.18882" lon="5.5363">
        <ele>1133.6</ele>
        <time>2015-06-11T16:21:29Z</time>
      </trkpt>
      <trkpt lat="45.18879" lon="5.53629">
        <ele>1133.2</ele>
        <time>2015-06-11T16:21:30Z</time>
      </trkpt>
      <trkpt lat="45.18877" lon="5.53628">
        <ele>1132.9</ele>
        <time>2015-06-11T16:21:31Z</time>
      </trkpt>
      <trkpt lat="45.18874" lon="5.53627">
        <ele>1132.6</ele>
        <time>2015-06-11T16:21:32Z</time>
      </trkpt>
      <trkpt lat="45.18873" lon="5.53626">
        <ele>1132.4</ele>
        <time>2015-06-11T16:21:33Z</time>
      </trkpt>
      <trkpt lat="45.1887" lon="5.53625">
        <ele>1132.1</ele>
        <time>2015-06-11T16:21:34Z</time>
      </trkpt>
      <trkpt lat="45.18868" lon="5.53623">
        <ele>1132</ele>
        <time>2015-06-11T16:21:35Z</time>
      </trkpt>
      <trkpt lat="45.18866" lon="5.53622">
        <ele>1131.9</ele>
        <time>2015-06-11T16:21:36Z</time>
      </trkpt>
      <trkpt lat="45.18864" lon="5.53621">
        <ele>1131.7</ele>
        <time>2015-06-11T16:21:37Z</time>
      </trkpt>
      <trkpt lat="45.18861" lon="5.53619">
        <ele>1131.6</ele>
        <time>2015-06-11T16:21:38Z</time>
      </trkpt>
      <trkpt lat="45.1886" lon="5.53617">
        <ele>1131.6</ele>
        <time>2015-06-11T16:21:39Z</time>
      </trkpt>
      <trkpt lat="45.18858" lon="5.53616">
        <ele>1131.6</ele>
        <time>2015-06-11T16:21:40Z</time>
      </trkpt>
      <trkpt lat="45.18855" lon="5.53614">
        <ele>1131.5</ele>
        <time>2015-06-11T16:21:41Z</time>
      </trkpt>
      <trkpt lat="45.18853" lon="5.53612">
        <ele>1131.4</ele>
        <time>2015-06-11T16:21:42Z</time>
      </trkpt>
      <trkpt lat="45.1885" lon="5.5361">
        <ele>1131.4</ele>
        <time>2015-06-11T16:21:43Z</time>
      </trkpt>
      <trkpt lat="45.18848" lon="5.53609">
        <ele>1131.3</ele>
        <time>2015-06-11T16:21:44Z</time>
      </trkpt>
      <trkpt lat="45.18846" lon="5.53607">
        <ele>1131.3</ele>
        <time>2015-06-11T16:21:45Z</time>
      </trkpt>
      <trkpt lat="45.18844" lon="5.53605">
        <ele>1131.4</ele>
        <time>2015-06-11T16:21:46Z</time>
      </trkpt>
      <trkpt lat="45.18842" lon="5.53603">
        <ele>1131.4</ele>
        <time>2015-06-11T16:21:47Z</time>
      </trkpt>
      <trkpt lat="45.1884" lon="5.53601">
        <ele>1131.5</ele>
        <time>2015-06-11T16:21:48Z</time>
      </trkpt>
      <trkpt lat="45.18837" lon="5.53599">
        <ele>1131.6</ele>
        <time>2015-06-11T16:21:49Z</time>
      </trkpt>
      <trkpt lat="45.18835" lon="5.53596">
        <ele>1131.7</ele>
        <time>2015-06-11T16:21:50Z</time>
      </trkpt>
      <trkpt lat="45.18834" lon="5.53594">
        <ele>1132</ele>
        <time>2015-06-11T16:21:51Z</time>
      </trkpt>
      <trkpt lat="45.18832" lon="5.53591">
        <ele>1132.2</ele>
        <time>2015-06-11T16:21:52Z</time>
      </trkpt>
      <trkpt lat="45.1883" lon="5.53589">
        <ele>1132.4</ele>
        <time>2015-06-11T16:21:53Z</time>
      </trkpt>
      <trkpt lat="45.18828" lon="5.53586">
        <ele>1132.7</ele>
        <time>2015-06-11T16:21:54Z</time>
      </trkpt>
      <trkpt lat="45.18826" lon="5.53584">
        <ele>1132.8</ele>
        <time>2015-06-11T16:21:55Z</time>
      </trkpt>
      <trkpt lat="45.18823" lon="5.53582">
        <ele>1133</ele>
        <time>2015-06-11T16:21:56Z</time>
      </trkpt>
      <trkpt lat="45.18821" lon="5.53579">
        <ele>1133.1</ele>
        <time>2015-06-11T16:21:57Z</time>
      </trkpt>
      <trkpt lat="45.18818" lon="5.53577">
        <ele>1133.2</ele>
        <time>2015-06-11T16:21:58Z</time>
      </trkpt>
      <trkpt lat="45.18815" lon="5.53575">
        <ele>1133.3</ele>
        <time>2015-06-11T16:21:59Z</time>
      </trkpt>
      <trkpt lat="45.18813" lon="5.53573">
        <ele>1133.3</ele>
        <time>2015-06-11T16:22:00Z</time>
      </trkpt>
      <trkpt lat="45.18811" lon="5.53572">
        <ele>1133.2</ele>
        <time>2015-06-11T16:22:01Z</time>
      </trkpt>
      <trkpt lat="45.18809" lon="5.53572">
        <ele>1133</ele>
        <time>2015-06-11T16:22:02Z</time>
      </trkpt>
      <trkpt lat="45.18807" lon="5.53572">
        <ele>1132.8</ele>
        <time>2015-06-11T16:22:03Z</time>
      </trkpt>
      <trkpt lat="45.18805" lon="5.53571">
        <ele>1132.6</ele>
        <time>2015-06-11T16:22:04Z</time>
      </trkpt>
      <trkpt lat="45.18803" lon="5.5357">
        <ele>1132.5</ele>
        <time>2015-06-11T16:22:05Z</time>
      </trkpt>
      <trkpt lat="45.188" lon="5.53569">
        <ele>1132.4</ele>
        <time>2015-06-11T16:22:06Z</time>
      </trkpt>
      <trkpt lat="45.18797" lon="5.53567">
        <ele>1132.4</ele>
        <time>2015-06-11T16:22:07Z</time>
      </trkpt>
      <trkpt lat="45.18795" lon="5.53565">
        <ele>1132.5</ele>
        <time>2015-06-11T16:22:08Z</time>
      </trkpt>
      <trkpt lat="45.18792" lon="5.53564">
        <ele>1132.6</ele>
        <time>2015-06-11T16:22:09Z</time>
      </trkpt>
      <trkpt lat="45.1879" lon="5.53562">
        <ele>1132.6</ele>
        <time>2015-06-11T16:22:10Z</time>
      </trkpt>
      <trkpt lat="45.18789" lon="5.53561">
        <ele>1132.7</ele>
        <time>2015-06-11T16:22:11Z</time>
      </trkpt>
      <trkpt lat="45.18787" lon="5.53559">
        <ele>1132.6</ele>
        <time>2015-06-11T16:22:12Z</time>
      </trkpt>
      <trkpt lat="45.18786" lon="5.53558">
        <ele>1132.6</ele>
        <time>2015-06-11T16:22:13Z</time>
      </trkpt>
      <trkpt lat="45.18784" lon="5.53557">
        <ele>1132.4</ele>
        <time>2015-06-11T16:22:14Z</time>
      </trkpt>
      <trkpt lat="45.18782" lon="5.53556">
        <ele>1132.3</ele>
        <time>2015-06-11T16:22:15Z</time>
      </trkpt>
      <trkpt lat="45.18779" lon="5.53555">
        <ele>1131.9</ele>
        <time>2015-06-11T16:22:16Z</time>
      </trkpt>
      <trkpt lat="45.18777" lon="5.53554">
        <ele>1131.7</ele>
        <time>2015-06-11T16:22:17Z</time>
      </trkpt>
      <trkpt lat="45.18774" lon="5.53553">
        <ele>1131.3</ele>
        <time>2015-06-11T16:22:18Z</time>
      </trkpt>
      <trkpt lat="45.18772" lon="5.53552">
        <ele>1131</ele>
        <time>2015-06-11T16:22:19Z</time>
      </trkpt>
      <trkpt lat="45.1877" lon="5.53552">
        <ele>1130.8</ele>
        <time>2015-06-11T16:22:20Z</time>
      </trkpt>
      <trkpt lat="45.18768" lon="5.53551">
        <ele>1130.5</ele>
        <time>2015-06-11T16:22:21Z</time>
      </trkpt>
      <trkpt lat="45.18766" lon="5.5355">
        <ele>1130.2</ele>
        <time>2015-06-11T16:22:22Z</time>
      </trkpt>
      <trkpt lat="45.18764" lon="5.5355">
        <ele>1129.9</ele>
        <time>2015-06-11T16:22:23Z</time>
      </trkpt>
      <trkpt lat="45.18763" lon="5.53549">
        <ele>1129.7</ele>
        <time>2015-06-11T16:22:24Z</time>
      </trkpt>
      <trkpt lat="45.1876" lon="5.53548">
        <ele>1129.3</ele>
        <time>2015-06-11T16:22:25Z</time>
      </trkpt>
      <trkpt lat="45.18758" lon="5.53548">
        <ele>1128.9</ele>
        <time>2015-06-11T16:22:26Z</time>
      </trkpt>
      <trkpt lat="45.18756" lon="5.53547">
        <ele>1128.6</ele>
        <time>2015-06-11T16:22:27Z</time>
      </trkpt>
      <trkpt lat="45.18754" lon="5.53547">
        <ele>1128.3</ele>
        <time>2015-06-11T16:22:28Z</time>
      </trkpt>
      <trkpt lat="45.18752" lon="5.53546">
        <ele>1128</ele>
        <time>2015-06-11T16:22:29Z</time>
      </trkpt>
      <trkpt lat="45.18749" lon="5.53545">
        <ele>1127.7</ele>
        <time>2015-06-11T16:22:30Z</time>
      </trkpt>
      <trkpt lat="45.18747" lon="5.53544">
        <ele>1127.5</ele>
        <time>2015-06-11T16:22:31Z</time>
      </trkpt>
      <trkpt lat="45.18745" lon="5.53543">
        <ele>1127.2</ele>
        <time>2015-06-11T16:22:32Z</time>
      </trkpt>
      <trkpt lat="45.18743" lon="5.53542">
        <ele>1126.8</ele>
        <time>2015-06-11T16:22:33Z</time>
      </trkpt>
      <trkpt lat="45.18741" lon="5.53541">
        <ele>1126.4</ele>
        <time>2015-06-11T16:22:34Z</time>
      </trkpt>
      <trkpt lat="45.18738" lon="5.5354">
        <ele>1125.9</ele>
        <time>2015-06-11T16:22:35Z</time>
      </trkpt>
      <trkpt lat="45.18736" lon="5.5354">
        <ele>1125.6</ele>
        <time>2015-06-11T16:22:36Z</time>
      </trkpt>
      <trkpt lat="45.18734" lon="5.53539">
        <ele>1125.3</ele>
        <time>2015-06-11T16:22:37Z</time>
      </trkpt>
      <trkpt lat="45.18732" lon="5.53537">
        <ele>1124.9</ele>
        <time>2015-06-11T16:22:38Z</time>
      </trkpt>
      <trkpt lat="45.1873" lon="5.53536">
        <ele>1124.6</ele>
        <time>2015-06-11T16:22:39Z</time>
      </trkpt>
      <trkpt lat="45.18728" lon="5.53535">
        <ele>1124.4</ele>
        <time>2015-06-11T16:22:40Z</time>
      </trkpt>
      <trkpt lat="45.18726" lon="5.53533">
        <ele>1124</ele>
        <time>2015-06-11T16:22:41Z</time>
      </trkpt>
      <trkpt lat="45.18724" lon="5.53531">
        <ele>1123.7</ele>
        <time>2015-06-11T16:22:42Z</time>
      </trkpt>
      <trkpt lat="45.18721" lon="5.5353">
        <ele>1123.3</ele>
        <time>2015-06-11T16:22:43Z</time>
      </trkpt>
      <trkpt lat="45.18719" lon="5.53529">
        <ele>1122.9</ele>
        <time>2015-06-11T16:22:44Z</time>
      </trkpt>
      <trkpt lat="45.18716" lon="5.53528">
        <ele>1122.3</ele>
        <time>2015-06-11T16:22:45Z</time>
      </trkpt>
      <trkpt lat="45.18714" lon="5.53528">
        <ele>1121.9</ele>
        <time>2015-06-11T16:22:46Z</time>
      </trkpt>
      <trkpt lat="45.18712" lon="5.53527">
        <ele>1121.4</ele>
        <time>2015-06-11T16:22:47Z</time>
      </trkpt>
      <trkpt lat="45.18709" lon="5.53526">
        <ele>1120.9</ele>
        <time>2015-06-11T16:22:48Z</time>
      </trkpt>
      <trkpt lat="45.18707" lon="5.53525">
        <ele>1120.6</ele>
        <time>2015-06-11T16:22:49Z</time>
      </trkpt>
      <trkpt lat="45.18706" lon="5.53524">
        <ele>1120.4</ele>
        <time>2015-06-11T16:22:50Z</time>
      </trkpt>
      <trkpt lat="45.18704" lon="5.53523">
        <ele>1120.1</ele>
        <time>2015-06-11T16:22:51Z</time>
      </trkpt>
      <trkpt lat="45.18702" lon="5.53522">
        <ele>1119.9</ele>
        <time>2015-06-11T16:22:52Z</time>
      </trkpt>
      <trkpt lat="45.18701" lon="5.53521">
        <ele>1119.7</ele>
        <time>2015-06-11T16:22:53Z</time>
      </trkpt>
      <trkpt lat="45.18699" lon="5.5352">
        <ele>1119.4</ele>
        <time>2015-06-11T16:22:54Z</time>
      </trkpt>
      <trkpt lat="45.18697" lon="5.53519">
        <ele>1119.1</ele>
        <time>2015-06-11T16:22:55Z</time>
      </trkpt>
      <trkpt lat="45.18695" lon="5.53518">
        <ele>1118.8</ele>
        <time>2015-06-11T16:22:56Z</time>
      </trkpt>
      <trkpt lat="45.18693" lon="5.53517">
        <ele>1118.4</ele>
        <time>2015-06-11T16:22:57Z</time>
      </trkpt>
      <trkpt lat="45.18691" lon="5.53516">
        <ele>1118.2</ele>
        <time>2015-06-11T16:22:58Z</time>
      </trkpt>
      <trkpt lat="45.18689" lon="5.53515">
        <ele>1117.8</ele>
        <time>2015-06-11T16:22:59Z</time>
      </trkpt>
      <trkpt lat="45.18687" lon="5.53514">
        <ele>1117.4</ele>
        <time>2015-06-11T16:23:00Z</time>
      </trkpt>
      <trkpt lat="45.18685" lon="5.53513">
        <ele>1117.1</ele>
        <time>2015-06-11T16:23:01Z</time>
      </trkpt>
      <trkpt lat="45.18683" lon="5.53512">
        <ele>1116.7</ele>
        <time>2015-06-11T16:23:02Z</time>
      </trkpt>
      <trkpt lat="45.1868" lon="5.53511">
        <ele>1116.3</ele>
        <time>2015-06-11T16:23:03Z</time>
      </trkpt>
      <trkpt lat="45.18678" lon="5.5351">
        <ele>1115.8</ele>
        <time>2015-06-11T16:23:04Z</time>
      </trkpt>
      <trkpt lat="45.18675" lon="5.53508">
        <ele>1115.4</ele>
        <time>2015-06-11T16:23:05Z</time>
      </trkpt>
      <trkpt lat="45.18673" lon="5.53507">
        <ele>1114.9</ele>
        <time>2015-06-11T16:23:06Z</time>
      </trkpt>
      <trkpt lat="45.1867" lon="5.53505">
        <ele>1114.5</ele>
        <time>2015-06-11T16:23:07Z</time>
      </trkpt>
      <trkpt lat="45.18668" lon="5.53504">
        <ele>1114</ele>
        <time>2015-06-11T16:23:08Z</time>
      </trkpt>
      <trkpt lat="45.18665" lon="5.53503">
        <ele>1113.5</ele>
        <time>2015-06-11T16:23:09Z</time>
      </trkpt>
      <trkpt lat="45.18662" lon="5.53501">
        <ele>1112.9</ele>
        <time>2015-06-11T16:23:10Z</time>
      </trkpt>
      <trkpt lat="45.18659" lon="5.53501">
        <ele>1112.2</ele>
        <time>2015-06-11T16:23:11Z</time>
      </trkpt>
      <trkpt lat="45.18656" lon="5.535">
        <ele>1111.6</ele>
        <time>2015-06-11T16:23:12Z</time>
      </trkpt>
      <trkpt lat="45.18653" lon="5.53499">
        <ele>1110.9</ele>
        <time>2015-06-11T16:23:13Z</time>
      </trkpt>
      <trkpt lat="45.1865" lon="5.53499">
        <ele>1110.3</ele>
        <time>2015-06-11T16:23:14Z</time>
      </trkpt>
      <trkpt lat="45.18647" lon="5.53498">
        <ele>1109.7</ele>
        <time>2015-06-11T16:23:15Z</time>
      </trkpt>
      <trkpt lat="45.18645" lon="5.53497">
        <ele>1109.1</ele>
        <time>2015-06-11T16:23:16Z</time>
      </trkpt>
      <trkpt lat="45.18642" lon="5.53496">
        <ele>1108.5</ele>
        <time>2015-06-11T16:23:17Z</time>
      </trkpt>
      <trkpt lat="45.1864" lon="5.53495">
        <ele>1108</ele>
        <time>2015-06-11T16:23:18Z</time>
      </trkpt>
      <trkpt lat="45.18638" lon="5.53494">
        <ele>1107.6</ele>
        <time>2015-06-11T16:23:19Z</time>
      </trkpt>
      <trkpt lat="45.18636" lon="5.53493">
        <ele>1107.1</ele>
        <time>2015-06-11T16:23:20Z</time>
      </trkpt>
      <trkpt lat="45.18633" lon="5.53492">
        <ele>1106.6</ele>
        <time>2015-06-11T16:23:21Z</time>
      </trkpt>
      <trkpt lat="45.18631" lon="5.53492">
        <ele>1105.9</ele>
        <time>2015-06-11T16:23:22Z</time>
      </trkpt>
      <trkpt lat="45.18628" lon="5.53491">
        <ele>1105.3</ele>
        <time>2015-06-11T16:23:23Z</time>
      </trkpt>
      <trkpt lat="45.18626" lon="5.5349">
        <ele>1104.8</ele>
        <time>2015-06-11T16:23:24Z</time>
      </trkpt>
      <trkpt lat="45.18623" lon="5.53489">
        <ele>1104.2</ele>
        <time>2015-06-11T16:23:25Z</time>
      </trkpt>
      <trkpt lat="45.1862" lon="5.53488">
        <ele>1103.6</ele>
        <time>2015-06-11T16:23:26Z</time>
      </trkpt>
      <trkpt lat="45.18618" lon="5.53486">
        <ele>1103.2</ele>
        <time>2015-06-11T16:23:27Z</time>
      </trkpt>
      <trkpt lat="45.18616" lon="5.53484">
        <ele>1102.8</ele>
        <time>2015-06-11T16:23:28Z</time>
      </trkpt>
      <trkpt lat="45.18615" lon="5.53481">
        <ele>1102.5</ele>
        <time>2015-06-11T16:23:29Z</time>
      </trkpt>
      <trkpt lat="45.18614" lon="5.53478">
        <ele>1102.4</ele>
        <time>2015-06-11T16:23:30Z</time>
      </trkpt>
      <trkpt lat="45.18613" lon="5.53474">
        <ele>1102.3</ele>
        <time>2015-06-11T16:23:31Z</time>
      </trkpt>
      <trkpt lat="45.18613" lon="5.5347">
        <ele>1102.2</ele>
        <time>2015-06-11T16:23:32Z</time>
      </trkpt>
      <trkpt lat="45.18612" lon="5.53467">
        <ele>1102.2</ele>
        <time>2015-06-11T16:23:33Z</time>
      </trkpt>
      <trkpt lat="45.18612" lon="5.53463">
        <ele>1102.1</ele>
        <time>2015-06-11T16:23:34Z</time>
      </trkpt>
      <trkpt lat="45.18612" lon="5.5346">
        <ele>1102.1</ele>
        <time>2015-06-11T16:23:35Z</time>
      </trkpt>
      <trkpt lat="45.18612" lon="5.53457">
        <ele>1102.2</ele>
        <time>2015-06-11T16:23:36Z</time>
      </trkpt>
      <trkpt lat="45.18612" lon="5.53453">
        <ele>1102.6</ele>
        <time>2015-06-11T16:23:37Z</time>
      </trkpt>
      <trkpt lat="45.18612" lon="5.53449">
        <ele>1102.9</ele>
        <time>2015-06-11T16:23:38Z</time>
      </trkpt>
      <trkpt lat="45.18613" lon="5.53446">
        <ele>1103.4</ele>
        <time>2015-06-11T16:23:39Z</time>
      </trkpt>
      <trkpt lat="45.18613" lon="5.53443">
        <ele>1103.7</ele>
        <time>2015-06-11T16:23:40Z</time>
      </trkpt>
      <trkpt lat="45.18614" lon="5.5344">
        <ele>1104</ele>
        <time>2015-06-11T16:23:41Z</time>
      </trkpt>
      <trkpt lat="45.18614" lon="5.53438">
        <ele>1104.2</ele>
        <time>2015-06-11T16:23:42Z</time>
      </trkpt>
      <trkpt lat="45.18615" lon="5.53436">
        <ele>1104.5</ele>
        <time>2015-06-11T16:23:43Z</time>
      </trkpt>
      <trkpt lat="45.18615" lon="5.53433">
        <ele>1104.7</ele>
        <time>2015-06-11T16:23:44Z</time>
      </trkpt>
      <trkpt lat="45.18615" lon="5.53429">
        <ele>1105</ele>
        <time>2015-06-11T16:23:45Z</time>
      </trkpt>
      <trkpt lat="45.18615" lon="5.53425">
        <ele>1105.4</ele>
        <time>2015-06-11T16:23:46Z</time>
      </trkpt>
      <trkpt lat="45.18615" lon="5.53422">
        <ele>1105.7</ele>
        <time>2015-06-11T16:23:47Z</time>
      </trkpt>
      <trkpt lat="45.18616" lon="5.53419">
        <ele>1106</ele>
        <time>2015-06-11T16:23:48Z</time>
      </trkpt>
      <trkpt lat="45.18616" lon="5.53416">
        <ele>1106.2</ele>
        <time>2015-06-11T16:23:49Z</time>
      </trkpt>
      <trkpt lat="45.18616" lon="5.53413">
        <ele>1106.4</ele>
        <time>2015-06-11T16:23:50Z</time>
      </trkpt>
      <trkpt lat="45.18616" lon="5.5341">
        <ele>1106.7</ele>
        <time>2015-06-11T16:23:51Z</time>
      </trkpt>
      <trkpt lat="45.18616" lon="5.53406">
        <ele>1107</ele>
        <time>2015-06-11T16:23:52Z</time>
      </trkpt>
      <trkpt lat="45.18616" lon="5.53402">
        <ele>1107.3</ele>
        <time>2015-06-11T16:23:53Z</time>
      </trkpt>
      <trkpt lat="45.18616" lon="5.53398">
        <ele>1107.5</ele>
        <time>2015-06-11T16:23:54Z</time>
      </trkpt>
      <trkpt lat="45.18615" lon="5.53395">
        <ele>1107.6</ele>
        <time>2015-06-11T16:23:55Z</time>
      </trkpt>
      <trkpt lat="45.18614" lon="5.53392">
        <ele>1107.7</ele>
        <time>2015-06-11T16:23:56Z</time>
      </trkpt>
      <trkpt lat="45.18612" lon="5.53389">
        <ele>1107.5</ele>
        <time>2015-06-11T16:23:57Z</time>
      </trkpt>
      <trkpt lat="45.1861" lon="5.53386">
        <ele>1107.3</ele>
        <time>2015-06-11T16:23:58Z</time>
      </trkpt>
      <trkpt lat="45.18608" lon="5.53384">
        <ele>1107</ele>
        <time>2015-06-11T16:23:59Z</time>
      </trkpt>
      <trkpt lat="45.18606" lon="5.53382">
        <ele>1106.8</ele>
        <time>2015-06-11T16:24:00Z</time>
      </trkpt>
      <trkpt lat="45.18604" lon="5.53379">
        <ele>1106.7</ele>
        <time>2015-06-11T16:24:01Z</time>
      </trkpt>
      <trkpt lat="45.18602" lon="5.53377">
        <ele>1106.5</ele>
        <time>2015-06-11T16:24:02Z</time>
      </trkpt>
      <trkpt lat="45.18601" lon="5.53374">
        <ele>1106.4</ele>
        <time>2015-06-11T16:24:03Z</time>
      </trkpt>
      <trkpt lat="45.18599" lon="5.53372">
        <ele>1106.8</ele>
        <time>2015-06-11T16:24:04Z</time>
      </trkpt>
      <trkpt lat="45.18597" lon="5.53369">
        <ele>1107.1</ele>
        <time>2015-06-11T16:24:05Z</time>
      </trkpt>
      <trkpt lat="45.18596" lon="5.53367">
        <ele>1107.5</ele>
        <time>2015-06-11T16:24:06Z</time>
      </trkpt>
      <trkpt lat="45.18595" lon="5.53364">
        <ele>1107.7</ele>
        <time>2015-06-11T16:24:07Z</time>
      </trkpt>
      <trkpt lat="45.18594" lon="5.53362">
        <ele>1108.1</ele>
        <time>2015-06-11T16:24:08Z</time>
      </trkpt>
      <trkpt lat="45.18593" lon="5.53359">
        <ele>1108.5</ele>
        <time>2015-06-11T16:24:09Z</time>
      </trkpt>
      <trkpt lat="45.18591" lon="5.53357">
        <ele>1108.8</ele>
        <time>2015-06-11T16:24:10Z</time>
      </trkpt>
      <trkpt lat="45.1859" lon="5.53355">
        <ele>1109.1</ele>
        <time>2015-06-11T16:24:11Z</time>
      </trkpt>
      <trkpt lat="45.18588" lon="5.53352">
        <ele>1109.3</ele>
        <time>2015-06-11T16:24:12Z</time>
      </trkpt>
      <trkpt lat="45.18586" lon="5.5335">
        <ele>1109.4</ele>
        <time>2015-06-11T16:24:13Z</time>
      </trkpt>
      <trkpt lat="45.18585" lon="5.53348">
        <ele>1109.6</ele>
        <time>2015-06-11T16:24:14Z</time>
      </trkpt>
      <trkpt lat="45.18583" lon="5.53345">
        <ele>1109.7</ele>
        <time>2015-06-11T16:24:15Z</time>
      </trkpt>
      <trkpt lat="45.18581" lon="5.53343">
        <ele>1109.7</ele>
        <time>2015-06-11T16:24:16Z</time>
      </trkpt>
      <trkpt lat="45.18579" lon="5.53341">
        <ele>1109.7</ele>
        <time>2015-06-11T16:24:17Z</time>
      </trkpt>
      <trkpt lat="45.18577" lon="5.53339">
        <ele>1109.6</ele>
        <time>2015-06-11T16:24:18Z</time>
      </trkpt>
      <trkpt lat="45.18575" lon="5.53338">
        <ele>1109.5</ele>
        <time>2015-06-11T16:24:19Z</time>
      </trkpt>
      <trkpt lat="45.18573" lon="5.53336">
        <ele>1109.4</ele>
        <time>2015-06-11T16:24:20Z</time>
      </trkpt>
      <trkpt lat="45.18571" lon="5.53334">
        <ele>1109.3</ele>
        <time>2015-06-11T16:24:21Z</time>
      </trkpt>
      <trkpt lat="45.18569" lon="5.53333">
        <ele>1109.2</ele>
        <time>2015-06-11T16:24:22Z</time>
      </trkpt>
      <trkpt lat="45.18567" lon="5.53331">
        <ele>1109.2</ele>
        <time>2015-06-11T16:24:23Z</time>
      </trkpt>
      <trkpt lat="45.18565" lon="5.53329">
        <ele>1109</ele>
        <time>2015-06-11T16:24:24Z</time>
      </trkpt>
      <trkpt lat="45.18563" lon="5.53327">
        <ele>1108.9</ele>
        <time>2015-06-11T16:24:25Z</time>
      </trkpt>
      <trkpt lat="45.18561" lon="5.53325">
        <ele>1108.8</ele>
        <time>2015-06-11T16:24:26Z</time>
      </trkpt>
      <trkpt lat="45.18559" lon="5.53323">
        <ele>1108.8</ele>
        <time>2015-06-11T16:24:27Z</time>
      </trkpt>
      <trkpt lat="45.18558" lon="5.53321">
        <ele>1108.8</ele>
        <time>2015-06-11T16:24:28Z</time>
      </trkpt>
      <trkpt lat="45.18556" lon="5.53319">
        <ele>1108.7</ele>
        <time>2015-06-11T16:24:29Z</time>
      </trkpt>
      <trkpt lat="45.18554" lon="5.53317">
        <ele>1108.6</ele>
        <time>2015-06-11T16:24:30Z</time>
      </trkpt>
      <trkpt lat="45.18552" lon="5.53316">
        <ele>1108.4</ele>
        <time>2015-06-11T16:24:31Z</time>
      </trkpt>
      <trkpt lat="45.1855" lon="5.53314">
        <ele>1108.2</ele>
        <time>2015-06-11T16:24:32Z</time>
      </trkpt>
      <trkpt lat="45.18548" lon="5.53312">
        <ele>1108</ele>
        <time>2015-06-11T16:24:33Z</time>
      </trkpt>
      <trkpt lat="45.18546" lon="5.53311">
        <ele>1107.7</ele>
        <time>2015-06-11T16:24:34Z</time>
      </trkpt>
      <trkpt lat="45.18544" lon="5.53309">
        <ele>1107.4</ele>
        <time>2015-06-11T16:24:35Z</time>
      </trkpt>
      <trkpt lat="45.18541" lon="5.53308">
        <ele>1106.9</ele>
        <time>2015-06-11T16:24:36Z</time>
      </trkpt>
      <trkpt lat="45.18539" lon="5.53306">
        <ele>1106.7</ele>
        <time>2015-06-11T16:24:37Z</time>
      </trkpt>
      <trkpt lat="45.18536" lon="5.53304">
        <ele>1106.3</ele>
        <time>2015-06-11T16:24:38Z</time>
      </trkpt>
      <trkpt lat="45.18533" lon="5.53302">
        <ele>1106</ele>
        <time>2015-06-11T16:24:39Z</time>
      </trkpt>
      <trkpt lat="45.18531" lon="5.533">
        <ele>1105.8</ele>
        <time>2015-06-11T16:24:40Z</time>
      </trkpt>
      <trkpt lat="45.18528" lon="5.53298">
        <ele>1105.5</ele>
        <time>2015-06-11T16:24:41Z</time>
      </trkpt>
      <trkpt lat="45.18526" lon="5.53296">
        <ele>1105.2</ele>
        <time>2015-06-11T16:24:42Z</time>
      </trkpt>
      <trkpt lat="45.18523" lon="5.53295">
        <ele>1104.9</ele>
        <time>2015-06-11T16:24:43Z</time>
      </trkpt>
      <trkpt lat="45.18521" lon="5.53293">
        <ele>1104.4</ele>
        <time>2015-06-11T16:24:44Z</time>
      </trkpt>
      <trkpt lat="45.18518" lon="5.53292">
        <ele>1104.1</ele>
        <time>2015-06-11T16:24:45Z</time>
      </trkpt>
      <trkpt lat="45.18516" lon="5.53291">
        <ele>1103.7</ele>
        <time>2015-06-11T16:24:46Z</time>
      </trkpt>
      <trkpt lat="45.18514" lon="5.5329">
        <ele>1103.4</ele>
        <time>2015-06-11T16:24:47Z</time>
      </trkpt>
      <trkpt lat="45.18512" lon="5.5329">
        <ele>1103</ele>
        <time>2015-06-11T16:24:48Z</time>
      </trkpt>
      <trkpt lat="45.1851" lon="5.53289">
        <ele>1102.7</ele>
        <time>2015-06-11T16:24:49Z</time>
      </trkpt>
      <trkpt lat="45.18508" lon="5.53288">
        <ele>1102.3</ele>
        <time>2015-06-11T16:24:50Z</time>
      </trkpt>
      <trkpt lat="45.18506" lon="5.53287">
        <ele>1102.1</ele>
        <time>2015-06-11T16:24:51Z</time>
      </trkpt>
      <trkpt lat="45.18504" lon="5.53286">
        <ele>1101.9</ele>
        <time>2015-06-11T16:24:52Z</time>
      </trkpt>
      <trkpt lat="45.18502" lon="5.53285">
        <ele>1101.7</ele>
        <time>2015-06-11T16:24:53Z</time>
      </trkpt>
      <trkpt lat="45.18499" lon="5.53283">
        <ele>1101.4</ele>
        <time>2015-06-11T16:24:54Z</time>
      </trkpt>
      <trkpt lat="45.18497" lon="5.53281">
        <ele>1101.1</ele>
        <time>2015-06-11T16:24:55Z</time>
      </trkpt>
      <trkpt lat="45.18494" lon="5.53279">
        <ele>1100.8</ele>
        <time>2015-06-11T16:24:56Z</time>
      </trkpt>
      <trkpt lat="45.18492" lon="5.53278">
        <ele>1100.6</ele>
        <time>2015-06-11T16:24:57Z</time>
      </trkpt>
      <trkpt lat="45.1849" lon="5.53276">
        <ele>1100.4</ele>
        <time>2015-06-11T16:24:58Z</time>
      </trkpt>
      <trkpt lat="45.18488" lon="5.53275">
        <ele>1100.2</ele>
        <time>2015-06-11T16:24:59Z</time>
      </trkpt>
      <trkpt lat="45.18487" lon="5.53273">
        <ele>1100.2</ele>
        <time>2015-06-11T16:25:00Z</time>
      </trkpt>
      <trkpt lat="45.18485" lon="5.53271">
        <ele>1100.2</ele>
        <time>2015-06-11T16:25:01Z</time>
      </trkpt>
      <trkpt lat="45.18483" lon="5.53269">
        <ele>1100</ele>
        <time>2015-06-11T16:25:02Z</time>
      </trkpt>
      <trkpt lat="45.1848" lon="5.53267">
        <ele>1099.5</ele>
        <time>2015-06-11T16:25:03Z</time>
      </trkpt>
      <trkpt lat="45.18477" lon="5.53265">
        <ele>1099</ele>
        <time>2015-06-11T16:25:04Z</time>
      </trkpt>
      <trkpt lat="45.18474" lon="5.53263">
        <ele>1098.4</ele>
        <time>2015-06-11T16:25:05Z</time>
      </trkpt>
      <trkpt lat="45.18471" lon="5.53261">
        <ele>1097.9</ele>
        <time>2015-06-11T16:25:06Z</time>
      </trkpt>
      <trkpt lat="45.18469" lon="5.53259">
        <ele>1097.6</ele>
        <time>2015-06-11T16:25:07Z</time>
      </trkpt>
      <trkpt lat="45.18466" lon="5.53257">
        <ele>1097.2</ele>
        <time>2015-06-11T16:25:08Z</time>
      </trkpt>
      <trkpt lat="45.18463" lon="5.53255">
        <ele>1096.7</ele>
        <time>2015-06-11T16:25:09Z</time>
      </trkpt>
      <trkpt lat="45.18461" lon="5.53252">
        <ele>1096.3</ele>
        <time>2015-06-11T16:25:10Z</time>
      </trkpt>
      <trkpt lat="45.18457" lon="5.53249">
        <ele>1095.9</ele>
        <time>2015-06-11T16:25:11Z</time>
      </trkpt>
      <trkpt lat="45.18455" lon="5.53247">
        <ele>1095.7</ele>
        <time>2015-06-11T16:25:12Z</time>
      </trkpt>
      <trkpt lat="45.18453" lon="5.53244">
        <ele>1095.8</ele>
        <time>2015-06-11T16:25:13Z</time>
      </trkpt>
      <trkpt lat="45.18452" lon="5.53242">
        <ele>1095.8</ele>
        <time>2015-06-11T16:25:14Z</time>
      </trkpt>
      <trkpt lat="45.1845" lon="5.53239">
        <ele>1095.9</ele>
        <time>2015-06-11T16:25:15Z</time>
      </trkpt>
      <trkpt lat="45.18449" lon="5.53236">
        <ele>1096.1</ele>
        <time>2015-06-11T16:25:16Z</time>
      </trkpt>
      <trkpt lat="45.18448" lon="5.53233">
        <ele>1096.4</ele>
        <time>2015-06-11T16:25:17Z</time>
      </trkpt>
      <trkpt lat="45.18447" lon="5.5323">
        <ele>1096.6</ele>
        <time>2015-06-11T16:25:18Z</time>
      </trkpt>
      <trkpt lat="45.18446" lon="5.53227">
        <ele>1096.9</ele>
        <time>2015-06-11T16:25:19Z</time>
      </trkpt>
      <trkpt lat="45.18445" lon="5.53224">
        <ele>1097.1</ele>
        <time>2015-06-11T16:25:20Z</time>
      </trkpt>
      <trkpt lat="45.18444" lon="5.53222">
        <ele>1097.3</ele>
        <time>2015-06-11T16:25:21Z</time>
      </trkpt>
      <trkpt lat="45.18442" lon="5.53219">
        <ele>1097.3</ele>
        <time>2015-06-11T16:25:22Z</time>
      </trkpt>
      <trkpt lat="45.18441" lon="5.53216">
        <ele>1097.5</ele>
        <time>2015-06-11T16:25:23Z</time>
      </trkpt>
      <trkpt lat="45.18439" lon="5.53213">
        <ele>1097.5</ele>
        <time>2015-06-11T16:25:24Z</time>
      </trkpt>
      <trkpt lat="45.18437" lon="5.5321">
        <ele>1097.7</ele>
        <time>2015-06-11T16:25:25Z</time>
      </trkpt>
      <trkpt lat="45.18435" lon="5.53207">
        <ele>1097.8</ele>
        <time>2015-06-11T16:25:26Z</time>
      </trkpt>
      <trkpt lat="45.18434" lon="5.53204">
        <ele>1098</ele>
        <time>2015-06-11T16:25:27Z</time>
      </trkpt>
      <trkpt lat="45.18432" lon="5.53202">
        <ele>1098.1</ele>
        <time>2015-06-11T16:25:28Z</time>
      </trkpt>
      <trkpt lat="45.1843" lon="5.532">
        <ele>1098.2</ele>
        <time>2015-06-11T16:25:29Z</time>
      </trkpt>
      <trkpt lat="45.18429" lon="5.53197">
        <ele>1098.4</ele>
        <time>2015-06-11T16:25:30Z</time>
      </trkpt>
      <trkpt lat="45.18427" lon="5.53195">
        <ele>1098.6</ele>
        <time>2015-06-11T16:25:31Z</time>
      </trkpt>
      <trkpt lat="45.18426" lon="5.53192">
        <ele>1098.7</ele>
        <time>2015-06-11T16:25:32Z</time>
      </trkpt>
      <trkpt lat="45.18424" lon="5.5319">
        <ele>1098.9</ele>
        <time>2015-06-11T16:25:33Z</time>
      </trkpt>
      <trkpt lat="45.18423" lon="5.53187">
        <ele>1099.1</ele>
        <time>2015-06-11T16:25:34Z</time>
      </trkpt>
      <trkpt lat="45.18422" lon="5.53185">
        <ele>1099.4</ele>
        <time>2015-06-11T16:25:35Z</time>
      </trkpt>
      <trkpt lat="45.1842" lon="5.53182">
        <ele>1099.6</ele>
        <time>2015-06-11T16:25:36Z</time>
      </trkpt>
      <trkpt lat="45.18419" lon="5.53179">
        <ele>1099.9</ele>
        <time>2015-06-11T16:25:37Z</time>
      </trkpt>
      <trkpt lat="45.18417" lon="5.53176">
        <ele>1100.1</ele>
        <time>2015-06-11T16:25:38Z</time>
      </trkpt>
      <trkpt lat="45.18416" lon="5.53174">
        <ele>1100.3</ele>
        <time>2015-06-11T16:25:39Z</time>
      </trkpt>
      <trkpt lat="45.18415" lon="5.53171">
        <ele>1100.5</ele>
        <time>2015-06-11T16:25:40Z</time>
      </trkpt>
      <trkpt lat="45.18413" lon="5.53169">
        <ele>1100.6</ele>
        <time>2015-06-11T16:25:41Z</time>
      </trkpt>
      <trkpt lat="45.18411" lon="5.53166">
        <ele>1100.7</ele>
        <time>2015-06-11T16:25:42Z</time>
      </trkpt>
      <trkpt lat="45.18409" lon="5.53164">
        <ele>1100.6</ele>
        <time>2015-06-11T16:25:43Z</time>
      </trkpt>
      <trkpt lat="45.18407" lon="5.53162">
        <ele>1100.5</ele>
        <time>2015-06-11T16:25:44Z</time>
      </trkpt>
      <trkpt lat="45.18406" lon="5.5316">
        <ele>1100.6</ele>
        <time>2015-06-11T16:25:45Z</time>
      </trkpt>
      <trkpt lat="45.18404" lon="5.53158">
        <ele>1100.4</ele>
        <time>2015-06-11T16:25:46Z</time>
      </trkpt>
      <trkpt lat="45.18402" lon="5.53156">
        <ele>1100.3</ele>
        <time>2015-06-11T16:25:47Z</time>
      </trkpt>
      <trkpt lat="45.18401" lon="5.53154">
        <ele>1100.4</ele>
        <time>2015-06-11T16:25:48Z</time>
      </trkpt>
      <trkpt lat="45.18399" lon="5.53152">
        <ele>1100.3</ele>
        <time>2015-06-11T16:25:49Z</time>
      </trkpt>
      <trkpt lat="45.18398" lon="5.5315">
        <ele>1100.3</ele>
        <time>2015-06-11T16:25:50Z</time>
      </trkpt>
      <trkpt lat="45.18396" lon="5.53148">
        <ele>1100.3</ele>
        <time>2015-06-11T16:25:51Z</time>
      </trkpt>
      <trkpt lat="45.18395" lon="5.53146">
        <ele>1100.5</ele>
        <time>2015-06-11T16:25:52Z</time>
      </trkpt>
      <trkpt lat="45.18394" lon="5.53144">
        <ele>1100.6</ele>
        <time>2015-06-11T16:25:53Z</time>
      </trkpt>
      <trkpt lat="45.18393" lon="5.53142">
        <ele>1100.8</ele>
        <time>2015-06-11T16:25:54Z</time>
      </trkpt>
      <trkpt lat="45.18392" lon="5.5314">
        <ele>1100.9</ele>
        <time>2015-06-11T16:25:55Z</time>
      </trkpt>
      <trkpt lat="45.18391" lon="5.53137">
        <ele>1101</ele>
        <time>2015-06-11T16:25:56Z</time>
      </trkpt>
      <trkpt lat="45.1839" lon="5.53135">
        <ele>1101.2</ele>
        <time>2015-06-11T16:25:57Z</time>
      </trkpt>
      <trkpt lat="45.18389" lon="5.53133">
        <ele>1101.4</ele>
        <time>2015-06-11T16:25:58Z</time>
      </trkpt>
      <trkpt lat="45.18388" lon="5.5313">
        <ele>1101.6</ele>
        <time>2015-06-11T16:25:59Z</time>
      </trkpt>
      <trkpt lat="45.18387" lon="5.53128">
        <ele>1101.8</ele>
        <time>2015-06-11T16:26:00Z</time>
      </trkpt>
      <trkpt lat="45.18385" lon="5.53125">
        <ele>1102</ele>
        <time>2015-06-11T16:26:01Z</time>
      </trkpt>
      <trkpt lat="45.18384" lon="5.53122">
        <ele>1102.4</ele>
        <time>2015-06-11T16:26:02Z</time>
      </trkpt>
      <trkpt lat="45.18383" lon="5.53119">
        <ele>1102.9</ele>
        <time>2015-06-11T16:26:03Z</time>
      </trkpt>
      <trkpt lat="45.18382" lon="5.53116">
        <ele>1103.4</ele>
        <time>2015-06-11T16:26:04Z</time>
      </trkpt>
      <trkpt lat="45.1838" lon="5.53113">
        <ele>1103.8</ele>
        <time>2015-06-11T16:26:05Z</time>
      </trkpt>
      <trkpt lat="45.18378" lon="5.5311">
        <ele>1104.1</ele>
        <time>2015-06-11T16:26:06Z</time>
      </trkpt>
      <trkpt lat="45.18377" lon="5.53107">
        <ele>1104.4</ele>
        <time>2015-06-11T16:26:07Z</time>
      </trkpt>
      <trkpt lat="45.18375" lon="5.53105">
        <ele>1104.6</ele>
        <time>2015-06-11T16:26:08Z</time>
      </trkpt>
      <trkpt lat="45.18374" lon="5.53102">
        <ele>1105</ele>
        <time>2015-06-11T16:26:09Z</time>
      </trkpt>
      <trkpt lat="45.18372" lon="5.531">
        <ele>1105.3</ele>
        <time>2015-06-11T16:26:10Z</time>
      </trkpt>
      <trkpt lat="45.18372" lon="5.53098">
        <ele>1105.8</ele>
        <time>2015-06-11T16:26:11Z</time>
      </trkpt>
      <trkpt lat="45.1837" lon="5.53095">
        <ele>1106.2</ele>
        <time>2015-06-11T16:26:12Z</time>
      </trkpt>
      <trkpt lat="45.18369" lon="5.53092">
        <ele>1106.7</ele>
        <time>2015-06-11T16:26:13Z</time>
      </trkpt>
      <trkpt lat="45.18367" lon="5.53089">
        <ele>1107.1</ele>
        <time>2015-06-11T16:26:14Z</time>
      </trkpt>
      <trkpt lat="45.18365" lon="5.53086">
        <ele>1107.6</ele>
        <time>2015-06-11T16:26:15Z</time>
      </trkpt>
      <trkpt lat="45.18363" lon="5.53083">
        <ele>1108</ele>
        <time>2015-06-11T16:26:16Z</time>
      </trkpt>
      <trkpt lat="45.18361" lon="5.5308">
        <ele>1108.3</ele>
        <time>2015-06-11T16:26:17Z</time>
      </trkpt>
      <trkpt lat="45.18359" lon="5.53078">
        <ele>1108.6</ele>
        <time>2015-06-11T16:26:18Z</time>
      </trkpt>
      <trkpt lat="45.18358" lon="5.53075">
        <ele>1109</ele>
        <time>2015-06-11T16:26:19Z</time>
      </trkpt>
      <trkpt lat="45.18356" lon="5.53072">
        <ele>1109.3</ele>
        <time>2015-06-11T16:26:20Z</time>
      </trkpt>
      <trkpt lat="45.18355" lon="5.5307">
        <ele>1109.6</ele>
        <time>2015-06-11T16:26:21Z</time>
      </trkpt>
      <trkpt lat="45.18353" lon="5.53067">
        <ele>1109.9</ele>
        <time>2015-06-11T16:26:22Z</time>
      </trkpt>
      <trkpt lat="45.18352" lon="5.53065">
        <ele>1110.1</ele>
        <time>2015-06-11T16:26:23Z</time>
      </trkpt>
      <trkpt lat="45.1835" lon="5.53062">
        <ele>1110.3</ele>
        <time>2015-06-11T16:26:24Z</time>
      </trkpt>
      <trkpt lat="45.18348" lon="5.5306">
        <ele>1110.4</ele>
        <time>2015-06-11T16:26:25Z</time>
      </trkpt>
      <trkpt lat="45.18347" lon="5.53058">
        <ele>1110.6</ele>
        <time>2015-06-11T16:26:26Z</time>
      </trkpt>
      <trkpt lat="45.18345" lon="5.53056">
        <ele>1110.7</ele>
        <time>2015-06-11T16:26:27Z</time>
      </trkpt>
      <trkpt lat="45.18343" lon="5.53053">
        <ele>1110.7</ele>
        <time>2015-06-11T16:26:28Z</time>
      </trkpt>
      <trkpt lat="45.18341" lon="5.53051">
        <ele>1110.7</ele>
        <time>2015-06-11T16:26:29Z</time>
      </trkpt>
      <trkpt lat="45.18339" lon="5.53049">
        <ele>1110.7</ele>
        <time>2015-06-11T16:26:30Z</time>
      </trkpt>
      <trkpt lat="45.18337" lon="5.53047">
        <ele>1110.7</ele>
        <time>2015-06-11T16:26:31Z</time>
      </trkpt>
      <trkpt lat="45.18334" lon="5.53044">
        <ele>1110.6</ele>
        <time>2015-06-11T16:26:32Z</time>
      </trkpt>
      <trkpt lat="45.18332" lon="5.53042">
        <ele>1110.5</ele>
        <time>2015-06-11T16:26:33Z</time>
      </trkpt>
      <trkpt lat="45.1833" lon="5.5304">
        <ele>1110.5</ele>
        <time>2015-06-11T16:26:34Z</time>
      </trkpt>
      <trkpt lat="45.18327" lon="5.53038">
        <ele>1110.5</ele>
        <time>2015-06-11T16:26:35Z</time>
      </trkpt>
      <trkpt lat="45.18325" lon="5.53036">
        <ele>1110.4</ele>
        <time>2015-06-11T16:26:36Z</time>
      </trkpt>
      <trkpt lat="45.18322" lon="5.53034">
        <ele>1110.4</ele>
        <time>2015-06-11T16:26:37Z</time>
      </trkpt>
      <trkpt lat="45.1832" lon="5.53032">
        <ele>1110.2</ele>
        <time>2015-06-11T16:26:38Z</time>
      </trkpt>
      <trkpt lat="45.18317" lon="5.5303">
        <ele>1110.1</ele>
        <time>2015-06-11T16:26:39Z</time>
      </trkpt>
      <trkpt lat="45.18315" lon="5.53029">
        <ele>1109.9</ele>
        <time>2015-06-11T16:26:40Z</time>
      </trkpt>
      <trkpt lat="45.18313" lon="5.53027">
        <ele>1109.8</ele>
        <time>2015-06-11T16:26:41Z</time>
      </trkpt>
      <trkpt lat="45.18311" lon="5.53025">
        <ele>1109.6</ele>
        <time>2015-06-11T16:26:42Z</time>
      </trkpt>
      <trkpt lat="45.18308" lon="5.53024">
        <ele>1109.4</ele>
        <time>2015-06-11T16:26:43Z</time>
      </trkpt>
      <trkpt lat="45.18306" lon="5.53023">
        <ele>1109.3</ele>
        <time>2015-06-11T16:26:44Z</time>
      </trkpt>
      <trkpt lat="45.18304" lon="5.53021">
        <ele>1109.1</ele>
        <time>2015-06-11T16:26:45Z</time>
      </trkpt>
      <trkpt lat="45.18302" lon="5.5302">
        <ele>1108.8</ele>
        <time>2015-06-11T16:26:46Z</time>
      </trkpt>
      <trkpt lat="45.183" lon="5.53019">
        <ele>1108.6</ele>
        <time>2015-06-11T16:26:47Z</time>
      </trkpt>
      <trkpt lat="45.18298" lon="5.53018">
        <ele>1108.3</ele>
        <time>2015-06-11T16:26:48Z</time>
      </trkpt>
      <trkpt lat="45.18295" lon="5.53016">
        <ele>1107.9</ele>
        <time>2015-06-11T16:26:49Z</time>
      </trkpt>
      <trkpt lat="45.18292" lon="5.53015">
        <ele>1107.4</ele>
        <time>2015-06-11T16:26:50Z</time>
      </trkpt>
      <trkpt lat="45.18289" lon="5.53014">
        <ele>1107.1</ele>
        <time>2015-06-11T16:26:51Z</time>
      </trkpt>
      <trkpt lat="45.18287" lon="5.53013">
        <ele>1106.8</ele>
        <time>2015-06-11T16:26:52Z</time>
      </trkpt>
      <trkpt lat="45.18284" lon="5.53013">
        <ele>1106.4</ele>
        <time>2015-06-11T16:26:53Z</time>
      </trkpt>
      <trkpt lat="45.18281" lon="5.53012">
        <ele>1106</ele>
        <time>2015-06-11T16:26:54Z</time>
      </trkpt>
      <trkpt lat="45.18279" lon="5.53012">
        <ele>1105.7</ele>
        <time>2015-06-11T16:26:55Z</time>
      </trkpt>
      <trkpt lat="45.18276" lon="5.53011">
        <ele>1105.2</ele>
        <time>2015-06-11T16:26:56Z</time>
      </trkpt>
      <trkpt lat="45.18274" lon="5.5301">
        <ele>1105</ele>
        <time>2015-06-11T16:26:57Z</time>
      </trkpt>
      <trkpt lat="45.18271" lon="5.53009">
        <ele>1104.7</ele>
        <time>2015-06-11T16:26:58Z</time>
      </trkpt>
      <trkpt lat="45.18269" lon="5.53008">
        <ele>1104.6</ele>
        <time>2015-06-11T16:26:59Z</time>
      </trkpt>
      <trkpt lat="45.18266" lon="5.53006">
        <ele>1104.4</ele>
        <time>2015-06-11T16:27:00Z</time>
      </trkpt>
      <trkpt lat="45.18264" lon="5.53005">
        <ele>1104.2</ele>
        <time>2015-06-11T16:27:01Z</time>
      </trkpt>
      <trkpt lat="45.18261" lon="5.53003">
        <ele>1104.1</ele>
        <time>2015-06-11T16:27:02Z</time>
      </trkpt>
      <trkpt lat="45.18258" lon="5.53002">
        <ele>1103.9</ele>
        <time>2015-06-11T16:27:03Z</time>
      </trkpt>
      <trkpt lat="45.18256" lon="5.53">
        <ele>1103.8</ele>
        <time>2015-06-11T16:27:04Z</time>
      </trkpt>
      <trkpt lat="45.18253" lon="5.52998">
        <ele>1103.8</ele>
        <time>2015-06-11T16:27:05Z</time>
      </trkpt>
      <trkpt lat="45.18251" lon="5.52995">
        <ele>1103.8</ele>
        <time>2015-06-11T16:27:06Z</time>
      </trkpt>
      <trkpt lat="45.18248" lon="5.52992">
        <ele>1104.1</ele>
        <time>2015-06-11T16:27:07Z</time>
      </trkpt>
      <trkpt lat="45.18246" lon="5.52989">
        <ele>1104.3</ele>
        <time>2015-06-11T16:27:08Z</time>
      </trkpt>
      <trkpt lat="45.18244" lon="5.52986">
        <ele>1104.5</ele>
        <time>2015-06-11T16:27:09Z</time>
      </trkpt>
      <trkpt lat="45.18242" lon="5.52983">
        <ele>1104.8</ele>
        <time>2015-06-11T16:27:10Z</time>
      </trkpt>
      <trkpt lat="45.18239" lon="5.52981">
        <ele>1104.9</ele>
        <time>2015-06-11T16:27:11Z</time>
      </trkpt>
      <trkpt lat="45.18237" lon="5.52978">
        <ele>1105</ele>
        <time>2015-06-11T16:27:12Z</time>
      </trkpt>
      <trkpt lat="45.18234" lon="5.52976">
        <ele>1104.9</ele>
        <time>2015-06-11T16:27:13Z</time>
      </trkpt>
      <trkpt lat="45.18232" lon="5.52975">
        <ele>1104.8</ele>
        <time>2015-06-11T16:27:14Z</time>
      </trkpt>
      <trkpt lat="45.1823" lon="5.52973">
        <ele>1104.7</ele>
        <time>2015-06-11T16:27:15Z</time>
      </trkpt>
      <trkpt lat="45.18227" lon="5.52971">
        <ele>1104.6</ele>
        <time>2015-06-11T16:27:16Z</time>
      </trkpt>
      <trkpt lat="45.18225" lon="5.52969">
        <ele>1104.5</ele>
        <time>2015-06-11T16:27:17Z</time>
      </trkpt>
      <trkpt lat="45.18223" lon="5.52967">
        <ele>1104.4</ele>
        <time>2015-06-11T16:27:18Z</time>
      </trkpt>
      <trkpt lat="45.18221" lon="5.52965">
        <ele>1104.4</ele>
        <time>2015-06-11T16:27:19Z</time>
      </trkpt>
      <trkpt lat="45.18218" lon="5.52963">
        <ele>1104.3</ele>
        <time>2015-06-11T16:27:20Z</time>
      </trkpt>
      <trkpt lat="45.18216" lon="5.5296">
        <ele>1104.4</ele>
        <time>2015-06-11T16:27:21Z</time>
      </trkpt>
      <trkpt lat="45.18214" lon="5.52958">
        <ele>1104.5</ele>
        <time>2015-06-11T16:27:22Z</time>
      </trkpt>
      <trkpt lat="45.18212" lon="5.52955">
        <ele>1104.6</ele>
        <time>2015-06-11T16:27:23Z</time>
      </trkpt>
      <trkpt lat="45.1821" lon="5.52952">
        <ele>1104.9</ele>
        <time>2015-06-11T16:27:24Z</time>
      </trkpt>
      <trkpt lat="45.18208" lon="5.52949">
        <ele>1105</ele>
        <time>2015-06-11T16:27:25Z</time>
      </trkpt>
      <trkpt lat="45.18206" lon="5.52946">
        <ele>1105.2</ele>
        <time>2015-06-11T16:27:26Z</time>
      </trkpt>
      <trkpt lat="45.18204" lon="5.52943">
        <ele>1105.2</ele>
        <time>2015-06-11T16:27:27Z</time>
      </trkpt>
      <trkpt lat="45.18202" lon="5.52941">
        <ele>1105.2</ele>
        <time>2015-06-11T16:27:28Z</time>
      </trkpt>
      <trkpt lat="45.182" lon="5.5294">
        <ele>1105</ele>
        <time>2015-06-11T16:27:29Z</time>
      </trkpt>
      <trkpt lat="45.18198" lon="5.52939">
        <ele>1104.7</ele>
        <time>2015-06-11T16:27:30Z</time>
      </trkpt>
      <trkpt lat="45.18195" lon="5.52937">
        <ele>1104.5</ele>
        <time>2015-06-11T16:27:31Z</time>
      </trkpt>
      <trkpt lat="45.18193" lon="5.52935">
        <ele>1104.5</ele>
        <time>2015-06-11T16:27:32Z</time>
      </trkpt>
      <trkpt lat="45.18192" lon="5.52933">
        <ele>1104.6</ele>
        <time>2015-06-11T16:27:33Z</time>
      </trkpt>
      <trkpt lat="45.1819" lon="5.5293">
        <ele>1104.7</ele>
        <time>2015-06-11T16:27:34Z</time>
      </trkpt>
      <trkpt lat="45.18189" lon="5.52929">
        <ele>1104.8</ele>
        <time>2015-06-11T16:27:35Z</time>
      </trkpt>
      <trkpt lat="45.18187" lon="5.52927">
        <ele>1104.7</ele>
        <time>2015-06-11T16:27:36Z</time>
      </trkpt>
      <trkpt lat="45.18185" lon="5.52926">
        <ele>1104.5</ele>
        <time>2015-06-11T16:27:37Z</time>
      </trkpt>
      <trkpt lat="45.18183" lon="5.52924">
        <ele>1104.4</ele>
        <time>2015-06-11T16:27:38Z</time>
      </trkpt>
      <trkpt lat="45.18181" lon="5.52923">
        <ele>1104.2</ele>
        <time>2015-06-11T16:27:39Z</time>
      </trkpt>
      <trkpt lat="45.18179" lon="5.52922">
        <ele>1104</ele>
        <time>2015-06-11T16:27:40Z</time>
      </trkpt>
      <trkpt lat="45.18177" lon="5.52921">
        <ele>1103.8</ele>
        <time>2015-06-11T16:27:41Z</time>
      </trkpt>
      <trkpt lat="45.18176" lon="5.52921">
        <ele>1103.6</ele>
        <time>2015-06-11T16:27:42Z</time>
      </trkpt>
      <trkpt lat="45.18174" lon="5.5292">
        <ele>1103.3</ele>
        <time>2015-06-11T16:27:43Z</time>
      </trkpt>
      <trkpt lat="45.18173" lon="5.52921">
        <ele>1102.7</ele>
        <time>2015-06-11T16:27:44Z</time>
      </trkpt>
      <trkpt lat="45.18171" lon="5.52921">
        <ele>1102.2</ele>
        <time>2015-06-11T16:27:45Z</time>
      </trkpt>
      <trkpt lat="45.18169" lon="5.52923">
        <ele>1101.5</ele>
        <time>2015-06-11T16:27:46Z</time>
      </trkpt>
      <trkpt lat="45.18168" lon="5.52925">
        <ele>1100.8</ele>
        <time>2015-06-11T16:27:47Z</time>
      </trkpt>
      <trkpt lat="45.18167" lon="5.52927">
        <ele>1099.9</ele>
        <time>2015-06-11T16:27:48Z</time>
      </trkpt>
      <trkpt lat="45.18166" lon="5.5293">
        <ele>1098.9</ele>
        <time>2015-06-11T16:27:49Z</time>
      </trkpt>
      <trkpt lat="45.18165" lon="5.52933">
        <ele>1098.1</ele>
        <time>2015-06-11T16:27:50Z</time>
      </trkpt>
      <trkpt lat="45.18164" lon="5.52937">
        <ele>1097.2</ele>
        <time>2015-06-11T16:27:51Z</time>
      </trkpt>
      <trkpt lat="45.18163" lon="5.5294">
        <ele>1096.3</ele>
        <time>2015-06-11T16:27:52Z</time>
      </trkpt>
      <trkpt lat="45.18162" lon="5.52943">
        <ele>1095.4</ele>
        <time>2015-06-11T16:27:53Z</time>
      </trkpt>
      <trkpt lat="45.18161" lon="5.52946">
        <ele>1094.5</ele>
        <time>2015-06-11T16:27:54Z</time>
      </trkpt>
      <trkpt lat="45.1816" lon="5.52949">
        <ele>1093.5</ele>
        <time>2015-06-11T16:27:55Z</time>
      </trkpt>
      <trkpt lat="45.18159" lon="5.52952">
        <ele>1092.6</ele>
        <time>2015-06-11T16:27:56Z</time>
      </trkpt>
      <trkpt lat="45.18158" lon="5.52955">
        <ele>1091.7</ele>
        <time>2015-06-11T16:27:57Z</time>
      </trkpt>
      <trkpt lat="45.18157" lon="5.52958">
        <ele>1090.8</ele>
        <time>2015-06-11T16:27:58Z</time>
      </trkpt>
      <trkpt lat="45.18156" lon="5.52961">
        <ele>1089.7</ele>
        <time>2015-06-11T16:27:59Z</time>
      </trkpt>
      <trkpt lat="45.18155" lon="5.52964">
        <ele>1088.6</ele>
        <time>2015-06-11T16:28:00Z</time>
      </trkpt>
      <trkpt lat="45.18153" lon="5.52967">
        <ele>1087.4</ele>
        <time>2015-06-11T16:28:01Z</time>
      </trkpt>
      <trkpt lat="45.18152" lon="5.5297">
        <ele>1086.2</ele>
        <time>2015-06-11T16:28:02Z</time>
      </trkpt>
      <trkpt lat="45.18151" lon="5.52974">
        <ele>1085</ele>
        <time>2015-06-11T16:28:03Z</time>
      </trkpt>
      <trkpt lat="45.1815" lon="5.52977">
        <ele>1083.9</ele>
        <time>2015-06-11T16:28:04Z</time>
      </trkpt>
      <trkpt lat="45.18149" lon="5.5298">
        <ele>1082.6</ele>
        <time>2015-06-11T16:28:05Z</time>
      </trkpt>
      <trkpt lat="45.18148" lon="5.52983">
        <ele>1081.5</ele>
        <time>2015-06-11T16:28:06Z</time>
      </trkpt>
      <trkpt lat="45.18147" lon="5.52986">
        <ele>1080.3</ele>
        <time>2015-06-11T16:28:07Z</time>
      </trkpt>
      <trkpt lat="45.18145" lon="5.52989">
        <ele>1079.2</ele>
        <time>2015-06-11T16:28:08Z</time>
      </trkpt>
      <trkpt lat="45.18144" lon="5.52992">
        <ele>1078.1</ele>
        <time>2015-06-11T16:28:09Z</time>
      </trkpt>
      <trkpt lat="45.18142" lon="5.52994">
        <ele>1076.9</ele>
        <time>2015-06-11T16:28:10Z</time>
      </trkpt>
      <trkpt lat="45.18141" lon="5.52997">
        <ele>1075.7</ele>
        <time>2015-06-11T16:28:11Z</time>
      </trkpt>
      <trkpt lat="45.18139" lon="5.53">
        <ele>1074.5</ele>
        <time>2015-06-11T16:28:12Z</time>
      </trkpt>
      <trkpt lat="45.18137" lon="5.53002">
        <ele>1073.2</ele>
        <time>2015-06-11T16:28:13Z</time>
      </trkpt>
      <trkpt lat="45.18135" lon="5.53005">
        <ele>1071.9</ele>
        <time>2015-06-11T16:28:14Z</time>
      </trkpt>
      <trkpt lat="45.18133" lon="5.53007">
        <ele>1070.6</ele>
        <time>2015-06-11T16:28:15Z</time>
      </trkpt>
      <trkpt lat="45.18131" lon="5.5301">
        <ele>1069.3</ele>
        <time>2015-06-11T16:28:16Z</time>
      </trkpt>
      <trkpt lat="45.18129" lon="5.53013">
        <ele>1067.9</ele>
        <time>2015-06-11T16:28:17Z</time>
      </trkpt>
      <trkpt lat="45.18127" lon="5.53016">
        <ele>1066.5</ele>
        <time>2015-06-11T16:28:18Z</time>
      </trkpt>
      <trkpt lat="45.18126" lon="5.53019">
        <ele>1065.1</ele>
        <time>2015-06-11T16:28:19Z</time>
      </trkpt>
      <trkpt lat="45.18125" lon="5.53023">
        <ele>1063.7</ele>
        <time>2015-06-11T16:28:20Z</time>
      </trkpt>
      <trkpt lat="45.18124" lon="5.53026">
        <ele>1062.5</ele>
        <time>2015-06-11T16:28:21Z</time>
      </trkpt>
      <trkpt lat="45.18123" lon="5.5303">
        <ele>1061.3</ele>
        <time>2015-06-11T16:28:22Z</time>
      </trkpt>
      <trkpt lat="45.18123" lon="5.53034">
        <ele>1060.1</ele>
        <time>2015-06-11T16:28:23Z</time>
      </trkpt>
      <trkpt lat="45.18123" lon="5.53038">
        <ele>1058.9</ele>
        <time>2015-06-11T16:28:24Z</time>
      </trkpt>
      <trkpt lat="45.18124" lon="5.53042">
        <ele>1057.9</ele>
        <time>2015-06-11T16:28:25Z</time>
      </trkpt>
      <trkpt lat="45.18125" lon="5.53046">
        <ele>1057.5</ele>
        <time>2015-06-11T16:28:26Z</time>
      </trkpt>
      <trkpt lat="45.18126" lon="5.53049">
        <ele>1057.2</ele>
        <time>2015-06-11T16:28:27Z</time>
      </trkpt>
      <trkpt lat="45.18126" lon="5.53053">
        <ele>1057</ele>
        <time>2015-06-11T16:28:28Z</time>
      </trkpt>
      <trkpt lat="45.18127" lon="5.53056">
        <ele>1056.6</ele>
        <time>2015-06-11T16:28:29Z</time>
      </trkpt>
      <trkpt lat="45.18127" lon="5.5306">
        <ele>1056.2</ele>
        <time>2015-06-11T16:28:30Z</time>
      </trkpt>
      <trkpt lat="45.18127" lon="5.53063">
        <ele>1055.8</ele>
        <time>2015-06-11T16:28:31Z</time>
      </trkpt>
      <trkpt lat="45.18128" lon="5.53067">
        <ele>1055.6</ele>
        <time>2015-06-11T16:28:32Z</time>
      </trkpt>
      <trkpt lat="45.18129" lon="5.53071">
        <ele>1055.3</ele>
        <time>2015-06-11T16:28:33Z</time>
      </trkpt>
      <trkpt lat="45.1813" lon="5.53075">
        <ele>1055.1</ele>
        <time>2015-06-11T16:28:34Z</time>
      </trkpt>
      <trkpt lat="45.18131" lon="5.53079">
        <ele>1055</ele>
        <time>2015-06-11T16:28:35Z</time>
      </trkpt>
      <trkpt lat="45.18132" lon="5.53083">
        <ele>1054.7</ele>
        <time>2015-06-11T16:28:36Z</time>
      </trkpt>
      <trkpt lat="45.18133" lon="5.53087">
        <ele>1054.4</ele>
        <time>2015-06-11T16:28:37Z</time>
      </trkpt>
      <trkpt lat="45.18134" lon="5.53091">
        <ele>1054.1</ele>
        <time>2015-06-11T16:28:38Z</time>
      </trkpt>
      <trkpt lat="45.18134" lon="5.53095">
        <ele>1053.6</ele>
        <time>2015-06-11T16:28:39Z</time>
      </trkpt>
      <trkpt lat="45.18135" lon="5.53099">
        <ele>1053.1</ele>
        <time>2015-06-11T16:28:40Z</time>
      </trkpt>
      <trkpt lat="45.18135" lon="5.53103">
        <ele>1052.5</ele>
        <time>2015-06-11T16:28:41Z</time>
      </trkpt>
      <trkpt lat="45.18134" lon="5.53108">
        <ele>1051.8</ele>
        <time>2015-06-11T16:28:42Z</time>
      </trkpt>
      <trkpt lat="45.18134" lon="5.53112">
        <ele>1051.1</ele>
        <time>2015-06-11T16:28:43Z</time>
      </trkpt>
      <trkpt lat="45.18133" lon="5.53116">
        <ele>1050.3</ele>
        <time>2015-06-11T16:28:44Z</time>
      </trkpt>
      <trkpt lat="45.18131" lon="5.5312">
        <ele>1049.3</ele>
        <time>2015-06-11T16:28:45Z</time>
      </trkpt>
      <trkpt lat="45.1813" lon="5.53124">
        <ele>1048.5</ele>
        <time>2015-06-11T16:28:46Z</time>
      </trkpt>
      <trkpt lat="45.18129" lon="5.53127">
        <ele>1047.8</ele>
        <time>2015-06-11T16:28:47Z</time>
      </trkpt>
      <trkpt lat="45.18127" lon="5.53131">
        <ele>1047.2</ele>
        <time>2015-06-11T16:28:48Z</time>
      </trkpt>
      <trkpt lat="45.18125" lon="5.53134">
        <ele>1046.6</ele>
        <time>2015-06-11T16:28:49Z</time>
      </trkpt>
      <trkpt lat="45.18124" lon="5.53137">
        <ele>1046.4</ele>
        <time>2015-06-11T16:28:50Z</time>
      </trkpt>
      <trkpt lat="45.18122" lon="5.53141">
        <ele>1046.1</ele>
        <time>2015-06-11T16:28:51Z</time>
      </trkpt>
      <trkpt lat="45.1812" lon="5.53144">
        <ele>1045.9</ele>
        <time>2015-06-11T16:28:52Z</time>
      </trkpt>
      <trkpt lat="45.18118" lon="5.53147">
        <ele>1045.6</ele>
        <time>2015-06-11T16:28:53Z</time>
      </trkpt>
      <trkpt lat="45.18116" lon="5.53151">
        <ele>1045.4</ele>
        <time>2015-06-11T16:28:54Z</time>
      </trkpt>
      <trkpt lat="45.18115" lon="5.53155">
        <ele>1045.1</ele>
        <time>2015-06-11T16:28:55Z</time>
      </trkpt>
      <trkpt lat="45.18113" lon="5.53159">
        <ele>1044.8</ele>
        <time>2015-06-11T16:28:56Z</time>
      </trkpt>
      <trkpt lat="45.18111" lon="5.53162">
        <ele>1044.6</ele>
        <time>2015-06-11T16:28:57Z</time>
      </trkpt>
      <trkpt lat="45.1811" lon="5.53166">
        <ele>1044.3</ele>
        <time>2015-06-11T16:28:58Z</time>
      </trkpt>
      <trkpt lat="45.18108" lon="5.5317">
        <ele>1044</ele>
        <time>2015-06-11T16:28:59Z</time>
      </trkpt>
      <trkpt lat="45.18107" lon="5.53174">
        <ele>1043.7</ele>
        <time>2015-06-11T16:29:00Z</time>
      </trkpt>
      <trkpt lat="45.18105" lon="5.53178">
        <ele>1043.4</ele>
        <time>2015-06-11T16:29:01Z</time>
      </trkpt>
      <trkpt lat="45.18103" lon="5.53182">
        <ele>1043.2</ele>
        <time>2015-06-11T16:29:02Z</time>
      </trkpt>
      <trkpt lat="45.18102" lon="5.53185">
        <ele>1042.9</ele>
        <time>2015-06-11T16:29:03Z</time>
      </trkpt>
      <trkpt lat="45.18101" lon="5.53189">
        <ele>1042.6</ele>
        <time>2015-06-11T16:29:04Z</time>
      </trkpt>
      <trkpt lat="45.181" lon="5.53193">
        <ele>1042.3</ele>
        <time>2015-06-11T16:29:05Z</time>
      </trkpt>
      <trkpt lat="45.18098" lon="5.53196">
        <ele>1042.1</ele>
        <time>2015-06-11T16:29:06Z</time>
      </trkpt>
      <trkpt lat="45.18097" lon="5.532">
        <ele>1041.8</ele>
        <time>2015-06-11T16:29:07Z</time>
      </trkpt>
      <trkpt lat="45.18096" lon="5.53203">
        <ele>1041.5</ele>
        <time>2015-06-11T16:29:08Z</time>
      </trkpt>
      <trkpt lat="45.18095" lon="5.53207">
        <ele>1041.3</ele>
        <time>2015-06-11T16:29:09Z</time>
      </trkpt>
      <trkpt lat="45.18094" lon="5.5321">
        <ele>1041.1</ele>
        <time>2015-06-11T16:29:10Z</time>
      </trkpt>
      <trkpt lat="45.18092" lon="5.53214">
        <ele>1041</ele>
        <time>2015-06-11T16:29:11Z</time>
      </trkpt>
      <trkpt lat="45.18091" lon="5.53217">
        <ele>1041</ele>
        <time>2015-06-11T16:29:12Z</time>
      </trkpt>
      <trkpt lat="45.18089" lon="5.53221">
        <ele>1040.9</ele>
        <time>2015-06-11T16:29:13Z</time>
      </trkpt>
      <trkpt lat="45.18088" lon="5.53224">
        <ele>1040.8</ele>
        <time>2015-06-11T16:29:14Z</time>
      </trkpt>
      <trkpt lat="45.18087" lon="5.53228">
        <ele>1040.7</ele>
        <time>2015-06-11T16:29:15Z</time>
      </trkpt>
      <trkpt lat="45.18085" lon="5.53231">
        <ele>1040.6</ele>
        <time>2015-06-11T16:29:16Z</time>
      </trkpt>
      <trkpt lat="45.18084" lon="5.53235">
        <ele>1040.5</ele>
        <time>2015-06-11T16:29:17Z</time>
      </trkpt>
      <trkpt lat="45.18082" lon="5.53238">
        <ele>1040.4</ele>
        <time>2015-06-11T16:29:18Z</time>
      </trkpt>
      <trkpt lat="45.18081" lon="5.53242">
        <ele>1040.3</ele>
        <time>2015-06-11T16:29:19Z</time>
      </trkpt>
      <trkpt lat="45.1808" lon="5.53245">
        <ele>1040.3</ele>
        <time>2015-06-11T16:29:20Z</time>
      </trkpt>
      <trkpt lat="45.18078" lon="5.53249">
        <ele>1040.1</ele>
        <time>2015-06-11T16:29:21Z</time>
      </trkpt>
      <trkpt lat="45.18077" lon="5.53252">
        <ele>1040</ele>
        <time>2015-06-11T16:29:22Z</time>
      </trkpt>
      <trkpt lat="45.18076" lon="5.53256">
        <ele>1039.9</ele>
        <time>2015-06-11T16:29:23Z</time>
      </trkpt>
      <trkpt lat="45.18074" lon="5.53259">
        <ele>1039.8</ele>
        <time>2015-06-11T16:29:24Z</time>
      </trkpt>
      <trkpt lat="45.18073" lon="5.53263">
        <ele>1039.7</ele>
        <time>2015-06-11T16:29:25Z</time>
      </trkpt>
      <trkpt lat="45.18071" lon="5.53266">
        <ele>1039.6</ele>
        <time>2015-06-11T16:29:26Z</time>
      </trkpt>
      <trkpt lat="45.1807" lon="5.5327">
        <ele>1039.5</ele>
        <time>2015-06-11T16:29:27Z</time>
      </trkpt>
      <trkpt lat="45.18068" lon="5.53273">
        <ele>1039.3</ele>
        <time>2015-06-11T16:29:28Z</time>
      </trkpt>
      <trkpt lat="45.18067" lon="5.53277">
        <ele>1039.2</ele>
        <time>2015-06-11T16:29:29Z</time>
      </trkpt>
      <trkpt lat="45.18066" lon="5.5328">
        <ele>1039.1</ele>
        <time>2015-06-11T16:29:30Z</time>
      </trkpt>
      <trkpt lat="45.18064" lon="5.53284">
        <ele>1038.9</ele>
        <time>2015-06-11T16:29:31Z</time>
      </trkpt>
      <trkpt lat="45.18063" lon="5.53287">
        <ele>1038.8</ele>
        <time>2015-06-11T16:29:32Z</time>
      </trkpt>
      <trkpt lat="45.18061" lon="5.5329">
        <ele>1038.7</ele>
        <time>2015-06-11T16:29:33Z</time>
      </trkpt>
      <trkpt lat="45.1806" lon="5.53294">
        <ele>1038.6</ele>
        <time>2015-06-11T16:29:34Z</time>
      </trkpt>
      <trkpt lat="45.18059" lon="5.53297">
        <ele>1038.6</ele>
        <time>2015-06-11T16:29:35Z</time>
      </trkpt>
      <trkpt lat="45.18058" lon="5.533">
        <ele>1038.6</ele>
        <time>2015-06-11T16:29:36Z</time>
      </trkpt>
      <trkpt lat="45.18057" lon="5.53303">
        <ele>1038.6</ele>
        <time>2015-06-11T16:29:37Z</time>
      </trkpt>
      <trkpt lat="45.18055" lon="5.53307">
        <ele>1038.6</ele>
        <time>2015-06-11T16:29:38Z</time>
      </trkpt>
      <trkpt lat="45.18054" lon="5.5331">
        <ele>1038.6</ele>
        <time>2015-06-11T16:29:39Z</time>
      </trkpt>
      <trkpt lat="45.18052" lon="5.53313">
        <ele>1038.6</ele>
        <time>2015-06-11T16:29:40Z</time>
      </trkpt>
      <trkpt lat="45.18051" lon="5.53316">
        <ele>1038.6</ele>
        <time>2015-06-11T16:29:41Z</time>
      </trkpt>
      <trkpt lat="45.18049" lon="5.5332">
        <ele>1038.5</ele>
        <time>2015-06-11T16:29:42Z</time>
      </trkpt>
      <trkpt lat="45.18048" lon="5.53323">
        <ele>1038.5</ele>
        <time>2015-06-11T16:29:43Z</time>
      </trkpt>
      <trkpt lat="45.18047" lon="5.53326">
        <ele>1038.6</ele>
        <time>2015-06-11T16:29:44Z</time>
      </trkpt>
      <trkpt lat="45.18045" lon="5.53329">
        <ele>1038.6</ele>
        <time>2015-06-11T16:29:45Z</time>
      </trkpt>
      <trkpt lat="45.18044" lon="5.53332">
        <ele>1038.6</ele>
        <time>2015-06-11T16:29:46Z</time>
      </trkpt>
      <trkpt lat="45.18042" lon="5.53335">
        <ele>1038.6</ele>
        <time>2015-06-11T16:29:47Z</time>
      </trkpt>
      <trkpt lat="45.18041" lon="5.53338">
        <ele>1038.7</ele>
        <time>2015-06-11T16:29:48Z</time>
      </trkpt>
      <trkpt lat="45.18039" lon="5.53341">
        <ele>1038.9</ele>
        <time>2015-06-11T16:29:49Z</time>
      </trkpt>
      <trkpt lat="45.18037" lon="5.53343">
        <ele>1039</ele>
        <time>2015-06-11T16:29:50Z</time>
      </trkpt>
      <trkpt lat="45.18035" lon="5.53345">
        <ele>1039.2</ele>
        <time>2015-06-11T16:29:51Z</time>
      </trkpt>
      <trkpt lat="45.18033" lon="5.53346">
        <ele>1039.3</ele>
        <time>2015-06-11T16:29:52Z</time>
      </trkpt>
      <trkpt lat="45.1803" lon="5.53347">
        <ele>1039.4</ele>
        <time>2015-06-11T16:29:53Z</time>
      </trkpt>
      <trkpt lat="45.18028" lon="5.53348">
        <ele>1039.5</ele>
        <time>2015-06-11T16:29:54Z</time>
      </trkpt>
      <trkpt lat="45.18026" lon="5.53348">
        <ele>1039.6</ele>
        <time>2015-06-11T16:29:55Z</time>
      </trkpt>
      <trkpt lat="45.18023" lon="5.53347">
        <ele>1039.7</ele>
        <time>2015-06-11T16:29:56Z</time>
      </trkpt>
      <trkpt lat="45.1802" lon="5.53347">
        <ele>1039.8</ele>
        <time>2015-06-11T16:29:57Z</time>
      </trkpt>
      <trkpt lat="45.18018" lon="5.53346">
        <ele>1039.8</ele>
        <time>2015-06-11T16:29:58Z</time>
      </trkpt>
      <trkpt lat="45.18015" lon="5.53344">
        <ele>1039.9</ele>
        <time>2015-06-11T16:29:59Z</time>
      </trkpt>
      <trkpt lat="45.18012" lon="5.53343">
        <ele>1039.9</ele>
        <time>2015-06-11T16:30:00Z</time>
      </trkpt>
      <trkpt lat="45.1801" lon="5.53342">
        <ele>1039.9</ele>
        <time>2015-06-11T16:30:01Z</time>
      </trkpt>
      <trkpt lat="45.18007" lon="5.5334">
        <ele>1040</ele>
        <time>2015-06-11T16:30:02Z</time>
      </trkpt>
      <trkpt lat="45.18005" lon="5.53339">
        <ele>1040</ele>
        <time>2015-06-11T16:30:03Z</time>
      </trkpt>
      <trkpt lat="45.18002" lon="5.53338">
        <ele>1040.1</ele>
        <time>2015-06-11T16:30:04Z</time>
      </trkpt>
      <trkpt lat="45.18" lon="5.53338">
        <ele>1040.2</ele>
        <time>2015-06-11T16:30:05Z</time>
      </trkpt>
      <trkpt lat="45.17997" lon="5.53338">
        <ele>1040.3</ele>
        <time>2015-06-11T16:30:06Z</time>
      </trkpt>
      <trkpt lat="45.17994" lon="5.53338">
        <ele>1040.4</ele>
        <time>2015-06-11T16:30:07Z</time>
      </trkpt>
      <trkpt lat="45.17992" lon="5.53339">
        <ele>1040.5</ele>
        <time>2015-06-11T16:30:08Z</time>
      </trkpt>
      <trkpt lat="45.17989" lon="5.53339">
        <ele>1040.6</ele>
        <time>2015-06-11T16:30:09Z</time>
      </trkpt>
      <trkpt lat="45.17987" lon="5.5334">
        <ele>1040.7</ele>
        <time>2015-06-11T16:30:10Z</time>
      </trkpt>
      <trkpt lat="45.17984" lon="5.53341">
        <ele>1040.8</ele>
        <time>2015-06-11T16:30:11Z</time>
      </trkpt>
      <trkpt lat="45.17982" lon="5.53341">
        <ele>1040.9</ele>
        <time>2015-06-11T16:30:12Z</time>
      </trkpt>
      <trkpt lat="45.1798" lon="5.53342">
        <ele>1041</ele>
        <time>2015-06-11T16:30:13Z</time>
      </trkpt>
      <trkpt lat="45.17978" lon="5.53343">
        <ele>1041.1</ele>
        <time>2015-06-11T16:30:14Z</time>
      </trkpt>
      <trkpt lat="45.17975" lon="5.53343">
        <ele>1041.3</ele>
        <time>2015-06-11T16:30:15Z</time>
      </trkpt>
      <trkpt lat="45.17973" lon="5.53344">
        <ele>1041.4</ele>
        <time>2015-06-11T16:30:16Z</time>
      </trkpt>
      <trkpt lat="45.1797" lon="5.53345">
        <ele>1041.5</ele>
        <time>2015-06-11T16:30:17Z</time>
      </trkpt>
      <trkpt lat="45.17968" lon="5.53346">
        <ele>1041.6</ele>
        <time>2015-06-11T16:30:18Z</time>
      </trkpt>
      <trkpt lat="45.17965" lon="5.53346">
        <ele>1041.7</ele>
        <time>2015-06-11T16:30:19Z</time>
      </trkpt>
      <trkpt lat="45.17963" lon="5.53345">
        <ele>1041.8</ele>
        <time>2015-06-11T16:30:20Z</time>
      </trkpt>
      <trkpt lat="45.1796" lon="5.53344">
        <ele>1041.8</ele>
        <time>2015-06-11T16:30:21Z</time>
      </trkpt>
      <trkpt lat="45.17957" lon="5.53344">
        <ele>1041.8</ele>
        <time>2015-06-11T16:30:22Z</time>
      </trkpt>
      <trkpt lat="45.17955" lon="5.53343">
        <ele>1041.8</ele>
        <time>2015-06-11T16:30:23Z</time>
      </trkpt>
      <trkpt lat="45.17952" lon="5.53342">
        <ele>1041.7</ele>
        <time>2015-06-11T16:30:24Z</time>
      </trkpt>
      <trkpt lat="45.1795" lon="5.53341">
        <ele>1041.6</ele>
        <time>2015-06-11T16:30:25Z</time>
      </trkpt>
      <trkpt lat="45.17947" lon="5.5334">
        <ele>1041.5</ele>
        <time>2015-06-11T16:30:26Z</time>
      </trkpt>
      <trkpt lat="45.17944" lon="5.53339">
        <ele>1041.4</ele>
        <time>2015-06-11T16:30:27Z</time>
      </trkpt>
      <trkpt lat="45.17942" lon="5.53337">
        <ele>1041.3</ele>
        <time>2015-06-11T16:30:28Z</time>
      </trkpt>
      <trkpt lat="45.1794" lon="5.53336">
        <ele>1041.2</ele>
        <time>2015-06-11T16:30:29Z</time>
      </trkpt>
      <trkpt lat="45.17937" lon="5.53334">
        <ele>1041.1</ele>
        <time>2015-06-11T16:30:30Z</time>
      </trkpt>
      <trkpt lat="45.17934" lon="5.53332">
        <ele>1041</ele>
        <time>2015-06-11T16:30:31Z</time>
      </trkpt>
      <trkpt lat="45.17932" lon="5.5333">
        <ele>1041</ele>
        <time>2015-06-11T16:30:32Z</time>
      </trkpt>
      <trkpt lat="45.1793" lon="5.53329">
        <ele>1040.9</ele>
        <time>2015-06-11T16:30:33Z</time>
      </trkpt>
      <trkpt lat="45.17928" lon="5.53327">
        <ele>1040.8</ele>
        <time>2015-06-11T16:30:34Z</time>
      </trkpt>
      <trkpt lat="45.17926" lon="5.53325">
        <ele>1040.7</ele>
        <time>2015-06-11T16:30:35Z</time>
      </trkpt>
      <trkpt lat="45.17924" lon="5.53323">
        <ele>1040.7</ele>
        <time>2015-06-11T16:30:36Z</time>
      </trkpt>
      <trkpt lat="45.17921" lon="5.53321">
        <ele>1040.6</ele>
        <time>2015-06-11T16:30:37Z</time>
      </trkpt>
      <trkpt lat="45.17919" lon="5.53318">
        <ele>1040.5</ele>
        <time>2015-06-11T16:30:38Z</time>
      </trkpt>
      <trkpt lat="45.17917" lon="5.53316">
        <ele>1040.4</ele>
        <time>2015-06-11T16:30:39Z</time>
      </trkpt>
      <trkpt lat="45.17914" lon="5.53314">
        <ele>1040.4</ele>
        <time>2015-06-11T16:30:40Z</time>
      </trkpt>
      <trkpt lat="45.17912" lon="5.53313">
        <ele>1040.3</ele>
        <time>2015-06-11T16:30:41Z</time>
      </trkpt>
      <trkpt lat="45.1791" lon="5.53312">
        <ele>1040.3</ele>
        <time>2015-06-11T16:30:42Z</time>
      </trkpt>
      <trkpt lat="45.17907" lon="5.5331">
        <ele>1040.3</ele>
        <time>2015-06-11T16:30:43Z</time>
      </trkpt>
      <trkpt lat="45.17905" lon="5.53309">
        <ele>1040.2</ele>
        <time>2015-06-11T16:30:44Z</time>
      </trkpt>
      <trkpt lat="45.17902" lon="5.53307">
        <ele>1040.2</ele>
        <time>2015-06-11T16:30:45Z</time>
      </trkpt>
      <trkpt lat="45.179" lon="5.53305">
        <ele>1040.1</ele>
        <time>2015-06-11T16:30:46Z</time>
      </trkpt>
      <trkpt lat="45.17897" lon="5.53304">
        <ele>1040.1</ele>
        <time>2015-06-11T16:30:47Z</time>
      </trkpt>
      <trkpt lat="45.17895" lon="5.53303">
        <ele>1040.1</ele>
        <time>2015-06-11T16:30:48Z</time>
      </trkpt>
      <trkpt lat="45.17893" lon="5.53302">
        <ele>1040.1</ele>
        <time>2015-06-11T16:30:49Z</time>
      </trkpt>
      <trkpt lat="45.1789" lon="5.53301">
        <ele>1040.1</ele>
        <time>2015-06-11T16:30:50Z</time>
      </trkpt>
      <trkpt lat="45.17888" lon="5.533">
        <ele>1040</ele>
        <time>2015-06-11T16:30:51Z</time>
      </trkpt>
      <trkpt lat="45.17885" lon="5.53299">
        <ele>1040</ele>
        <time>2015-06-11T16:30:52Z</time>
      </trkpt>
      <trkpt lat="45.17882" lon="5.53298">
        <ele>1040</ele>
        <time>2015-06-11T16:30:53Z</time>
      </trkpt>
      <trkpt lat="45.1788" lon="5.53297">
        <ele>1040</ele>
        <time>2015-06-11T16:30:54Z</time>
      </trkpt>
      <trkpt lat="45.17877" lon="5.53296">
        <ele>1040</ele>
        <time>2015-06-11T16:30:55Z</time>
      </trkpt>
      <trkpt lat="45.17875" lon="5.53295">
        <ele>1040</ele>
        <time>2015-06-11T16:30:56Z</time>
      </trkpt>
      <trkpt lat="45.17872" lon="5.53295">
        <ele>1039.8</ele>
        <time>2015-06-11T16:30:57Z</time>
      </trkpt>
      <trkpt lat="45.1787" lon="5.53294">
        <ele>1039.7</ele>
        <time>2015-06-11T16:30:58Z</time>
      </trkpt>
      <trkpt lat="45.17868" lon="5.53293">
        <ele>1039.5</ele>
        <time>2015-06-11T16:30:59Z</time>
      </trkpt>
      <trkpt lat="45.17865" lon="5.53293">
        <ele>1039.3</ele>
        <time>2015-06-11T16:31:00Z</time>
      </trkpt>
      <trkpt lat="45.17863" lon="5.53292">
        <ele>1039.1</ele>
        <time>2015-06-11T16:31:01Z</time>
      </trkpt>
      <trkpt lat="45.1786" lon="5.53291">
        <ele>1038.9</ele>
        <time>2015-06-11T16:31:02Z</time>
      </trkpt>
      <trkpt lat="45.17858" lon="5.5329">
        <ele>1038.7</ele>
        <time>2015-06-11T16:31:03Z</time>
      </trkpt>
      <trkpt lat="45.17856" lon="5.53289">
        <ele>1038.5</ele>
        <time>2015-06-11T16:31:04Z</time>
      </trkpt>
      <trkpt lat="45.17853" lon="5.53288">
        <ele>1038.3</ele>
        <time>2015-06-11T16:31:05Z</time>
      </trkpt>
      <trkpt lat="45.17851" lon="5.53287">
        <ele>1038.1</ele>
        <time>2015-06-11T16:31:06Z</time>
      </trkpt>
      <trkpt lat="45.17848" lon="5.53286">
        <ele>1037.8</ele>
        <time>2015-06-11T16:31:07Z</time>
      </trkpt>
      <trkpt lat="45.17846" lon="5.53285">
        <ele>1037.6</ele>
        <time>2015-06-11T16:31:08Z</time>
      </trkpt>
      <trkpt lat="45.17843" lon="5.53284">
        <ele>1037.3</ele>
        <time>2015-06-11T16:31:09Z</time>
      </trkpt>
      <trkpt lat="45.1784" lon="5.53282">
        <ele>1037.1</ele>
        <time>2015-06-11T16:31:10Z</time>
      </trkpt>
      <trkpt lat="45.17838" lon="5.53281">
        <ele>1036.8</ele>
        <time>2015-06-11T16:31:11Z</time>
      </trkpt>
      <trkpt lat="45.17835" lon="5.5328">
        <ele>1036.6</ele>
        <time>2015-06-11T16:31:12Z</time>
      </trkpt>
      <trkpt lat="45.17832" lon="5.53279">
        <ele>1036.3</ele>
        <time>2015-06-11T16:31:13Z</time>
      </trkpt>
      <trkpt lat="45.1783" lon="5.53279">
        <ele>1036.1</ele>
        <time>2015-06-11T16:31:14Z</time>
      </trkpt>
      <trkpt lat="45.17827" lon="5.53279">
        <ele>1035.9</ele>
        <time>2015-06-11T16:31:15Z</time>
      </trkpt>
      <trkpt lat="45.17825" lon="5.53279">
        <ele>1035.7</ele>
        <time>2015-06-11T16:31:16Z</time>
      </trkpt>
      <trkpt lat="45.17822" lon="5.5328">
        <ele>1035.6</ele>
        <time>2015-06-11T16:31:17Z</time>
      </trkpt>
      <trkpt lat="45.1782" lon="5.53281">
        <ele>1035.4</ele>
        <time>2015-06-11T16:31:18Z</time>
      </trkpt>
      <trkpt lat="45.17818" lon="5.53284">
        <ele>1035.4</ele>
        <time>2015-06-11T16:31:19Z</time>
      </trkpt>
      <trkpt lat="45.17816" lon="5.53287">
        <ele>1035.5</ele>
        <time>2015-06-11T16:31:20Z</time>
      </trkpt>
      <trkpt lat="45.17814" lon="5.5329">
        <ele>1035.5</ele>
        <time>2015-06-11T16:31:21Z</time>
      </trkpt>
      <trkpt lat="45.17813" lon="5.53294">
        <ele>1035.5</ele>
        <time>2015-06-11T16:31:22Z</time>
      </trkpt>
      <trkpt lat="45.17811" lon="5.53298">
        <ele>1035.5</ele>
        <time>2015-06-11T16:31:23Z</time>
      </trkpt>
      <trkpt lat="45.1781" lon="5.53301">
        <ele>1035.4</ele>
        <time>2015-06-11T16:31:24Z</time>
      </trkpt>
      <trkpt lat="45.17809" lon="5.53305">
        <ele>1035.4</ele>
        <time>2015-06-11T16:31:25Z</time>
      </trkpt>
      <trkpt lat="45.17808" lon="5.53309">
        <ele>1035.3</ele>
        <time>2015-06-11T16:31:26Z</time>
      </trkpt>
      <trkpt lat="45.17807" lon="5.53312">
        <ele>1035.3</ele>
        <time>2015-06-11T16:31:27Z</time>
      </trkpt>
      <trkpt lat="45.17806" lon="5.53316">
        <ele>1035.2</ele>
        <time>2015-06-11T16:31:28Z</time>
      </trkpt>
      <trkpt lat="45.17804" lon="5.5332">
        <ele>1035.2</ele>
        <time>2015-06-11T16:31:29Z</time>
      </trkpt>
      <trkpt lat="45.17802" lon="5.53323">
        <ele>1035.1</ele>
        <time>2015-06-11T16:31:30Z</time>
      </trkpt>
      <trkpt lat="45.17801" lon="5.53327">
        <ele>1035.1</ele>
        <time>2015-06-11T16:31:31Z</time>
      </trkpt>
      <trkpt lat="45.178" lon="5.5333">
        <ele>1035</ele>
        <time>2015-06-11T16:31:32Z</time>
      </trkpt>
      <trkpt lat="45.17799" lon="5.53334">
        <ele>1035</ele>
        <time>2015-06-11T16:31:33Z</time>
      </trkpt>
      <trkpt lat="45.17798" lon="5.53337">
        <ele>1034.9</ele>
        <time>2015-06-11T16:31:34Z</time>
      </trkpt>
      <trkpt lat="45.17796" lon="5.53341">
        <ele>1034.9</ele>
        <time>2015-06-11T16:31:35Z</time>
      </trkpt>
      <trkpt lat="45.17795" lon="5.53344">
        <ele>1034.8</ele>
        <time>2015-06-11T16:31:36Z</time>
      </trkpt>
      <trkpt lat="45.17794" lon="5.53347">
        <ele>1034.8</ele>
        <time>2015-06-11T16:31:37Z</time>
      </trkpt>
      <trkpt lat="45.17792" lon="5.53351">
        <ele>1034.7</ele>
        <time>2015-06-11T16:31:38Z</time>
      </trkpt>
      <trkpt lat="45.17791" lon="5.53354">
        <ele>1034.7</ele>
        <time>2015-06-11T16:31:39Z</time>
      </trkpt>
      <trkpt lat="45.1779" lon="5.53358">
        <ele>1034.7</ele>
        <time>2015-06-11T16:31:40Z</time>
      </trkpt>
      <trkpt lat="45.17789" lon="5.53361">
        <ele>1034.6</ele>
        <time>2015-06-11T16:31:41Z</time>
      </trkpt>
      <trkpt lat="45.17788" lon="5.53365">
        <ele>1034.6</ele>
        <time>2015-06-11T16:31:42Z</time>
      </trkpt>
      <trkpt lat="45.17786" lon="5.53368">
        <ele>1034.6</ele>
        <time>2015-06-11T16:31:43Z</time>
      </trkpt>
      <trkpt lat="45.17785" lon="5.53371">
        <ele>1034.5</ele>
        <time>2015-06-11T16:31:44Z</time>
      </trkpt>
      <trkpt lat="45.17784" lon="5.53375">
        <ele>1034.4</ele>
        <time>2015-06-11T16:31:45Z</time>
      </trkpt>
      <trkpt lat="45.17783" lon="5.53378">
        <ele>1034.4</ele>
        <time>2015-06-11T16:31:46Z</time>
      </trkpt>
      <trkpt lat="45.17781" lon="5.53381">
        <ele>1034.4</ele>
        <time>2015-06-11T16:31:47Z</time>
      </trkpt>
      <trkpt lat="45.1778" lon="5.53385">
        <ele>1034.4</ele>
        <time>2015-06-11T16:31:48Z</time>
      </trkpt>
      <trkpt lat="45.17779" lon="5.53388">
        <ele>1034.3</ele>
        <time>2015-06-11T16:31:49Z</time>
      </trkpt>
      <trkpt lat="45.17778" lon="5.53392">
        <ele>1034.2</ele>
        <time>2015-06-11T16:31:50Z</time>
      </trkpt>
      <trkpt lat="45.17777" lon="5.53395">
        <ele>1034.2</ele>
        <time>2015-06-11T16:31:51Z</time>
      </trkpt>
      <trkpt lat="45.17775" lon="5.53398">
        <ele>1034.2</ele>
        <time>2015-06-11T16:31:52Z</time>
      </trkpt>
      <trkpt lat="45.17774" lon="5.53402">
        <ele>1034.1</ele>
        <time>2015-06-11T16:31:53Z</time>
      </trkpt>
      <trkpt lat="45.17773" lon="5.53405">
        <ele>1034.1</ele>
        <time>2015-06-11T16:31:54Z</time>
      </trkpt>
      <trkpt lat="45.17772" lon="5.53408">
        <ele>1034</ele>
        <time>2015-06-11T16:31:55Z</time>
      </trkpt>
      <trkpt lat="45.17771" lon="5.53412">
        <ele>1033.9</ele>
        <time>2015-06-11T16:31:56Z</time>
      </trkpt>
      <trkpt lat="45.17769" lon="5.53415">
        <ele>1033.8</ele>
        <time>2015-06-11T16:31:57Z</time>
      </trkpt>
      <trkpt lat="45.17768" lon="5.53418">
        <ele>1033.7</ele>
        <time>2015-06-11T16:31:58Z</time>
      </trkpt>
      <trkpt lat="45.17767" lon="5.53422">
        <ele>1033.6</ele>
        <time>2015-06-11T16:31:59Z</time>
      </trkpt>
      <trkpt lat="45.17765" lon="5.53425">
        <ele>1033.6</ele>
        <time>2015-06-11T16:32:00Z</time>
      </trkpt>
      <trkpt lat="45.17764" lon="5.53429">
        <ele>1033.4</ele>
        <time>2015-06-11T16:32:01Z</time>
      </trkpt>
      <trkpt lat="45.17763" lon="5.53432">
        <ele>1033.3</ele>
        <time>2015-06-11T16:32:02Z</time>
      </trkpt>
      <trkpt lat="45.17761" lon="5.53435">
        <ele>1033.2</ele>
        <time>2015-06-11T16:32:03Z</time>
      </trkpt>
      <trkpt lat="45.1776" lon="5.53439">
        <ele>1033.1</ele>
        <time>2015-06-11T16:32:04Z</time>
      </trkpt>
      <trkpt lat="45.17759" lon="5.53442">
        <ele>1033</ele>
        <time>2015-06-11T16:32:05Z</time>
      </trkpt>
      <trkpt lat="45.17757" lon="5.53445">
        <ele>1032.8</ele>
        <time>2015-06-11T16:32:06Z</time>
      </trkpt>
      <trkpt lat="45.17756" lon="5.53449">
        <ele>1032.7</ele>
        <time>2015-06-11T16:32:07Z</time>
      </trkpt>
      <trkpt lat="45.17754" lon="5.53452">
        <ele>1032.5</ele>
        <time>2015-06-11T16:32:08Z</time>
      </trkpt>
      <trkpt lat="45.17753" lon="5.53456">
        <ele>1032.4</ele>
        <time>2015-06-11T16:32:09Z</time>
      </trkpt>
      <trkpt lat="45.17752" lon="5.53459">
        <ele>1032.2</ele>
        <time>2015-06-11T16:32:10Z</time>
      </trkpt>
      <trkpt lat="45.17751" lon="5.53463">
        <ele>1032.2</ele>
        <time>2015-06-11T16:32:11Z</time>
      </trkpt>
      <trkpt lat="45.17749" lon="5.53466">
        <ele>1032.2</ele>
        <time>2015-06-11T16:32:12Z</time>
      </trkpt>
      <trkpt lat="45.17748" lon="5.53469">
        <ele>1032.2</ele>
        <time>2015-06-11T16:32:13Z</time>
      </trkpt>
      <trkpt lat="45.17746" lon="5.53473">
        <ele>1032.2</ele>
        <time>2015-06-11T16:32:14Z</time>
      </trkpt>
      <trkpt lat="45.17745" lon="5.53476">
        <ele>1032.2</ele>
        <time>2015-06-11T16:32:15Z</time>
      </trkpt>
      <trkpt lat="45.17744" lon="5.53479">
        <ele>1032.3</ele>
        <time>2015-06-11T16:32:16Z</time>
      </trkpt>
      <trkpt lat="45.17742" lon="5.53483">
        <ele>1032.3</ele>
        <time>2015-06-11T16:32:17Z</time>
      </trkpt>
      <trkpt lat="45.17741" lon="5.53486">
        <ele>1032.3</ele>
        <time>2015-06-11T16:32:18Z</time>
      </trkpt>
      <trkpt lat="45.17739" lon="5.5349">
        <ele>1032.3</ele>
        <time>2015-06-11T16:32:19Z</time>
      </trkpt>
      <trkpt lat="45.17738" lon="5.53493">
        <ele>1032.4</ele>
        <time>2015-06-11T16:32:20Z</time>
      </trkpt>
      <trkpt lat="45.17736" lon="5.53496">
        <ele>1032.5</ele>
        <time>2015-06-11T16:32:21Z</time>
      </trkpt>
      <trkpt lat="45.17735" lon="5.53499">
        <ele>1032.5</ele>
        <time>2015-06-11T16:32:22Z</time>
      </trkpt>
      <trkpt lat="45.17733" lon="5.53503">
        <ele>1032.6</ele>
        <time>2015-06-11T16:32:23Z</time>
      </trkpt>
      <trkpt lat="45.17732" lon="5.53506">
        <ele>1032.7</ele>
        <time>2015-06-11T16:32:24Z</time>
      </trkpt>
      <trkpt lat="45.1773" lon="5.53509">
        <ele>1032.8</ele>
        <time>2015-06-11T16:32:25Z</time>
      </trkpt>
      <trkpt lat="45.17729" lon="5.53512">
        <ele>1032.9</ele>
        <time>2015-06-11T16:32:26Z</time>
      </trkpt>
      <trkpt lat="45.17728" lon="5.53516">
        <ele>1033</ele>
        <time>2015-06-11T16:32:27Z</time>
      </trkpt>
      <trkpt lat="45.17726" lon="5.53519">
        <ele>1033.1</ele>
        <time>2015-06-11T16:32:28Z</time>
      </trkpt>
      <trkpt lat="45.17725" lon="5.53522">
        <ele>1033.3</ele>
        <time>2015-06-11T16:32:29Z</time>
      </trkpt>
      <trkpt lat="45.17723" lon="5.53525">
        <ele>1033.4</ele>
        <time>2015-06-11T16:32:30Z</time>
      </trkpt>
      <trkpt lat="45.17722" lon="5.53528">
        <ele>1033.5</ele>
        <time>2015-06-11T16:32:31Z</time>
      </trkpt>
      <trkpt lat="45.1772" lon="5.53531">
        <ele>1033.7</ele>
        <time>2015-06-11T16:32:32Z</time>
      </trkpt>
      <trkpt lat="45.17719" lon="5.53534">
        <ele>1033.8</ele>
        <time>2015-06-11T16:32:33Z</time>
      </trkpt>
      <trkpt lat="45.17717" lon="5.53537">
        <ele>1034</ele>
        <time>2015-06-11T16:32:34Z</time>
      </trkpt>
      <trkpt lat="45.17716" lon="5.5354">
        <ele>1034.2</ele>
        <time>2015-06-11T16:32:35Z</time>
      </trkpt>
      <trkpt lat="45.17714" lon="5.53543">
        <ele>1034.4</ele>
        <time>2015-06-11T16:32:36Z</time>
      </trkpt>
      <trkpt lat="45.17713" lon="5.53547">
        <ele>1034.8</ele>
        <time>2015-06-11T16:32:37Z</time>
      </trkpt>
      <trkpt lat="45.17711" lon="5.5355">
        <ele>1035.1</ele>
        <time>2015-06-11T16:32:38Z</time>
      </trkpt>
      <trkpt lat="45.1771" lon="5.53553">
        <ele>1035.4</ele>
        <time>2015-06-11T16:32:39Z</time>
      </trkpt>
      <trkpt lat="45.17709" lon="5.53556">
        <ele>1035.7</ele>
        <time>2015-06-11T16:32:40Z</time>
      </trkpt>
      <trkpt lat="45.17708" lon="5.53559">
        <ele>1036</ele>
        <time>2015-06-11T16:32:41Z</time>
      </trkpt>
      <trkpt lat="45.17707" lon="5.53562">
        <ele>1036.3</ele>
        <time>2015-06-11T16:32:42Z</time>
      </trkpt>
      <trkpt lat="45.17706" lon="5.53566">
        <ele>1036.6</ele>
        <time>2015-06-11T16:32:43Z</time>
      </trkpt>
      <trkpt lat="45.17704" lon="5.53569">
        <ele>1036.9</ele>
        <time>2015-06-11T16:32:44Z</time>
      </trkpt>
      <trkpt lat="45.17703" lon="5.53572">
        <ele>1037.1</ele>
        <time>2015-06-11T16:32:45Z</time>
      </trkpt>
      <trkpt lat="45.17701" lon="5.53574">
        <ele>1037.3</ele>
        <time>2015-06-11T16:32:46Z</time>
      </trkpt>
      <trkpt lat="45.17699" lon="5.53577">
        <ele>1037.5</ele>
        <time>2015-06-11T16:32:47Z</time>
      </trkpt>
      <trkpt lat="45.17698" lon="5.5358">
        <ele>1037.8</ele>
        <time>2015-06-11T16:32:48Z</time>
      </trkpt>
      <trkpt lat="45.17697" lon="5.53583">
        <ele>1038</ele>
        <time>2015-06-11T16:32:49Z</time>
      </trkpt>
      <trkpt lat="45.17696" lon="5.53587">
        <ele>1038.3</ele>
        <time>2015-06-11T16:32:50Z</time>
      </trkpt>
      <trkpt lat="45.17694" lon="5.5359">
        <ele>1038.6</ele>
        <time>2015-06-11T16:32:51Z</time>
      </trkpt>
      <trkpt lat="45.17693" lon="5.53593">
        <ele>1038.8</ele>
        <time>2015-06-11T16:32:52Z</time>
      </trkpt>
      <trkpt lat="45.17691" lon="5.53596">
        <ele>1039.1</ele>
        <time>2015-06-11T16:32:53Z</time>
      </trkpt>
      <trkpt lat="45.1769" lon="5.53599">
        <ele>1039.3</ele>
        <time>2015-06-11T16:32:54Z</time>
      </trkpt>
      <trkpt lat="45.17688" lon="5.53602">
        <ele>1039.6</ele>
        <time>2015-06-11T16:32:55Z</time>
      </trkpt>
      <trkpt lat="45.17687" lon="5.53606">
        <ele>1039.9</ele>
        <time>2015-06-11T16:32:56Z</time>
      </trkpt>
      <trkpt lat="45.17685" lon="5.5361">
        <ele>1040.1</ele>
        <time>2015-06-11T16:32:57Z</time>
      </trkpt>
      <trkpt lat="45.17683" lon="5.53613">
        <ele>1040.5</ele>
        <time>2015-06-11T16:32:58Z</time>
      </trkpt>
      <trkpt lat="45.17682" lon="5.53617">
        <ele>1040.8</ele>
        <time>2015-06-11T16:32:59Z</time>
      </trkpt>
      <trkpt lat="45.1768" lon="5.53621">
        <ele>1041.1</ele>
        <time>2015-06-11T16:33:00Z</time>
      </trkpt>
      <trkpt lat="45.17679" lon="5.53625">
        <ele>1041.4</ele>
        <time>2015-06-11T16:33:01Z</time>
      </trkpt>
      <trkpt lat="45.17677" lon="5.53628">
        <ele>1041.6</ele>
        <time>2015-06-11T16:33:02Z</time>
      </trkpt>
      <trkpt lat="45.17675" lon="5.53631">
        <ele>1041.8</ele>
        <time>2015-06-11T16:33:03Z</time>
      </trkpt>
      <trkpt lat="45.17674" lon="5.53634">
        <ele>1041.9</ele>
        <time>2015-06-11T16:33:04Z</time>
      </trkpt>
      <trkpt lat="45.17674" lon="5.53638">
        <ele>1042.2</ele>
        <time>2015-06-11T16:33:05Z</time>
      </trkpt>
      <trkpt lat="45.17673" lon="5.53642">
        <ele>1042.5</ele>
        <time>2015-06-11T16:33:06Z</time>
      </trkpt>
      <trkpt lat="45.17672" lon="5.53646">
        <ele>1042.8</ele>
        <time>2015-06-11T16:33:07Z</time>
      </trkpt>
      <trkpt lat="45.17672" lon="5.53649">
        <ele>1043.1</ele>
        <time>2015-06-11T16:33:08Z</time>
      </trkpt>
      <trkpt lat="45.17672" lon="5.53653">
        <ele>1043.4</ele>
        <time>2015-06-11T16:33:09Z</time>
      </trkpt>
      <trkpt lat="45.17673" lon="5.53657">
        <ele>1043.7</ele>
        <time>2015-06-11T16:33:10Z</time>
      </trkpt>
      <trkpt lat="45.17673" lon="5.5366">
        <ele>1044</ele>
        <time>2015-06-11T16:33:11Z</time>
      </trkpt>
      <trkpt lat="45.17672" lon="5.53664">
        <ele>1044.3</ele>
        <time>2015-06-11T16:33:12Z</time>
      </trkpt>
      <trkpt lat="45.17672" lon="5.53669">
        <ele>1044.7</ele>
        <time>2015-06-11T16:33:13Z</time>
      </trkpt>
      <trkpt lat="45.17672" lon="5.53673">
        <ele>1045</ele>
        <time>2015-06-11T16:33:14Z</time>
      </trkpt>
      <trkpt lat="45.17672" lon="5.53676">
        <ele>1045.4</ele>
        <time>2015-06-11T16:33:15Z</time>
      </trkpt>
      <trkpt lat="45.17672" lon="5.5368">
        <ele>1045.7</ele>
        <time>2015-06-11T16:33:16Z</time>
      </trkpt>
      <trkpt lat="45.17671" lon="5.53683">
        <ele>1045.9</ele>
        <time>2015-06-11T16:33:17Z</time>
      </trkpt>
      <trkpt lat="45.1767" lon="5.53687">
        <ele>1046.2</ele>
        <time>2015-06-11T16:33:18Z</time>
      </trkpt>
      <trkpt lat="45.17669" lon="5.5369">
        <ele>1046.5</ele>
        <time>2015-06-11T16:33:19Z</time>
      </trkpt>
      <trkpt lat="45.17668" lon="5.53694">
        <ele>1046.8</ele>
        <time>2015-06-11T16:33:20Z</time>
      </trkpt>
      <trkpt lat="45.17667" lon="5.53698">
        <ele>1047.1</ele>
        <time>2015-06-11T16:33:21Z</time>
      </trkpt>
      <trkpt lat="45.17666" lon="5.53701">
        <ele>1047.3</ele>
        <time>2015-06-11T16:33:22Z</time>
      </trkpt>
      <trkpt lat="45.17666" lon="5.53705">
        <ele>1047.6</ele>
        <time>2015-06-11T16:33:23Z</time>
      </trkpt>
      <trkpt lat="45.17664" lon="5.53708">
        <ele>1047.9</ele>
        <time>2015-06-11T16:33:24Z</time>
      </trkpt>
      <trkpt lat="45.17663" lon="5.53711">
        <ele>1047.8</ele>
        <time>2015-06-11T16:33:25Z</time>
      </trkpt>
      <trkpt lat="45.17662" lon="5.53715">
        <ele>1047.6</ele>
        <time>2015-06-11T16:33:26Z</time>
      </trkpt>
      <trkpt lat="45.17661" lon="5.53718">
        <ele>1047.5</ele>
        <time>2015-06-11T16:33:27Z</time>
      </trkpt>
      <trkpt lat="45.1766" lon="5.53722">
        <ele>1047.3</ele>
        <time>2015-06-11T16:33:28Z</time>
      </trkpt>
      <trkpt lat="45.17659" lon="5.53726">
        <ele>1047.1</ele>
        <time>2015-06-11T16:33:29Z</time>
      </trkpt>
      <trkpt lat="45.17658" lon="5.53729">
        <ele>1046.9</ele>
        <time>2015-06-11T16:33:30Z</time>
      </trkpt>
      <trkpt lat="45.17657" lon="5.53732">
        <ele>1046.8</ele>
        <time>2015-06-11T16:33:31Z</time>
      </trkpt>
      <trkpt lat="45.17656" lon="5.53735">
        <ele>1046.6</ele>
        <time>2015-06-11T16:33:32Z</time>
      </trkpt>
      <trkpt lat="45.17655" lon="5.53738">
        <ele>1046.4</ele>
        <time>2015-06-11T16:33:33Z</time>
      </trkpt>
      <trkpt lat="45.17654" lon="5.53742">
        <ele>1046.2</ele>
        <time>2015-06-11T16:33:34Z</time>
      </trkpt>
      <trkpt lat="45.17653" lon="5.53745">
        <ele>1046</ele>
        <time>2015-06-11T16:33:35Z</time>
      </trkpt>
      <trkpt lat="45.17652" lon="5.53749">
        <ele>1045.8</ele>
        <time>2015-06-11T16:33:36Z</time>
      </trkpt>
      <trkpt lat="45.17651" lon="5.53752">
        <ele>1045.7</ele>
        <time>2015-06-11T16:33:37Z</time>
      </trkpt>
      <trkpt lat="45.1765" lon="5.53755">
        <ele>1045.5</ele>
        <time>2015-06-11T16:33:38Z</time>
      </trkpt>
      <trkpt lat="45.1765" lon="5.53758">
        <ele>1045.3</ele>
        <time>2015-06-11T16:33:39Z</time>
      </trkpt>
      <trkpt lat="45.17649" lon="5.53761">
        <ele>1045.1</ele>
        <time>2015-06-11T16:33:40Z</time>
      </trkpt>
      <trkpt lat="45.17649" lon="5.53765">
        <ele>1045</ele>
        <time>2015-06-11T16:33:41Z</time>
      </trkpt>
      <trkpt lat="45.17648" lon="5.53768">
        <ele>1044.8</ele>
        <time>2015-06-11T16:33:42Z</time>
      </trkpt>
      <trkpt lat="45.17648" lon="5.53772">
        <ele>1044.6</ele>
        <time>2015-06-11T16:33:43Z</time>
      </trkpt>
      <trkpt lat="45.17647" lon="5.53776">
        <ele>1044.3</ele>
        <time>2015-06-11T16:33:44Z</time>
      </trkpt>
      <trkpt lat="45.17646" lon="5.5378">
        <ele>1044.1</ele>
        <time>2015-06-11T16:33:45Z</time>
      </trkpt>
      <trkpt lat="45.17646" lon="5.53784">
        <ele>1043.9</ele>
        <time>2015-06-11T16:33:46Z</time>
      </trkpt>
      <trkpt lat="45.17645" lon="5.53788">
        <ele>1043.6</ele>
        <time>2015-06-11T16:33:47Z</time>
      </trkpt>
      <trkpt lat="45.17645" lon="5.53792">
        <ele>1043.5</ele>
        <time>2015-06-11T16:33:48Z</time>
      </trkpt>
      <trkpt lat="45.17645" lon="5.53796">
        <ele>1043.2</ele>
        <time>2015-06-11T16:33:49Z</time>
      </trkpt>
      <trkpt lat="45.17645" lon="5.538">
        <ele>1042.9</ele>
        <time>2015-06-11T16:33:50Z</time>
      </trkpt>
      <trkpt lat="45.17645" lon="5.53804">
        <ele>1042.6</ele>
        <time>2015-06-11T16:33:51Z</time>
      </trkpt>
      <trkpt lat="45.17645" lon="5.53808">
        <ele>1042.3</ele>
        <time>2015-06-11T16:33:52Z</time>
      </trkpt>
      <trkpt lat="45.17645" lon="5.53812">
        <ele>1042</ele>
        <time>2015-06-11T16:33:53Z</time>
      </trkpt>
      <trkpt lat="45.17645" lon="5.53816">
        <ele>1041.7</ele>
        <time>2015-06-11T16:33:54Z</time>
      </trkpt>
      <trkpt lat="45.17643" lon="5.5382">
        <ele>1041.3</ele>
        <time>2015-06-11T16:33:55Z</time>
      </trkpt>
      <trkpt lat="45.17642" lon="5.53824">
        <ele>1040.9</ele>
        <time>2015-06-11T16:33:56Z</time>
      </trkpt>
      <trkpt lat="45.17641" lon="5.53828">
        <ele>1040.5</ele>
        <time>2015-06-11T16:33:57Z</time>
      </trkpt>
      <trkpt lat="45.1764" lon="5.53832">
        <ele>1040.2</ele>
        <time>2015-06-11T16:33:58Z</time>
      </trkpt>
      <trkpt lat="45.17639" lon="5.53835">
        <ele>1039.9</ele>
        <time>2015-06-11T16:33:59Z</time>
      </trkpt>
      <trkpt lat="45.17638" lon="5.53839">
        <ele>1039.5</ele>
        <time>2015-06-11T16:34:00Z</time>
      </trkpt>
      <trkpt lat="45.17637" lon="5.53842">
        <ele>1039.2</ele>
        <time>2015-06-11T16:34:01Z</time>
      </trkpt>
      <trkpt lat="45.17635" lon="5.53846">
        <ele>1038.8</ele>
        <time>2015-06-11T16:34:02Z</time>
      </trkpt>
      <trkpt lat="45.17633" lon="5.53849">
        <ele>1038.4</ele>
        <time>2015-06-11T16:34:03Z</time>
      </trkpt>
      <trkpt lat="45.17632" lon="5.53853">
        <ele>1038.1</ele>
        <time>2015-06-11T16:34:04Z</time>
      </trkpt>
      <trkpt lat="45.17631" lon="5.53856">
        <ele>1037.8</ele>
        <time>2015-06-11T16:34:05Z</time>
      </trkpt>
      <trkpt lat="45.17629" lon="5.5386">
        <ele>1037.4</ele>
        <time>2015-06-11T16:34:06Z</time>
      </trkpt>
      <trkpt lat="45.17628" lon="5.53863">
        <ele>1037</ele>
        <time>2015-06-11T16:34:07Z</time>
      </trkpt>
      <trkpt lat="45.17627" lon="5.53867">
        <ele>1036.7</ele>
        <time>2015-06-11T16:34:08Z</time>
      </trkpt>
      <trkpt lat="45.17625" lon="5.5387">
        <ele>1036.4</ele>
        <time>2015-06-11T16:34:09Z</time>
      </trkpt>
      <trkpt lat="45.17624" lon="5.53874">
        <ele>1036.1</ele>
        <time>2015-06-11T16:34:10Z</time>
      </trkpt>
      <trkpt lat="45.17623" lon="5.53877">
        <ele>1035.9</ele>
        <time>2015-06-11T16:34:11Z</time>
      </trkpt>
      <trkpt lat="45.17622" lon="5.5388">
        <ele>1035.9</ele>
        <time>2015-06-11T16:34:12Z</time>
      </trkpt>
      <trkpt lat="45.17621" lon="5.53884">
        <ele>1035.9</ele>
        <time>2015-06-11T16:34:13Z</time>
      </trkpt>
      <trkpt lat="45.17619" lon="5.53888">
        <ele>1035.9</ele>
        <time>2015-06-11T16:34:14Z</time>
      </trkpt>
      <trkpt lat="45.17618" lon="5.53891">
        <ele>1035.8</ele>
        <time>2015-06-11T16:34:15Z</time>
      </trkpt>
      <trkpt lat="45.17617" lon="5.53895">
        <ele>1035.8</ele>
        <time>2015-06-11T16:34:16Z</time>
      </trkpt>
      <trkpt lat="45.17615" lon="5.53898">
        <ele>1035.8</ele>
        <time>2015-06-11T16:34:17Z</time>
      </trkpt>
      <trkpt lat="45.17614" lon="5.53901">
        <ele>1035.8</ele>
        <time>2015-06-11T16:34:18Z</time>
      </trkpt>
      <trkpt lat="45.17613" lon="5.53904">
        <ele>1035.8</ele>
        <time>2015-06-11T16:34:19Z</time>
      </trkpt>
      <trkpt lat="45.17611" lon="5.53907">
        <ele>1035.7</ele>
        <time>2015-06-11T16:34:20Z</time>
      </trkpt>
      <trkpt lat="45.1761" lon="5.53911">
        <ele>1035.7</ele>
        <time>2015-06-11T16:34:21Z</time>
      </trkpt>
      <trkpt lat="45.17609" lon="5.53914">
        <ele>1035.7</ele>
        <time>2015-06-11T16:34:22Z</time>
      </trkpt>
      <trkpt lat="45.17608" lon="5.53918">
        <ele>1035.7</ele>
        <time>2015-06-11T16:34:23Z</time>
      </trkpt>
      <trkpt lat="45.17607" lon="5.53921">
        <ele>1035.7</ele>
        <time>2015-06-11T16:34:24Z</time>
      </trkpt>
      <trkpt lat="45.17606" lon="5.53924">
        <ele>1035.7</ele>
        <time>2015-06-11T16:34:25Z</time>
      </trkpt>
      <trkpt lat="45.17604" lon="5.53928">
        <ele>1035.7</ele>
        <time>2015-06-11T16:34:26Z</time>
      </trkpt>
      <trkpt lat="45.17603" lon="5.53931">
        <ele>1035.7</ele>
        <time>2015-06-11T16:34:27Z</time>
      </trkpt>
      <trkpt lat="45.17602" lon="5.53934">
        <ele>1035.6</ele>
        <time>2015-06-11T16:34:28Z</time>
      </trkpt>
      <trkpt lat="45.17601" lon="5.53938">
        <ele>1035.6</ele>
        <time>2015-06-11T16:34:29Z</time>
      </trkpt>
      <trkpt lat="45.176" lon="5.53941">
        <ele>1035.6</ele>
        <time>2015-06-11T16:34:30Z</time>
      </trkpt>
      <trkpt lat="45.17599" lon="5.53944">
        <ele>1035.6</ele>
        <time>2015-06-11T16:34:31Z</time>
      </trkpt>
      <trkpt lat="45.17598" lon="5.53948">
        <ele>1035.6</ele>
        <time>2015-06-11T16:34:32Z</time>
      </trkpt>
      <trkpt lat="45.17597" lon="5.53951">
        <ele>1035.6</ele>
        <time>2015-06-11T16:34:33Z</time>
      </trkpt>
      <trkpt lat="45.17596" lon="5.53954">
        <ele>1035.6</ele>
        <time>2015-06-11T16:34:34Z</time>
      </trkpt>
      <trkpt lat="45.17595" lon="5.53957">
        <ele>1035.6</ele>
        <time>2015-06-11T16:34:35Z</time>
      </trkpt>
      <trkpt lat="45.17593" lon="5.53959">
        <ele>1035.6</ele>
        <time>2015-06-11T16:34:36Z</time>
      </trkpt>
      <trkpt lat="45.17592" lon="5.53961">
        <ele>1035.7</ele>
        <time>2015-06-11T16:34:37Z</time>
      </trkpt>
      <trkpt lat="45.1759" lon="5.53963">
        <ele>1035.8</ele>
        <time>2015-06-11T16:34:38Z</time>
      </trkpt>
      <trkpt lat="45.17587" lon="5.53965">
        <ele>1035.8</ele>
        <time>2015-06-11T16:34:39Z</time>
      </trkpt>
      <trkpt lat="45.17585" lon="5.53966">
        <ele>1035.8</ele>
        <time>2015-06-11T16:34:40Z</time>
      </trkpt>
      <trkpt lat="45.17582" lon="5.53966">
        <ele>1035.8</ele>
        <time>2015-06-11T16:34:41Z</time>
      </trkpt>
      <trkpt lat="45.1758" lon="5.53966">
        <ele>1035.7</ele>
        <time>2015-06-11T16:34:42Z</time>
      </trkpt>
      <trkpt lat="45.17577" lon="5.53965">
        <ele>1035.7</ele>
        <time>2015-06-11T16:34:43Z</time>
      </trkpt>
      <trkpt lat="45.17574" lon="5.53965">
        <ele>1035.6</ele>
        <time>2015-06-11T16:34:44Z</time>
      </trkpt>
      <trkpt lat="45.17572" lon="5.53964">
        <ele>1035.5</ele>
        <time>2015-06-11T16:34:45Z</time>
      </trkpt>
      <trkpt lat="45.17569" lon="5.53963">
        <ele>1035.5</ele>
        <time>2015-06-11T16:34:46Z</time>
      </trkpt>
      <trkpt lat="45.17567" lon="5.53963">
        <ele>1035.4</ele>
        <time>2015-06-11T16:34:47Z</time>
      </trkpt>
      <trkpt lat="45.17564" lon="5.53962">
        <ele>1035.4</ele>
        <time>2015-06-11T16:34:48Z</time>
      </trkpt>
      <trkpt lat="45.17562" lon="5.53962">
        <ele>1035.3</ele>
        <time>2015-06-11T16:34:49Z</time>
      </trkpt>
      <trkpt lat="45.17559" lon="5.53962">
        <ele>1035.3</ele>
        <time>2015-06-11T16:34:50Z</time>
      </trkpt>
      <trkpt lat="45.17557" lon="5.53962">
        <ele>1035.3</ele>
        <time>2015-06-11T16:34:51Z</time>
      </trkpt>
      <trkpt lat="45.17554" lon="5.53962">
        <ele>1035.3</ele>
        <time>2015-06-11T16:34:52Z</time>
      </trkpt>
      <trkpt lat="45.17552" lon="5.53963">
        <ele>1035.3</ele>
        <time>2015-06-11T16:34:53Z</time>
      </trkpt>
      <trkpt lat="45.1755" lon="5.53965">
        <ele>1035.3</ele>
        <time>2015-06-11T16:34:54Z</time>
      </trkpt>
      <trkpt lat="45.17548" lon="5.53967">
        <ele>1035.3</ele>
        <time>2015-06-11T16:34:55Z</time>
      </trkpt>
      <trkpt lat="45.17546" lon="5.53969">
        <ele>1035.3</ele>
        <time>2015-06-11T16:34:56Z</time>
      </trkpt>
      <trkpt lat="45.17544" lon="5.53972">
        <ele>1035.3</ele>
        <time>2015-06-11T16:34:57Z</time>
      </trkpt>
      <trkpt lat="45.17542" lon="5.53974">
        <ele>1035.4</ele>
        <time>2015-06-11T16:34:58Z</time>
      </trkpt>
      <trkpt lat="45.17541" lon="5.53978">
        <ele>1035.5</ele>
        <time>2015-06-11T16:34:59Z</time>
      </trkpt>
      <trkpt lat="45.1754" lon="5.53981">
        <ele>1035.5</ele>
        <time>2015-06-11T16:35:00Z</time>
      </trkpt>
      <trkpt lat="45.17539" lon="5.53984">
        <ele>1035.6</ele>
        <time>2015-06-11T16:35:01Z</time>
      </trkpt>
      <trkpt lat="45.17537" lon="5.53988">
        <ele>1035.7</ele>
        <time>2015-06-11T16:35:02Z</time>
      </trkpt>
      <trkpt lat="45.17536" lon="5.53991">
        <ele>1035.8</ele>
        <time>2015-06-11T16:35:03Z</time>
      </trkpt>
      <trkpt lat="45.17535" lon="5.53994">
        <ele>1035.9</ele>
        <time>2015-06-11T16:35:04Z</time>
      </trkpt>
      <trkpt lat="45.17534" lon="5.53998">
        <ele>1035.9</ele>
        <time>2015-06-11T16:35:05Z</time>
      </trkpt>
      <trkpt lat="45.17534" lon="5.54001">
        <ele>1036</ele>
        <time>2015-06-11T16:35:06Z</time>
      </trkpt>
      <trkpt lat="45.17532" lon="5.54005">
        <ele>1036.1</ele>
        <time>2015-06-11T16:35:07Z</time>
      </trkpt>
      <trkpt lat="45.17532" lon="5.54008">
        <ele>1036.2</ele>
        <time>2015-06-11T16:35:08Z</time>
      </trkpt>
      <trkpt lat="45.1753" lon="5.54012">
        <ele>1036.3</ele>
        <time>2015-06-11T16:35:09Z</time>
      </trkpt>
      <trkpt lat="45.17529" lon="5.54016">
        <ele>1036.4</ele>
        <time>2015-06-11T16:35:10Z</time>
      </trkpt>
      <trkpt lat="45.17528" lon="5.5402">
        <ele>1036.5</ele>
        <time>2015-06-11T16:35:11Z</time>
      </trkpt>
      <trkpt lat="45.17527" lon="5.54024">
        <ele>1036.6</ele>
        <time>2015-06-11T16:35:12Z</time>
      </trkpt>
      <trkpt lat="45.17526" lon="5.54028">
        <ele>1036.7</ele>
        <time>2015-06-11T16:35:13Z</time>
      </trkpt>
      <trkpt lat="45.17524" lon="5.54032">
        <ele>1036.8</ele>
        <time>2015-06-11T16:35:14Z</time>
      </trkpt>
      <trkpt lat="45.17523" lon="5.54035">
        <ele>1036.8</ele>
        <time>2015-06-11T16:35:15Z</time>
      </trkpt>
      <trkpt lat="45.17522" lon="5.54039">
        <ele>1036.9</ele>
        <time>2015-06-11T16:35:16Z</time>
      </trkpt>
      <trkpt lat="45.17521" lon="5.54042">
        <ele>1037</ele>
        <time>2015-06-11T16:35:17Z</time>
      </trkpt>
      <trkpt lat="45.17519" lon="5.54045">
        <ele>1037.2</ele>
        <time>2015-06-11T16:35:18Z</time>
      </trkpt>
      <trkpt lat="45.17519" lon="5.54047">
        <ele>1037.3</ele>
        <time>2015-06-11T16:35:19Z</time>
      </trkpt>
      <trkpt lat="45.17518" lon="5.5405">
        <ele>1037.4</ele>
        <time>2015-06-11T16:35:20Z</time>
      </trkpt>
      <trkpt lat="45.17517" lon="5.54052">
        <ele>1037.6</ele>
        <time>2015-06-11T16:35:21Z</time>
      </trkpt>
      <trkpt lat="45.17516" lon="5.54055">
        <ele>1037.7</ele>
        <time>2015-06-11T16:35:22Z</time>
      </trkpt>
      <trkpt lat="45.17515" lon="5.54058">
        <ele>1037.8</ele>
        <time>2015-06-11T16:35:23Z</time>
      </trkpt>
      <trkpt lat="45.17514" lon="5.54061">
        <ele>1038</ele>
        <time>2015-06-11T16:35:24Z</time>
      </trkpt>
      <trkpt lat="45.17513" lon="5.54064">
        <ele>1038.1</ele>
        <time>2015-06-11T16:35:25Z</time>
      </trkpt>
      <trkpt lat="45.17512" lon="5.54067">
        <ele>1038.3</ele>
        <time>2015-06-11T16:35:26Z</time>
      </trkpt>
      <trkpt lat="45.17511" lon="5.5407">
        <ele>1038.4</ele>
        <time>2015-06-11T16:35:27Z</time>
      </trkpt>
      <trkpt lat="45.1751" lon="5.54073">
        <ele>1038.6</ele>
        <time>2015-06-11T16:35:28Z</time>
      </trkpt>
      <trkpt lat="45.1751" lon="5.54076">
        <ele>1038.7</ele>
        <time>2015-06-11T16:35:29Z</time>
      </trkpt>
      <trkpt lat="45.17508" lon="5.54079">
        <ele>1038.9</ele>
        <time>2015-06-11T16:35:30Z</time>
      </trkpt>
      <trkpt lat="45.17508" lon="5.54082">
        <ele>1039</ele>
        <time>2015-06-11T16:35:31Z</time>
      </trkpt>
      <trkpt lat="45.17507" lon="5.54084">
        <ele>1039.1</ele>
        <time>2015-06-11T16:35:32Z</time>
      </trkpt>
    </trkseg>
  </trk>
</gpx>